<?xml version="1.0" encoding="UTF-8" standalone="no" ?>
<gpx xmlns="http://www.topografix.com/GPX/1/1" xmlns:xsi="http://www.w3.org/2001/XMLSchema-instance" xsi:schemaLocation="http://www.topografix.com/GPX/1/1 http://www.topografix.com/GPX/1/1/gpx.xsd" version="1.1" creator="VisuGPX - https://www.visugpx.com">
  <metadata>
    <name>Pornichet 07/02/2021</name>
    <desc><![CDATA[Sortie VTT du dimanche 07 février 2021]]></desc>
  </metadata>
  <trk>
    <name><![CDATA[Pornichet Cyclisme]]></name>
    <trkseg>
      <trkpt lat="47.26397" lon="-2.31572">
        <ele>38.599998474121</ele>
        <time>2021-02-07T08:22:05.000Z</time>
      </trkpt>
      <trkpt lat="47.26397" lon="-2.31589">
        <ele>38.599998474121</ele>
        <time>2021-02-07T08:22:08.000Z</time>
      </trkpt>
      <trkpt lat="47.26396" lon="-2.31594">
        <ele>38.200000762939</ele>
        <time>2021-02-07T08:22:09.000Z</time>
      </trkpt>
      <trkpt lat="47.26396" lon="-2.31599">
        <ele>37.400001525879</ele>
        <time>2021-02-07T08:22:10.000Z</time>
      </trkpt>
      <trkpt lat="47.26396" lon="-2.3162">
        <ele>37.400001525879</ele>
        <time>2021-02-07T08:22:14.000Z</time>
      </trkpt>
      <trkpt lat="47.26398" lon="-2.31657">
        <ele>37.400001525879</ele>
        <time>2021-02-07T08:22:21.000Z</time>
      </trkpt>
      <trkpt lat="47.26396" lon="-2.3166">
        <ele>37.400001525879</ele>
        <time>2021-02-07T08:22:22.000Z</time>
      </trkpt>
      <trkpt lat="47.26391" lon="-2.31665">
        <ele>37.400001525879</ele>
        <time>2021-02-07T08:22:25.000Z</time>
      </trkpt>
      <trkpt lat="47.26389" lon="-2.31666">
        <ele>37.400001525879</ele>
        <time>2021-02-07T08:22:26.000Z</time>
      </trkpt>
      <trkpt lat="47.26376" lon="-2.31675">
        <ele>37.400001525879</ele>
        <time>2021-02-07T08:22:31.000Z</time>
      </trkpt>
      <trkpt lat="47.26359" lon="-2.31682">
        <ele>37.400001525879</ele>
        <time>2021-02-07T08:22:36.000Z</time>
      </trkpt>
      <trkpt lat="47.26352" lon="-2.31686">
        <ele>37.400001525879</ele>
        <time>2021-02-07T08:22:38.000Z</time>
      </trkpt>
      <trkpt lat="47.26336" lon="-2.31694">
        <ele>37.400001525879</ele>
        <time>2021-02-07T08:22:42.000Z</time>
      </trkpt>
      <trkpt lat="47.26331" lon="-2.317">
        <ele>37.200000762939</ele>
        <time>2021-02-07T08:22:44.000Z</time>
      </trkpt>
      <trkpt lat="47.26327" lon="-2.31707">
        <ele>36.799999237061</ele>
        <time>2021-02-07T08:22:45.000Z</time>
      </trkpt>
      <trkpt lat="47.26327" lon="-2.31707">
        <ele>36.799999237061</ele>
        <time>2021-02-07T08:22:46.000Z</time>
      </trkpt>
      <trkpt lat="47.26326" lon="-2.3171">
        <ele>36.599998474121</ele>
        <time>2021-02-07T08:22:47.000Z</time>
      </trkpt>
      <trkpt lat="47.26325" lon="-2.31711">
        <ele>36.400001525879</ele>
        <time>2021-02-07T08:22:48.000Z</time>
      </trkpt>
      <trkpt lat="47.26322" lon="-2.31714">
        <ele>36.400001525879</ele>
        <time>2021-02-07T08:22:50.000Z</time>
      </trkpt>
      <trkpt lat="47.26311" lon="-2.31721">
        <ele>36</ele>
        <time>2021-02-07T08:22:54.000Z</time>
      </trkpt>
      <trkpt lat="47.26308" lon="-2.31724">
        <ele>35.599998474121</ele>
        <time>2021-02-07T08:22:55.000Z</time>
      </trkpt>
      <trkpt lat="47.26303" lon="-2.31727">
        <ele>35.200000762939</ele>
        <time>2021-02-07T08:22:56.000Z</time>
      </trkpt>
      <trkpt lat="47.26303" lon="-2.31733">
        <ele>34.799999237061</ele>
        <time>2021-02-07T08:22:57.000Z</time>
      </trkpt>
      <trkpt lat="47.26302" lon="-2.31739">
        <ele>34.400001525879</ele>
        <time>2021-02-07T08:22:58.000Z</time>
      </trkpt>
      <trkpt lat="47.26303" lon="-2.31745">
        <ele>34.400001525879</ele>
        <time>2021-02-07T08:22:59.000Z</time>
      </trkpt>
      <trkpt lat="47.26304" lon="-2.3175">
        <ele>34.400001525879</ele>
        <time>2021-02-07T08:23:00.000Z</time>
      </trkpt>
      <trkpt lat="47.26305" lon="-2.31756">
        <ele>34.400001525879</ele>
        <time>2021-02-07T08:23:01.000Z</time>
      </trkpt>
      <trkpt lat="47.26305" lon="-2.31767">
        <ele>34.400001525879</ele>
        <time>2021-02-07T08:23:03.000Z</time>
      </trkpt>
      <trkpt lat="47.26309" lon="-2.31788">
        <ele>34.400001525879</ele>
        <time>2021-02-07T08:23:07.000Z</time>
      </trkpt>
      <trkpt lat="47.26308" lon="-2.31816">
        <ele>34.400001525879</ele>
        <time>2021-02-07T08:23:12.000Z</time>
      </trkpt>
      <trkpt lat="47.26302" lon="-2.31856">
        <ele>34.400001525879</ele>
        <time>2021-02-07T08:23:19.000Z</time>
      </trkpt>
      <trkpt lat="47.26297" lon="-2.31882">
        <ele>34.400001525879</ele>
        <time>2021-02-07T08:23:25.000Z</time>
      </trkpt>
      <trkpt lat="47.26295" lon="-2.31893">
        <ele>34.400001525879</ele>
        <time>2021-02-07T08:23:29.000Z</time>
      </trkpt>
      <trkpt lat="47.26293" lon="-2.31894">
        <ele>34.400001525879</ele>
        <time>2021-02-07T08:23:30.000Z</time>
      </trkpt>
      <trkpt lat="47.26288" lon="-2.31899">
        <ele>34.400001525879</ele>
        <time>2021-02-07T08:23:33.000Z</time>
      </trkpt>
      <trkpt lat="47.26282" lon="-2.31908">
        <ele>34.400001525879</ele>
        <time>2021-02-07T08:23:36.000Z</time>
      </trkpt>
      <trkpt lat="47.26272" lon="-2.31921">
        <ele>34.400001525879</ele>
        <time>2021-02-07T08:23:40.000Z</time>
      </trkpt>
      <trkpt lat="47.26264" lon="-2.31936">
        <ele>34.400001525879</ele>
        <time>2021-02-07T08:23:44.000Z</time>
      </trkpt>
      <trkpt lat="47.26262" lon="-2.31939">
        <ele>34.400001525879</ele>
        <time>2021-02-07T08:23:45.000Z</time>
      </trkpt>
      <trkpt lat="47.26259" lon="-2.31943">
        <ele>34</ele>
        <time>2021-02-07T08:23:47.000Z</time>
      </trkpt>
      <trkpt lat="47.26258" lon="-2.31947">
        <ele>33.599998474121</ele>
        <time>2021-02-07T08:23:48.000Z</time>
      </trkpt>
      <trkpt lat="47.26257" lon="-2.3195">
        <ele>33.200000762939</ele>
        <time>2021-02-07T08:23:49.000Z</time>
      </trkpt>
      <trkpt lat="47.26256" lon="-2.31953">
        <ele>32.799999237061</ele>
        <time>2021-02-07T08:23:50.000Z</time>
      </trkpt>
      <trkpt lat="47.26254" lon="-2.31956">
        <ele>32.400001525879</ele>
        <time>2021-02-07T08:23:51.000Z</time>
      </trkpt>
      <trkpt lat="47.26247" lon="-2.3197">
        <ele>32.400001525879</ele>
        <time>2021-02-07T08:23:56.000Z</time>
      </trkpt>
      <trkpt lat="47.26243" lon="-2.31974">
        <ele>32.400001525879</ele>
        <time>2021-02-07T08:23:59.000Z</time>
      </trkpt>
      <trkpt lat="47.2624" lon="-2.31973">
        <ele>32.400001525879</ele>
        <time>2021-02-07T08:24:01.000Z</time>
      </trkpt>
      <trkpt lat="47.26236" lon="-2.31973">
        <ele>32.400001525879</ele>
        <time>2021-02-07T08:24:03.000Z</time>
      </trkpt>
      <trkpt lat="47.2623" lon="-2.31979">
        <ele>32.400001525879</ele>
        <time>2021-02-07T08:24:06.000Z</time>
      </trkpt>
      <trkpt lat="47.26227" lon="-2.31985">
        <ele>32.400001525879</ele>
        <time>2021-02-07T08:24:08.000Z</time>
      </trkpt>
      <trkpt lat="47.26215" lon="-2.32">
        <ele>32.400001525879</ele>
        <time>2021-02-07T08:24:14.000Z</time>
      </trkpt>
      <trkpt lat="47.26208" lon="-2.32011">
        <ele>32.400001525879</ele>
        <time>2021-02-07T08:24:19.000Z</time>
      </trkpt>
      <trkpt lat="47.26203" lon="-2.32024">
        <ele>32.400001525879</ele>
        <time>2021-02-07T08:24:25.000Z</time>
      </trkpt>
      <trkpt lat="47.26202" lon="-2.32025">
        <ele>32.400001525879</ele>
        <time>2021-02-07T08:24:26.000Z</time>
      </trkpt>
      <trkpt lat="47.2619" lon="-2.32022">
        <ele>32.400001525879</ele>
        <time>2021-02-07T08:24:31.000Z</time>
      </trkpt>
      <trkpt lat="47.26185" lon="-2.32025">
        <ele>32.400001525879</ele>
        <time>2021-02-07T08:24:33.000Z</time>
      </trkpt>
      <trkpt lat="47.26173" lon="-2.32033">
        <ele>32.400001525879</ele>
        <time>2021-02-07T08:24:37.000Z</time>
      </trkpt>
      <trkpt lat="47.26165" lon="-2.32041">
        <ele>32.400001525879</ele>
        <time>2021-02-07T08:24:39.000Z</time>
      </trkpt>
      <trkpt lat="47.26159" lon="-2.32052">
        <ele>32.400001525879</ele>
        <time>2021-02-07T08:24:41.000Z</time>
      </trkpt>
      <trkpt lat="47.26145" lon="-2.32087">
        <ele>32.400001525879</ele>
        <time>2021-02-07T08:24:47.000Z</time>
      </trkpt>
      <trkpt lat="47.26132" lon="-2.32132">
        <ele>32.400001525879</ele>
        <time>2021-02-07T08:24:54.000Z</time>
      </trkpt>
      <trkpt lat="47.26125" lon="-2.32155">
        <ele>32.400001525879</ele>
        <time>2021-02-07T08:24:58.000Z</time>
      </trkpt>
      <trkpt lat="47.26118" lon="-2.32172">
        <ele>32.400001525879</ele>
        <time>2021-02-07T08:25:01.000Z</time>
      </trkpt>
      <trkpt lat="47.26111" lon="-2.3219">
        <ele>32.400001525879</ele>
        <time>2021-02-07T08:25:04.000Z</time>
      </trkpt>
      <trkpt lat="47.26104" lon="-2.32208">
        <ele>32.400001525879</ele>
        <time>2021-02-07T08:25:07.000Z</time>
      </trkpt>
      <trkpt lat="47.26094" lon="-2.32228">
        <ele>32.400001525879</ele>
        <time>2021-02-07T08:25:11.000Z</time>
      </trkpt>
      <trkpt lat="47.26085" lon="-2.32241">
        <ele>32.400001525879</ele>
        <time>2021-02-07T08:25:14.000Z</time>
      </trkpt>
      <trkpt lat="47.26073" lon="-2.32257">
        <ele>32.400001525879</ele>
        <time>2021-02-07T08:25:18.000Z</time>
      </trkpt>
      <trkpt lat="47.26067" lon="-2.32265">
        <ele>32.400001525879</ele>
        <time>2021-02-07T08:25:20.000Z</time>
      </trkpt>
      <trkpt lat="47.26062" lon="-2.32269">
        <ele>32.400001525879</ele>
        <time>2021-02-07T08:25:21.000Z</time>
      </trkpt>
      <trkpt lat="47.26048" lon="-2.32281">
        <ele>32.400001525879</ele>
        <time>2021-02-07T08:25:24.000Z</time>
      </trkpt>
      <trkpt lat="47.26044" lon="-2.32285">
        <ele>32.400001525879</ele>
        <time>2021-02-07T08:25:25.000Z</time>
      </trkpt>
      <trkpt lat="47.26023" lon="-2.32305">
        <ele>32.400001525879</ele>
        <time>2021-02-07T08:25:30.000Z</time>
      </trkpt>
      <trkpt lat="47.26019" lon="-2.32309">
        <ele>32.400001525879</ele>
        <time>2021-02-07T08:25:31.000Z</time>
      </trkpt>
      <trkpt lat="47.25991" lon="-2.3234">
        <ele>32.400001525879</ele>
        <time>2021-02-07T08:25:38.000Z</time>
      </trkpt>
      <trkpt lat="47.25962" lon="-2.32377">
        <ele>32.400001525879</ele>
        <time>2021-02-07T08:25:46.000Z</time>
      </trkpt>
      <trkpt lat="47.25933" lon="-2.32412">
        <ele>32.400001525879</ele>
        <time>2021-02-07T08:25:54.000Z</time>
      </trkpt>
      <trkpt lat="47.25905" lon="-2.32448">
        <ele>32.400001525879</ele>
        <time>2021-02-07T08:26:02.000Z</time>
      </trkpt>
      <trkpt lat="47.25879" lon="-2.32478">
        <ele>32.400001525879</ele>
        <time>2021-02-07T08:26:10.000Z</time>
      </trkpt>
      <trkpt lat="47.25859" lon="-2.32483">
        <ele>32.400001525879</ele>
        <time>2021-02-07T08:26:15.000Z</time>
      </trkpt>
      <trkpt lat="47.25841" lon="-2.32483">
        <ele>32.400001525879</ele>
        <time>2021-02-07T08:26:19.000Z</time>
      </trkpt>
      <trkpt lat="47.25827" lon="-2.3248">
        <ele>32.400001525879</ele>
        <time>2021-02-07T08:26:22.000Z</time>
      </trkpt>
      <trkpt lat="47.25799" lon="-2.32463">
        <ele>32.400001525879</ele>
        <time>2021-02-07T08:26:29.000Z</time>
      </trkpt>
      <trkpt lat="47.25784" lon="-2.32463">
        <ele>32.400001525879</ele>
        <time>2021-02-07T08:26:33.000Z</time>
      </trkpt>
      <trkpt lat="47.25781" lon="-2.32463">
        <ele>32.799999237061</ele>
        <time>2021-02-07T08:26:34.000Z</time>
      </trkpt>
      <trkpt lat="47.25777" lon="-2.3246">
        <ele>33.200000762939</ele>
        <time>2021-02-07T08:26:35.000Z</time>
      </trkpt>
      <trkpt lat="47.25774" lon="-2.32455">
        <ele>33.599998474121</ele>
        <time>2021-02-07T08:26:36.000Z</time>
      </trkpt>
      <trkpt lat="47.25772" lon="-2.32451">
        <ele>34</ele>
        <time>2021-02-07T08:26:37.000Z</time>
      </trkpt>
      <trkpt lat="47.25769" lon="-2.32447">
        <ele>34.400001525879</ele>
        <time>2021-02-07T08:26:38.000Z</time>
      </trkpt>
      <trkpt lat="47.25757" lon="-2.32432">
        <ele>34.400001525879</ele>
        <time>2021-02-07T08:26:42.000Z</time>
      </trkpt>
      <trkpt lat="47.25753" lon="-2.32431">
        <ele>34.400001525879</ele>
        <time>2021-02-07T08:26:43.000Z</time>
      </trkpt>
      <trkpt lat="47.25749" lon="-2.3243">
        <ele>34.400001525879</ele>
        <time>2021-02-07T08:26:44.000Z</time>
      </trkpt>
      <trkpt lat="47.25735" lon="-2.32428">
        <ele>34.400001525879</ele>
        <time>2021-02-07T08:26:47.000Z</time>
      </trkpt>
      <trkpt lat="47.25711" lon="-2.32427">
        <ele>34.400001525879</ele>
        <time>2021-02-07T08:26:52.000Z</time>
      </trkpt>
      <trkpt lat="47.25707" lon="-2.32427">
        <ele>34.400001525879</ele>
        <time>2021-02-07T08:26:53.000Z</time>
      </trkpt>
      <trkpt lat="47.25669" lon="-2.32424">
        <ele>34.400001525879</ele>
        <time>2021-02-07T08:27:02.000Z</time>
      </trkpt>
      <trkpt lat="47.25665" lon="-2.32424">
        <ele>34.400001525879</ele>
        <time>2021-02-07T08:27:03.000Z</time>
      </trkpt>
      <trkpt lat="47.25658" lon="-2.32431">
        <ele>34.400001525879</ele>
        <time>2021-02-07T08:27:05.000Z</time>
      </trkpt>
      <trkpt lat="47.25655" lon="-2.32443">
        <ele>34.400001525879</ele>
        <time>2021-02-07T08:27:07.000Z</time>
      </trkpt>
      <trkpt lat="47.25656" lon="-2.32449">
        <ele>34.400001525879</ele>
        <time>2021-02-07T08:27:08.000Z</time>
      </trkpt>
      <trkpt lat="47.25663" lon="-2.32483">
        <ele>34.400001525879</ele>
        <time>2021-02-07T08:27:14.000Z</time>
      </trkpt>
      <trkpt lat="47.25669" lon="-2.32505">
        <ele>34.799999237061</ele>
        <time>2021-02-07T08:27:18.000Z</time>
      </trkpt>
      <trkpt lat="47.25671" lon="-2.3251">
        <ele>35.200000762939</ele>
        <time>2021-02-07T08:27:19.000Z</time>
      </trkpt>
      <trkpt lat="47.25673" lon="-2.32516">
        <ele>36</ele>
        <time>2021-02-07T08:27:20.000Z</time>
      </trkpt>
      <trkpt lat="47.25673" lon="-2.32522">
        <ele>36.400001525879</ele>
        <time>2021-02-07T08:27:21.000Z</time>
      </trkpt>
      <trkpt lat="47.25682" lon="-2.32552">
        <ele>36.400001525879</ele>
        <time>2021-02-07T08:27:27.000Z</time>
      </trkpt>
      <trkpt lat="47.25692" lon="-2.32576">
        <ele>36.799999237061</ele>
        <time>2021-02-07T08:27:32.000Z</time>
      </trkpt>
      <trkpt lat="47.25693" lon="-2.32581">
        <ele>37.200000762939</ele>
        <time>2021-02-07T08:27:33.000Z</time>
      </trkpt>
      <trkpt lat="47.25695" lon="-2.32586">
        <ele>37.599998474121</ele>
        <time>2021-02-07T08:27:34.000Z</time>
      </trkpt>
      <trkpt lat="47.25697" lon="-2.32591">
        <ele>38</ele>
        <time>2021-02-07T08:27:35.000Z</time>
      </trkpt>
      <trkpt lat="47.25698" lon="-2.32596">
        <ele>38.400001525879</ele>
        <time>2021-02-07T08:27:36.000Z</time>
      </trkpt>
      <trkpt lat="47.257" lon="-2.32622">
        <ele>38.400001525879</ele>
        <time>2021-02-07T08:27:41.000Z</time>
      </trkpt>
      <trkpt lat="47.25691" lon="-2.32631">
        <ele>38.400001525879</ele>
        <time>2021-02-07T08:27:44.000Z</time>
      </trkpt>
      <trkpt lat="47.25687" lon="-2.32633">
        <ele>38.400001525879</ele>
        <time>2021-02-07T08:27:45.000Z</time>
      </trkpt>
      <trkpt lat="47.25669" lon="-2.32641">
        <ele>38.400001525879</ele>
        <time>2021-02-07T08:27:50.000Z</time>
      </trkpt>
      <trkpt lat="47.25651" lon="-2.32649">
        <ele>39</ele>
        <time>2021-02-07T08:27:55.000Z</time>
      </trkpt>
      <trkpt lat="47.25647" lon="-2.3265">
        <ele>39.400001525879</ele>
        <time>2021-02-07T08:27:56.000Z</time>
      </trkpt>
      <trkpt lat="47.25643" lon="-2.32652">
        <ele>39.799999237061</ele>
        <time>2021-02-07T08:27:57.000Z</time>
      </trkpt>
      <trkpt lat="47.25639" lon="-2.32653">
        <ele>40.200000762939</ele>
        <time>2021-02-07T08:27:58.000Z</time>
      </trkpt>
      <trkpt lat="47.25635" lon="-2.32654">
        <ele>40.599998474121</ele>
        <time>2021-02-07T08:27:59.000Z</time>
      </trkpt>
      <trkpt lat="47.25613" lon="-2.32664">
        <ele>40.599998474121</ele>
        <time>2021-02-07T08:28:05.000Z</time>
      </trkpt>
      <trkpt lat="47.25583" lon="-2.32677">
        <ele>40.599998474121</ele>
        <time>2021-02-07T08:28:13.000Z</time>
      </trkpt>
      <trkpt lat="47.25558" lon="-2.32688">
        <ele>40.599998474121</ele>
        <time>2021-02-07T08:28:19.000Z</time>
      </trkpt>
      <trkpt lat="47.25543" lon="-2.32694">
        <ele>40.599998474121</ele>
        <time>2021-02-07T08:28:22.000Z</time>
      </trkpt>
      <trkpt lat="47.25526" lon="-2.32701">
        <ele>40.599998474121</ele>
        <time>2021-02-07T08:28:26.000Z</time>
      </trkpt>
      <trkpt lat="47.25513" lon="-2.32706">
        <ele>40.599998474121</ele>
        <time>2021-02-07T08:28:29.000Z</time>
      </trkpt>
      <trkpt lat="47.255" lon="-2.32706">
        <ele>40.599998474121</ele>
        <time>2021-02-07T08:28:32.000Z</time>
      </trkpt>
      <trkpt lat="47.25491" lon="-2.32707">
        <ele>40.599998474121</ele>
        <time>2021-02-07T08:28:34.000Z</time>
      </trkpt>
      <trkpt lat="47.25479" lon="-2.32711">
        <ele>40.599998474121</ele>
        <time>2021-02-07T08:28:37.000Z</time>
      </trkpt>
      <trkpt lat="47.25471" lon="-2.32717">
        <ele>40.599998474121</ele>
        <time>2021-02-07T08:28:39.000Z</time>
      </trkpt>
      <trkpt lat="47.25456" lon="-2.32733">
        <ele>40.599998474121</ele>
        <time>2021-02-07T08:28:43.000Z</time>
      </trkpt>
      <trkpt lat="47.25432" lon="-2.32771">
        <ele>40.599998474121</ele>
        <time>2021-02-07T08:28:51.000Z</time>
      </trkpt>
      <trkpt lat="47.25425" lon="-2.32792">
        <ele>40.599998474121</ele>
        <time>2021-02-07T08:28:55.000Z</time>
      </trkpt>
      <trkpt lat="47.25422" lon="-2.32796">
        <ele>40.599998474121</ele>
        <time>2021-02-07T08:28:56.000Z</time>
      </trkpt>
      <trkpt lat="47.25409" lon="-2.32815">
        <ele>40.599998474121</ele>
        <time>2021-02-07T08:29:00.000Z</time>
      </trkpt>
      <trkpt lat="47.2538" lon="-2.32853">
        <ele>40.599998474121</ele>
        <time>2021-02-07T08:29:07.000Z</time>
      </trkpt>
      <trkpt lat="47.25349" lon="-2.32883">
        <ele>40.599998474121</ele>
        <time>2021-02-07T08:29:14.000Z</time>
      </trkpt>
      <trkpt lat="47.25309" lon="-2.32921">
        <ele>40.599998474121</ele>
        <time>2021-02-07T08:29:23.000Z</time>
      </trkpt>
      <trkpt lat="47.25305" lon="-2.32925">
        <ele>40.599998474121</ele>
        <time>2021-02-07T08:29:24.000Z</time>
      </trkpt>
      <trkpt lat="47.253" lon="-2.32937">
        <ele>40.599998474121</ele>
        <time>2021-02-07T08:29:26.000Z</time>
      </trkpt>
      <trkpt lat="47.25299" lon="-2.32957">
        <ele>40.599998474121</ele>
        <time>2021-02-07T08:29:29.000Z</time>
      </trkpt>
      <trkpt lat="47.25304" lon="-2.32975">
        <ele>40.599998474121</ele>
        <time>2021-02-07T08:29:32.000Z</time>
      </trkpt>
      <trkpt lat="47.25311" lon="-2.32994">
        <ele>40.599998474121</ele>
        <time>2021-02-07T08:29:35.000Z</time>
      </trkpt>
      <trkpt lat="47.25331" lon="-2.33049">
        <ele>40.599998474121</ele>
        <time>2021-02-07T08:29:44.000Z</time>
      </trkpt>
      <trkpt lat="47.25344" lon="-2.3308">
        <ele>40.599998474121</ele>
        <time>2021-02-07T08:29:49.000Z</time>
      </trkpt>
      <trkpt lat="47.25346" lon="-2.33086">
        <ele>40.599998474121</ele>
        <time>2021-02-07T08:29:50.000Z</time>
      </trkpt>
      <trkpt lat="47.25349" lon="-2.33098">
        <ele>40.200000762939</ele>
        <time>2021-02-07T08:29:52.000Z</time>
      </trkpt>
      <trkpt lat="47.25352" lon="-2.33104">
        <ele>39.799999237061</ele>
        <time>2021-02-07T08:29:53.000Z</time>
      </trkpt>
      <trkpt lat="47.25353" lon="-2.33109">
        <ele>39.200000762939</ele>
        <time>2021-02-07T08:29:54.000Z</time>
      </trkpt>
      <trkpt lat="47.25355" lon="-2.33115">
        <ele>38.799999237061</ele>
        <time>2021-02-07T08:29:55.000Z</time>
      </trkpt>
      <trkpt lat="47.25357" lon="-2.3312">
        <ele>38.400001525879</ele>
        <time>2021-02-07T08:29:56.000Z</time>
      </trkpt>
      <trkpt lat="47.25359" lon="-2.33125">
        <ele>38.400001525879</ele>
        <time>2021-02-07T08:29:57.000Z</time>
      </trkpt>
      <trkpt lat="47.25359" lon="-2.33127">
        <ele>38.400001525879</ele>
        <time>2021-02-07T08:29:58.000Z</time>
      </trkpt>
      <trkpt lat="47.25359" lon="-2.3313">
        <ele>38.400001525879</ele>
        <time>2021-02-07T08:30:00.000Z</time>
      </trkpt>
      <trkpt lat="47.25359" lon="-2.3313">
        <ele>38.400001525879</ele>
        <time>2021-02-07T08:30:01.000Z</time>
      </trkpt>
      <trkpt lat="47.2538" lon="-2.33129">
        <ele>38.400001525879</ele>
        <time>2021-02-07T08:37:52.000Z</time>
      </trkpt>
      <trkpt lat="47.25383" lon="-2.33133">
        <ele>38.400001525879</ele>
        <time>2021-02-07T08:37:54.000Z</time>
      </trkpt>
      <trkpt lat="47.25389" lon="-2.33138">
        <ele>38.400001525879</ele>
        <time>2021-02-07T08:37:57.000Z</time>
      </trkpt>
      <trkpt lat="47.25395" lon="-2.33136">
        <ele>38.400001525879</ele>
        <time>2021-02-07T08:37:59.000Z</time>
      </trkpt>
      <trkpt lat="47.25408" lon="-2.33128">
        <ele>38.400001525879</ele>
        <time>2021-02-07T08:38:04.000Z</time>
      </trkpt>
      <trkpt lat="47.2541" lon="-2.33127">
        <ele>38.400001525879</ele>
        <time>2021-02-07T08:38:05.000Z</time>
      </trkpt>
      <trkpt lat="47.25428" lon="-2.3312">
        <ele>38.400001525879</ele>
        <time>2021-02-07T08:38:12.000Z</time>
      </trkpt>
      <trkpt lat="47.25446" lon="-2.33112">
        <ele>38.400001525879</ele>
        <time>2021-02-07T08:38:18.000Z</time>
      </trkpt>
      <trkpt lat="47.25452" lon="-2.3311">
        <ele>38</ele>
        <time>2021-02-07T08:38:20.000Z</time>
      </trkpt>
      <trkpt lat="47.25455" lon="-2.33109">
        <ele>37.599998474121</ele>
        <time>2021-02-07T08:38:21.000Z</time>
      </trkpt>
      <trkpt lat="47.25459" lon="-2.33107">
        <ele>37.200000762939</ele>
        <time>2021-02-07T08:38:22.000Z</time>
      </trkpt>
      <trkpt lat="47.25462" lon="-2.33105">
        <ele>36.799999237061</ele>
        <time>2021-02-07T08:38:23.000Z</time>
      </trkpt>
      <trkpt lat="47.25466" lon="-2.33104">
        <ele>36.400001525879</ele>
        <time>2021-02-07T08:38:24.000Z</time>
      </trkpt>
      <trkpt lat="47.25469" lon="-2.33102">
        <ele>36.400001525879</ele>
        <time>2021-02-07T08:38:25.000Z</time>
      </trkpt>
      <trkpt lat="47.25491" lon="-2.3309">
        <ele>36.400001525879</ele>
        <time>2021-02-07T08:38:33.000Z</time>
      </trkpt>
      <trkpt lat="47.25494" lon="-2.33091">
        <ele>36.400001525879</ele>
        <time>2021-02-07T08:38:35.000Z</time>
      </trkpt>
      <trkpt lat="47.25497" lon="-2.33097">
        <ele>36.400001525879</ele>
        <time>2021-02-07T08:38:37.000Z</time>
      </trkpt>
      <trkpt lat="47.25499" lon="-2.33105">
        <ele>36.400001525879</ele>
        <time>2021-02-07T08:38:39.000Z</time>
      </trkpt>
      <trkpt lat="47.25502" lon="-2.33119">
        <ele>36.400001525879</ele>
        <time>2021-02-07T08:38:42.000Z</time>
      </trkpt>
      <trkpt lat="47.25506" lon="-2.33162">
        <ele>36.400001525879</ele>
        <time>2021-02-07T08:38:50.000Z</time>
      </trkpt>
      <trkpt lat="47.25512" lon="-2.33207">
        <ele>36.400001525879</ele>
        <time>2021-02-07T08:38:58.000Z</time>
      </trkpt>
      <trkpt lat="47.25519" lon="-2.33255">
        <ele>36.400001525879</ele>
        <time>2021-02-07T08:39:06.000Z</time>
      </trkpt>
      <trkpt lat="47.25527" lon="-2.33308">
        <ele>36.400001525879</ele>
        <time>2021-02-07T08:39:14.000Z</time>
      </trkpt>
      <trkpt lat="47.25536" lon="-2.33377">
        <ele>36.400001525879</ele>
        <time>2021-02-07T08:39:24.000Z</time>
      </trkpt>
      <trkpt lat="47.25537" lon="-2.33383">
        <ele>36.400001525879</ele>
        <time>2021-02-07T08:39:25.000Z</time>
      </trkpt>
      <trkpt lat="47.25543" lon="-2.33411">
        <ele>36.400001525879</ele>
        <time>2021-02-07T08:39:29.000Z</time>
      </trkpt>
      <trkpt lat="47.25545" lon="-2.33418">
        <ele>36.400001525879</ele>
        <time>2021-02-07T08:39:30.000Z</time>
      </trkpt>
      <trkpt lat="47.25561" lon="-2.33466">
        <ele>36.400001525879</ele>
        <time>2021-02-07T08:39:37.000Z</time>
      </trkpt>
      <trkpt lat="47.2558" lon="-2.33504">
        <ele>36.400001525879</ele>
        <time>2021-02-07T08:39:43.000Z</time>
      </trkpt>
      <trkpt lat="47.25603" lon="-2.33534">
        <ele>36.400001525879</ele>
        <time>2021-02-07T08:39:49.000Z</time>
      </trkpt>
      <trkpt lat="47.25621" lon="-2.3355">
        <ele>36.400001525879</ele>
        <time>2021-02-07T08:39:53.000Z</time>
      </trkpt>
      <trkpt lat="47.25629" lon="-2.33557">
        <ele>36.400001525879</ele>
        <time>2021-02-07T08:39:55.000Z</time>
      </trkpt>
      <trkpt lat="47.25661" lon="-2.33572">
        <ele>36.400001525879</ele>
        <time>2021-02-07T08:40:02.000Z</time>
      </trkpt>
      <trkpt lat="47.25698" lon="-2.3358">
        <ele>36.400001525879</ele>
        <time>2021-02-07T08:40:09.000Z</time>
      </trkpt>
      <trkpt lat="47.25737" lon="-2.33579">
        <ele>36.400001525879</ele>
        <time>2021-02-07T08:40:16.000Z</time>
      </trkpt>
      <trkpt lat="47.25776" lon="-2.33576">
        <ele>36.400001525879</ele>
        <time>2021-02-07T08:40:23.000Z</time>
      </trkpt>
      <trkpt lat="47.25824" lon="-2.33573">
        <ele>36.400001525879</ele>
        <time>2021-02-07T08:40:32.000Z</time>
      </trkpt>
      <trkpt lat="47.25868" lon="-2.3357">
        <ele>36.400001525879</ele>
        <time>2021-02-07T08:40:40.000Z</time>
      </trkpt>
      <trkpt lat="47.25873" lon="-2.33568">
        <ele>36.400001525879</ele>
        <time>2021-02-07T08:40:41.000Z</time>
      </trkpt>
      <trkpt lat="47.25894" lon="-2.33557">
        <ele>36.400001525879</ele>
        <time>2021-02-07T08:40:45.000Z</time>
      </trkpt>
      <trkpt lat="47.25899" lon="-2.33553">
        <ele>36.400001525879</ele>
        <time>2021-02-07T08:40:46.000Z</time>
      </trkpt>
      <trkpt lat="47.25909" lon="-2.33543">
        <ele>36</ele>
        <time>2021-02-07T08:40:48.000Z</time>
      </trkpt>
      <trkpt lat="47.25914" lon="-2.33539">
        <ele>35.599998474121</ele>
        <time>2021-02-07T08:40:49.000Z</time>
      </trkpt>
      <trkpt lat="47.25919" lon="-2.33535">
        <ele>35.200000762939</ele>
        <time>2021-02-07T08:40:50.000Z</time>
      </trkpt>
      <trkpt lat="47.25925" lon="-2.3353">
        <ele>34.799999237061</ele>
        <time>2021-02-07T08:40:51.000Z</time>
      </trkpt>
      <trkpt lat="47.2593" lon="-2.33525">
        <ele>34.400001525879</ele>
        <time>2021-02-07T08:40:52.000Z</time>
      </trkpt>
      <trkpt lat="47.25955" lon="-2.33505">
        <ele>34.400001525879</ele>
        <time>2021-02-07T08:40:57.000Z</time>
      </trkpt>
      <trkpt lat="47.25958" lon="-2.33501">
        <ele>33.799999237061</ele>
        <time>2021-02-07T08:40:58.000Z</time>
      </trkpt>
      <trkpt lat="47.25962" lon="-2.33497">
        <ele>33.400001525879</ele>
        <time>2021-02-07T08:40:59.000Z</time>
      </trkpt>
      <trkpt lat="47.25966" lon="-2.33495">
        <ele>33</ele>
        <time>2021-02-07T08:41:00.000Z</time>
      </trkpt>
      <trkpt lat="47.25971" lon="-2.33494">
        <ele>32.599998474121</ele>
        <time>2021-02-07T08:41:01.000Z</time>
      </trkpt>
      <trkpt lat="47.25976" lon="-2.33494">
        <ele>32.200000762939</ele>
        <time>2021-02-07T08:41:02.000Z</time>
      </trkpt>
      <trkpt lat="47.26012" lon="-2.33489">
        <ele>32.200000762939</ele>
        <time>2021-02-07T08:41:09.000Z</time>
      </trkpt>
      <trkpt lat="47.26031" lon="-2.33481">
        <ele>32.200000762939</ele>
        <time>2021-02-07T08:41:13.000Z</time>
      </trkpt>
      <trkpt lat="47.26036" lon="-2.33477">
        <ele>32.200000762939</ele>
        <time>2021-02-07T08:41:14.000Z</time>
      </trkpt>
      <trkpt lat="47.26046" lon="-2.33456">
        <ele>32.200000762939</ele>
        <time>2021-02-07T08:41:18.000Z</time>
      </trkpt>
      <trkpt lat="47.26048" lon="-2.33452">
        <ele>32.200000762939</ele>
        <time>2021-02-07T08:41:19.000Z</time>
      </trkpt>
      <trkpt lat="47.26057" lon="-2.33441">
        <ele>32.200000762939</ele>
        <time>2021-02-07T08:41:22.000Z</time>
      </trkpt>
      <trkpt lat="47.26061" lon="-2.33437">
        <ele>32.200000762939</ele>
        <time>2021-02-07T08:41:23.000Z</time>
      </trkpt>
      <trkpt lat="47.26064" lon="-2.33425">
        <ele>32.200000762939</ele>
        <time>2021-02-07T08:41:25.000Z</time>
      </trkpt>
      <trkpt lat="47.26073" lon="-2.33404">
        <ele>32.200000762939</ele>
        <time>2021-02-07T08:41:29.000Z</time>
      </trkpt>
      <trkpt lat="47.26077" lon="-2.334">
        <ele>32.200000762939</ele>
        <time>2021-02-07T08:41:30.000Z</time>
      </trkpt>
      <trkpt lat="47.26091" lon="-2.33398">
        <ele>32.200000762939</ele>
        <time>2021-02-07T08:41:33.000Z</time>
      </trkpt>
      <trkpt lat="47.26108" lon="-2.33408">
        <ele>32.200000762939</ele>
        <time>2021-02-07T08:41:37.000Z</time>
      </trkpt>
      <trkpt lat="47.2612" lon="-2.3343">
        <ele>32.200000762939</ele>
        <time>2021-02-07T08:41:41.000Z</time>
      </trkpt>
      <trkpt lat="47.26132" lon="-2.33438">
        <ele>32.200000762939</ele>
        <time>2021-02-07T08:41:44.000Z</time>
      </trkpt>
      <trkpt lat="47.26146" lon="-2.33432">
        <ele>32.200000762939</ele>
        <time>2021-02-07T08:41:47.000Z</time>
      </trkpt>
      <trkpt lat="47.26161" lon="-2.33436">
        <ele>32.200000762939</ele>
        <time>2021-02-07T08:41:50.000Z</time>
      </trkpt>
      <trkpt lat="47.26176" lon="-2.33441">
        <ele>32.200000762939</ele>
        <time>2021-02-07T08:41:53.000Z</time>
      </trkpt>
      <trkpt lat="47.26187" lon="-2.33437">
        <ele>32.200000762939</ele>
        <time>2021-02-07T08:41:55.000Z</time>
      </trkpt>
      <trkpt lat="47.26192" lon="-2.33436">
        <ele>32.200000762939</ele>
        <time>2021-02-07T08:41:56.000Z</time>
      </trkpt>
      <trkpt lat="47.26213" lon="-2.33433">
        <ele>32.200000762939</ele>
        <time>2021-02-07T08:42:00.000Z</time>
      </trkpt>
      <trkpt lat="47.26235" lon="-2.33426">
        <ele>32.200000762939</ele>
        <time>2021-02-07T08:42:04.000Z</time>
      </trkpt>
      <trkpt lat="47.26245" lon="-2.33422">
        <ele>32.200000762939</ele>
        <time>2021-02-07T08:42:06.000Z</time>
      </trkpt>
      <trkpt lat="47.26261" lon="-2.33426">
        <ele>32.200000762939</ele>
        <time>2021-02-07T08:42:09.000Z</time>
      </trkpt>
      <trkpt lat="47.26272" lon="-2.33425">
        <ele>32.200000762939</ele>
        <time>2021-02-07T08:42:11.000Z</time>
      </trkpt>
      <trkpt lat="47.26283" lon="-2.33423">
        <ele>32.200000762939</ele>
        <time>2021-02-07T08:42:13.000Z</time>
      </trkpt>
      <trkpt lat="47.26311" lon="-2.33416">
        <ele>32.200000762939</ele>
        <time>2021-02-07T08:42:18.000Z</time>
      </trkpt>
      <trkpt lat="47.26324" lon="-2.33403">
        <ele>32.200000762939</ele>
        <time>2021-02-07T08:42:21.000Z</time>
      </trkpt>
      <trkpt lat="47.26345" lon="-2.33391">
        <ele>32.200000762939</ele>
        <time>2021-02-07T08:42:25.000Z</time>
      </trkpt>
      <trkpt lat="47.2635" lon="-2.33388">
        <ele>32.200000762939</ele>
        <time>2021-02-07T08:42:26.000Z</time>
      </trkpt>
      <trkpt lat="47.26393" lon="-2.33364">
        <ele>32.200000762939</ele>
        <time>2021-02-07T08:42:34.000Z</time>
      </trkpt>
      <trkpt lat="47.26417" lon="-2.3335">
        <ele>32.200000762939</ele>
        <time>2021-02-07T08:42:39.000Z</time>
      </trkpt>
      <trkpt lat="47.26421" lon="-2.33347">
        <ele>32.200000762939</ele>
        <time>2021-02-07T08:42:40.000Z</time>
      </trkpt>
      <trkpt lat="47.26455" lon="-2.33323">
        <ele>32.200000762939</ele>
        <time>2021-02-07T08:42:48.000Z</time>
      </trkpt>
      <trkpt lat="47.26477" lon="-2.33299">
        <ele>32.200000762939</ele>
        <time>2021-02-07T08:42:55.000Z</time>
      </trkpt>
      <trkpt lat="47.26478" lon="-2.33285">
        <ele>32.200000762939</ele>
        <time>2021-02-07T08:42:59.000Z</time>
      </trkpt>
      <trkpt lat="47.26477" lon="-2.33274">
        <ele>32.200000762939</ele>
        <time>2021-02-07T08:43:03.000Z</time>
      </trkpt>
      <trkpt lat="47.26477" lon="-2.33274">
        <ele>32.200000762939</ele>
        <time>2021-02-07T08:43:04.000Z</time>
      </trkpt>
      <trkpt lat="47.26478" lon="-2.33274">
        <ele>32.200000762939</ele>
        <time>2021-02-07T08:43:05.000Z</time>
      </trkpt>
      <trkpt lat="47.26482" lon="-2.33271">
        <ele>32.200000762939</ele>
        <time>2021-02-07T08:43:46.000Z</time>
      </trkpt>
      <trkpt lat="47.26484" lon="-2.33267">
        <ele>32.200000762939</ele>
        <time>2021-02-07T08:43:48.000Z</time>
      </trkpt>
      <trkpt lat="47.26491" lon="-2.33259">
        <ele>32.200000762939</ele>
        <time>2021-02-07T08:43:51.000Z</time>
      </trkpt>
      <trkpt lat="47.26493" lon="-2.33254">
        <ele>32.200000762939</ele>
        <time>2021-02-07T08:43:52.000Z</time>
      </trkpt>
      <trkpt lat="47.26502" lon="-2.3324">
        <ele>32.200000762939</ele>
        <time>2021-02-07T08:43:55.000Z</time>
      </trkpt>
      <trkpt lat="47.26509" lon="-2.33232">
        <ele>32.200000762939</ele>
        <time>2021-02-07T08:43:57.000Z</time>
      </trkpt>
      <trkpt lat="47.26521" lon="-2.33224">
        <ele>32.200000762939</ele>
        <time>2021-02-07T08:44:00.000Z</time>
      </trkpt>
      <trkpt lat="47.26539" lon="-2.33213">
        <ele>32.200000762939</ele>
        <time>2021-02-07T08:44:04.000Z</time>
      </trkpt>
      <trkpt lat="47.26575" lon="-2.33192">
        <ele>32.200000762939</ele>
        <time>2021-02-07T08:44:12.000Z</time>
      </trkpt>
      <trkpt lat="47.26579" lon="-2.33187">
        <ele>32.200000762939</ele>
        <time>2021-02-07T08:44:13.000Z</time>
      </trkpt>
      <trkpt lat="47.26588" lon="-2.3317">
        <ele>32.200000762939</ele>
        <time>2021-02-07T08:44:16.000Z</time>
      </trkpt>
      <trkpt lat="47.26595" lon="-2.33146">
        <ele>32.200000762939</ele>
        <time>2021-02-07T08:44:20.000Z</time>
      </trkpt>
      <trkpt lat="47.26604" lon="-2.33145">
        <ele>32.200000762939</ele>
        <time>2021-02-07T08:44:23.000Z</time>
      </trkpt>
      <trkpt lat="47.26607" lon="-2.33146">
        <ele>32.200000762939</ele>
        <time>2021-02-07T08:44:24.000Z</time>
      </trkpt>
      <trkpt lat="47.26628" lon="-2.33152">
        <ele>32.200000762939</ele>
        <time>2021-02-07T08:44:30.000Z</time>
      </trkpt>
      <trkpt lat="47.26635" lon="-2.3315">
        <ele>32.200000762939</ele>
        <time>2021-02-07T08:44:32.000Z</time>
      </trkpt>
      <trkpt lat="47.26647" lon="-2.33142">
        <ele>32.200000762939</ele>
        <time>2021-02-07T08:44:35.000Z</time>
      </trkpt>
      <trkpt lat="47.26651" lon="-2.33138">
        <ele>32.200000762939</ele>
        <time>2021-02-07T08:44:36.000Z</time>
      </trkpt>
      <trkpt lat="47.26658" lon="-2.33131">
        <ele>32.200000762939</ele>
        <time>2021-02-07T08:44:38.000Z</time>
      </trkpt>
      <trkpt lat="47.2667" lon="-2.33121">
        <ele>32.200000762939</ele>
        <time>2021-02-07T08:44:41.000Z</time>
      </trkpt>
      <trkpt lat="47.26706" lon="-2.33088">
        <ele>32.200000762939</ele>
        <time>2021-02-07T08:44:51.000Z</time>
      </trkpt>
      <trkpt lat="47.26729" lon="-2.33056">
        <ele>32.200000762939</ele>
        <time>2021-02-07T08:44:58.000Z</time>
      </trkpt>
      <trkpt lat="47.26734" lon="-2.33029">
        <ele>32.200000762939</ele>
        <time>2021-02-07T08:45:03.000Z</time>
      </trkpt>
      <trkpt lat="47.26735" lon="-2.33024">
        <ele>32.200000762939</ele>
        <time>2021-02-07T08:45:04.000Z</time>
      </trkpt>
      <trkpt lat="47.26735" lon="-2.33007">
        <ele>32.200000762939</ele>
        <time>2021-02-07T08:45:07.000Z</time>
      </trkpt>
      <trkpt lat="47.26735" lon="-2.33001">
        <ele>32.200000762939</ele>
        <time>2021-02-07T08:45:08.000Z</time>
      </trkpt>
      <trkpt lat="47.26746" lon="-2.32971">
        <ele>32.200000762939</ele>
        <time>2021-02-07T08:45:13.000Z</time>
      </trkpt>
      <trkpt lat="47.26757" lon="-2.32957">
        <ele>32.200000762939</ele>
        <time>2021-02-07T08:45:16.000Z</time>
      </trkpt>
      <trkpt lat="47.26769" lon="-2.32943">
        <ele>32.200000762939</ele>
        <time>2021-02-07T08:45:19.000Z</time>
      </trkpt>
      <trkpt lat="47.26786" lon="-2.32924">
        <ele>32.200000762939</ele>
        <time>2021-02-07T08:45:23.000Z</time>
      </trkpt>
      <trkpt lat="47.26796" lon="-2.32917">
        <ele>32.200000762939</ele>
        <time>2021-02-07T08:45:25.000Z</time>
      </trkpt>
      <trkpt lat="47.26813" lon="-2.32906">
        <ele>32.200000762939</ele>
        <time>2021-02-07T08:45:29.000Z</time>
      </trkpt>
      <trkpt lat="47.26816" lon="-2.32902">
        <ele>32.200000762939</ele>
        <time>2021-02-07T08:45:30.000Z</time>
      </trkpt>
      <trkpt lat="47.2682" lon="-2.32898">
        <ele>32.200000762939</ele>
        <time>2021-02-07T08:45:31.000Z</time>
      </trkpt>
      <trkpt lat="47.26834" lon="-2.32886">
        <ele>32.200000762939</ele>
        <time>2021-02-07T08:45:35.000Z</time>
      </trkpt>
      <trkpt lat="47.26853" lon="-2.32877">
        <ele>32.200000762939</ele>
        <time>2021-02-07T08:45:41.000Z</time>
      </trkpt>
      <trkpt lat="47.26861" lon="-2.32866">
        <ele>32.200000762939</ele>
        <time>2021-02-07T08:45:44.000Z</time>
      </trkpt>
      <trkpt lat="47.26861" lon="-2.32861">
        <ele>32.200000762939</ele>
        <time>2021-02-07T08:45:45.000Z</time>
      </trkpt>
      <trkpt lat="47.26857" lon="-2.32848">
        <ele>32.200000762939</ele>
        <time>2021-02-07T08:45:48.000Z</time>
      </trkpt>
      <trkpt lat="47.26855" lon="-2.32844">
        <ele>32.200000762939</ele>
        <time>2021-02-07T08:45:49.000Z</time>
      </trkpt>
      <trkpt lat="47.26851" lon="-2.32838">
        <ele>32.599998474121</ele>
        <time>2021-02-07T08:45:51.000Z</time>
      </trkpt>
      <trkpt lat="47.26849" lon="-2.32834">
        <ele>33</ele>
        <time>2021-02-07T08:45:52.000Z</time>
      </trkpt>
      <trkpt lat="47.26848" lon="-2.3283">
        <ele>33.400001525879</ele>
        <time>2021-02-07T08:45:53.000Z</time>
      </trkpt>
      <trkpt lat="47.26847" lon="-2.32826">
        <ele>33.799999237061</ele>
        <time>2021-02-07T08:45:54.000Z</time>
      </trkpt>
      <trkpt lat="47.26846" lon="-2.32822">
        <ele>34.200000762939</ele>
        <time>2021-02-07T08:45:55.000Z</time>
      </trkpt>
      <trkpt lat="47.26845" lon="-2.32818">
        <ele>34.200000762939</ele>
        <time>2021-02-07T08:45:56.000Z</time>
      </trkpt>
      <trkpt lat="47.26844" lon="-2.32814">
        <ele>34.599998474121</ele>
        <time>2021-02-07T08:45:57.000Z</time>
      </trkpt>
      <trkpt lat="47.26843" lon="-2.3281">
        <ele>35</ele>
        <time>2021-02-07T08:45:58.000Z</time>
      </trkpt>
      <trkpt lat="47.26842" lon="-2.32807">
        <ele>35.599998474121</ele>
        <time>2021-02-07T08:45:59.000Z</time>
      </trkpt>
      <trkpt lat="47.26841" lon="-2.32804">
        <ele>36</ele>
        <time>2021-02-07T08:46:00.000Z</time>
      </trkpt>
      <trkpt lat="47.2684" lon="-2.328">
        <ele>36.400001525879</ele>
        <time>2021-02-07T08:46:01.000Z</time>
      </trkpt>
      <trkpt lat="47.26837" lon="-2.32792">
        <ele>36.799999237061</ele>
        <time>2021-02-07T08:46:03.000Z</time>
      </trkpt>
      <trkpt lat="47.26837" lon="-2.32788">
        <ele>37.200000762939</ele>
        <time>2021-02-07T08:46:04.000Z</time>
      </trkpt>
      <trkpt lat="47.26836" lon="-2.32784">
        <ele>37.599998474121</ele>
        <time>2021-02-07T08:46:05.000Z</time>
      </trkpt>
      <trkpt lat="47.26835" lon="-2.32781">
        <ele>38</ele>
        <time>2021-02-07T08:46:06.000Z</time>
      </trkpt>
      <trkpt lat="47.26834" lon="-2.32776">
        <ele>38.599998474121</ele>
        <time>2021-02-07T08:46:07.000Z</time>
      </trkpt>
      <trkpt lat="47.26831" lon="-2.32763">
        <ele>39</ele>
        <time>2021-02-07T08:46:10.000Z</time>
      </trkpt>
      <trkpt lat="47.2683" lon="-2.32759">
        <ele>39.400001525879</ele>
        <time>2021-02-07T08:46:11.000Z</time>
      </trkpt>
      <trkpt lat="47.26828" lon="-2.32754">
        <ele>40</ele>
        <time>2021-02-07T08:46:12.000Z</time>
      </trkpt>
      <trkpt lat="47.26827" lon="-2.3275">
        <ele>40.400001525879</ele>
        <time>2021-02-07T08:46:13.000Z</time>
      </trkpt>
      <trkpt lat="47.26825" lon="-2.32747">
        <ele>40.799999237061</ele>
        <time>2021-02-07T08:46:14.000Z</time>
      </trkpt>
      <trkpt lat="47.26824" lon="-2.32743">
        <ele>41.400001525879</ele>
        <time>2021-02-07T08:46:15.000Z</time>
      </trkpt>
      <trkpt lat="47.26822" lon="-2.32739">
        <ele>41.799999237061</ele>
        <time>2021-02-07T08:46:16.000Z</time>
      </trkpt>
      <trkpt lat="47.2682" lon="-2.32736">
        <ele>42.200000762939</ele>
        <time>2021-02-07T08:46:17.000Z</time>
      </trkpt>
      <trkpt lat="47.26818" lon="-2.32731">
        <ele>42.599998474121</ele>
        <time>2021-02-07T08:46:18.000Z</time>
      </trkpt>
      <trkpt lat="47.26817" lon="-2.32727">
        <ele>43.200000762939</ele>
        <time>2021-02-07T08:46:19.000Z</time>
      </trkpt>
      <trkpt lat="47.2681" lon="-2.32716">
        <ele>43.200000762939</ele>
        <time>2021-02-07T08:46:22.000Z</time>
      </trkpt>
      <trkpt lat="47.26801" lon="-2.32695">
        <ele>43.599998474121</ele>
        <time>2021-02-07T08:46:27.000Z</time>
      </trkpt>
      <trkpt lat="47.268" lon="-2.3269">
        <ele>44</ele>
        <time>2021-02-07T08:46:28.000Z</time>
      </trkpt>
      <trkpt lat="47.268" lon="-2.32685">
        <ele>44.400001525879</ele>
        <time>2021-02-07T08:46:29.000Z</time>
      </trkpt>
      <trkpt lat="47.268" lon="-2.3268">
        <ele>44.799999237061</ele>
        <time>2021-02-07T08:46:30.000Z</time>
      </trkpt>
      <trkpt lat="47.268" lon="-2.32676">
        <ele>45.200000762939</ele>
        <time>2021-02-07T08:46:31.000Z</time>
      </trkpt>
      <trkpt lat="47.26803" lon="-2.32671">
        <ele>45.200000762939</ele>
        <time>2021-02-07T08:46:32.000Z</time>
      </trkpt>
      <trkpt lat="47.2681" lon="-2.32648">
        <ele>45.200000762939</ele>
        <time>2021-02-07T08:46:36.000Z</time>
      </trkpt>
      <trkpt lat="47.26808" lon="-2.32628">
        <ele>45.200000762939</ele>
        <time>2021-02-07T08:46:39.000Z</time>
      </trkpt>
      <trkpt lat="47.26807" lon="-2.3262">
        <ele>45.200000762939</ele>
        <time>2021-02-07T08:46:40.000Z</time>
      </trkpt>
      <trkpt lat="47.268" lon="-2.32576">
        <ele>45.200000762939</ele>
        <time>2021-02-07T08:46:46.000Z</time>
      </trkpt>
      <trkpt lat="47.26799" lon="-2.32569">
        <ele>45.200000762939</ele>
        <time>2021-02-07T08:46:47.000Z</time>
      </trkpt>
      <trkpt lat="47.26799" lon="-2.32554">
        <ele>45.200000762939</ele>
        <time>2021-02-07T08:46:49.000Z</time>
      </trkpt>
      <trkpt lat="47.26799" lon="-2.32541">
        <ele>45.200000762939</ele>
        <time>2021-02-07T08:46:51.000Z</time>
      </trkpt>
      <trkpt lat="47.26796" lon="-2.32502">
        <ele>45.200000762939</ele>
        <time>2021-02-07T08:46:57.000Z</time>
      </trkpt>
      <trkpt lat="47.26791" lon="-2.32459">
        <ele>45.200000762939</ele>
        <time>2021-02-07T08:47:04.000Z</time>
      </trkpt>
      <trkpt lat="47.26784" lon="-2.32412">
        <ele>45.200000762939</ele>
        <time>2021-02-07T08:47:12.000Z</time>
      </trkpt>
      <trkpt lat="47.26779" lon="-2.3238">
        <ele>45.200000762939</ele>
        <time>2021-02-07T08:47:18.000Z</time>
      </trkpt>
      <trkpt lat="47.26779" lon="-2.32371">
        <ele>45.200000762939</ele>
        <time>2021-02-07T08:47:20.000Z</time>
      </trkpt>
      <trkpt lat="47.26783" lon="-2.32366">
        <ele>45.200000762939</ele>
        <time>2021-02-07T08:47:22.000Z</time>
      </trkpt>
      <trkpt lat="47.26791" lon="-2.32362">
        <ele>45.200000762939</ele>
        <time>2021-02-07T08:47:24.000Z</time>
      </trkpt>
      <trkpt lat="47.26801" lon="-2.32359">
        <ele>45.200000762939</ele>
        <time>2021-02-07T08:47:26.000Z</time>
      </trkpt>
      <trkpt lat="47.26831" lon="-2.32353">
        <ele>45.200000762939</ele>
        <time>2021-02-07T08:47:31.000Z</time>
      </trkpt>
      <trkpt lat="47.26838" lon="-2.32352">
        <ele>44.799999237061</ele>
        <time>2021-02-07T08:47:32.000Z</time>
      </trkpt>
      <trkpt lat="47.26845" lon="-2.3235">
        <ele>44.400001525879</ele>
        <time>2021-02-07T08:47:33.000Z</time>
      </trkpt>
      <trkpt lat="47.26853" lon="-2.32348">
        <ele>44</ele>
        <time>2021-02-07T08:47:34.000Z</time>
      </trkpt>
      <trkpt lat="47.2686" lon="-2.32347">
        <ele>43.400001525879</ele>
        <time>2021-02-07T08:47:35.000Z</time>
      </trkpt>
      <trkpt lat="47.26867" lon="-2.32346">
        <ele>43</ele>
        <time>2021-02-07T08:47:36.000Z</time>
      </trkpt>
      <trkpt lat="47.26874" lon="-2.32344">
        <ele>42.599998474121</ele>
        <time>2021-02-07T08:47:37.000Z</time>
      </trkpt>
      <trkpt lat="47.2688" lon="-2.32343">
        <ele>42.200000762939</ele>
        <time>2021-02-07T08:47:38.000Z</time>
      </trkpt>
      <trkpt lat="47.26886" lon="-2.32342">
        <ele>41.599998474121</ele>
        <time>2021-02-07T08:47:39.000Z</time>
      </trkpt>
      <trkpt lat="47.26893" lon="-2.3234">
        <ele>41.200000762939</ele>
        <time>2021-02-07T08:47:40.000Z</time>
      </trkpt>
      <trkpt lat="47.26899" lon="-2.32339">
        <ele>40.799999237061</ele>
        <time>2021-02-07T08:47:41.000Z</time>
      </trkpt>
      <trkpt lat="47.26905" lon="-2.32338">
        <ele>40.400001525879</ele>
        <time>2021-02-07T08:47:42.000Z</time>
      </trkpt>
      <trkpt lat="47.2691" lon="-2.32336">
        <ele>39.799999237061</ele>
        <time>2021-02-07T08:47:43.000Z</time>
      </trkpt>
      <trkpt lat="47.26915" lon="-2.32334">
        <ele>39.400001525879</ele>
        <time>2021-02-07T08:47:44.000Z</time>
      </trkpt>
      <trkpt lat="47.26919" lon="-2.32334">
        <ele>39</ele>
        <time>2021-02-07T08:47:45.000Z</time>
      </trkpt>
      <trkpt lat="47.26923" lon="-2.32336">
        <ele>38.400001525879</ele>
        <time>2021-02-07T08:47:46.000Z</time>
      </trkpt>
      <trkpt lat="47.26925" lon="-2.3234">
        <ele>37.799999237061</ele>
        <time>2021-02-07T08:47:47.000Z</time>
      </trkpt>
      <trkpt lat="47.26927" lon="-2.32343">
        <ele>37.400001525879</ele>
        <time>2021-02-07T08:47:48.000Z</time>
      </trkpt>
      <trkpt lat="47.2693" lon="-2.32347">
        <ele>36.799999237061</ele>
        <time>2021-02-07T08:47:49.000Z</time>
      </trkpt>
      <trkpt lat="47.26933" lon="-2.32351">
        <ele>36.200000762939</ele>
        <time>2021-02-07T08:47:50.000Z</time>
      </trkpt>
      <trkpt lat="47.26939" lon="-2.32368">
        <ele>36.200000762939</ele>
        <time>2021-02-07T08:47:54.000Z</time>
      </trkpt>
      <trkpt lat="47.26945" lon="-2.32391">
        <ele>35.799999237061</ele>
        <time>2021-02-07T08:47:59.000Z</time>
      </trkpt>
      <trkpt lat="47.26946" lon="-2.32396">
        <ele>35.400001525879</ele>
        <time>2021-02-07T08:48:00.000Z</time>
      </trkpt>
      <trkpt lat="47.26948" lon="-2.32401">
        <ele>35</ele>
        <time>2021-02-07T08:48:01.000Z</time>
      </trkpt>
      <trkpt lat="47.26949" lon="-2.32407">
        <ele>34.599998474121</ele>
        <time>2021-02-07T08:48:02.000Z</time>
      </trkpt>
      <trkpt lat="47.2695" lon="-2.32413">
        <ele>34.200000762939</ele>
        <time>2021-02-07T08:48:03.000Z</time>
      </trkpt>
      <trkpt lat="47.26953" lon="-2.32418">
        <ele>34.200000762939</ele>
        <time>2021-02-07T08:48:04.000Z</time>
      </trkpt>
      <trkpt lat="47.26962" lon="-2.32434">
        <ele>34.200000762939</ele>
        <time>2021-02-07T08:48:07.000Z</time>
      </trkpt>
      <trkpt lat="47.26984" lon="-2.32465">
        <ele>34.200000762939</ele>
        <time>2021-02-07T08:48:13.000Z</time>
      </trkpt>
      <trkpt lat="47.26987" lon="-2.32472">
        <ele>34.200000762939</ele>
        <time>2021-02-07T08:48:14.000Z</time>
      </trkpt>
      <trkpt lat="47.27002" lon="-2.32504">
        <ele>34.200000762939</ele>
        <time>2021-02-07T08:48:19.000Z</time>
      </trkpt>
      <trkpt lat="47.27015" lon="-2.32505">
        <ele>34.200000762939</ele>
        <time>2021-02-07T08:48:22.000Z</time>
      </trkpt>
      <trkpt lat="47.2702" lon="-2.32503">
        <ele>33.799999237061</ele>
        <time>2021-02-07T08:48:23.000Z</time>
      </trkpt>
      <trkpt lat="47.27024" lon="-2.32501">
        <ele>33.400001525879</ele>
        <time>2021-02-07T08:48:24.000Z</time>
      </trkpt>
      <trkpt lat="47.27027" lon="-2.32497">
        <ele>33</ele>
        <time>2021-02-07T08:48:25.000Z</time>
      </trkpt>
      <trkpt lat="47.27029" lon="-2.32491">
        <ele>32.599998474121</ele>
        <time>2021-02-07T08:48:26.000Z</time>
      </trkpt>
      <trkpt lat="47.27031" lon="-2.32483">
        <ele>32</ele>
        <time>2021-02-07T08:48:27.000Z</time>
      </trkpt>
      <trkpt lat="47.27031" lon="-2.32467">
        <ele>32</ele>
        <time>2021-02-07T08:48:29.000Z</time>
      </trkpt>
      <trkpt lat="47.2703" lon="-2.32459">
        <ele>32</ele>
        <time>2021-02-07T08:48:30.000Z</time>
      </trkpt>
      <trkpt lat="47.27028" lon="-2.32415">
        <ele>32</ele>
        <time>2021-02-07T08:48:35.000Z</time>
      </trkpt>
      <trkpt lat="47.27023" lon="-2.32356">
        <ele>32</ele>
        <time>2021-02-07T08:48:42.000Z</time>
      </trkpt>
      <trkpt lat="47.2702" lon="-2.32333">
        <ele>32</ele>
        <time>2021-02-07T08:48:45.000Z</time>
      </trkpt>
      <trkpt lat="47.27019" lon="-2.32316">
        <ele>32</ele>
        <time>2021-02-07T08:48:47.000Z</time>
      </trkpt>
      <trkpt lat="47.27015" lon="-2.32272">
        <ele>32</ele>
        <time>2021-02-07T08:48:53.000Z</time>
      </trkpt>
      <trkpt lat="47.27016" lon="-2.32228">
        <ele>32</ele>
        <time>2021-02-07T08:48:59.000Z</time>
      </trkpt>
      <trkpt lat="47.27013" lon="-2.32213">
        <ele>32</ele>
        <time>2021-02-07T08:49:03.000Z</time>
      </trkpt>
      <trkpt lat="47.27006" lon="-2.32188">
        <ele>32</ele>
        <time>2021-02-07T08:49:08.000Z</time>
      </trkpt>
      <trkpt lat="47.26993" lon="-2.32161">
        <ele>32</ele>
        <time>2021-02-07T08:49:14.000Z</time>
      </trkpt>
      <trkpt lat="47.2699" lon="-2.32143">
        <ele>32</ele>
        <time>2021-02-07T08:49:18.000Z</time>
      </trkpt>
      <trkpt lat="47.27" lon="-2.32129">
        <ele>32</ele>
        <time>2021-02-07T08:49:22.000Z</time>
      </trkpt>
      <trkpt lat="47.27011" lon="-2.32109">
        <ele>32</ele>
        <time>2021-02-07T08:49:27.000Z</time>
      </trkpt>
      <trkpt lat="47.27014" lon="-2.32076">
        <ele>32</ele>
        <time>2021-02-07T08:49:33.000Z</time>
      </trkpt>
      <trkpt lat="47.27014" lon="-2.32042">
        <ele>32</ele>
        <time>2021-02-07T08:49:39.000Z</time>
      </trkpt>
      <trkpt lat="47.27012" lon="-2.32032">
        <ele>32.599998474121</ele>
        <time>2021-02-07T08:49:41.000Z</time>
      </trkpt>
      <trkpt lat="47.27011" lon="-2.32026">
        <ele>33</ele>
        <time>2021-02-07T08:49:42.000Z</time>
      </trkpt>
      <trkpt lat="47.27011" lon="-2.32021">
        <ele>33.400001525879</ele>
        <time>2021-02-07T08:49:43.000Z</time>
      </trkpt>
      <trkpt lat="47.2701" lon="-2.32016">
        <ele>33.799999237061</ele>
        <time>2021-02-07T08:49:44.000Z</time>
      </trkpt>
      <trkpt lat="47.27009" lon="-2.32012">
        <ele>34.200000762939</ele>
        <time>2021-02-07T08:49:45.000Z</time>
      </trkpt>
      <trkpt lat="47.27004" lon="-2.31994">
        <ele>34.200000762939</ele>
        <time>2021-02-07T08:49:50.000Z</time>
      </trkpt>
      <trkpt lat="47.27001" lon="-2.31992">
        <ele>34.200000762939</ele>
        <time>2021-02-07T08:49:53.000Z</time>
      </trkpt>
      <trkpt lat="47.26998" lon="-2.31991">
        <ele>34.200000762939</ele>
        <time>2021-02-07T08:49:56.000Z</time>
      </trkpt>
      <trkpt lat="47.26994" lon="-2.31993">
        <ele>34.200000762939</ele>
        <time>2021-02-07T08:50:02.000Z</time>
      </trkpt>
      <trkpt lat="47.26993" lon="-2.31993">
        <ele>34.200000762939</ele>
        <time>2021-02-07T08:50:03.000Z</time>
      </trkpt>
      <trkpt lat="47.2699" lon="-2.31994">
        <ele>34.200000762939</ele>
        <time>2021-02-07T08:50:28.000Z</time>
      </trkpt>
      <trkpt lat="47.26986" lon="-2.31994">
        <ele>34.200000762939</ele>
        <time>2021-02-07T08:50:30.000Z</time>
      </trkpt>
      <trkpt lat="47.26967" lon="-2.31999">
        <ele>34.200000762939</ele>
        <time>2021-02-07T08:50:36.000Z</time>
      </trkpt>
      <trkpt lat="47.26959" lon="-2.32">
        <ele>34.599998474121</ele>
        <time>2021-02-07T08:50:38.000Z</time>
      </trkpt>
      <trkpt lat="47.26955" lon="-2.31997">
        <ele>35.200000762939</ele>
        <time>2021-02-07T08:50:39.000Z</time>
      </trkpt>
      <trkpt lat="47.26952" lon="-2.31994">
        <ele>35.599998474121</ele>
        <time>2021-02-07T08:50:40.000Z</time>
      </trkpt>
      <trkpt lat="47.26948" lon="-2.31992">
        <ele>36</ele>
        <time>2021-02-07T08:50:41.000Z</time>
      </trkpt>
      <trkpt lat="47.26945" lon="-2.31989">
        <ele>36.400001525879</ele>
        <time>2021-02-07T08:50:42.000Z</time>
      </trkpt>
      <trkpt lat="47.26929" lon="-2.31969">
        <ele>36.799999237061</ele>
        <time>2021-02-07T08:50:48.000Z</time>
      </trkpt>
      <trkpt lat="47.26927" lon="-2.31965">
        <ele>37.200000762939</ele>
        <time>2021-02-07T08:50:49.000Z</time>
      </trkpt>
      <trkpt lat="47.26924" lon="-2.31961">
        <ele>37.799999237061</ele>
        <time>2021-02-07T08:50:50.000Z</time>
      </trkpt>
      <trkpt lat="47.26921" lon="-2.31957">
        <ele>38.200000762939</ele>
        <time>2021-02-07T08:50:51.000Z</time>
      </trkpt>
      <trkpt lat="47.26917" lon="-2.31953">
        <ele>38.599998474121</ele>
        <time>2021-02-07T08:50:52.000Z</time>
      </trkpt>
      <trkpt lat="47.26913" lon="-2.3195">
        <ele>38.599998474121</ele>
        <time>2021-02-07T08:50:53.000Z</time>
      </trkpt>
      <trkpt lat="47.26906" lon="-2.31942">
        <ele>38.599998474121</ele>
        <time>2021-02-07T08:50:55.000Z</time>
      </trkpt>
      <trkpt lat="47.269" lon="-2.31933">
        <ele>39</ele>
        <time>2021-02-07T08:50:57.000Z</time>
      </trkpt>
      <trkpt lat="47.26897" lon="-2.31928">
        <ele>39.400001525879</ele>
        <time>2021-02-07T08:50:58.000Z</time>
      </trkpt>
      <trkpt lat="47.26894" lon="-2.31923">
        <ele>39.799999237061</ele>
        <time>2021-02-07T08:50:59.000Z</time>
      </trkpt>
      <trkpt lat="47.26891" lon="-2.31918">
        <ele>40.200000762939</ele>
        <time>2021-02-07T08:51:00.000Z</time>
      </trkpt>
      <trkpt lat="47.26889" lon="-2.31913">
        <ele>40.599998474121</ele>
        <time>2021-02-07T08:51:01.000Z</time>
      </trkpt>
      <trkpt lat="47.2688" lon="-2.319">
        <ele>40.599998474121</ele>
        <time>2021-02-07T08:51:04.000Z</time>
      </trkpt>
      <trkpt lat="47.26876" lon="-2.31897">
        <ele>41</ele>
        <time>2021-02-07T08:51:05.000Z</time>
      </trkpt>
      <trkpt lat="47.26871" lon="-2.31895">
        <ele>41.400001525879</ele>
        <time>2021-02-07T08:51:06.000Z</time>
      </trkpt>
      <trkpt lat="47.26867" lon="-2.31894">
        <ele>41.799999237061</ele>
        <time>2021-02-07T08:51:07.000Z</time>
      </trkpt>
      <trkpt lat="47.26863" lon="-2.31892">
        <ele>42.200000762939</ele>
        <time>2021-02-07T08:51:08.000Z</time>
      </trkpt>
      <trkpt lat="47.26858" lon="-2.31891">
        <ele>42.599998474121</ele>
        <time>2021-02-07T08:51:09.000Z</time>
      </trkpt>
      <trkpt lat="47.26839" lon="-2.3188">
        <ele>43</ele>
        <time>2021-02-07T08:51:14.000Z</time>
      </trkpt>
      <trkpt lat="47.26836" lon="-2.31875">
        <ele>43.400001525879</ele>
        <time>2021-02-07T08:51:15.000Z</time>
      </trkpt>
      <trkpt lat="47.26834" lon="-2.31871">
        <ele>43.799999237061</ele>
        <time>2021-02-07T08:51:16.000Z</time>
      </trkpt>
      <trkpt lat="47.26832" lon="-2.31867">
        <ele>44.200000762939</ele>
        <time>2021-02-07T08:51:17.000Z</time>
      </trkpt>
      <trkpt lat="47.2683" lon="-2.31862">
        <ele>44.599998474121</ele>
        <time>2021-02-07T08:51:18.000Z</time>
      </trkpt>
      <trkpt lat="47.26829" lon="-2.31858">
        <ele>44.599998474121</ele>
        <time>2021-02-07T08:51:19.000Z</time>
      </trkpt>
      <trkpt lat="47.2682" lon="-2.31831">
        <ele>45</ele>
        <time>2021-02-07T08:51:25.000Z</time>
      </trkpt>
      <trkpt lat="47.26819" lon="-2.31827">
        <ele>45.400001525879</ele>
        <time>2021-02-07T08:51:26.000Z</time>
      </trkpt>
      <trkpt lat="47.26818" lon="-2.31824">
        <ele>45.799999237061</ele>
        <time>2021-02-07T08:51:27.000Z</time>
      </trkpt>
      <trkpt lat="47.26817" lon="-2.31821">
        <ele>46.400001525879</ele>
        <time>2021-02-07T08:51:28.000Z</time>
      </trkpt>
      <trkpt lat="47.26818" lon="-2.31817">
        <ele>46.799999237061</ele>
        <time>2021-02-07T08:51:29.000Z</time>
      </trkpt>
      <trkpt lat="47.26818" lon="-2.31812">
        <ele>46.799999237061</ele>
        <time>2021-02-07T08:51:31.000Z</time>
      </trkpt>
      <trkpt lat="47.26811" lon="-2.31811">
        <ele>46.799999237061</ele>
        <time>2021-02-07T08:51:35.000Z</time>
      </trkpt>
      <trkpt lat="47.26804" lon="-2.31816">
        <ele>46.799999237061</ele>
        <time>2021-02-07T08:51:38.000Z</time>
      </trkpt>
      <trkpt lat="47.26792" lon="-2.31822">
        <ele>46.799999237061</ele>
        <time>2021-02-07T08:51:42.000Z</time>
      </trkpt>
      <trkpt lat="47.26763" lon="-2.3184">
        <ele>46.799999237061</ele>
        <time>2021-02-07T08:51:51.000Z</time>
      </trkpt>
      <trkpt lat="47.26745" lon="-2.31855">
        <ele>46.799999237061</ele>
        <time>2021-02-07T08:51:58.000Z</time>
      </trkpt>
      <trkpt lat="47.26737" lon="-2.31865">
        <ele>46.799999237061</ele>
        <time>2021-02-07T08:52:03.000Z</time>
      </trkpt>
      <trkpt lat="47.2673" lon="-2.31868">
        <ele>46.799999237061</ele>
        <time>2021-02-07T08:52:08.000Z</time>
      </trkpt>
      <trkpt lat="47.26731" lon="-2.31861">
        <ele>46.799999237061</ele>
        <time>2021-02-07T08:52:11.000Z</time>
      </trkpt>
      <trkpt lat="47.26732" lon="-2.31852">
        <ele>47.200000762939</ele>
        <time>2021-02-07T08:52:16.000Z</time>
      </trkpt>
      <trkpt lat="47.26731" lon="-2.3185">
        <ele>47.599998474121</ele>
        <time>2021-02-07T08:52:17.000Z</time>
      </trkpt>
      <trkpt lat="47.26731" lon="-2.31847">
        <ele>48</ele>
        <time>2021-02-07T08:52:18.000Z</time>
      </trkpt>
      <trkpt lat="47.2673" lon="-2.31844">
        <ele>48.400001525879</ele>
        <time>2021-02-07T08:52:19.000Z</time>
      </trkpt>
      <trkpt lat="47.26729" lon="-2.3184">
        <ele>48.799999237061</ele>
        <time>2021-02-07T08:52:20.000Z</time>
      </trkpt>
      <trkpt lat="47.26727" lon="-2.31833">
        <ele>48.799999237061</ele>
        <time>2021-02-07T08:52:22.000Z</time>
      </trkpt>
      <trkpt lat="47.26719" lon="-2.31805">
        <ele>48.799999237061</ele>
        <time>2021-02-07T08:52:28.000Z</time>
      </trkpt>
      <trkpt lat="47.26709" lon="-2.31771">
        <ele>48.799999237061</ele>
        <time>2021-02-07T08:52:35.000Z</time>
      </trkpt>
      <trkpt lat="47.26693" lon="-2.31712">
        <ele>48.799999237061</ele>
        <time>2021-02-07T08:52:46.000Z</time>
      </trkpt>
      <trkpt lat="47.26679" lon="-2.31665">
        <ele>48.799999237061</ele>
        <time>2021-02-07T08:52:54.000Z</time>
      </trkpt>
      <trkpt lat="47.26664" lon="-2.3163">
        <ele>48.799999237061</ele>
        <time>2021-02-07T08:53:00.000Z</time>
      </trkpt>
      <trkpt lat="47.26642" lon="-2.31576">
        <ele>48.799999237061</ele>
        <time>2021-02-07T08:53:08.000Z</time>
      </trkpt>
      <trkpt lat="47.2662" lon="-2.31522">
        <ele>48.799999237061</ele>
        <time>2021-02-07T08:53:16.000Z</time>
      </trkpt>
      <trkpt lat="47.2661" lon="-2.31497">
        <ele>48.799999237061</ele>
        <time>2021-02-07T08:53:20.000Z</time>
      </trkpt>
      <trkpt lat="47.26612" lon="-2.31483">
        <ele>48.799999237061</ele>
        <time>2021-02-07T08:53:22.000Z</time>
      </trkpt>
      <trkpt lat="47.26621" lon="-2.31471">
        <ele>48.799999237061</ele>
        <time>2021-02-07T08:53:25.000Z</time>
      </trkpt>
      <trkpt lat="47.26627" lon="-2.31465">
        <ele>48.799999237061</ele>
        <time>2021-02-07T08:53:27.000Z</time>
      </trkpt>
      <trkpt lat="47.26641" lon="-2.31453">
        <ele>49.200000762939</ele>
        <time>2021-02-07T08:53:31.000Z</time>
      </trkpt>
      <trkpt lat="47.26643" lon="-2.3145">
        <ele>49.599998474121</ele>
        <time>2021-02-07T08:53:32.000Z</time>
      </trkpt>
      <trkpt lat="47.26647" lon="-2.31447">
        <ele>50</ele>
        <time>2021-02-07T08:53:33.000Z</time>
      </trkpt>
      <trkpt lat="47.2665" lon="-2.31444">
        <ele>50.400001525879</ele>
        <time>2021-02-07T08:53:34.000Z</time>
      </trkpt>
      <trkpt lat="47.26653" lon="-2.31442">
        <ele>50.799999237061</ele>
        <time>2021-02-07T08:53:35.000Z</time>
      </trkpt>
      <trkpt lat="47.2666" lon="-2.31438">
        <ele>50.799999237061</ele>
        <time>2021-02-07T08:53:37.000Z</time>
      </trkpt>
      <trkpt lat="47.26679" lon="-2.31427">
        <ele>51.200000762939</ele>
        <time>2021-02-07T08:53:42.000Z</time>
      </trkpt>
      <trkpt lat="47.26683" lon="-2.31425">
        <ele>51.599998474121</ele>
        <time>2021-02-07T08:53:43.000Z</time>
      </trkpt>
      <trkpt lat="47.26687" lon="-2.31422">
        <ele>52</ele>
        <time>2021-02-07T08:53:44.000Z</time>
      </trkpt>
      <trkpt lat="47.26691" lon="-2.3142">
        <ele>52.400001525879</ele>
        <time>2021-02-07T08:53:45.000Z</time>
      </trkpt>
      <trkpt lat="47.26696" lon="-2.31418">
        <ele>52.799999237061</ele>
        <time>2021-02-07T08:53:46.000Z</time>
      </trkpt>
      <trkpt lat="47.26713" lon="-2.3141">
        <ele>52.799999237061</ele>
        <time>2021-02-07T08:53:50.000Z</time>
      </trkpt>
      <trkpt lat="47.26717" lon="-2.31406">
        <ele>52.799999237061</ele>
        <time>2021-02-07T08:53:51.000Z</time>
      </trkpt>
      <trkpt lat="47.26729" lon="-2.31398">
        <ele>52.799999237061</ele>
        <time>2021-02-07T08:53:54.000Z</time>
      </trkpt>
      <trkpt lat="47.2674" lon="-2.31392">
        <ele>53.200000762939</ele>
        <time>2021-02-07T08:53:57.000Z</time>
      </trkpt>
      <trkpt lat="47.26743" lon="-2.3139">
        <ele>53.599998474121</ele>
        <time>2021-02-07T08:53:58.000Z</time>
      </trkpt>
      <trkpt lat="47.26746" lon="-2.31388">
        <ele>54.200000762939</ele>
        <time>2021-02-07T08:53:59.000Z</time>
      </trkpt>
      <trkpt lat="47.26749" lon="-2.31388">
        <ele>54.599998474121</ele>
        <time>2021-02-07T08:54:00.000Z</time>
      </trkpt>
      <trkpt lat="47.26752" lon="-2.31386">
        <ele>55</ele>
        <time>2021-02-07T08:54:01.000Z</time>
      </trkpt>
      <trkpt lat="47.26766" lon="-2.31377">
        <ele>55</ele>
        <time>2021-02-07T08:54:05.000Z</time>
      </trkpt>
      <trkpt lat="47.26785" lon="-2.31367">
        <ele>55</ele>
        <time>2021-02-07T08:54:11.000Z</time>
      </trkpt>
      <trkpt lat="47.26813" lon="-2.31347">
        <ele>55</ele>
        <time>2021-02-07T08:54:19.000Z</time>
      </trkpt>
      <trkpt lat="47.26831" lon="-2.31333">
        <ele>55</ele>
        <time>2021-02-07T08:54:25.000Z</time>
      </trkpt>
      <trkpt lat="47.26835" lon="-2.31326">
        <ele>55</ele>
        <time>2021-02-07T08:54:27.000Z</time>
      </trkpt>
      <trkpt lat="47.26838" lon="-2.31315">
        <ele>55</ele>
        <time>2021-02-07T08:54:29.000Z</time>
      </trkpt>
      <trkpt lat="47.26841" lon="-2.3131">
        <ele>55</ele>
        <time>2021-02-07T08:54:30.000Z</time>
      </trkpt>
      <trkpt lat="47.26847" lon="-2.31281">
        <ele>55</ele>
        <time>2021-02-07T08:54:35.000Z</time>
      </trkpt>
      <trkpt lat="47.26849" lon="-2.31268">
        <ele>55.400001525879</ele>
        <time>2021-02-07T08:54:37.000Z</time>
      </trkpt>
      <trkpt lat="47.26849" lon="-2.31261">
        <ele>55.799999237061</ele>
        <time>2021-02-07T08:54:38.000Z</time>
      </trkpt>
      <trkpt lat="47.2685" lon="-2.31255">
        <ele>56.200000762939</ele>
        <time>2021-02-07T08:54:39.000Z</time>
      </trkpt>
      <trkpt lat="47.2685" lon="-2.31248">
        <ele>56.599998474121</ele>
        <time>2021-02-07T08:54:40.000Z</time>
      </trkpt>
      <trkpt lat="47.2685" lon="-2.31242">
        <ele>57</ele>
        <time>2021-02-07T08:54:41.000Z</time>
      </trkpt>
      <trkpt lat="47.2685" lon="-2.31236">
        <ele>57</ele>
        <time>2021-02-07T08:54:42.000Z</time>
      </trkpt>
      <trkpt lat="47.26851" lon="-2.31189">
        <ele>57</ele>
        <time>2021-02-07T08:54:49.000Z</time>
      </trkpt>
      <trkpt lat="47.26853" lon="-2.31129">
        <ele>57</ele>
        <time>2021-02-07T08:54:58.000Z</time>
      </trkpt>
      <trkpt lat="47.26853" lon="-2.31089">
        <ele>57</ele>
        <time>2021-02-07T08:55:05.000Z</time>
      </trkpt>
      <trkpt lat="47.26853" lon="-2.31061">
        <ele>57</ele>
        <time>2021-02-07T08:55:10.000Z</time>
      </trkpt>
      <trkpt lat="47.2685" lon="-2.31017">
        <ele>57</ele>
        <time>2021-02-07T08:55:17.000Z</time>
      </trkpt>
      <trkpt lat="47.26846" lon="-2.30971">
        <ele>57</ele>
        <time>2021-02-07T08:55:24.000Z</time>
      </trkpt>
      <trkpt lat="47.26841" lon="-2.3093">
        <ele>57</ele>
        <time>2021-02-07T08:55:31.000Z</time>
      </trkpt>
      <trkpt lat="47.26836" lon="-2.30898">
        <ele>57</ele>
        <time>2021-02-07T08:55:38.000Z</time>
      </trkpt>
      <trkpt lat="47.26832" lon="-2.30856">
        <ele>57</ele>
        <time>2021-02-07T08:55:46.000Z</time>
      </trkpt>
      <trkpt lat="47.26831" lon="-2.30811">
        <ele>57</ele>
        <time>2021-02-07T08:55:54.000Z</time>
      </trkpt>
      <trkpt lat="47.26838" lon="-2.30771">
        <ele>57</ele>
        <time>2021-02-07T08:56:02.000Z</time>
      </trkpt>
      <trkpt lat="47.26855" lon="-2.30722">
        <ele>57</ele>
        <time>2021-02-07T08:56:11.000Z</time>
      </trkpt>
      <trkpt lat="47.26874" lon="-2.30686">
        <ele>57</ele>
        <time>2021-02-07T08:56:17.000Z</time>
      </trkpt>
      <trkpt lat="47.269" lon="-2.30655">
        <ele>57</ele>
        <time>2021-02-07T08:56:23.000Z</time>
      </trkpt>
      <trkpt lat="47.26917" lon="-2.30633">
        <ele>57</ele>
        <time>2021-02-07T08:56:27.000Z</time>
      </trkpt>
      <trkpt lat="47.26923" lon="-2.30617">
        <ele>57</ele>
        <time>2021-02-07T08:56:29.000Z</time>
      </trkpt>
      <trkpt lat="47.26925" lon="-2.30582">
        <ele>57</ele>
        <time>2021-02-07T08:56:33.000Z</time>
      </trkpt>
      <trkpt lat="47.26918" lon="-2.3055">
        <ele>57</ele>
        <time>2021-02-07T08:56:37.000Z</time>
      </trkpt>
      <trkpt lat="47.26916" lon="-2.30542">
        <ele>57</ele>
        <time>2021-02-07T08:56:38.000Z</time>
      </trkpt>
      <trkpt lat="47.26911" lon="-2.30509">
        <ele>57</ele>
        <time>2021-02-07T08:56:42.000Z</time>
      </trkpt>
      <trkpt lat="47.26911" lon="-2.30501">
        <ele>57</ele>
        <time>2021-02-07T08:56:43.000Z</time>
      </trkpt>
      <trkpt lat="47.26914" lon="-2.30456">
        <ele>57</ele>
        <time>2021-02-07T08:56:48.000Z</time>
      </trkpt>
      <trkpt lat="47.26909" lon="-2.30413">
        <ele>57</ele>
        <time>2021-02-07T08:56:53.000Z</time>
      </trkpt>
      <trkpt lat="47.26899" lon="-2.30348">
        <ele>57</ele>
        <time>2021-02-07T08:57:01.000Z</time>
      </trkpt>
      <trkpt lat="47.26893" lon="-2.3029">
        <ele>57</ele>
        <time>2021-02-07T08:57:08.000Z</time>
      </trkpt>
      <trkpt lat="47.26883" lon="-2.30229">
        <ele>57</ele>
        <time>2021-02-07T08:57:16.000Z</time>
      </trkpt>
      <trkpt lat="47.26875" lon="-2.30201">
        <ele>57</ele>
        <time>2021-02-07T08:57:20.000Z</time>
      </trkpt>
      <trkpt lat="47.26871" lon="-2.30184">
        <ele>57</ele>
        <time>2021-02-07T08:57:23.000Z</time>
      </trkpt>
      <trkpt lat="47.2687" lon="-2.30166">
        <ele>57</ele>
        <time>2021-02-07T08:57:28.000Z</time>
      </trkpt>
      <trkpt lat="47.26877" lon="-2.30157">
        <ele>57</ele>
        <time>2021-02-07T08:57:32.000Z</time>
      </trkpt>
      <trkpt lat="47.2688" lon="-2.30154">
        <ele>57</ele>
        <time>2021-02-07T08:57:33.000Z</time>
      </trkpt>
      <trkpt lat="47.269" lon="-2.30134">
        <ele>57</ele>
        <time>2021-02-07T08:57:38.000Z</time>
      </trkpt>
      <trkpt lat="47.26936" lon="-2.30109">
        <ele>57</ele>
        <time>2021-02-07T08:57:45.000Z</time>
      </trkpt>
      <trkpt lat="47.26948" lon="-2.30104">
        <ele>57</ele>
        <time>2021-02-07T08:57:47.000Z</time>
      </trkpt>
      <trkpt lat="47.26965" lon="-2.30093">
        <ele>57</ele>
        <time>2021-02-07T08:57:50.000Z</time>
      </trkpt>
      <trkpt lat="47.27001" lon="-2.30066">
        <ele>57</ele>
        <time>2021-02-07T08:57:57.000Z</time>
      </trkpt>
      <trkpt lat="47.2701" lon="-2.30055">
        <ele>57</ele>
        <time>2021-02-07T08:57:59.000Z</time>
      </trkpt>
      <trkpt lat="47.27015" lon="-2.30041">
        <ele>57</ele>
        <time>2021-02-07T08:58:01.000Z</time>
      </trkpt>
      <trkpt lat="47.27029" lon="-2.29997">
        <ele>57</ele>
        <time>2021-02-07T08:58:07.000Z</time>
      </trkpt>
      <trkpt lat="47.27047" lon="-2.29957">
        <ele>57</ele>
        <time>2021-02-07T08:58:13.000Z</time>
      </trkpt>
      <trkpt lat="47.2705" lon="-2.29951">
        <ele>57</ele>
        <time>2021-02-07T08:58:14.000Z</time>
      </trkpt>
      <trkpt lat="47.27057" lon="-2.29939">
        <ele>57</ele>
        <time>2021-02-07T08:58:16.000Z</time>
      </trkpt>
      <trkpt lat="47.27064" lon="-2.29927">
        <ele>57</ele>
        <time>2021-02-07T08:58:18.000Z</time>
      </trkpt>
      <trkpt lat="47.27069" lon="-2.29921">
        <ele>57</ele>
        <time>2021-02-07T08:58:19.000Z</time>
      </trkpt>
      <trkpt lat="47.27089" lon="-2.29898">
        <ele>57</ele>
        <time>2021-02-07T08:58:23.000Z</time>
      </trkpt>
      <trkpt lat="47.271" lon="-2.29869">
        <ele>57</ele>
        <time>2021-02-07T08:58:27.000Z</time>
      </trkpt>
      <trkpt lat="47.27102" lon="-2.29862">
        <ele>57</ele>
        <time>2021-02-07T08:58:28.000Z</time>
      </trkpt>
      <trkpt lat="47.27107" lon="-2.2984">
        <ele>57</ele>
        <time>2021-02-07T08:58:31.000Z</time>
      </trkpt>
      <trkpt lat="47.2711" lon="-2.29818">
        <ele>57</ele>
        <time>2021-02-07T08:58:34.000Z</time>
      </trkpt>
      <trkpt lat="47.27112" lon="-2.29802">
        <ele>57</ele>
        <time>2021-02-07T08:58:36.000Z</time>
      </trkpt>
      <trkpt lat="47.27112" lon="-2.29762">
        <ele>57</ele>
        <time>2021-02-07T08:58:41.000Z</time>
      </trkpt>
      <trkpt lat="47.27114" lon="-2.29721">
        <ele>57</ele>
        <time>2021-02-07T08:58:46.000Z</time>
      </trkpt>
      <trkpt lat="47.27116" lon="-2.29713">
        <ele>57</ele>
        <time>2021-02-07T08:58:47.000Z</time>
      </trkpt>
      <trkpt lat="47.27117" lon="-2.29686">
        <ele>57</ele>
        <time>2021-02-07T08:58:51.000Z</time>
      </trkpt>
      <trkpt lat="47.27117" lon="-2.29682">
        <ele>57</ele>
        <time>2021-02-07T08:58:52.000Z</time>
      </trkpt>
      <trkpt lat="47.27117" lon="-2.29671">
        <ele>57</ele>
        <time>2021-02-07T08:58:56.000Z</time>
      </trkpt>
      <trkpt lat="47.27118" lon="-2.29663">
        <ele>57</ele>
        <time>2021-02-07T08:58:59.000Z</time>
      </trkpt>
      <trkpt lat="47.27121" lon="-2.29656">
        <ele>57</ele>
        <time>2021-02-07T08:59:01.000Z</time>
      </trkpt>
      <trkpt lat="47.27131" lon="-2.29644">
        <ele>57</ele>
        <time>2021-02-07T08:59:07.000Z</time>
      </trkpt>
      <trkpt lat="47.27145" lon="-2.2964">
        <ele>57</ele>
        <time>2021-02-07T08:59:14.000Z</time>
      </trkpt>
      <trkpt lat="47.27162" lon="-2.29636">
        <ele>57</ele>
        <time>2021-02-07T08:59:20.000Z</time>
      </trkpt>
      <trkpt lat="47.27185" lon="-2.29619">
        <ele>57</ele>
        <time>2021-02-07T08:59:26.000Z</time>
      </trkpt>
      <trkpt lat="47.27211" lon="-2.29599">
        <ele>57</ele>
        <time>2021-02-07T08:59:32.000Z</time>
      </trkpt>
      <trkpt lat="47.27222" lon="-2.2959">
        <ele>57</ele>
        <time>2021-02-07T08:59:35.000Z</time>
      </trkpt>
      <trkpt lat="47.27231" lon="-2.29586">
        <ele>57</ele>
        <time>2021-02-07T08:59:37.000Z</time>
      </trkpt>
      <trkpt lat="47.27235" lon="-2.29582">
        <ele>57</ele>
        <time>2021-02-07T08:59:38.000Z</time>
      </trkpt>
      <trkpt lat="47.27243" lon="-2.29563">
        <ele>57</ele>
        <time>2021-02-07T08:59:41.000Z</time>
      </trkpt>
      <trkpt lat="47.27245" lon="-2.2954">
        <ele>57</ele>
        <time>2021-02-07T08:59:44.000Z</time>
      </trkpt>
      <trkpt lat="47.27245" lon="-2.29533">
        <ele>57</ele>
        <time>2021-02-07T08:59:45.000Z</time>
      </trkpt>
      <trkpt lat="47.27237" lon="-2.29507">
        <ele>57</ele>
        <time>2021-02-07T08:59:49.000Z</time>
      </trkpt>
      <trkpt lat="47.27221" lon="-2.29458">
        <ele>57</ele>
        <time>2021-02-07T08:59:55.000Z</time>
      </trkpt>
      <trkpt lat="47.27201" lon="-2.29392">
        <ele>57</ele>
        <time>2021-02-07T09:00:03.000Z</time>
      </trkpt>
      <trkpt lat="47.27192" lon="-2.29371">
        <ele>57</ele>
        <time>2021-02-07T09:00:06.000Z</time>
      </trkpt>
      <trkpt lat="47.27183" lon="-2.29357">
        <ele>57</ele>
        <time>2021-02-07T09:00:08.000Z</time>
      </trkpt>
      <trkpt lat="47.27167" lon="-2.2934">
        <ele>57</ele>
        <time>2021-02-07T09:00:12.000Z</time>
      </trkpt>
      <trkpt lat="47.27164" lon="-2.29336">
        <ele>57</ele>
        <time>2021-02-07T09:00:13.000Z</time>
      </trkpt>
      <trkpt lat="47.27155" lon="-2.2932">
        <ele>57</ele>
        <time>2021-02-07T09:00:18.000Z</time>
      </trkpt>
      <trkpt lat="47.27154" lon="-2.29312">
        <ele>57</ele>
        <time>2021-02-07T09:00:20.000Z</time>
      </trkpt>
      <trkpt lat="47.27156" lon="-2.29303">
        <ele>57</ele>
        <time>2021-02-07T09:00:22.000Z</time>
      </trkpt>
      <trkpt lat="47.27167" lon="-2.2927">
        <ele>57</ele>
        <time>2021-02-07T09:00:27.000Z</time>
      </trkpt>
      <trkpt lat="47.27173" lon="-2.29249">
        <ele>57</ele>
        <time>2021-02-07T09:00:30.000Z</time>
      </trkpt>
      <trkpt lat="47.27173" lon="-2.29236">
        <ele>57</ele>
        <time>2021-02-07T09:00:32.000Z</time>
      </trkpt>
      <trkpt lat="47.27166" lon="-2.29212">
        <ele>57</ele>
        <time>2021-02-07T09:00:36.000Z</time>
      </trkpt>
      <trkpt lat="47.27158" lon="-2.29199">
        <ele>57</ele>
        <time>2021-02-07T09:00:38.000Z</time>
      </trkpt>
      <trkpt lat="47.27156" lon="-2.29191">
        <ele>57</ele>
        <time>2021-02-07T09:00:39.000Z</time>
      </trkpt>
      <trkpt lat="47.27155" lon="-2.29182">
        <ele>57</ele>
        <time>2021-02-07T09:00:40.000Z</time>
      </trkpt>
      <trkpt lat="47.27156" lon="-2.2917">
        <ele>57</ele>
        <time>2021-02-07T09:00:42.000Z</time>
      </trkpt>
      <trkpt lat="47.2716" lon="-2.29154">
        <ele>57</ele>
        <time>2021-02-07T09:00:45.000Z</time>
      </trkpt>
      <trkpt lat="47.27169" lon="-2.29141">
        <ele>57</ele>
        <time>2021-02-07T09:00:48.000Z</time>
      </trkpt>
      <trkpt lat="47.27175" lon="-2.29134">
        <ele>57</ele>
        <time>2021-02-07T09:00:50.000Z</time>
      </trkpt>
      <trkpt lat="47.27185" lon="-2.29121">
        <ele>57</ele>
        <time>2021-02-07T09:00:52.000Z</time>
      </trkpt>
      <trkpt lat="47.27192" lon="-2.29111">
        <ele>57</ele>
        <time>2021-02-07T09:00:54.000Z</time>
      </trkpt>
      <trkpt lat="47.27201" lon="-2.29101">
        <ele>57</ele>
        <time>2021-02-07T09:00:56.000Z</time>
      </trkpt>
      <trkpt lat="47.27213" lon="-2.2909">
        <ele>57</ele>
        <time>2021-02-07T09:00:59.000Z</time>
      </trkpt>
      <trkpt lat="47.27218" lon="-2.29085">
        <ele>57</ele>
        <time>2021-02-07T09:01:00.000Z</time>
      </trkpt>
      <trkpt lat="47.27236" lon="-2.29069">
        <ele>56.599998474121</ele>
        <time>2021-02-07T09:01:04.000Z</time>
      </trkpt>
      <trkpt lat="47.2724" lon="-2.29066">
        <ele>56.200000762939</ele>
        <time>2021-02-07T09:01:05.000Z</time>
      </trkpt>
      <trkpt lat="47.27245" lon="-2.29063">
        <ele>55.799999237061</ele>
        <time>2021-02-07T09:01:06.000Z</time>
      </trkpt>
      <trkpt lat="47.2725" lon="-2.29059">
        <ele>55.400001525879</ele>
        <time>2021-02-07T09:01:07.000Z</time>
      </trkpt>
      <trkpt lat="47.27254" lon="-2.29054">
        <ele>55</ele>
        <time>2021-02-07T09:01:08.000Z</time>
      </trkpt>
      <trkpt lat="47.2726" lon="-2.29042">
        <ele>55</ele>
        <time>2021-02-07T09:01:10.000Z</time>
      </trkpt>
      <trkpt lat="47.27269" lon="-2.29028">
        <ele>55</ele>
        <time>2021-02-07T09:01:13.000Z</time>
      </trkpt>
      <trkpt lat="47.27274" lon="-2.29014">
        <ele>55</ele>
        <time>2021-02-07T09:01:15.000Z</time>
      </trkpt>
      <trkpt lat="47.27283" lon="-2.28996">
        <ele>55</ele>
        <time>2021-02-07T09:01:19.000Z</time>
      </trkpt>
      <trkpt lat="47.27293" lon="-2.28982">
        <ele>55</ele>
        <time>2021-02-07T09:01:24.000Z</time>
      </trkpt>
      <trkpt lat="47.27302" lon="-2.28972">
        <ele>55</ele>
        <time>2021-02-07T09:01:30.000Z</time>
      </trkpt>
      <trkpt lat="47.27308" lon="-2.28958">
        <ele>55</ele>
        <time>2021-02-07T09:01:35.000Z</time>
      </trkpt>
      <trkpt lat="47.27312" lon="-2.28952">
        <ele>55</ele>
        <time>2021-02-07T09:01:37.000Z</time>
      </trkpt>
      <trkpt lat="47.27318" lon="-2.28948">
        <ele>55</ele>
        <time>2021-02-07T09:01:39.000Z</time>
      </trkpt>
      <trkpt lat="47.27335" lon="-2.28954">
        <ele>55</ele>
        <time>2021-02-07T09:01:43.000Z</time>
      </trkpt>
      <trkpt lat="47.27339" lon="-2.28951">
        <ele>55</ele>
        <time>2021-02-07T09:01:44.000Z</time>
      </trkpt>
      <trkpt lat="47.27343" lon="-2.28941">
        <ele>55</ele>
        <time>2021-02-07T09:01:46.000Z</time>
      </trkpt>
      <trkpt lat="47.27344" lon="-2.28928">
        <ele>55</ele>
        <time>2021-02-07T09:01:48.000Z</time>
      </trkpt>
      <trkpt lat="47.27348" lon="-2.28895">
        <ele>55</ele>
        <time>2021-02-07T09:01:52.000Z</time>
      </trkpt>
      <trkpt lat="47.27358" lon="-2.28846">
        <ele>55</ele>
        <time>2021-02-07T09:01:58.000Z</time>
      </trkpt>
      <trkpt lat="47.27361" lon="-2.28838">
        <ele>55</ele>
        <time>2021-02-07T09:01:59.000Z</time>
      </trkpt>
      <trkpt lat="47.27365" lon="-2.28812">
        <ele>55</ele>
        <time>2021-02-07T09:02:02.000Z</time>
      </trkpt>
      <trkpt lat="47.27365" lon="-2.28803">
        <ele>55</ele>
        <time>2021-02-07T09:02:03.000Z</time>
      </trkpt>
      <trkpt lat="47.27363" lon="-2.28795">
        <ele>55</ele>
        <time>2021-02-07T09:02:04.000Z</time>
      </trkpt>
      <trkpt lat="47.27359" lon="-2.28777">
        <ele>55</ele>
        <time>2021-02-07T09:02:07.000Z</time>
      </trkpt>
      <trkpt lat="47.27354" lon="-2.28774">
        <ele>55</ele>
        <time>2021-02-07T09:02:08.000Z</time>
      </trkpt>
      <trkpt lat="47.27345" lon="-2.28771">
        <ele>55</ele>
        <time>2021-02-07T09:02:10.000Z</time>
      </trkpt>
      <trkpt lat="47.27332" lon="-2.28757">
        <ele>55</ele>
        <time>2021-02-07T09:02:15.000Z</time>
      </trkpt>
      <trkpt lat="47.27332" lon="-2.28739">
        <ele>55</ele>
        <time>2021-02-07T09:02:18.000Z</time>
      </trkpt>
      <trkpt lat="47.27335" lon="-2.28726">
        <ele>55</ele>
        <time>2021-02-07T09:02:20.000Z</time>
      </trkpt>
      <trkpt lat="47.27341" lon="-2.28704">
        <ele>55</ele>
        <time>2021-02-07T09:02:23.000Z</time>
      </trkpt>
      <trkpt lat="47.27348" lon="-2.28664">
        <ele>55</ele>
        <time>2021-02-07T09:02:29.000Z</time>
      </trkpt>
      <trkpt lat="47.27356" lon="-2.28633">
        <ele>55</ele>
        <time>2021-02-07T09:02:35.000Z</time>
      </trkpt>
      <trkpt lat="47.27356" lon="-2.28615">
        <ele>55</ele>
        <time>2021-02-07T09:02:39.000Z</time>
      </trkpt>
      <trkpt lat="47.27353" lon="-2.28612">
        <ele>55</ele>
        <time>2021-02-07T09:02:40.000Z</time>
      </trkpt>
      <trkpt lat="47.27337" lon="-2.28606">
        <ele>55</ele>
        <time>2021-02-07T09:02:44.000Z</time>
      </trkpt>
      <trkpt lat="47.27305" lon="-2.28598">
        <ele>55</ele>
        <time>2021-02-07T09:02:50.000Z</time>
      </trkpt>
      <trkpt lat="47.27274" lon="-2.28592">
        <ele>55</ele>
        <time>2021-02-07T09:02:56.000Z</time>
      </trkpt>
      <trkpt lat="47.2727" lon="-2.28591">
        <ele>55.400001525879</ele>
        <time>2021-02-07T09:02:57.000Z</time>
      </trkpt>
      <trkpt lat="47.27265" lon="-2.28591">
        <ele>55.799999237061</ele>
        <time>2021-02-07T09:02:58.000Z</time>
      </trkpt>
      <trkpt lat="47.2726" lon="-2.28591">
        <ele>56.200000762939</ele>
        <time>2021-02-07T09:02:59.000Z</time>
      </trkpt>
      <trkpt lat="47.27254" lon="-2.2859">
        <ele>56.599998474121</ele>
        <time>2021-02-07T09:03:00.000Z</time>
      </trkpt>
      <trkpt lat="47.2725" lon="-2.2859">
        <ele>57</ele>
        <time>2021-02-07T09:03:01.000Z</time>
      </trkpt>
      <trkpt lat="47.27244" lon="-2.28591">
        <ele>57</ele>
        <time>2021-02-07T09:03:02.000Z</time>
      </trkpt>
      <trkpt lat="47.27224" lon="-2.28593">
        <ele>57</ele>
        <time>2021-02-07T09:03:06.000Z</time>
      </trkpt>
      <trkpt lat="47.27198" lon="-2.28598">
        <ele>57</ele>
        <time>2021-02-07T09:03:12.000Z</time>
      </trkpt>
      <trkpt lat="47.27184" lon="-2.28594">
        <ele>57</ele>
        <time>2021-02-07T09:03:16.000Z</time>
      </trkpt>
      <trkpt lat="47.27174" lon="-2.28574">
        <ele>57</ele>
        <time>2021-02-07T09:03:20.000Z</time>
      </trkpt>
      <trkpt lat="47.27172" lon="-2.28568">
        <ele>57</ele>
        <time>2021-02-07T09:03:21.000Z</time>
      </trkpt>
      <trkpt lat="47.27166" lon="-2.28548">
        <ele>57</ele>
        <time>2021-02-07T09:03:24.000Z</time>
      </trkpt>
      <trkpt lat="47.27164" lon="-2.28541">
        <ele>57.400001525879</ele>
        <time>2021-02-07T09:03:25.000Z</time>
      </trkpt>
      <trkpt lat="47.27163" lon="-2.28534">
        <ele>57.799999237061</ele>
        <time>2021-02-07T09:03:26.000Z</time>
      </trkpt>
      <trkpt lat="47.27162" lon="-2.28526">
        <ele>58.400001525879</ele>
        <time>2021-02-07T09:03:27.000Z</time>
      </trkpt>
      <trkpt lat="47.2716" lon="-2.28518">
        <ele>58.799999237061</ele>
        <time>2021-02-07T09:03:28.000Z</time>
      </trkpt>
      <trkpt lat="47.27159" lon="-2.2851">
        <ele>59.200000762939</ele>
        <time>2021-02-07T09:03:29.000Z</time>
      </trkpt>
      <trkpt lat="47.27157" lon="-2.28503">
        <ele>59.200000762939</ele>
        <time>2021-02-07T09:03:30.000Z</time>
      </trkpt>
      <trkpt lat="47.2715" lon="-2.28461">
        <ele>59.200000762939</ele>
        <time>2021-02-07T09:03:36.000Z</time>
      </trkpt>
      <trkpt lat="47.27149" lon="-2.28454">
        <ele>59.200000762939</ele>
        <time>2021-02-07T09:03:37.000Z</time>
      </trkpt>
      <trkpt lat="47.27146" lon="-2.28426">
        <ele>59.599998474121</ele>
        <time>2021-02-07T09:03:41.000Z</time>
      </trkpt>
      <trkpt lat="47.27146" lon="-2.28419">
        <ele>60</ele>
        <time>2021-02-07T09:03:42.000Z</time>
      </trkpt>
      <trkpt lat="47.27145" lon="-2.28411">
        <ele>60.400001525879</ele>
        <time>2021-02-07T09:03:43.000Z</time>
      </trkpt>
      <trkpt lat="47.27145" lon="-2.28403">
        <ele>60.799999237061</ele>
        <time>2021-02-07T09:03:44.000Z</time>
      </trkpt>
      <trkpt lat="47.27145" lon="-2.28395">
        <ele>61.200000762939</ele>
        <time>2021-02-07T09:03:45.000Z</time>
      </trkpt>
      <trkpt lat="47.27143" lon="-2.2838">
        <ele>61.200000762939</ele>
        <time>2021-02-07T09:03:47.000Z</time>
      </trkpt>
      <trkpt lat="47.27142" lon="-2.28373">
        <ele>61.200000762939</ele>
        <time>2021-02-07T09:03:48.000Z</time>
      </trkpt>
      <trkpt lat="47.27139" lon="-2.28338">
        <ele>61.200000762939</ele>
        <time>2021-02-07T09:03:52.000Z</time>
      </trkpt>
      <trkpt lat="47.27138" lon="-2.28329">
        <ele>61.200000762939</ele>
        <time>2021-02-07T09:03:53.000Z</time>
      </trkpt>
      <trkpt lat="47.2713" lon="-2.28295">
        <ele>61.200000762939</ele>
        <time>2021-02-07T09:03:57.000Z</time>
      </trkpt>
      <trkpt lat="47.27127" lon="-2.28287">
        <ele>61.200000762939</ele>
        <time>2021-02-07T09:03:58.000Z</time>
      </trkpt>
      <trkpt lat="47.27119" lon="-2.28258">
        <ele>61.200000762939</ele>
        <time>2021-02-07T09:04:02.000Z</time>
      </trkpt>
      <trkpt lat="47.27116" lon="-2.28243">
        <ele>61.200000762939</ele>
        <time>2021-02-07T09:04:04.000Z</time>
      </trkpt>
      <trkpt lat="47.27117" lon="-2.28226">
        <ele>61.200000762939</ele>
        <time>2021-02-07T09:04:06.000Z</time>
      </trkpt>
      <trkpt lat="47.27126" lon="-2.28165">
        <ele>61.200000762939</ele>
        <time>2021-02-07T09:04:14.000Z</time>
      </trkpt>
      <trkpt lat="47.27127" lon="-2.28159">
        <ele>61.200000762939</ele>
        <time>2021-02-07T09:04:15.000Z</time>
      </trkpt>
      <trkpt lat="47.27132" lon="-2.28151">
        <ele>61.200000762939</ele>
        <time>2021-02-07T09:04:17.000Z</time>
      </trkpt>
      <trkpt lat="47.27144" lon="-2.2815">
        <ele>61.200000762939</ele>
        <time>2021-02-07T09:04:20.000Z</time>
      </trkpt>
      <trkpt lat="47.27149" lon="-2.2815">
        <ele>61.200000762939</ele>
        <time>2021-02-07T09:04:21.000Z</time>
      </trkpt>
      <trkpt lat="47.27155" lon="-2.28145">
        <ele>61.200000762939</ele>
        <time>2021-02-07T09:04:23.000Z</time>
      </trkpt>
      <trkpt lat="47.27155" lon="-2.28129">
        <ele>61.200000762939</ele>
        <time>2021-02-07T09:04:26.000Z</time>
      </trkpt>
      <trkpt lat="47.2715" lon="-2.28092">
        <ele>61.200000762939</ele>
        <time>2021-02-07T09:04:31.000Z</time>
      </trkpt>
      <trkpt lat="47.27146" lon="-2.28062">
        <ele>61.799999237061</ele>
        <time>2021-02-07T09:04:35.000Z</time>
      </trkpt>
      <trkpt lat="47.27143" lon="-2.28057">
        <ele>62.200000762939</ele>
        <time>2021-02-07T09:04:36.000Z</time>
      </trkpt>
      <trkpt lat="47.27139" lon="-2.28054">
        <ele>62.599998474121</ele>
        <time>2021-02-07T09:04:37.000Z</time>
      </trkpt>
      <trkpt lat="47.27134" lon="-2.28053">
        <ele>63</ele>
        <time>2021-02-07T09:04:38.000Z</time>
      </trkpt>
      <trkpt lat="47.2713" lon="-2.28053">
        <ele>63.599998474121</ele>
        <time>2021-02-07T09:04:39.000Z</time>
      </trkpt>
      <trkpt lat="47.2712" lon="-2.28038">
        <ele>63.599998474121</ele>
        <time>2021-02-07T09:04:42.000Z</time>
      </trkpt>
      <trkpt lat="47.27119" lon="-2.28031">
        <ele>63.599998474121</ele>
        <time>2021-02-07T09:04:43.000Z</time>
      </trkpt>
      <trkpt lat="47.27113" lon="-2.28001">
        <ele>63.599998474121</ele>
        <time>2021-02-07T09:04:47.000Z</time>
      </trkpt>
      <trkpt lat="47.27107" lon="-2.2799">
        <ele>63.599998474121</ele>
        <time>2021-02-07T09:04:49.000Z</time>
      </trkpt>
      <trkpt lat="47.27093" lon="-2.27985">
        <ele>63.599998474121</ele>
        <time>2021-02-07T09:04:52.000Z</time>
      </trkpt>
      <trkpt lat="47.27076" lon="-2.27971">
        <ele>64</ele>
        <time>2021-02-07T09:04:56.000Z</time>
      </trkpt>
      <trkpt lat="47.27073" lon="-2.27966">
        <ele>64.400001525879</ele>
        <time>2021-02-07T09:04:57.000Z</time>
      </trkpt>
      <trkpt lat="47.27071" lon="-2.27959">
        <ele>64.800003051758</ele>
        <time>2021-02-07T09:04:58.000Z</time>
      </trkpt>
      <trkpt lat="47.27069" lon="-2.27953">
        <ele>65.199996948242</ele>
        <time>2021-02-07T09:04:59.000Z</time>
      </trkpt>
      <trkpt lat="47.27067" lon="-2.27945">
        <ele>65.599998474121</ele>
        <time>2021-02-07T09:05:00.000Z</time>
      </trkpt>
      <trkpt lat="47.2707" lon="-2.27921">
        <ele>65.599998474121</ele>
        <time>2021-02-07T09:05:03.000Z</time>
      </trkpt>
      <trkpt lat="47.27084" lon="-2.27895">
        <ele>65.599998474121</ele>
        <time>2021-02-07T09:05:07.000Z</time>
      </trkpt>
      <trkpt lat="47.27093" lon="-2.27886">
        <ele>65.599998474121</ele>
        <time>2021-02-07T09:05:09.000Z</time>
      </trkpt>
      <trkpt lat="47.27099" lon="-2.27885">
        <ele>65.599998474121</ele>
        <time>2021-02-07T09:05:10.000Z</time>
      </trkpt>
      <trkpt lat="47.27111" lon="-2.27874">
        <ele>65.599998474121</ele>
        <time>2021-02-07T09:05:13.000Z</time>
      </trkpt>
      <trkpt lat="47.27114" lon="-2.2786">
        <ele>65.199996948242</ele>
        <time>2021-02-07T09:05:15.000Z</time>
      </trkpt>
      <trkpt lat="47.27115" lon="-2.27852">
        <ele>64.800003051758</ele>
        <time>2021-02-07T09:05:16.000Z</time>
      </trkpt>
      <trkpt lat="47.27115" lon="-2.27844">
        <ele>64.400001525879</ele>
        <time>2021-02-07T09:05:17.000Z</time>
      </trkpt>
      <trkpt lat="47.27116" lon="-2.27835">
        <ele>64</ele>
        <time>2021-02-07T09:05:18.000Z</time>
      </trkpt>
      <trkpt lat="47.27116" lon="-2.27826">
        <ele>63.599998474121</ele>
        <time>2021-02-07T09:05:19.000Z</time>
      </trkpt>
      <trkpt lat="47.27116" lon="-2.27807">
        <ele>63.599998474121</ele>
        <time>2021-02-07T09:05:21.000Z</time>
      </trkpt>
      <trkpt lat="47.27114" lon="-2.27798">
        <ele>63.599998474121</ele>
        <time>2021-02-07T09:05:22.000Z</time>
      </trkpt>
      <trkpt lat="47.27109" lon="-2.27783">
        <ele>63.200000762939</ele>
        <time>2021-02-07T09:05:24.000Z</time>
      </trkpt>
      <trkpt lat="47.27106" lon="-2.27776">
        <ele>62.799999237061</ele>
        <time>2021-02-07T09:05:25.000Z</time>
      </trkpt>
      <trkpt lat="47.27104" lon="-2.27769">
        <ele>62.400001525879</ele>
        <time>2021-02-07T09:05:26.000Z</time>
      </trkpt>
      <trkpt lat="47.271" lon="-2.27763">
        <ele>62</ele>
        <time>2021-02-07T09:05:27.000Z</time>
      </trkpt>
      <trkpt lat="47.27096" lon="-2.27758">
        <ele>61.599998474121</ele>
        <time>2021-02-07T09:05:28.000Z</time>
      </trkpt>
      <trkpt lat="47.27091" lon="-2.27753">
        <ele>61.599998474121</ele>
        <time>2021-02-07T09:05:29.000Z</time>
      </trkpt>
      <trkpt lat="47.27074" lon="-2.27744">
        <ele>61.599998474121</ele>
        <time>2021-02-07T09:05:32.000Z</time>
      </trkpt>
      <trkpt lat="47.27061" lon="-2.2774">
        <ele>61.599998474121</ele>
        <time>2021-02-07T09:05:34.000Z</time>
      </trkpt>
      <trkpt lat="47.27031" lon="-2.27727">
        <ele>61.200000762939</ele>
        <time>2021-02-07T09:05:39.000Z</time>
      </trkpt>
      <trkpt lat="47.27026" lon="-2.27723">
        <ele>60.799999237061</ele>
        <time>2021-02-07T09:05:40.000Z</time>
      </trkpt>
      <trkpt lat="47.27023" lon="-2.27718">
        <ele>60.200000762939</ele>
        <time>2021-02-07T09:05:41.000Z</time>
      </trkpt>
      <trkpt lat="47.27022" lon="-2.27712">
        <ele>59.799999237061</ele>
        <time>2021-02-07T09:05:42.000Z</time>
      </trkpt>
      <trkpt lat="47.27023" lon="-2.27705">
        <ele>59.400001525879</ele>
        <time>2021-02-07T09:05:43.000Z</time>
      </trkpt>
      <trkpt lat="47.27033" lon="-2.27688">
        <ele>59.400001525879</ele>
        <time>2021-02-07T09:05:46.000Z</time>
      </trkpt>
      <trkpt lat="47.2706" lon="-2.27656">
        <ele>59.400001525879</ele>
        <time>2021-02-07T09:05:52.000Z</time>
      </trkpt>
      <trkpt lat="47.27099" lon="-2.27626">
        <ele>59.400001525879</ele>
        <time>2021-02-07T09:05:59.000Z</time>
      </trkpt>
      <trkpt lat="47.27128" lon="-2.27609">
        <ele>59.400001525879</ele>
        <time>2021-02-07T09:06:04.000Z</time>
      </trkpt>
      <trkpt lat="47.27133" lon="-2.27604">
        <ele>59.400001525879</ele>
        <time>2021-02-07T09:06:05.000Z</time>
      </trkpt>
      <trkpt lat="47.27144" lon="-2.2758">
        <ele>59.400001525879</ele>
        <time>2021-02-07T09:06:08.000Z</time>
      </trkpt>
      <trkpt lat="47.27149" lon="-2.27562">
        <ele>59</ele>
        <time>2021-02-07T09:06:10.000Z</time>
      </trkpt>
      <trkpt lat="47.2715" lon="-2.27553">
        <ele>58.599998474121</ele>
        <time>2021-02-07T09:06:11.000Z</time>
      </trkpt>
      <trkpt lat="47.2715" lon="-2.27544">
        <ele>58.200000762939</ele>
        <time>2021-02-07T09:06:12.000Z</time>
      </trkpt>
      <trkpt lat="47.27149" lon="-2.27534">
        <ele>57.799999237061</ele>
        <time>2021-02-07T09:06:13.000Z</time>
      </trkpt>
      <trkpt lat="47.27149" lon="-2.27525">
        <ele>57.400001525879</ele>
        <time>2021-02-07T09:06:14.000Z</time>
      </trkpt>
      <trkpt lat="47.27148" lon="-2.27497">
        <ele>57.400001525879</ele>
        <time>2021-02-07T09:06:17.000Z</time>
      </trkpt>
      <trkpt lat="47.27142" lon="-2.27433">
        <ele>57.400001525879</ele>
        <time>2021-02-07T09:06:24.000Z</time>
      </trkpt>
      <trkpt lat="47.27133" lon="-2.27373">
        <ele>57.400001525879</ele>
        <time>2021-02-07T09:06:30.000Z</time>
      </trkpt>
      <trkpt lat="47.27125" lon="-2.273">
        <ele>57.400001525879</ele>
        <time>2021-02-07T09:06:37.000Z</time>
      </trkpt>
      <trkpt lat="47.27116" lon="-2.27275">
        <ele>57.400001525879</ele>
        <time>2021-02-07T09:06:40.000Z</time>
      </trkpt>
      <trkpt lat="47.27112" lon="-2.27266">
        <ele>57.400001525879</ele>
        <time>2021-02-07T09:06:41.000Z</time>
      </trkpt>
      <trkpt lat="47.27108" lon="-2.27257">
        <ele>57</ele>
        <time>2021-02-07T09:06:42.000Z</time>
      </trkpt>
      <trkpt lat="47.27104" lon="-2.27249">
        <ele>56.599998474121</ele>
        <time>2021-02-07T09:06:43.000Z</time>
      </trkpt>
      <trkpt lat="47.27101" lon="-2.27242">
        <ele>56</ele>
        <time>2021-02-07T09:06:44.000Z</time>
      </trkpt>
      <trkpt lat="47.27098" lon="-2.27236">
        <ele>55.599998474121</ele>
        <time>2021-02-07T09:06:45.000Z</time>
      </trkpt>
      <trkpt lat="47.27094" lon="-2.2723">
        <ele>55.200000762939</ele>
        <time>2021-02-07T09:06:46.000Z</time>
      </trkpt>
      <trkpt lat="47.27087" lon="-2.27219">
        <ele>54.400001525879</ele>
        <time>2021-02-07T09:06:48.000Z</time>
      </trkpt>
      <trkpt lat="47.27083" lon="-2.27212">
        <ele>54</ele>
        <time>2021-02-07T09:06:49.000Z</time>
      </trkpt>
      <trkpt lat="47.27079" lon="-2.27205">
        <ele>53.599998474121</ele>
        <time>2021-02-07T09:06:50.000Z</time>
      </trkpt>
      <trkpt lat="47.27074" lon="-2.27197">
        <ele>53.200000762939</ele>
        <time>2021-02-07T09:06:51.000Z</time>
      </trkpt>
      <trkpt lat="47.2707" lon="-2.2719">
        <ele>53.200000762939</ele>
        <time>2021-02-07T09:06:52.000Z</time>
      </trkpt>
      <trkpt lat="47.27064" lon="-2.27182">
        <ele>52.799999237061</ele>
        <time>2021-02-07T09:06:53.000Z</time>
      </trkpt>
      <trkpt lat="47.27058" lon="-2.27174">
        <ele>52.400001525879</ele>
        <time>2021-02-07T09:06:54.000Z</time>
      </trkpt>
      <trkpt lat="47.27053" lon="-2.27166">
        <ele>52</ele>
        <time>2021-02-07T09:06:55.000Z</time>
      </trkpt>
      <trkpt lat="47.27047" lon="-2.27157">
        <ele>51.599998474121</ele>
        <time>2021-02-07T09:06:56.000Z</time>
      </trkpt>
      <trkpt lat="47.27042" lon="-2.27149">
        <ele>51.200000762939</ele>
        <time>2021-02-07T09:06:57.000Z</time>
      </trkpt>
      <trkpt lat="47.27036" lon="-2.2714">
        <ele>50.599998474121</ele>
        <time>2021-02-07T09:06:58.000Z</time>
      </trkpt>
      <trkpt lat="47.27031" lon="-2.27133">
        <ele>50.200000762939</ele>
        <time>2021-02-07T09:06:59.000Z</time>
      </trkpt>
      <trkpt lat="47.27027" lon="-2.27125">
        <ele>49.799999237061</ele>
        <time>2021-02-07T09:07:00.000Z</time>
      </trkpt>
      <trkpt lat="47.27023" lon="-2.27118">
        <ele>49.400001525879</ele>
        <time>2021-02-07T09:07:01.000Z</time>
      </trkpt>
      <trkpt lat="47.27019" lon="-2.27112">
        <ele>49</ele>
        <time>2021-02-07T09:07:02.000Z</time>
      </trkpt>
      <trkpt lat="47.27015" lon="-2.27104">
        <ele>49</ele>
        <time>2021-02-07T09:07:03.000Z</time>
      </trkpt>
      <trkpt lat="47.27009" lon="-2.2708">
        <ele>49.599998474121</ele>
        <time>2021-02-07T09:07:06.000Z</time>
      </trkpt>
      <trkpt lat="47.27007" lon="-2.27071">
        <ele>50</ele>
        <time>2021-02-07T09:07:07.000Z</time>
      </trkpt>
      <trkpt lat="47.27003" lon="-2.27055">
        <ele>50.799999237061</ele>
        <time>2021-02-07T09:07:08.000Z</time>
      </trkpt>
      <trkpt lat="47.27003" lon="-2.27055">
        <ele>50.799999237061</ele>
        <time>2021-02-07T09:07:09.000Z</time>
      </trkpt>
      <trkpt lat="47.27" lon="-2.27048">
        <ele>51.400001525879</ele>
        <time>2021-02-07T09:07:10.000Z</time>
      </trkpt>
      <trkpt lat="47.2698" lon="-2.27019">
        <ele>51.400001525879</ele>
        <time>2021-02-07T09:07:15.000Z</time>
      </trkpt>
      <trkpt lat="47.26972" lon="-2.2701">
        <ele>51</ele>
        <time>2021-02-07T09:07:17.000Z</time>
      </trkpt>
      <trkpt lat="47.26969" lon="-2.27006">
        <ele>50.599998474121</ele>
        <time>2021-02-07T09:07:18.000Z</time>
      </trkpt>
      <trkpt lat="47.26967" lon="-2.27002">
        <ele>50.200000762939</ele>
        <time>2021-02-07T09:07:19.000Z</time>
      </trkpt>
      <trkpt lat="47.26964" lon="-2.26997">
        <ele>49.799999237061</ele>
        <time>2021-02-07T09:07:20.000Z</time>
      </trkpt>
      <trkpt lat="47.26961" lon="-2.2699">
        <ele>49.400001525879</ele>
        <time>2021-02-07T09:07:21.000Z</time>
      </trkpt>
      <trkpt lat="47.26961" lon="-2.26976">
        <ele>49.400001525879</ele>
        <time>2021-02-07T09:07:23.000Z</time>
      </trkpt>
      <trkpt lat="47.26966" lon="-2.26942">
        <ele>49.400001525879</ele>
        <time>2021-02-07T09:07:27.000Z</time>
      </trkpt>
      <trkpt lat="47.26967" lon="-2.26933">
        <ele>49.400001525879</ele>
        <time>2021-02-07T09:07:28.000Z</time>
      </trkpt>
      <trkpt lat="47.26968" lon="-2.26925">
        <ele>49.400001525879</ele>
        <time>2021-02-07T09:07:29.000Z</time>
      </trkpt>
      <trkpt lat="47.26967" lon="-2.26898">
        <ele>49.400001525879</ele>
        <time>2021-02-07T09:07:32.000Z</time>
      </trkpt>
      <trkpt lat="47.26966" lon="-2.26889">
        <ele>48.799999237061</ele>
        <time>2021-02-07T09:07:33.000Z</time>
      </trkpt>
      <trkpt lat="47.26964" lon="-2.2688">
        <ele>48.400001525879</ele>
        <time>2021-02-07T09:07:34.000Z</time>
      </trkpt>
      <trkpt lat="47.26962" lon="-2.26871">
        <ele>48</ele>
        <time>2021-02-07T09:07:35.000Z</time>
      </trkpt>
      <trkpt lat="47.26961" lon="-2.26862">
        <ele>47.599998474121</ele>
        <time>2021-02-07T09:07:36.000Z</time>
      </trkpt>
      <trkpt lat="47.2696" lon="-2.26853">
        <ele>47.200000762939</ele>
        <time>2021-02-07T09:07:37.000Z</time>
      </trkpt>
      <trkpt lat="47.26956" lon="-2.26834">
        <ele>47.200000762939</ele>
        <time>2021-02-07T09:07:39.000Z</time>
      </trkpt>
      <trkpt lat="47.26951" lon="-2.26816">
        <ele>47.200000762939</ele>
        <time>2021-02-07T09:07:41.000Z</time>
      </trkpt>
      <trkpt lat="47.26948" lon="-2.26809">
        <ele>47.200000762939</ele>
        <time>2021-02-07T09:07:42.000Z</time>
      </trkpt>
      <trkpt lat="47.26937" lon="-2.26776">
        <ele>47.200000762939</ele>
        <time>2021-02-07T09:07:46.000Z</time>
      </trkpt>
      <trkpt lat="47.26931" lon="-2.26751">
        <ele>47.200000762939</ele>
        <time>2021-02-07T09:07:49.000Z</time>
      </trkpt>
      <trkpt lat="47.26918" lon="-2.26699">
        <ele>47.200000762939</ele>
        <time>2021-02-07T09:07:56.000Z</time>
      </trkpt>
      <trkpt lat="47.26911" lon="-2.26678">
        <ele>47.599998474121</ele>
        <time>2021-02-07T09:07:59.000Z</time>
      </trkpt>
      <trkpt lat="47.26909" lon="-2.26671">
        <ele>48</ele>
        <time>2021-02-07T09:08:00.000Z</time>
      </trkpt>
      <trkpt lat="47.26907" lon="-2.26664">
        <ele>48.400001525879</ele>
        <time>2021-02-07T09:08:01.000Z</time>
      </trkpt>
      <trkpt lat="47.26904" lon="-2.26657">
        <ele>49.400001525879</ele>
        <time>2021-02-07T09:08:02.000Z</time>
      </trkpt>
      <trkpt lat="47.26888" lon="-2.26613">
        <ele>49.400001525879</ele>
        <time>2021-02-07T09:08:09.000Z</time>
      </trkpt>
      <trkpt lat="47.26875" lon="-2.26576">
        <ele>49.400001525879</ele>
        <time>2021-02-07T09:08:16.000Z</time>
      </trkpt>
      <trkpt lat="47.26871" lon="-2.26563">
        <ele>49.400001525879</ele>
        <time>2021-02-07T09:08:20.000Z</time>
      </trkpt>
      <trkpt lat="47.2687" lon="-2.26558">
        <ele>49.400001525879</ele>
        <time>2021-02-07T09:08:23.000Z</time>
      </trkpt>
      <trkpt lat="47.26871" lon="-2.26552">
        <ele>49.400001525879</ele>
        <time>2021-02-07T09:08:26.000Z</time>
      </trkpt>
      <trkpt lat="47.26879" lon="-2.2654">
        <ele>49.400001525879</ele>
        <time>2021-02-07T09:08:31.000Z</time>
      </trkpt>
      <trkpt lat="47.26897" lon="-2.26532">
        <ele>49.400001525879</ele>
        <time>2021-02-07T09:08:38.000Z</time>
      </trkpt>
      <trkpt lat="47.26923" lon="-2.26521">
        <ele>49.400001525879</ele>
        <time>2021-02-07T09:08:45.000Z</time>
      </trkpt>
      <trkpt lat="47.26953" lon="-2.26508">
        <ele>49.400001525879</ele>
        <time>2021-02-07T09:08:52.000Z</time>
      </trkpt>
      <trkpt lat="47.26972" lon="-2.26496">
        <ele>49.400001525879</ele>
        <time>2021-02-07T09:08:57.000Z</time>
      </trkpt>
      <trkpt lat="47.2698" lon="-2.26489">
        <ele>49.400001525879</ele>
        <time>2021-02-07T09:08:59.000Z</time>
      </trkpt>
      <trkpt lat="47.26995" lon="-2.26473">
        <ele>49.400001525879</ele>
        <time>2021-02-07T09:09:03.000Z</time>
      </trkpt>
      <trkpt lat="47.27001" lon="-2.26464">
        <ele>49.400001525879</ele>
        <time>2021-02-07T09:09:05.000Z</time>
      </trkpt>
      <trkpt lat="47.27025" lon="-2.26428">
        <ele>49.400001525879</ele>
        <time>2021-02-07T09:09:13.000Z</time>
      </trkpt>
      <trkpt lat="47.2705" lon="-2.26393">
        <ele>49.400001525879</ele>
        <time>2021-02-07T09:09:20.000Z</time>
      </trkpt>
      <trkpt lat="47.27078" lon="-2.26352">
        <ele>49.400001525879</ele>
        <time>2021-02-07T09:09:28.000Z</time>
      </trkpt>
      <trkpt lat="47.27082" lon="-2.26346">
        <ele>49.400001525879</ele>
        <time>2021-02-07T09:09:29.000Z</time>
      </trkpt>
      <trkpt lat="47.27088" lon="-2.26334">
        <ele>49.400001525879</ele>
        <time>2021-02-07T09:09:31.000Z</time>
      </trkpt>
      <trkpt lat="47.27092" lon="-2.26329">
        <ele>49.400001525879</ele>
        <time>2021-02-07T09:09:32.000Z</time>
      </trkpt>
      <trkpt lat="47.27123" lon="-2.26287">
        <ele>49.400001525879</ele>
        <time>2021-02-07T09:09:40.000Z</time>
      </trkpt>
      <trkpt lat="47.27148" lon="-2.26252">
        <ele>49.400001525879</ele>
        <time>2021-02-07T09:09:46.000Z</time>
      </trkpt>
      <trkpt lat="47.27176" lon="-2.26217">
        <ele>48.799999237061</ele>
        <time>2021-02-07T09:09:52.000Z</time>
      </trkpt>
      <trkpt lat="47.27181" lon="-2.26212">
        <ele>48.400001525879</ele>
        <time>2021-02-07T09:09:53.000Z</time>
      </trkpt>
      <trkpt lat="47.27187" lon="-2.26207">
        <ele>48</ele>
        <time>2021-02-07T09:09:54.000Z</time>
      </trkpt>
      <trkpt lat="47.27192" lon="-2.26203">
        <ele>47.599998474121</ele>
        <time>2021-02-07T09:09:55.000Z</time>
      </trkpt>
      <trkpt lat="47.27197" lon="-2.26198">
        <ele>47.200000762939</ele>
        <time>2021-02-07T09:09:56.000Z</time>
      </trkpt>
      <trkpt lat="47.27206" lon="-2.26188">
        <ele>47.200000762939</ele>
        <time>2021-02-07T09:09:58.000Z</time>
      </trkpt>
      <trkpt lat="47.2725" lon="-2.26157">
        <ele>47.200000762939</ele>
        <time>2021-02-07T09:10:06.000Z</time>
      </trkpt>
      <trkpt lat="47.2729" lon="-2.2614">
        <ele>47.200000762939</ele>
        <time>2021-02-07T09:10:13.000Z</time>
      </trkpt>
      <trkpt lat="47.27334" lon="-2.26125">
        <ele>47.200000762939</ele>
        <time>2021-02-07T09:10:21.000Z</time>
      </trkpt>
      <trkpt lat="47.27374" lon="-2.26113">
        <ele>47.200000762939</ele>
        <time>2021-02-07T09:10:29.000Z</time>
      </trkpt>
      <trkpt lat="47.27415" lon="-2.26099">
        <ele>47.200000762939</ele>
        <time>2021-02-07T09:10:37.000Z</time>
      </trkpt>
      <trkpt lat="47.27443" lon="-2.26079">
        <ele>47.200000762939</ele>
        <time>2021-02-07T09:10:43.000Z</time>
      </trkpt>
      <trkpt lat="47.27447" lon="-2.26074">
        <ele>46.799999237061</ele>
        <time>2021-02-07T09:10:44.000Z</time>
      </trkpt>
      <trkpt lat="47.27451" lon="-2.2607">
        <ele>46.400001525879</ele>
        <time>2021-02-07T09:10:45.000Z</time>
      </trkpt>
      <trkpt lat="47.27456" lon="-2.26065">
        <ele>46</ele>
        <time>2021-02-07T09:10:46.000Z</time>
      </trkpt>
      <trkpt lat="47.2746" lon="-2.2606">
        <ele>45.599998474121</ele>
        <time>2021-02-07T09:10:47.000Z</time>
      </trkpt>
      <trkpt lat="47.27465" lon="-2.26055">
        <ele>45.200000762939</ele>
        <time>2021-02-07T09:10:48.000Z</time>
      </trkpt>
      <trkpt lat="47.27473" lon="-2.26044">
        <ele>45.200000762939</ele>
        <time>2021-02-07T09:10:50.000Z</time>
      </trkpt>
      <trkpt lat="47.27497" lon="-2.26006">
        <ele>45.200000762939</ele>
        <time>2021-02-07T09:10:56.000Z</time>
      </trkpt>
      <trkpt lat="47.27532" lon="-2.25959">
        <ele>45.200000762939</ele>
        <time>2021-02-07T09:11:04.000Z</time>
      </trkpt>
      <trkpt lat="47.2757" lon="-2.25925">
        <ele>45.200000762939</ele>
        <time>2021-02-07T09:11:11.000Z</time>
      </trkpt>
      <trkpt lat="47.27581" lon="-2.25914">
        <ele>44.799999237061</ele>
        <time>2021-02-07T09:11:13.000Z</time>
      </trkpt>
      <trkpt lat="47.27587" lon="-2.25909">
        <ele>44.400001525879</ele>
        <time>2021-02-07T09:11:14.000Z</time>
      </trkpt>
      <trkpt lat="47.27593" lon="-2.25904">
        <ele>44</ele>
        <time>2021-02-07T09:11:15.000Z</time>
      </trkpt>
      <trkpt lat="47.27599" lon="-2.259">
        <ele>43.400001525879</ele>
        <time>2021-02-07T09:11:16.000Z</time>
      </trkpt>
      <trkpt lat="47.27604" lon="-2.25895">
        <ele>43</ele>
        <time>2021-02-07T09:11:17.000Z</time>
      </trkpt>
      <trkpt lat="47.2761" lon="-2.25891">
        <ele>43</ele>
        <time>2021-02-07T09:11:18.000Z</time>
      </trkpt>
      <trkpt lat="47.27621" lon="-2.25883">
        <ele>43</ele>
        <time>2021-02-07T09:11:20.000Z</time>
      </trkpt>
      <trkpt lat="47.27625" lon="-2.25878">
        <ele>42.599998474121</ele>
        <time>2021-02-07T09:11:21.000Z</time>
      </trkpt>
      <trkpt lat="47.27627" lon="-2.25873">
        <ele>42.200000762939</ele>
        <time>2021-02-07T09:11:22.000Z</time>
      </trkpt>
      <trkpt lat="47.27627" lon="-2.25868">
        <ele>41.799999237061</ele>
        <time>2021-02-07T09:11:23.000Z</time>
      </trkpt>
      <trkpt lat="47.27626" lon="-2.25863">
        <ele>41.400001525879</ele>
        <time>2021-02-07T09:11:24.000Z</time>
      </trkpt>
      <trkpt lat="47.27624" lon="-2.25858">
        <ele>40.799999237061</ele>
        <time>2021-02-07T09:11:25.000Z</time>
      </trkpt>
      <trkpt lat="47.27616" lon="-2.25849">
        <ele>40.799999237061</ele>
        <time>2021-02-07T09:11:27.000Z</time>
      </trkpt>
      <trkpt lat="47.2761" lon="-2.25838">
        <ele>40.799999237061</ele>
        <time>2021-02-07T09:11:29.000Z</time>
      </trkpt>
      <trkpt lat="47.27596" lon="-2.25811">
        <ele>40.799999237061</ele>
        <time>2021-02-07T09:11:34.000Z</time>
      </trkpt>
      <trkpt lat="47.27594" lon="-2.25805">
        <ele>40.799999237061</ele>
        <time>2021-02-07T09:11:35.000Z</time>
      </trkpt>
      <trkpt lat="47.27594" lon="-2.25777">
        <ele>40.799999237061</ele>
        <time>2021-02-07T09:11:39.000Z</time>
      </trkpt>
      <trkpt lat="47.27599" lon="-2.25738">
        <ele>40.799999237061</ele>
        <time>2021-02-07T09:11:44.000Z</time>
      </trkpt>
      <trkpt lat="47.27594" lon="-2.2571">
        <ele>40.799999237061</ele>
        <time>2021-02-07T09:11:48.000Z</time>
      </trkpt>
      <trkpt lat="47.27591" lon="-2.25704">
        <ele>40.799999237061</ele>
        <time>2021-02-07T09:11:49.000Z</time>
      </trkpt>
      <trkpt lat="47.27587" lon="-2.25691">
        <ele>40.799999237061</ele>
        <time>2021-02-07T09:11:51.000Z</time>
      </trkpt>
      <trkpt lat="47.27583" lon="-2.25681">
        <ele>40.799999237061</ele>
        <time>2021-02-07T09:11:53.000Z</time>
      </trkpt>
      <trkpt lat="47.27571" lon="-2.25658">
        <ele>40.799999237061</ele>
        <time>2021-02-07T09:11:58.000Z</time>
      </trkpt>
      <trkpt lat="47.2757" lon="-2.25653">
        <ele>40.799999237061</ele>
        <time>2021-02-07T09:11:59.000Z</time>
      </trkpt>
      <trkpt lat="47.27568" lon="-2.25643">
        <ele>40.799999237061</ele>
        <time>2021-02-07T09:12:01.000Z</time>
      </trkpt>
      <trkpt lat="47.27566" lon="-2.25607">
        <ele>40.799999237061</ele>
        <time>2021-02-07T09:12:06.000Z</time>
      </trkpt>
      <trkpt lat="47.27562" lon="-2.25563">
        <ele>40.799999237061</ele>
        <time>2021-02-07T09:12:11.000Z</time>
      </trkpt>
      <trkpt lat="47.2756" lon="-2.25555">
        <ele>40.799999237061</ele>
        <time>2021-02-07T09:12:12.000Z</time>
      </trkpt>
      <trkpt lat="47.27558" lon="-2.25546">
        <ele>40.799999237061</ele>
        <time>2021-02-07T09:12:13.000Z</time>
      </trkpt>
      <trkpt lat="47.27548" lon="-2.25519">
        <ele>40.799999237061</ele>
        <time>2021-02-07T09:12:17.000Z</time>
      </trkpt>
      <trkpt lat="47.27532" lon="-2.25488">
        <ele>40.799999237061</ele>
        <time>2021-02-07T09:12:23.000Z</time>
      </trkpt>
      <trkpt lat="47.27513" lon="-2.25467">
        <ele>40.799999237061</ele>
        <time>2021-02-07T09:12:27.000Z</time>
      </trkpt>
      <trkpt lat="47.27508" lon="-2.25463">
        <ele>40.799999237061</ele>
        <time>2021-02-07T09:12:28.000Z</time>
      </trkpt>
      <trkpt lat="47.27503" lon="-2.25459">
        <ele>40.799999237061</ele>
        <time>2021-02-07T09:12:29.000Z</time>
      </trkpt>
      <trkpt lat="47.27486" lon="-2.25455">
        <ele>40.799999237061</ele>
        <time>2021-02-07T09:12:32.000Z</time>
      </trkpt>
      <trkpt lat="47.2747" lon="-2.25456">
        <ele>40.799999237061</ele>
        <time>2021-02-07T09:12:35.000Z</time>
      </trkpt>
      <trkpt lat="47.27465" lon="-2.25455">
        <ele>40.799999237061</ele>
        <time>2021-02-07T09:12:36.000Z</time>
      </trkpt>
      <trkpt lat="47.27459" lon="-2.25453">
        <ele>40.799999237061</ele>
        <time>2021-02-07T09:12:37.000Z</time>
      </trkpt>
      <trkpt lat="47.27449" lon="-2.25449">
        <ele>40.799999237061</ele>
        <time>2021-02-07T09:12:39.000Z</time>
      </trkpt>
      <trkpt lat="47.27437" lon="-2.25436">
        <ele>40.799999237061</ele>
        <time>2021-02-07T09:12:42.000Z</time>
      </trkpt>
      <trkpt lat="47.27434" lon="-2.25417">
        <ele>40.799999237061</ele>
        <time>2021-02-07T09:12:45.000Z</time>
      </trkpt>
      <trkpt lat="47.27441" lon="-2.25389">
        <ele>40.799999237061</ele>
        <time>2021-02-07T09:12:49.000Z</time>
      </trkpt>
      <trkpt lat="47.27448" lon="-2.25367">
        <ele>40.799999237061</ele>
        <time>2021-02-07T09:12:52.000Z</time>
      </trkpt>
      <trkpt lat="47.2745" lon="-2.25351">
        <ele>40.799999237061</ele>
        <time>2021-02-07T09:12:54.000Z</time>
      </trkpt>
      <trkpt lat="47.27451" lon="-2.25336">
        <ele>40.799999237061</ele>
        <time>2021-02-07T09:12:56.000Z</time>
      </trkpt>
      <trkpt lat="47.2745" lon="-2.25322">
        <ele>40.799999237061</ele>
        <time>2021-02-07T09:12:58.000Z</time>
      </trkpt>
      <trkpt lat="47.27448" lon="-2.25307">
        <ele>40.799999237061</ele>
        <time>2021-02-07T09:13:00.000Z</time>
      </trkpt>
      <trkpt lat="47.27439" lon="-2.25272">
        <ele>40.799999237061</ele>
        <time>2021-02-07T09:13:05.000Z</time>
      </trkpt>
      <trkpt lat="47.27436" lon="-2.25264">
        <ele>40.799999237061</ele>
        <time>2021-02-07T09:13:06.000Z</time>
      </trkpt>
      <trkpt lat="47.27414" lon="-2.25212">
        <ele>40.799999237061</ele>
        <time>2021-02-07T09:13:13.000Z</time>
      </trkpt>
      <trkpt lat="47.274" lon="-2.25186">
        <ele>40.799999237061</ele>
        <time>2021-02-07T09:13:17.000Z</time>
      </trkpt>
      <trkpt lat="47.27394" lon="-2.25171">
        <ele>40.799999237061</ele>
        <time>2021-02-07T09:13:19.000Z</time>
      </trkpt>
      <trkpt lat="47.27387" lon="-2.25152">
        <ele>40.799999237061</ele>
        <time>2021-02-07T09:13:22.000Z</time>
      </trkpt>
      <trkpt lat="47.27378" lon="-2.25133">
        <ele>40.799999237061</ele>
        <time>2021-02-07T09:13:25.000Z</time>
      </trkpt>
      <trkpt lat="47.27356" lon="-2.25087">
        <ele>40.799999237061</ele>
        <time>2021-02-07T09:13:32.000Z</time>
      </trkpt>
      <trkpt lat="47.27351" lon="-2.25072">
        <ele>40.799999237061</ele>
        <time>2021-02-07T09:13:34.000Z</time>
      </trkpt>
      <trkpt lat="47.27346" lon="-2.25052">
        <ele>40.799999237061</ele>
        <time>2021-02-07T09:13:37.000Z</time>
      </trkpt>
      <trkpt lat="47.2734" lon="-2.25033">
        <ele>40.799999237061</ele>
        <time>2021-02-07T09:13:40.000Z</time>
      </trkpt>
      <trkpt lat="47.27335" lon="-2.25014">
        <ele>40.799999237061</ele>
        <time>2021-02-07T09:13:43.000Z</time>
      </trkpt>
      <trkpt lat="47.27333" lon="-2.25009">
        <ele>40.799999237061</ele>
        <time>2021-02-07T09:13:44.000Z</time>
      </trkpt>
      <trkpt lat="47.27331" lon="-2.24998">
        <ele>40.799999237061</ele>
        <time>2021-02-07T09:13:46.000Z</time>
      </trkpt>
      <trkpt lat="47.27332" lon="-2.24993">
        <ele>40.799999237061</ele>
        <time>2021-02-07T09:13:47.000Z</time>
      </trkpt>
      <trkpt lat="47.27338" lon="-2.2498">
        <ele>40.799999237061</ele>
        <time>2021-02-07T09:13:50.000Z</time>
      </trkpt>
      <trkpt lat="47.27341" lon="-2.24972">
        <ele>40.799999237061</ele>
        <time>2021-02-07T09:13:52.000Z</time>
      </trkpt>
      <trkpt lat="47.27355" lon="-2.24958">
        <ele>40.799999237061</ele>
        <time>2021-02-07T09:13:56.000Z</time>
      </trkpt>
      <trkpt lat="47.27369" lon="-2.24939">
        <ele>40.799999237061</ele>
        <time>2021-02-07T09:14:00.000Z</time>
      </trkpt>
      <trkpt lat="47.27376" lon="-2.24928">
        <ele>40.799999237061</ele>
        <time>2021-02-07T09:14:02.000Z</time>
      </trkpt>
      <trkpt lat="47.27398" lon="-2.24894">
        <ele>40.799999237061</ele>
        <time>2021-02-07T09:14:09.000Z</time>
      </trkpt>
      <trkpt lat="47.27402" lon="-2.2489">
        <ele>40.799999237061</ele>
        <time>2021-02-07T09:14:10.000Z</time>
      </trkpt>
      <trkpt lat="47.27407" lon="-2.24877">
        <ele>40.400001525879</ele>
        <time>2021-02-07T09:14:13.000Z</time>
      </trkpt>
      <trkpt lat="47.27408" lon="-2.24874">
        <ele>40</ele>
        <time>2021-02-07T09:14:14.000Z</time>
      </trkpt>
      <trkpt lat="47.27409" lon="-2.24871">
        <ele>39.599998474121</ele>
        <time>2021-02-07T09:14:15.000Z</time>
      </trkpt>
      <trkpt lat="47.2741" lon="-2.24867">
        <ele>39.200000762939</ele>
        <time>2021-02-07T09:14:16.000Z</time>
      </trkpt>
      <trkpt lat="47.27411" lon="-2.24864">
        <ele>38.799999237061</ele>
        <time>2021-02-07T09:14:17.000Z</time>
      </trkpt>
      <trkpt lat="47.2742" lon="-2.24842">
        <ele>38.799999237061</ele>
        <time>2021-02-07T09:14:22.000Z</time>
      </trkpt>
      <trkpt lat="47.27424" lon="-2.24832">
        <ele>38.799999237061</ele>
        <time>2021-02-07T09:14:23.000Z</time>
      </trkpt>
      <trkpt lat="47.27432" lon="-2.24804">
        <ele>38.799999237061</ele>
        <time>2021-02-07T09:14:27.000Z</time>
      </trkpt>
      <trkpt lat="47.27441" lon="-2.2477">
        <ele>38.799999237061</ele>
        <time>2021-02-07T09:14:33.000Z</time>
      </trkpt>
      <trkpt lat="47.27452" lon="-2.24772">
        <ele>38.799999237061</ele>
        <time>2021-02-07T09:14:36.000Z</time>
      </trkpt>
      <trkpt lat="47.27456" lon="-2.24774">
        <ele>38.799999237061</ele>
        <time>2021-02-07T09:14:37.000Z</time>
      </trkpt>
      <trkpt lat="47.27459" lon="-2.24777">
        <ele>39.599998474121</ele>
        <time>2021-02-07T09:14:38.000Z</time>
      </trkpt>
      <trkpt lat="47.27461" lon="-2.24779">
        <ele>40.200000762939</ele>
        <time>2021-02-07T09:14:39.000Z</time>
      </trkpt>
      <trkpt lat="47.27464" lon="-2.24781">
        <ele>40.599998474121</ele>
        <time>2021-02-07T09:14:40.000Z</time>
      </trkpt>
      <trkpt lat="47.27466" lon="-2.24783">
        <ele>41</ele>
        <time>2021-02-07T09:14:41.000Z</time>
      </trkpt>
      <trkpt lat="47.27469" lon="-2.24785">
        <ele>41.400001525879</ele>
        <time>2021-02-07T09:14:42.000Z</time>
      </trkpt>
      <trkpt lat="47.27472" lon="-2.24787">
        <ele>41.799999237061</ele>
        <time>2021-02-07T09:14:43.000Z</time>
      </trkpt>
      <trkpt lat="47.27475" lon="-2.24788">
        <ele>42.400001525879</ele>
        <time>2021-02-07T09:14:44.000Z</time>
      </trkpt>
      <trkpt lat="47.27478" lon="-2.24788">
        <ele>42.799999237061</ele>
        <time>2021-02-07T09:14:45.000Z</time>
      </trkpt>
      <trkpt lat="47.27481" lon="-2.24788">
        <ele>43.200000762939</ele>
        <time>2021-02-07T09:14:46.000Z</time>
      </trkpt>
      <trkpt lat="47.27484" lon="-2.24788">
        <ele>43.200000762939</ele>
        <time>2021-02-07T09:14:47.000Z</time>
      </trkpt>
      <trkpt lat="47.27487" lon="-2.24787">
        <ele>43.599998474121</ele>
        <time>2021-02-07T09:14:48.000Z</time>
      </trkpt>
      <trkpt lat="47.27491" lon="-2.24787">
        <ele>44</ele>
        <time>2021-02-07T09:14:49.000Z</time>
      </trkpt>
      <trkpt lat="47.27494" lon="-2.24788">
        <ele>44.400001525879</ele>
        <time>2021-02-07T09:14:50.000Z</time>
      </trkpt>
      <trkpt lat="47.27497" lon="-2.24788">
        <ele>44.799999237061</ele>
        <time>2021-02-07T09:14:51.000Z</time>
      </trkpt>
      <trkpt lat="47.275" lon="-2.24788">
        <ele>45.200000762939</ele>
        <time>2021-02-07T09:14:52.000Z</time>
      </trkpt>
      <trkpt lat="47.27504" lon="-2.24787">
        <ele>45.200000762939</ele>
        <time>2021-02-07T09:14:53.000Z</time>
      </trkpt>
      <trkpt lat="47.27531" lon="-2.24787">
        <ele>45.200000762939</ele>
        <time>2021-02-07T09:15:00.000Z</time>
      </trkpt>
      <trkpt lat="47.27557" lon="-2.24787">
        <ele>45.799999237061</ele>
        <time>2021-02-07T09:15:06.000Z</time>
      </trkpt>
      <trkpt lat="47.2756" lon="-2.24787">
        <ele>46.200000762939</ele>
        <time>2021-02-07T09:15:07.000Z</time>
      </trkpt>
      <trkpt lat="47.27564" lon="-2.24788">
        <ele>46.599998474121</ele>
        <time>2021-02-07T09:15:08.000Z</time>
      </trkpt>
      <trkpt lat="47.27569" lon="-2.24788">
        <ele>47</ele>
        <time>2021-02-07T09:15:09.000Z</time>
      </trkpt>
      <trkpt lat="47.27573" lon="-2.24789">
        <ele>47.400001525879</ele>
        <time>2021-02-07T09:15:10.000Z</time>
      </trkpt>
      <trkpt lat="47.27582" lon="-2.24789">
        <ele>47.400001525879</ele>
        <time>2021-02-07T09:15:12.000Z</time>
      </trkpt>
      <trkpt lat="47.2761" lon="-2.24791">
        <ele>47.400001525879</ele>
        <time>2021-02-07T09:15:19.000Z</time>
      </trkpt>
      <trkpt lat="47.27635" lon="-2.2479">
        <ele>47.400001525879</ele>
        <time>2021-02-07T09:15:25.000Z</time>
      </trkpt>
      <trkpt lat="47.27648" lon="-2.24793">
        <ele>47.400001525879</ele>
        <time>2021-02-07T09:15:28.000Z</time>
      </trkpt>
      <trkpt lat="47.27659" lon="-2.24801">
        <ele>47.400001525879</ele>
        <time>2021-02-07T09:15:30.000Z</time>
      </trkpt>
      <trkpt lat="47.27665" lon="-2.24803">
        <ele>47.400001525879</ele>
        <time>2021-02-07T09:15:31.000Z</time>
      </trkpt>
      <trkpt lat="47.27678" lon="-2.24804">
        <ele>47.400001525879</ele>
        <time>2021-02-07T09:15:33.000Z</time>
      </trkpt>
      <trkpt lat="47.27721" lon="-2.24803">
        <ele>47.400001525879</ele>
        <time>2021-02-07T09:15:40.000Z</time>
      </trkpt>
      <trkpt lat="47.27755" lon="-2.24803">
        <ele>47.400001525879</ele>
        <time>2021-02-07T09:15:46.000Z</time>
      </trkpt>
      <trkpt lat="47.27797" lon="-2.24802">
        <ele>47.400001525879</ele>
        <time>2021-02-07T09:15:54.000Z</time>
      </trkpt>
      <trkpt lat="47.2784" lon="-2.24796">
        <ele>47.400001525879</ele>
        <time>2021-02-07T09:16:03.000Z</time>
      </trkpt>
      <trkpt lat="47.27849" lon="-2.24792">
        <ele>47.400001525879</ele>
        <time>2021-02-07T09:16:05.000Z</time>
      </trkpt>
      <trkpt lat="47.27857" lon="-2.24783">
        <ele>47.400001525879</ele>
        <time>2021-02-07T09:16:08.000Z</time>
      </trkpt>
      <trkpt lat="47.2786" lon="-2.24775">
        <ele>47.400001525879</ele>
        <time>2021-02-07T09:16:12.000Z</time>
      </trkpt>
      <trkpt lat="47.27862" lon="-2.24772">
        <ele>47.400001525879</ele>
        <time>2021-02-07T09:16:14.000Z</time>
      </trkpt>
      <trkpt lat="47.27864" lon="-2.24772">
        <ele>47.400001525879</ele>
        <time>2021-02-07T09:16:15.000Z</time>
      </trkpt>
      <trkpt lat="47.2787" lon="-2.24773">
        <ele>47.400001525879</ele>
        <time>2021-02-07T09:16:17.000Z</time>
      </trkpt>
      <trkpt lat="47.27877" lon="-2.24772">
        <ele>47.400001525879</ele>
        <time>2021-02-07T09:16:19.000Z</time>
      </trkpt>
      <trkpt lat="47.27885" lon="-2.24769">
        <ele>47.400001525879</ele>
        <time>2021-02-07T09:16:21.000Z</time>
      </trkpt>
      <trkpt lat="47.27901" lon="-2.24767">
        <ele>47.799999237061</ele>
        <time>2021-02-07T09:16:26.000Z</time>
      </trkpt>
      <trkpt lat="47.27903" lon="-2.24767">
        <ele>48.400001525879</ele>
        <time>2021-02-07T09:16:27.000Z</time>
      </trkpt>
      <trkpt lat="47.27903" lon="-2.24767">
        <ele>48.799999237061</ele>
        <time>2021-02-07T09:16:28.000Z</time>
      </trkpt>
      <trkpt lat="47.27919" lon="-2.2477">
        <ele>51.799999237061</ele>
        <time>2021-02-07T09:16:59.000Z</time>
      </trkpt>
      <trkpt lat="47.27919" lon="-2.24773">
        <ele>51.799999237061</ele>
        <time>2021-02-07T09:17:00.000Z</time>
      </trkpt>
      <trkpt lat="47.27912" lon="-2.24779">
        <ele>51.799999237061</ele>
        <time>2021-02-07T09:17:04.000Z</time>
      </trkpt>
      <trkpt lat="47.279" lon="-2.24788">
        <ele>51.799999237061</ele>
        <time>2021-02-07T09:17:09.000Z</time>
      </trkpt>
      <trkpt lat="47.27899" lon="-2.24791">
        <ele>51.799999237061</ele>
        <time>2021-02-07T09:17:10.000Z</time>
      </trkpt>
      <trkpt lat="47.27902" lon="-2.24801">
        <ele>51.799999237061</ele>
        <time>2021-02-07T09:17:13.000Z</time>
      </trkpt>
      <trkpt lat="47.27917" lon="-2.24811">
        <ele>51.799999237061</ele>
        <time>2021-02-07T09:17:18.000Z</time>
      </trkpt>
      <trkpt lat="47.2792" lon="-2.24812">
        <ele>51.799999237061</ele>
        <time>2021-02-07T09:17:19.000Z</time>
      </trkpt>
      <trkpt lat="47.27933" lon="-2.24818">
        <ele>51.799999237061</ele>
        <time>2021-02-07T09:17:24.000Z</time>
      </trkpt>
      <trkpt lat="47.27947" lon="-2.24823">
        <ele>51.799999237061</ele>
        <time>2021-02-07T09:17:29.000Z</time>
      </trkpt>
      <trkpt lat="47.27965" lon="-2.24826">
        <ele>51.799999237061</ele>
        <time>2021-02-07T09:17:34.000Z</time>
      </trkpt>
      <trkpt lat="47.27986" lon="-2.24832">
        <ele>51.799999237061</ele>
        <time>2021-02-07T09:17:40.000Z</time>
      </trkpt>
      <trkpt lat="47.28009" lon="-2.24835">
        <ele>51.799999237061</ele>
        <time>2021-02-07T09:17:46.000Z</time>
      </trkpt>
      <trkpt lat="47.28029" lon="-2.24839">
        <ele>51.799999237061</ele>
        <time>2021-02-07T09:17:52.000Z</time>
      </trkpt>
      <trkpt lat="47.2805" lon="-2.2484">
        <ele>51.799999237061</ele>
        <time>2021-02-07T09:17:58.000Z</time>
      </trkpt>
      <trkpt lat="47.28072" lon="-2.24844">
        <ele>51.799999237061</ele>
        <time>2021-02-07T09:18:05.000Z</time>
      </trkpt>
      <trkpt lat="47.28095" lon="-2.24843">
        <ele>51.799999237061</ele>
        <time>2021-02-07T09:18:11.000Z</time>
      </trkpt>
      <trkpt lat="47.28111" lon="-2.2485">
        <ele>51.799999237061</ele>
        <time>2021-02-07T09:18:15.000Z</time>
      </trkpt>
      <trkpt lat="47.28116" lon="-2.24852">
        <ele>51.400001525879</ele>
        <time>2021-02-07T09:18:16.000Z</time>
      </trkpt>
      <trkpt lat="47.2812" lon="-2.24853">
        <ele>51</ele>
        <time>2021-02-07T09:18:17.000Z</time>
      </trkpt>
      <trkpt lat="47.28124" lon="-2.24854">
        <ele>50.599998474121</ele>
        <time>2021-02-07T09:18:18.000Z</time>
      </trkpt>
      <trkpt lat="47.28129" lon="-2.24855">
        <ele>50.200000762939</ele>
        <time>2021-02-07T09:18:19.000Z</time>
      </trkpt>
      <trkpt lat="47.28134" lon="-2.24856">
        <ele>49.599998474121</ele>
        <time>2021-02-07T09:18:20.000Z</time>
      </trkpt>
      <trkpt lat="47.28139" lon="-2.24856">
        <ele>49.599998474121</ele>
        <time>2021-02-07T09:18:21.000Z</time>
      </trkpt>
      <trkpt lat="47.28143" lon="-2.24856">
        <ele>49.200000762939</ele>
        <time>2021-02-07T09:18:22.000Z</time>
      </trkpt>
      <trkpt lat="47.28146" lon="-2.24855">
        <ele>48.799999237061</ele>
        <time>2021-02-07T09:18:23.000Z</time>
      </trkpt>
      <trkpt lat="47.28148" lon="-2.24854">
        <ele>48.200000762939</ele>
        <time>2021-02-07T09:18:24.000Z</time>
      </trkpt>
      <trkpt lat="47.28151" lon="-2.24852">
        <ele>47.799999237061</ele>
        <time>2021-02-07T09:18:25.000Z</time>
      </trkpt>
      <trkpt lat="47.28154" lon="-2.24851">
        <ele>47.400001525879</ele>
        <time>2021-02-07T09:18:26.000Z</time>
      </trkpt>
      <trkpt lat="47.28159" lon="-2.24846">
        <ele>47.400001525879</ele>
        <time>2021-02-07T09:18:28.000Z</time>
      </trkpt>
      <trkpt lat="47.2816" lon="-2.24842">
        <ele>47</ele>
        <time>2021-02-07T09:18:29.000Z</time>
      </trkpt>
      <trkpt lat="47.28161" lon="-2.24839">
        <ele>46.599998474121</ele>
        <time>2021-02-07T09:18:30.000Z</time>
      </trkpt>
      <trkpt lat="47.28161" lon="-2.24836">
        <ele>46.200000762939</ele>
        <time>2021-02-07T09:18:31.000Z</time>
      </trkpt>
      <trkpt lat="47.28162" lon="-2.24832">
        <ele>45.799999237061</ele>
        <time>2021-02-07T09:18:32.000Z</time>
      </trkpt>
      <trkpt lat="47.28163" lon="-2.24829">
        <ele>45.400001525879</ele>
        <time>2021-02-07T09:18:33.000Z</time>
      </trkpt>
      <trkpt lat="47.28164" lon="-2.24818">
        <ele>45.400001525879</ele>
        <time>2021-02-07T09:18:36.000Z</time>
      </trkpt>
      <trkpt lat="47.28174" lon="-2.24809">
        <ele>45.400001525879</ele>
        <time>2021-02-07T09:18:40.000Z</time>
      </trkpt>
      <trkpt lat="47.28179" lon="-2.24808">
        <ele>45.400001525879</ele>
        <time>2021-02-07T09:18:41.000Z</time>
      </trkpt>
      <trkpt lat="47.28196" lon="-2.2481">
        <ele>44.799999237061</ele>
        <time>2021-02-07T09:18:44.000Z</time>
      </trkpt>
      <trkpt lat="47.28204" lon="-2.24811">
        <ele>43.799999237061</ele>
        <time>2021-02-07T09:18:45.000Z</time>
      </trkpt>
      <trkpt lat="47.28212" lon="-2.24813">
        <ele>43.400001525879</ele>
        <time>2021-02-07T09:18:46.000Z</time>
      </trkpt>
      <trkpt lat="47.28221" lon="-2.24814">
        <ele>42.799999237061</ele>
        <time>2021-02-07T09:18:47.000Z</time>
      </trkpt>
      <trkpt lat="47.28229" lon="-2.24815">
        <ele>42.200000762939</ele>
        <time>2021-02-07T09:18:48.000Z</time>
      </trkpt>
      <trkpt lat="47.28237" lon="-2.24814">
        <ele>41.599998474121</ele>
        <time>2021-02-07T09:18:49.000Z</time>
      </trkpt>
      <trkpt lat="47.28244" lon="-2.24811">
        <ele>40.799999237061</ele>
        <time>2021-02-07T09:18:50.000Z</time>
      </trkpt>
      <trkpt lat="47.28251" lon="-2.24807">
        <ele>40.200000762939</ele>
        <time>2021-02-07T09:18:51.000Z</time>
      </trkpt>
      <trkpt lat="47.28259" lon="-2.24803">
        <ele>39.599998474121</ele>
        <time>2021-02-07T09:18:52.000Z</time>
      </trkpt>
      <trkpt lat="47.28265" lon="-2.24797">
        <ele>38.799999237061</ele>
        <time>2021-02-07T09:18:53.000Z</time>
      </trkpt>
      <trkpt lat="47.28272" lon="-2.24792">
        <ele>38.200000762939</ele>
        <time>2021-02-07T09:18:54.000Z</time>
      </trkpt>
      <trkpt lat="47.28286" lon="-2.24783">
        <ele>38.200000762939</ele>
        <time>2021-02-07T09:18:56.000Z</time>
      </trkpt>
      <trkpt lat="47.283" lon="-2.24774">
        <ele>37.799999237061</ele>
        <time>2021-02-07T09:18:58.000Z</time>
      </trkpt>
      <trkpt lat="47.28307" lon="-2.24769">
        <ele>37.200000762939</ele>
        <time>2021-02-07T09:18:59.000Z</time>
      </trkpt>
      <trkpt lat="47.28314" lon="-2.24765">
        <ele>36.799999237061</ele>
        <time>2021-02-07T09:19:00.000Z</time>
      </trkpt>
      <trkpt lat="47.2832" lon="-2.24762">
        <ele>36.400001525879</ele>
        <time>2021-02-07T09:19:01.000Z</time>
      </trkpt>
      <trkpt lat="47.28327" lon="-2.24759">
        <ele>35.799999237061</ele>
        <time>2021-02-07T09:19:02.000Z</time>
      </trkpt>
      <trkpt lat="47.28339" lon="-2.24755">
        <ele>35.400001525879</ele>
        <time>2021-02-07T09:19:04.000Z</time>
      </trkpt>
      <trkpt lat="47.28345" lon="-2.24755">
        <ele>35</ele>
        <time>2021-02-07T09:19:05.000Z</time>
      </trkpt>
      <trkpt lat="47.2835" lon="-2.24757">
        <ele>34.599998474121</ele>
        <time>2021-02-07T09:19:06.000Z</time>
      </trkpt>
      <trkpt lat="47.28355" lon="-2.2476">
        <ele>34.200000762939</ele>
        <time>2021-02-07T09:19:07.000Z</time>
      </trkpt>
      <trkpt lat="47.28359" lon="-2.24762">
        <ele>33.799999237061</ele>
        <time>2021-02-07T09:19:08.000Z</time>
      </trkpt>
      <trkpt lat="47.28364" lon="-2.24765">
        <ele>33.799999237061</ele>
        <time>2021-02-07T09:19:10.000Z</time>
      </trkpt>
      <trkpt lat="47.28369" lon="-2.24769">
        <ele>33.400001525879</ele>
        <time>2021-02-07T09:19:13.000Z</time>
      </trkpt>
      <trkpt lat="47.2837" lon="-2.24769">
        <ele>33</ele>
        <time>2021-02-07T09:19:14.000Z</time>
      </trkpt>
      <trkpt lat="47.28371" lon="-2.2477">
        <ele>32.599998474121</ele>
        <time>2021-02-07T09:19:15.000Z</time>
      </trkpt>
      <trkpt lat="47.28372" lon="-2.24771">
        <ele>32.200000762939</ele>
        <time>2021-02-07T09:19:16.000Z</time>
      </trkpt>
      <trkpt lat="47.28372" lon="-2.24772">
        <ele>31.799999237061</ele>
        <time>2021-02-07T09:19:17.000Z</time>
      </trkpt>
      <trkpt lat="47.28374" lon="-2.24774">
        <ele>31.799999237061</ele>
        <time>2021-02-07T09:19:19.000Z</time>
      </trkpt>
      <trkpt lat="47.28381" lon="-2.24773">
        <ele>31.799999237061</ele>
        <time>2021-02-07T09:19:22.000Z</time>
      </trkpt>
      <trkpt lat="47.28396" lon="-2.24768">
        <ele>31.799999237061</ele>
        <time>2021-02-07T09:19:27.000Z</time>
      </trkpt>
      <trkpt lat="47.284" lon="-2.24766">
        <ele>31.799999237061</ele>
        <time>2021-02-07T09:19:28.000Z</time>
      </trkpt>
      <trkpt lat="47.28414" lon="-2.24755">
        <ele>31.799999237061</ele>
        <time>2021-02-07T09:19:31.000Z</time>
      </trkpt>
      <trkpt lat="47.28424" lon="-2.24749">
        <ele>31.799999237061</ele>
        <time>2021-02-07T09:19:33.000Z</time>
      </trkpt>
      <trkpt lat="47.28453" lon="-2.2473">
        <ele>31.799999237061</ele>
        <time>2021-02-07T09:19:39.000Z</time>
      </trkpt>
      <trkpt lat="47.2848" lon="-2.24707">
        <ele>31.799999237061</ele>
        <time>2021-02-07T09:19:45.000Z</time>
      </trkpt>
      <trkpt lat="47.28512" lon="-2.24683">
        <ele>31.799999237061</ele>
        <time>2021-02-07T09:19:52.000Z</time>
      </trkpt>
      <trkpt lat="47.2852" lon="-2.24676">
        <ele>31.799999237061</ele>
        <time>2021-02-07T09:19:54.000Z</time>
      </trkpt>
      <trkpt lat="47.28538" lon="-2.24662">
        <ele>31.799999237061</ele>
        <time>2021-02-07T09:19:58.000Z</time>
      </trkpt>
      <trkpt lat="47.28551" lon="-2.24654">
        <ele>31.39999961853</ele>
        <time>2021-02-07T09:20:01.000Z</time>
      </trkpt>
      <trkpt lat="47.28555" lon="-2.24651">
        <ele>31</ele>
        <time>2021-02-07T09:20:02.000Z</time>
      </trkpt>
      <trkpt lat="47.2856" lon="-2.24647">
        <ele>30.39999961853</ele>
        <time>2021-02-07T09:20:03.000Z</time>
      </trkpt>
      <trkpt lat="47.28564" lon="-2.24643">
        <ele>30</ele>
        <time>2021-02-07T09:20:04.000Z</time>
      </trkpt>
      <trkpt lat="47.28569" lon="-2.24638">
        <ele>29.60000038147</ele>
        <time>2021-02-07T09:20:05.000Z</time>
      </trkpt>
      <trkpt lat="47.28573" lon="-2.24635">
        <ele>29.60000038147</ele>
        <time>2021-02-07T09:20:06.000Z</time>
      </trkpt>
      <trkpt lat="47.28584" lon="-2.24626">
        <ele>29.60000038147</ele>
        <time>2021-02-07T09:20:09.000Z</time>
      </trkpt>
      <trkpt lat="47.28591" lon="-2.24616">
        <ele>29.60000038147</ele>
        <time>2021-02-07T09:20:13.000Z</time>
      </trkpt>
      <trkpt lat="47.28604" lon="-2.24599">
        <ele>29.60000038147</ele>
        <time>2021-02-07T09:20:19.000Z</time>
      </trkpt>
      <trkpt lat="47.28613" lon="-2.24575">
        <ele>29.60000038147</ele>
        <time>2021-02-07T09:20:24.000Z</time>
      </trkpt>
      <trkpt lat="47.28615" lon="-2.24562">
        <ele>29.60000038147</ele>
        <time>2021-02-07T09:20:26.000Z</time>
      </trkpt>
      <trkpt lat="47.2862" lon="-2.24543">
        <ele>29.60000038147</ele>
        <time>2021-02-07T09:20:29.000Z</time>
      </trkpt>
      <trkpt lat="47.28624" lon="-2.2453">
        <ele>30</ele>
        <time>2021-02-07T09:20:31.000Z</time>
      </trkpt>
      <trkpt lat="47.28625" lon="-2.24523">
        <ele>30.39999961853</ele>
        <time>2021-02-07T09:20:32.000Z</time>
      </trkpt>
      <trkpt lat="47.28627" lon="-2.24516">
        <ele>30.799999237061</ele>
        <time>2021-02-07T09:20:33.000Z</time>
      </trkpt>
      <trkpt lat="47.28628" lon="-2.24508">
        <ele>31.200000762939</ele>
        <time>2021-02-07T09:20:34.000Z</time>
      </trkpt>
      <trkpt lat="47.2863" lon="-2.24499">
        <ele>31.60000038147</ele>
        <time>2021-02-07T09:20:35.000Z</time>
      </trkpt>
      <trkpt lat="47.28644" lon="-2.24443">
        <ele>31.60000038147</ele>
        <time>2021-02-07T09:20:41.000Z</time>
      </trkpt>
      <trkpt lat="47.28656" lon="-2.24398">
        <ele>31.60000038147</ele>
        <time>2021-02-07T09:20:46.000Z</time>
      </trkpt>
      <trkpt lat="47.28672" lon="-2.24335">
        <ele>31.60000038147</ele>
        <time>2021-02-07T09:20:53.000Z</time>
      </trkpt>
      <trkpt lat="47.28686" lon="-2.24286">
        <ele>31.60000038147</ele>
        <time>2021-02-07T09:20:59.000Z</time>
      </trkpt>
      <trkpt lat="47.28692" lon="-2.24259">
        <ele>31.60000038147</ele>
        <time>2021-02-07T09:21:02.000Z</time>
      </trkpt>
      <trkpt lat="47.28691" lon="-2.24243">
        <ele>31.60000038147</ele>
        <time>2021-02-07T09:21:04.000Z</time>
      </trkpt>
      <trkpt lat="47.28688" lon="-2.24228">
        <ele>31.60000038147</ele>
        <time>2021-02-07T09:21:06.000Z</time>
      </trkpt>
      <trkpt lat="47.28686" lon="-2.24208">
        <ele>31.60000038147</ele>
        <time>2021-02-07T09:21:09.000Z</time>
      </trkpt>
      <trkpt lat="47.28681" lon="-2.24175">
        <ele>31.60000038147</ele>
        <time>2021-02-07T09:21:14.000Z</time>
      </trkpt>
      <trkpt lat="47.28677" lon="-2.24126">
        <ele>31.60000038147</ele>
        <time>2021-02-07T09:21:20.000Z</time>
      </trkpt>
      <trkpt lat="47.28672" lon="-2.24055">
        <ele>31.60000038147</ele>
        <time>2021-02-07T09:21:28.000Z</time>
      </trkpt>
      <trkpt lat="47.28668" lon="-2.23986">
        <ele>31.60000038147</ele>
        <time>2021-02-07T09:21:35.000Z</time>
      </trkpt>
      <trkpt lat="47.2866" lon="-2.23927">
        <ele>31.60000038147</ele>
        <time>2021-02-07T09:21:41.000Z</time>
      </trkpt>
      <trkpt lat="47.28651" lon="-2.23866">
        <ele>31.60000038147</ele>
        <time>2021-02-07T09:21:47.000Z</time>
      </trkpt>
      <trkpt lat="47.28641" lon="-2.23789">
        <ele>31.60000038147</ele>
        <time>2021-02-07T09:21:55.000Z</time>
      </trkpt>
      <trkpt lat="47.28634" lon="-2.23733">
        <ele>31.60000038147</ele>
        <time>2021-02-07T09:22:01.000Z</time>
      </trkpt>
      <trkpt lat="47.28627" lon="-2.23649">
        <ele>31.60000038147</ele>
        <time>2021-02-07T09:22:10.000Z</time>
      </trkpt>
      <trkpt lat="47.28624" lon="-2.23613">
        <ele>31.60000038147</ele>
        <time>2021-02-07T09:22:15.000Z</time>
      </trkpt>
      <trkpt lat="47.28624" lon="-2.23608">
        <ele>31.200000762939</ele>
        <time>2021-02-07T09:22:16.000Z</time>
      </trkpt>
      <trkpt lat="47.28625" lon="-2.23604">
        <ele>30.799999237061</ele>
        <time>2021-02-07T09:22:17.000Z</time>
      </trkpt>
      <trkpt lat="47.28626" lon="-2.236">
        <ele>30.39999961853</ele>
        <time>2021-02-07T09:22:18.000Z</time>
      </trkpt>
      <trkpt lat="47.28626" lon="-2.23595">
        <ele>30</ele>
        <time>2021-02-07T09:22:19.000Z</time>
      </trkpt>
      <trkpt lat="47.28626" lon="-2.2359">
        <ele>29.60000038147</ele>
        <time>2021-02-07T09:22:20.000Z</time>
      </trkpt>
      <trkpt lat="47.28627" lon="-2.23578">
        <ele>29.60000038147</ele>
        <time>2021-02-07T09:22:22.000Z</time>
      </trkpt>
      <trkpt lat="47.28633" lon="-2.23568">
        <ele>29.60000038147</ele>
        <time>2021-02-07T09:22:24.000Z</time>
      </trkpt>
      <trkpt lat="47.28644" lon="-2.23564">
        <ele>29.60000038147</ele>
        <time>2021-02-07T09:22:27.000Z</time>
      </trkpt>
      <trkpt lat="47.28651" lon="-2.2355">
        <ele>29.60000038147</ele>
        <time>2021-02-07T09:22:30.000Z</time>
      </trkpt>
      <trkpt lat="47.2865" lon="-2.23527">
        <ele>29.60000038147</ele>
        <time>2021-02-07T09:22:34.000Z</time>
      </trkpt>
      <trkpt lat="47.28652" lon="-2.23508">
        <ele>29.60000038147</ele>
        <time>2021-02-07T09:22:37.000Z</time>
      </trkpt>
      <trkpt lat="47.28652" lon="-2.23501">
        <ele>29.60000038147</ele>
        <time>2021-02-07T09:22:38.000Z</time>
      </trkpt>
      <trkpt lat="47.28653" lon="-2.23494">
        <ele>29.60000038147</ele>
        <time>2021-02-07T09:22:39.000Z</time>
      </trkpt>
      <trkpt lat="47.28657" lon="-2.23457">
        <ele>29.60000038147</ele>
        <time>2021-02-07T09:22:44.000Z</time>
      </trkpt>
      <trkpt lat="47.28649" lon="-2.23429">
        <ele>29.60000038147</ele>
        <time>2021-02-07T09:22:48.000Z</time>
      </trkpt>
      <trkpt lat="47.28646" lon="-2.2342">
        <ele>29.60000038147</ele>
        <time>2021-02-07T09:22:49.000Z</time>
      </trkpt>
      <trkpt lat="47.28644" lon="-2.23392">
        <ele>29.60000038147</ele>
        <time>2021-02-07T09:22:52.000Z</time>
      </trkpt>
      <trkpt lat="47.28648" lon="-2.23368">
        <ele>29.60000038147</ele>
        <time>2021-02-07T09:22:55.000Z</time>
      </trkpt>
      <trkpt lat="47.2865" lon="-2.23365">
        <ele>29.60000038147</ele>
        <time>2021-02-07T09:22:56.000Z</time>
      </trkpt>
      <trkpt lat="47.2866" lon="-2.23365">
        <ele>29.60000038147</ele>
        <time>2021-02-07T09:22:59.000Z</time>
      </trkpt>
      <trkpt lat="47.28663" lon="-2.23367">
        <ele>29.60000038147</ele>
        <time>2021-02-07T09:23:00.000Z</time>
      </trkpt>
      <trkpt lat="47.28667" lon="-2.23365">
        <ele>29.60000038147</ele>
        <time>2021-02-07T09:23:02.000Z</time>
      </trkpt>
      <trkpt lat="47.28668" lon="-2.23363">
        <ele>29.60000038147</ele>
        <time>2021-02-07T09:23:03.000Z</time>
      </trkpt>
      <trkpt lat="47.28669" lon="-2.23349">
        <ele>29.60000038147</ele>
        <time>2021-02-07T09:23:06.000Z</time>
      </trkpt>
      <trkpt lat="47.2867" lon="-2.23344">
        <ele>29.60000038147</ele>
        <time>2021-02-07T09:23:07.000Z</time>
      </trkpt>
      <trkpt lat="47.28674" lon="-2.23322">
        <ele>29.60000038147</ele>
        <time>2021-02-07T09:23:12.000Z</time>
      </trkpt>
      <trkpt lat="47.28678" lon="-2.23299">
        <ele>29.60000038147</ele>
        <time>2021-02-07T09:23:18.000Z</time>
      </trkpt>
      <trkpt lat="47.28681" lon="-2.23282">
        <ele>29.60000038147</ele>
        <time>2021-02-07T09:23:22.000Z</time>
      </trkpt>
      <trkpt lat="47.28683" lon="-2.23263">
        <ele>29.60000038147</ele>
        <time>2021-02-07T09:23:27.000Z</time>
      </trkpt>
      <trkpt lat="47.28683" lon="-2.2324">
        <ele>29.60000038147</ele>
        <time>2021-02-07T09:23:31.000Z</time>
      </trkpt>
      <trkpt lat="47.28683" lon="-2.23213">
        <ele>29.60000038147</ele>
        <time>2021-02-07T09:23:35.000Z</time>
      </trkpt>
      <trkpt lat="47.28673" lon="-2.23197">
        <ele>29.60000038147</ele>
        <time>2021-02-07T09:23:38.000Z</time>
      </trkpt>
      <trkpt lat="47.28651" lon="-2.23183">
        <ele>29.60000038147</ele>
        <time>2021-02-07T09:23:42.000Z</time>
      </trkpt>
      <trkpt lat="47.28634" lon="-2.23188">
        <ele>29.60000038147</ele>
        <time>2021-02-07T09:23:45.000Z</time>
      </trkpt>
      <trkpt lat="47.28616" lon="-2.23197">
        <ele>29.60000038147</ele>
        <time>2021-02-07T09:23:49.000Z</time>
      </trkpt>
      <trkpt lat="47.28613" lon="-2.232">
        <ele>29.60000038147</ele>
        <time>2021-02-07T09:23:50.000Z</time>
      </trkpt>
      <trkpt lat="47.28607" lon="-2.23206">
        <ele>29.60000038147</ele>
        <time>2021-02-07T09:23:54.000Z</time>
      </trkpt>
      <trkpt lat="47.28606" lon="-2.23205">
        <ele>29.60000038147</ele>
        <time>2021-02-07T09:23:56.000Z</time>
      </trkpt>
      <trkpt lat="47.28607" lon="-2.23195">
        <ele>29.60000038147</ele>
        <time>2021-02-07T09:24:58.000Z</time>
      </trkpt>
      <trkpt lat="47.28607" lon="-2.23193">
        <ele>29.60000038147</ele>
        <time>2021-02-07T09:24:59.000Z</time>
      </trkpt>
      <trkpt lat="47.28609" lon="-2.23174">
        <ele>29.60000038147</ele>
        <time>2021-02-07T09:25:04.000Z</time>
      </trkpt>
      <trkpt lat="47.28612" lon="-2.23161">
        <ele>29.200000762939</ele>
        <time>2021-02-07T09:25:07.000Z</time>
      </trkpt>
      <trkpt lat="47.28613" lon="-2.23157">
        <ele>28.799999237061</ele>
        <time>2021-02-07T09:25:08.000Z</time>
      </trkpt>
      <trkpt lat="47.28614" lon="-2.23154">
        <ele>28.39999961853</ele>
        <time>2021-02-07T09:25:09.000Z</time>
      </trkpt>
      <trkpt lat="47.28614" lon="-2.2315">
        <ele>28</ele>
        <time>2021-02-07T09:25:10.000Z</time>
      </trkpt>
      <trkpt lat="47.28614" lon="-2.23147">
        <ele>27.60000038147</ele>
        <time>2021-02-07T09:25:11.000Z</time>
      </trkpt>
      <trkpt lat="47.28621" lon="-2.23121">
        <ele>27.60000038147</ele>
        <time>2021-02-07T09:25:19.000Z</time>
      </trkpt>
      <trkpt lat="47.28628" lon="-2.23109">
        <ele>27.60000038147</ele>
        <time>2021-02-07T09:25:24.000Z</time>
      </trkpt>
      <trkpt lat="47.2864" lon="-2.23097">
        <ele>27.60000038147</ele>
        <time>2021-02-07T09:25:30.000Z</time>
      </trkpt>
      <trkpt lat="47.28649" lon="-2.23082">
        <ele>27.60000038147</ele>
        <time>2021-02-07T09:25:35.000Z</time>
      </trkpt>
      <trkpt lat="47.2866" lon="-2.23064">
        <ele>27.60000038147</ele>
        <time>2021-02-07T09:25:42.000Z</time>
      </trkpt>
      <trkpt lat="47.28664" lon="-2.23061">
        <ele>27.60000038147</ele>
        <time>2021-02-07T09:25:44.000Z</time>
      </trkpt>
      <trkpt lat="47.28672" lon="-2.23053">
        <ele>27.60000038147</ele>
        <time>2021-02-07T09:25:47.000Z</time>
      </trkpt>
      <trkpt lat="47.28681" lon="-2.23038">
        <ele>27.60000038147</ele>
        <time>2021-02-07T09:25:52.000Z</time>
      </trkpt>
      <trkpt lat="47.28687" lon="-2.23022">
        <ele>27.60000038147</ele>
        <time>2021-02-07T09:25:57.000Z</time>
      </trkpt>
      <trkpt lat="47.28692" lon="-2.23005">
        <ele>27.60000038147</ele>
        <time>2021-02-07T09:26:02.000Z</time>
      </trkpt>
      <trkpt lat="47.28696" lon="-2.2298">
        <ele>27.60000038147</ele>
        <time>2021-02-07T09:26:08.000Z</time>
      </trkpt>
      <trkpt lat="47.28697" lon="-2.22958">
        <ele>27.60000038147</ele>
        <time>2021-02-07T09:26:14.000Z</time>
      </trkpt>
      <trkpt lat="47.28697" lon="-2.22951">
        <ele>27.60000038147</ele>
        <time>2021-02-07T09:26:16.000Z</time>
      </trkpt>
      <trkpt lat="47.28693" lon="-2.22941">
        <ele>27.60000038147</ele>
        <time>2021-02-07T09:26:19.000Z</time>
      </trkpt>
      <trkpt lat="47.28692" lon="-2.22919">
        <ele>27.60000038147</ele>
        <time>2021-02-07T09:26:25.000Z</time>
      </trkpt>
      <trkpt lat="47.28694" lon="-2.22908">
        <ele>27.60000038147</ele>
        <time>2021-02-07T09:26:28.000Z</time>
      </trkpt>
      <trkpt lat="47.28698" lon="-2.22904">
        <ele>27.60000038147</ele>
        <time>2021-02-07T09:26:30.000Z</time>
      </trkpt>
      <trkpt lat="47.28706" lon="-2.22897">
        <ele>27.60000038147</ele>
        <time>2021-02-07T09:26:33.000Z</time>
      </trkpt>
      <trkpt lat="47.28715" lon="-2.22889">
        <ele>27.60000038147</ele>
        <time>2021-02-07T09:26:36.000Z</time>
      </trkpt>
      <trkpt lat="47.28736" lon="-2.22877">
        <ele>27.60000038147</ele>
        <time>2021-02-07T09:26:42.000Z</time>
      </trkpt>
      <trkpt lat="47.28761" lon="-2.22869">
        <ele>27.60000038147</ele>
        <time>2021-02-07T09:26:49.000Z</time>
      </trkpt>
      <trkpt lat="47.28783" lon="-2.22865">
        <ele>27.60000038147</ele>
        <time>2021-02-07T09:26:55.000Z</time>
      </trkpt>
      <trkpt lat="47.28801" lon="-2.22863">
        <ele>27.60000038147</ele>
        <time>2021-02-07T09:27:00.000Z</time>
      </trkpt>
      <trkpt lat="47.28811" lon="-2.22865">
        <ele>27.60000038147</ele>
        <time>2021-02-07T09:27:02.000Z</time>
      </trkpt>
      <trkpt lat="47.28822" lon="-2.22868">
        <ele>27.60000038147</ele>
        <time>2021-02-07T09:27:04.000Z</time>
      </trkpt>
      <trkpt lat="47.28852" lon="-2.22884">
        <ele>27.60000038147</ele>
        <time>2021-02-07T09:27:10.000Z</time>
      </trkpt>
      <trkpt lat="47.28893" lon="-2.22908">
        <ele>27.60000038147</ele>
        <time>2021-02-07T09:27:18.000Z</time>
      </trkpt>
      <trkpt lat="47.28929" lon="-2.2293">
        <ele>27.60000038147</ele>
        <time>2021-02-07T09:27:25.000Z</time>
      </trkpt>
      <trkpt lat="47.28968" lon="-2.22953">
        <ele>27.60000038147</ele>
        <time>2021-02-07T09:27:33.000Z</time>
      </trkpt>
      <trkpt lat="47.28993" lon="-2.22963">
        <ele>27.60000038147</ele>
        <time>2021-02-07T09:27:40.000Z</time>
      </trkpt>
      <trkpt lat="47.29" lon="-2.2296">
        <ele>27.60000038147</ele>
        <time>2021-02-07T09:27:45.000Z</time>
      </trkpt>
      <trkpt lat="47.29002" lon="-2.22952">
        <ele>27.60000038147</ele>
        <time>2021-02-07T09:27:50.000Z</time>
      </trkpt>
      <trkpt lat="47.29001" lon="-2.2295">
        <ele>27.60000038147</ele>
        <time>2021-02-07T09:27:51.000Z</time>
      </trkpt>
      <trkpt lat="47.28991" lon="-2.2293">
        <ele>27.60000038147</ele>
        <time>2021-02-07T09:27:57.000Z</time>
      </trkpt>
      <trkpt lat="47.28975" lon="-2.22904">
        <ele>27.60000038147</ele>
        <time>2021-02-07T09:28:03.000Z</time>
      </trkpt>
      <trkpt lat="47.28958" lon="-2.2287">
        <ele>27.60000038147</ele>
        <time>2021-02-07T09:28:09.000Z</time>
      </trkpt>
      <trkpt lat="47.28934" lon="-2.22823">
        <ele>27.60000038147</ele>
        <time>2021-02-07T09:28:16.000Z</time>
      </trkpt>
      <trkpt lat="47.28927" lon="-2.2281">
        <ele>27.60000038147</ele>
        <time>2021-02-07T09:28:18.000Z</time>
      </trkpt>
      <trkpt lat="47.28913" lon="-2.22781">
        <ele>27.60000038147</ele>
        <time>2021-02-07T09:28:22.000Z</time>
      </trkpt>
      <trkpt lat="47.28887" lon="-2.22717">
        <ele>27.60000038147</ele>
        <time>2021-02-07T09:28:31.000Z</time>
      </trkpt>
      <trkpt lat="47.28866" lon="-2.22656">
        <ele>27.60000038147</ele>
        <time>2021-02-07T09:28:39.000Z</time>
      </trkpt>
      <trkpt lat="47.2885" lon="-2.226">
        <ele>27.60000038147</ele>
        <time>2021-02-07T09:28:46.000Z</time>
      </trkpt>
      <trkpt lat="47.28836" lon="-2.22538">
        <ele>27.60000038147</ele>
        <time>2021-02-07T09:28:53.000Z</time>
      </trkpt>
      <trkpt lat="47.28826" lon="-2.22484">
        <ele>27.60000038147</ele>
        <time>2021-02-07T09:28:59.000Z</time>
      </trkpt>
      <trkpt lat="47.28819" lon="-2.2246">
        <ele>27.60000038147</ele>
        <time>2021-02-07T09:29:02.000Z</time>
      </trkpt>
      <trkpt lat="47.28812" lon="-2.22447">
        <ele>27.60000038147</ele>
        <time>2021-02-07T09:29:04.000Z</time>
      </trkpt>
      <trkpt lat="47.2881" lon="-2.22439">
        <ele>27.60000038147</ele>
        <time>2021-02-07T09:29:05.000Z</time>
      </trkpt>
      <trkpt lat="47.28811" lon="-2.22422">
        <ele>27.60000038147</ele>
        <time>2021-02-07T09:29:07.000Z</time>
      </trkpt>
      <trkpt lat="47.28812" lon="-2.22413">
        <ele>28</ele>
        <time>2021-02-07T09:29:08.000Z</time>
      </trkpt>
      <trkpt lat="47.28813" lon="-2.22403">
        <ele>28.39999961853</ele>
        <time>2021-02-07T09:29:09.000Z</time>
      </trkpt>
      <trkpt lat="47.28813" lon="-2.22393">
        <ele>28.799999237061</ele>
        <time>2021-02-07T09:29:10.000Z</time>
      </trkpt>
      <trkpt lat="47.28812" lon="-2.22384">
        <ele>29.200000762939</ele>
        <time>2021-02-07T09:29:11.000Z</time>
      </trkpt>
      <trkpt lat="47.28811" lon="-2.22374">
        <ele>29.60000038147</ele>
        <time>2021-02-07T09:29:12.000Z</time>
      </trkpt>
      <trkpt lat="47.28805" lon="-2.22326">
        <ele>29.60000038147</ele>
        <time>2021-02-07T09:29:17.000Z</time>
      </trkpt>
      <trkpt lat="47.28797" lon="-2.22259">
        <ele>29.60000038147</ele>
        <time>2021-02-07T09:29:24.000Z</time>
      </trkpt>
      <trkpt lat="47.28783" lon="-2.22191">
        <ele>29.60000038147</ele>
        <time>2021-02-07T09:29:31.000Z</time>
      </trkpt>
      <trkpt lat="47.28763" lon="-2.22133">
        <ele>29.60000038147</ele>
        <time>2021-02-07T09:29:37.000Z</time>
      </trkpt>
      <trkpt lat="47.2874" lon="-2.22068">
        <ele>29.60000038147</ele>
        <time>2021-02-07T09:29:44.000Z</time>
      </trkpt>
      <trkpt lat="47.28718" lon="-2.22008">
        <ele>29.60000038147</ele>
        <time>2021-02-07T09:29:51.000Z</time>
      </trkpt>
      <trkpt lat="47.28702" lon="-2.21962">
        <ele>29.60000038147</ele>
        <time>2021-02-07T09:29:57.000Z</time>
      </trkpt>
      <trkpt lat="47.28699" lon="-2.21946">
        <ele>29.60000038147</ele>
        <time>2021-02-07T09:29:59.000Z</time>
      </trkpt>
      <trkpt lat="47.28697" lon="-2.21939">
        <ele>29.60000038147</ele>
        <time>2021-02-07T09:30:00.000Z</time>
      </trkpt>
      <trkpt lat="47.28693" lon="-2.21924">
        <ele>29.60000038147</ele>
        <time>2021-02-07T09:30:03.000Z</time>
      </trkpt>
      <trkpt lat="47.28698" lon="-2.21921">
        <ele>29.60000038147</ele>
        <time>2021-02-07T09:30:07.000Z</time>
      </trkpt>
      <trkpt lat="47.28698" lon="-2.21921">
        <ele>29.200000762939</ele>
        <time>2021-02-07T09:30:09.000Z</time>
      </trkpt>
      <trkpt lat="47.28699" lon="-2.2192">
        <ele>27.60000038147</ele>
        <time>2021-02-07T09:30:27.000Z</time>
      </trkpt>
      <trkpt lat="47.28702" lon="-2.21921">
        <ele>27.60000038147</ele>
        <time>2021-02-07T09:30:28.000Z</time>
      </trkpt>
      <trkpt lat="47.28703" lon="-2.21924">
        <ele>27.60000038147</ele>
        <time>2021-02-07T09:30:29.000Z</time>
      </trkpt>
      <trkpt lat="47.28706" lon="-2.21931">
        <ele>27.60000038147</ele>
        <time>2021-02-07T09:30:32.000Z</time>
      </trkpt>
      <trkpt lat="47.28709" lon="-2.21937">
        <ele>27.60000038147</ele>
        <time>2021-02-07T09:30:34.000Z</time>
      </trkpt>
      <trkpt lat="47.28711" lon="-2.21943">
        <ele>28</ele>
        <time>2021-02-07T09:30:36.000Z</time>
      </trkpt>
      <trkpt lat="47.28712" lon="-2.21946">
        <ele>28.39999961853</ele>
        <time>2021-02-07T09:30:37.000Z</time>
      </trkpt>
      <trkpt lat="47.28714" lon="-2.21949">
        <ele>28.799999237061</ele>
        <time>2021-02-07T09:30:38.000Z</time>
      </trkpt>
      <trkpt lat="47.28715" lon="-2.21952">
        <ele>29.200000762939</ele>
        <time>2021-02-07T09:30:39.000Z</time>
      </trkpt>
      <trkpt lat="47.28716" lon="-2.21955">
        <ele>29.799999237061</ele>
        <time>2021-02-07T09:30:40.000Z</time>
      </trkpt>
      <trkpt lat="47.28718" lon="-2.2196">
        <ele>30.200000762939</ele>
        <time>2021-02-07T09:30:42.000Z</time>
      </trkpt>
      <trkpt lat="47.28719" lon="-2.21962">
        <ele>30.60000038147</ele>
        <time>2021-02-07T09:30:43.000Z</time>
      </trkpt>
      <trkpt lat="47.28721" lon="-2.21965">
        <ele>31</ele>
        <time>2021-02-07T09:30:44.000Z</time>
      </trkpt>
      <trkpt lat="47.28723" lon="-2.21967">
        <ele>31.60000038147</ele>
        <time>2021-02-07T09:30:45.000Z</time>
      </trkpt>
      <trkpt lat="47.28724" lon="-2.2197">
        <ele>32</ele>
        <time>2021-02-07T09:30:46.000Z</time>
      </trkpt>
      <trkpt lat="47.28726" lon="-2.21976">
        <ele>32.400001525879</ele>
        <time>2021-02-07T09:30:49.000Z</time>
      </trkpt>
      <trkpt lat="47.28727" lon="-2.21978">
        <ele>32.799999237061</ele>
        <time>2021-02-07T09:30:50.000Z</time>
      </trkpt>
      <trkpt lat="47.28728" lon="-2.2198">
        <ele>33.400001525879</ele>
        <time>2021-02-07T09:30:51.000Z</time>
      </trkpt>
      <trkpt lat="47.28729" lon="-2.21982">
        <ele>33.799999237061</ele>
        <time>2021-02-07T09:30:52.000Z</time>
      </trkpt>
      <trkpt lat="47.2873" lon="-2.21983">
        <ele>34.200000762939</ele>
        <time>2021-02-07T09:30:53.000Z</time>
      </trkpt>
      <trkpt lat="47.28733" lon="-2.21982">
        <ele>34.200000762939</ele>
        <time>2021-02-07T09:30:57.000Z</time>
      </trkpt>
      <trkpt lat="47.28741" lon="-2.21979">
        <ele>34.200000762939</ele>
        <time>2021-02-07T09:31:03.000Z</time>
      </trkpt>
      <trkpt lat="47.28761" lon="-2.2197">
        <ele>34.200000762939</ele>
        <time>2021-02-07T09:31:10.000Z</time>
      </trkpt>
      <trkpt lat="47.2878" lon="-2.21965">
        <ele>34.200000762939</ele>
        <time>2021-02-07T09:31:16.000Z</time>
      </trkpt>
      <trkpt lat="47.28795" lon="-2.21961">
        <ele>34.200000762939</ele>
        <time>2021-02-07T09:31:21.000Z</time>
      </trkpt>
      <trkpt lat="47.28796" lon="-2.2196">
        <ele>34.200000762939</ele>
        <time>2021-02-07T09:31:22.000Z</time>
      </trkpt>
      <trkpt lat="47.28797" lon="-2.21958">
        <ele>34.200000762939</ele>
        <time>2021-02-07T09:31:24.000Z</time>
      </trkpt>
      <trkpt lat="47.28798" lon="-2.21946">
        <ele>34.200000762939</ele>
        <time>2021-02-07T09:31:30.000Z</time>
      </trkpt>
      <trkpt lat="47.28794" lon="-2.2192">
        <ele>33.799999237061</ele>
        <time>2021-02-07T09:31:36.000Z</time>
      </trkpt>
      <trkpt lat="47.28794" lon="-2.21915">
        <ele>33.400001525879</ele>
        <time>2021-02-07T09:31:37.000Z</time>
      </trkpt>
      <trkpt lat="47.28795" lon="-2.21909">
        <ele>33</ele>
        <time>2021-02-07T09:31:38.000Z</time>
      </trkpt>
      <trkpt lat="47.28796" lon="-2.21904">
        <ele>32.599998474121</ele>
        <time>2021-02-07T09:31:39.000Z</time>
      </trkpt>
      <trkpt lat="47.28796" lon="-2.21898">
        <ele>32.200000762939</ele>
        <time>2021-02-07T09:31:40.000Z</time>
      </trkpt>
      <trkpt lat="47.28795" lon="-2.21886">
        <ele>32.200000762939</ele>
        <time>2021-02-07T09:31:42.000Z</time>
      </trkpt>
      <trkpt lat="47.28793" lon="-2.21865">
        <ele>32.200000762939</ele>
        <time>2021-02-07T09:31:45.000Z</time>
      </trkpt>
      <trkpt lat="47.28792" lon="-2.21858">
        <ele>32.200000762939</ele>
        <time>2021-02-07T09:31:46.000Z</time>
      </trkpt>
      <trkpt lat="47.28792" lon="-2.2185">
        <ele>32.200000762939</ele>
        <time>2021-02-07T09:31:47.000Z</time>
      </trkpt>
      <trkpt lat="47.28792" lon="-2.21835">
        <ele>32.200000762939</ele>
        <time>2021-02-07T09:31:49.000Z</time>
      </trkpt>
      <trkpt lat="47.28793" lon="-2.21821">
        <ele>32.200000762939</ele>
        <time>2021-02-07T09:31:51.000Z</time>
      </trkpt>
      <trkpt lat="47.28791" lon="-2.21807">
        <ele>32.200000762939</ele>
        <time>2021-02-07T09:31:53.000Z</time>
      </trkpt>
      <trkpt lat="47.28791" lon="-2.21794">
        <ele>32.200000762939</ele>
        <time>2021-02-07T09:31:55.000Z</time>
      </trkpt>
      <trkpt lat="47.28792" lon="-2.21788">
        <ele>32.200000762939</ele>
        <time>2021-02-07T09:31:56.000Z</time>
      </trkpt>
      <trkpt lat="47.28794" lon="-2.21747">
        <ele>32.200000762939</ele>
        <time>2021-02-07T09:32:02.000Z</time>
      </trkpt>
      <trkpt lat="47.28795" lon="-2.21733">
        <ele>31.799999237061</ele>
        <time>2021-02-07T09:32:04.000Z</time>
      </trkpt>
      <trkpt lat="47.28795" lon="-2.21726">
        <ele>31.39999961853</ele>
        <time>2021-02-07T09:32:05.000Z</time>
      </trkpt>
      <trkpt lat="47.28796" lon="-2.21719">
        <ele>31</ele>
        <time>2021-02-07T09:32:06.000Z</time>
      </trkpt>
      <trkpt lat="47.28796" lon="-2.21712">
        <ele>30.60000038147</ele>
        <time>2021-02-07T09:32:07.000Z</time>
      </trkpt>
      <trkpt lat="47.28797" lon="-2.21706">
        <ele>30.200000762939</ele>
        <time>2021-02-07T09:32:08.000Z</time>
      </trkpt>
      <trkpt lat="47.28797" lon="-2.217">
        <ele>30.200000762939</ele>
        <time>2021-02-07T09:32:09.000Z</time>
      </trkpt>
      <trkpt lat="47.28797" lon="-2.21669">
        <ele>30.200000762939</ele>
        <time>2021-02-07T09:32:16.000Z</time>
      </trkpt>
      <trkpt lat="47.28794" lon="-2.21632">
        <ele>30.200000762939</ele>
        <time>2021-02-07T09:32:22.000Z</time>
      </trkpt>
      <trkpt lat="47.28789" lon="-2.21589">
        <ele>30.200000762939</ele>
        <time>2021-02-07T09:32:28.000Z</time>
      </trkpt>
      <trkpt lat="47.28781" lon="-2.21521">
        <ele>30.200000762939</ele>
        <time>2021-02-07T09:32:37.000Z</time>
      </trkpt>
      <trkpt lat="47.28774" lon="-2.21463">
        <ele>30.200000762939</ele>
        <time>2021-02-07T09:32:45.000Z</time>
      </trkpt>
      <trkpt lat="47.28767" lon="-2.21405">
        <ele>30.200000762939</ele>
        <time>2021-02-07T09:32:53.000Z</time>
      </trkpt>
      <trkpt lat="47.2876" lon="-2.21347">
        <ele>30.200000762939</ele>
        <time>2021-02-07T09:33:01.000Z</time>
      </trkpt>
      <trkpt lat="47.28753" lon="-2.21297">
        <ele>30.200000762939</ele>
        <time>2021-02-07T09:33:08.000Z</time>
      </trkpt>
      <trkpt lat="47.28748" lon="-2.21256">
        <ele>30.200000762939</ele>
        <time>2021-02-07T09:33:14.000Z</time>
      </trkpt>
      <trkpt lat="47.28746" lon="-2.2125">
        <ele>30.200000762939</ele>
        <time>2021-02-07T09:33:15.000Z</time>
      </trkpt>
      <trkpt lat="47.28743" lon="-2.21237">
        <ele>30.200000762939</ele>
        <time>2021-02-07T09:33:17.000Z</time>
      </trkpt>
      <trkpt lat="47.2874" lon="-2.21216">
        <ele>30.200000762939</ele>
        <time>2021-02-07T09:33:20.000Z</time>
      </trkpt>
      <trkpt lat="47.28727" lon="-2.21158">
        <ele>30.200000762939</ele>
        <time>2021-02-07T09:33:28.000Z</time>
      </trkpt>
      <trkpt lat="47.28712" lon="-2.21098">
        <ele>30.200000762939</ele>
        <time>2021-02-07T09:33:36.000Z</time>
      </trkpt>
      <trkpt lat="47.28701" lon="-2.21059">
        <ele>30.200000762939</ele>
        <time>2021-02-07T09:33:42.000Z</time>
      </trkpt>
      <trkpt lat="47.28694" lon="-2.21038">
        <ele>30.200000762939</ele>
        <time>2021-02-07T09:33:46.000Z</time>
      </trkpt>
      <trkpt lat="47.28692" lon="-2.21032">
        <ele>30.200000762939</ele>
        <time>2021-02-07T09:33:47.000Z</time>
      </trkpt>
      <trkpt lat="47.28689" lon="-2.21004">
        <ele>30.200000762939</ele>
        <time>2021-02-07T09:33:52.000Z</time>
      </trkpt>
      <trkpt lat="47.28688" lon="-2.20982">
        <ele>30.200000762939</ele>
        <time>2021-02-07T09:33:55.000Z</time>
      </trkpt>
      <trkpt lat="47.28683" lon="-2.20927">
        <ele>30.200000762939</ele>
        <time>2021-02-07T09:34:01.000Z</time>
      </trkpt>
      <trkpt lat="47.28681" lon="-2.20881">
        <ele>30.200000762939</ele>
        <time>2021-02-07T09:34:06.000Z</time>
      </trkpt>
      <trkpt lat="47.28681" lon="-2.20863">
        <ele>30.200000762939</ele>
        <time>2021-02-07T09:34:08.000Z</time>
      </trkpt>
      <trkpt lat="47.28684" lon="-2.20802">
        <ele>30.200000762939</ele>
        <time>2021-02-07T09:34:15.000Z</time>
      </trkpt>
      <trkpt lat="47.28689" lon="-2.20753">
        <ele>30.200000762939</ele>
        <time>2021-02-07T09:34:21.000Z</time>
      </trkpt>
      <trkpt lat="47.28698" lon="-2.20714">
        <ele>30.200000762939</ele>
        <time>2021-02-07T09:34:26.000Z</time>
      </trkpt>
      <trkpt lat="47.287" lon="-2.20708">
        <ele>30.200000762939</ele>
        <time>2021-02-07T09:34:27.000Z</time>
      </trkpt>
      <trkpt lat="47.28714" lon="-2.20688">
        <ele>30.200000762939</ele>
        <time>2021-02-07T09:34:31.000Z</time>
      </trkpt>
      <trkpt lat="47.28724" lon="-2.20673">
        <ele>30.200000762939</ele>
        <time>2021-02-07T09:34:34.000Z</time>
      </trkpt>
      <trkpt lat="47.28733" lon="-2.20672">
        <ele>30.200000762939</ele>
        <time>2021-02-07T09:34:36.000Z</time>
      </trkpt>
      <trkpt lat="47.28738" lon="-2.20674">
        <ele>29.799999237061</ele>
        <time>2021-02-07T09:34:37.000Z</time>
      </trkpt>
      <trkpt lat="47.28743" lon="-2.20674">
        <ele>29.39999961853</ele>
        <time>2021-02-07T09:34:38.000Z</time>
      </trkpt>
      <trkpt lat="47.28749" lon="-2.20671">
        <ele>29</ele>
        <time>2021-02-07T09:34:39.000Z</time>
      </trkpt>
      <trkpt lat="47.28753" lon="-2.20667">
        <ele>28.60000038147</ele>
        <time>2021-02-07T09:34:40.000Z</time>
      </trkpt>
      <trkpt lat="47.28758" lon="-2.20662">
        <ele>28.200000762939</ele>
        <time>2021-02-07T09:34:41.000Z</time>
      </trkpt>
      <trkpt lat="47.28771" lon="-2.20646">
        <ele>28.200000762939</ele>
        <time>2021-02-07T09:34:44.000Z</time>
      </trkpt>
      <trkpt lat="47.28808" lon="-2.20608">
        <ele>28.200000762939</ele>
        <time>2021-02-07T09:34:51.000Z</time>
      </trkpt>
      <trkpt lat="47.28818" lon="-2.20597">
        <ele>28.200000762939</ele>
        <time>2021-02-07T09:34:53.000Z</time>
      </trkpt>
      <trkpt lat="47.28822" lon="-2.20581">
        <ele>28.200000762939</ele>
        <time>2021-02-07T09:34:55.000Z</time>
      </trkpt>
      <trkpt lat="47.28817" lon="-2.20556">
        <ele>28.200000762939</ele>
        <time>2021-02-07T09:34:58.000Z</time>
      </trkpt>
      <trkpt lat="47.28809" lon="-2.20531">
        <ele>28.200000762939</ele>
        <time>2021-02-07T09:35:01.000Z</time>
      </trkpt>
      <trkpt lat="47.28806" lon="-2.20513">
        <ele>28.200000762939</ele>
        <time>2021-02-07T09:35:03.000Z</time>
      </trkpt>
      <trkpt lat="47.28798" lon="-2.20454">
        <ele>28.200000762939</ele>
        <time>2021-02-07T09:35:10.000Z</time>
      </trkpt>
      <trkpt lat="47.28793" lon="-2.20405">
        <ele>28.200000762939</ele>
        <time>2021-02-07T09:35:17.000Z</time>
      </trkpt>
      <trkpt lat="47.28788" lon="-2.20361">
        <ele>28.200000762939</ele>
        <time>2021-02-07T09:35:23.000Z</time>
      </trkpt>
      <trkpt lat="47.28788" lon="-2.20353">
        <ele>28.200000762939</ele>
        <time>2021-02-07T09:35:24.000Z</time>
      </trkpt>
      <trkpt lat="47.28791" lon="-2.20338">
        <ele>28.200000762939</ele>
        <time>2021-02-07T09:35:26.000Z</time>
      </trkpt>
      <trkpt lat="47.28797" lon="-2.20324">
        <ele>28.200000762939</ele>
        <time>2021-02-07T09:35:28.000Z</time>
      </trkpt>
      <trkpt lat="47.28805" lon="-2.20306">
        <ele>28.200000762939</ele>
        <time>2021-02-07T09:35:31.000Z</time>
      </trkpt>
      <trkpt lat="47.28809" lon="-2.20297">
        <ele>28.200000762939</ele>
        <time>2021-02-07T09:35:34.000Z</time>
      </trkpt>
      <trkpt lat="47.28817" lon="-2.20292">
        <ele>28.200000762939</ele>
        <time>2021-02-07T09:35:39.000Z</time>
      </trkpt>
      <trkpt lat="47.28826" lon="-2.2029">
        <ele>28.200000762939</ele>
        <time>2021-02-07T09:35:42.000Z</time>
      </trkpt>
      <trkpt lat="47.28829" lon="-2.20287">
        <ele>28.200000762939</ele>
        <time>2021-02-07T09:35:43.000Z</time>
      </trkpt>
      <trkpt lat="47.28839" lon="-2.2027">
        <ele>28.200000762939</ele>
        <time>2021-02-07T09:35:47.000Z</time>
      </trkpt>
      <trkpt lat="47.28842" lon="-2.20265">
        <ele>28.200000762939</ele>
        <time>2021-02-07T09:35:48.000Z</time>
      </trkpt>
      <trkpt lat="47.28859" lon="-2.20235">
        <ele>28.200000762939</ele>
        <time>2021-02-07T09:35:54.000Z</time>
      </trkpt>
      <trkpt lat="47.2887" lon="-2.20221">
        <ele>28.200000762939</ele>
        <time>2021-02-07T09:35:57.000Z</time>
      </trkpt>
      <trkpt lat="47.28884" lon="-2.20214">
        <ele>28.200000762939</ele>
        <time>2021-02-07T09:36:00.000Z</time>
      </trkpt>
      <trkpt lat="47.28916" lon="-2.20204">
        <ele>28.200000762939</ele>
        <time>2021-02-07T09:36:06.000Z</time>
      </trkpt>
      <trkpt lat="47.28935" lon="-2.20198">
        <ele>28.200000762939</ele>
        <time>2021-02-07T09:36:10.000Z</time>
      </trkpt>
      <trkpt lat="47.28946" lon="-2.20194">
        <ele>28.200000762939</ele>
        <time>2021-02-07T09:36:12.000Z</time>
      </trkpt>
      <trkpt lat="47.28987" lon="-2.20182">
        <ele>28.200000762939</ele>
        <time>2021-02-07T09:36:19.000Z</time>
      </trkpt>
      <trkpt lat="47.29013" lon="-2.20175">
        <ele>28.200000762939</ele>
        <time>2021-02-07T09:36:24.000Z</time>
      </trkpt>
      <trkpt lat="47.29026" lon="-2.20171">
        <ele>28.200000762939</ele>
        <time>2021-02-07T09:36:28.000Z</time>
      </trkpt>
      <trkpt lat="47.29031" lon="-2.20166">
        <ele>28.200000762939</ele>
        <time>2021-02-07T09:36:34.000Z</time>
      </trkpt>
      <trkpt lat="47.29032" lon="-2.20166">
        <ele>28.200000762939</ele>
        <time>2021-02-07T09:36:35.000Z</time>
      </trkpt>
      <trkpt lat="47.29032" lon="-2.20167">
        <ele>28.200000762939</ele>
        <time>2021-02-07T09:36:37.000Z</time>
      </trkpt>
      <trkpt lat="47.29032" lon="-2.20167">
        <ele>28.200000762939</ele>
        <time>2021-02-07T09:36:42.000Z</time>
      </trkpt>
      <trkpt lat="47.29033" lon="-2.20171">
        <ele>28.200000762939</ele>
        <time>2021-02-07T09:36:44.000Z</time>
      </trkpt>
      <trkpt lat="47.29037" lon="-2.20173">
        <ele>28.200000762939</ele>
        <time>2021-02-07T09:36:47.000Z</time>
      </trkpt>
      <trkpt lat="47.29042" lon="-2.20172">
        <ele>28.200000762939</ele>
        <time>2021-02-07T09:36:50.000Z</time>
      </trkpt>
      <trkpt lat="47.29046" lon="-2.2017">
        <ele>28.200000762939</ele>
        <time>2021-02-07T09:36:53.000Z</time>
      </trkpt>
      <trkpt lat="47.29049" lon="-2.20168">
        <ele>28.200000762939</ele>
        <time>2021-02-07T09:36:56.000Z</time>
      </trkpt>
      <trkpt lat="47.2905" lon="-2.20165">
        <ele>28.200000762939</ele>
        <time>2021-02-07T09:36:59.000Z</time>
      </trkpt>
      <trkpt lat="47.29047" lon="-2.20164">
        <ele>28.200000762939</ele>
        <time>2021-02-07T09:37:04.000Z</time>
      </trkpt>
      <trkpt lat="47.29046" lon="-2.20166">
        <ele>28.200000762939</ele>
        <time>2021-02-07T09:37:05.000Z</time>
      </trkpt>
      <trkpt lat="47.29042" lon="-2.20171">
        <ele>28.200000762939</ele>
        <time>2021-02-07T09:37:09.000Z</time>
      </trkpt>
      <trkpt lat="47.29037" lon="-2.20171">
        <ele>28.200000762939</ele>
        <time>2021-02-07T09:37:28.000Z</time>
      </trkpt>
      <trkpt lat="47.29036" lon="-2.20165">
        <ele>28.200000762939</ele>
        <time>2021-02-07T09:37:31.000Z</time>
      </trkpt>
      <trkpt lat="47.29037" lon="-2.2016">
        <ele>28.60000038147</ele>
        <time>2021-02-07T09:37:33.000Z</time>
      </trkpt>
      <trkpt lat="47.29037" lon="-2.20157">
        <ele>29.39999961853</ele>
        <time>2021-02-07T09:37:34.000Z</time>
      </trkpt>
      <trkpt lat="47.29037" lon="-2.20154">
        <ele>29.799999237061</ele>
        <time>2021-02-07T09:37:35.000Z</time>
      </trkpt>
      <trkpt lat="47.29037" lon="-2.20151">
        <ele>30.200000762939</ele>
        <time>2021-02-07T09:37:36.000Z</time>
      </trkpt>
      <trkpt lat="47.29038" lon="-2.20145">
        <ele>30.60000038147</ele>
        <time>2021-02-07T09:37:38.000Z</time>
      </trkpt>
      <trkpt lat="47.29038" lon="-2.20142">
        <ele>31.200000762939</ele>
        <time>2021-02-07T09:37:39.000Z</time>
      </trkpt>
      <trkpt lat="47.29038" lon="-2.2014">
        <ele>31.60000038147</ele>
        <time>2021-02-07T09:37:40.000Z</time>
      </trkpt>
      <trkpt lat="47.29038" lon="-2.20137">
        <ele>32</ele>
        <time>2021-02-07T09:37:41.000Z</time>
      </trkpt>
      <trkpt lat="47.29037" lon="-2.20134">
        <ele>32.400001525879</ele>
        <time>2021-02-07T09:37:42.000Z</time>
      </trkpt>
      <trkpt lat="47.29036" lon="-2.20128">
        <ele>33</ele>
        <time>2021-02-07T09:37:44.000Z</time>
      </trkpt>
      <trkpt lat="47.29036" lon="-2.20125">
        <ele>33.400001525879</ele>
        <time>2021-02-07T09:37:45.000Z</time>
      </trkpt>
      <trkpt lat="47.29036" lon="-2.20123">
        <ele>33.799999237061</ele>
        <time>2021-02-07T09:37:46.000Z</time>
      </trkpt>
      <trkpt lat="47.29036" lon="-2.2012">
        <ele>34.200000762939</ele>
        <time>2021-02-07T09:37:47.000Z</time>
      </trkpt>
      <trkpt lat="47.29035" lon="-2.20117">
        <ele>34.799999237061</ele>
        <time>2021-02-07T09:37:48.000Z</time>
      </trkpt>
      <trkpt lat="47.29036" lon="-2.20108">
        <ele>35.200000762939</ele>
        <time>2021-02-07T09:37:51.000Z</time>
      </trkpt>
      <trkpt lat="47.29035" lon="-2.20105">
        <ele>35.599998474121</ele>
        <time>2021-02-07T09:37:52.000Z</time>
      </trkpt>
      <trkpt lat="47.29035" lon="-2.20101">
        <ele>36</ele>
        <time>2021-02-07T09:37:53.000Z</time>
      </trkpt>
      <trkpt lat="47.29035" lon="-2.20096">
        <ele>36.400001525879</ele>
        <time>2021-02-07T09:37:54.000Z</time>
      </trkpt>
      <trkpt lat="47.29034" lon="-2.20093">
        <ele>36.799999237061</ele>
        <time>2021-02-07T09:37:55.000Z</time>
      </trkpt>
      <trkpt lat="47.29032" lon="-2.20069">
        <ele>36.799999237061</ele>
        <time>2021-02-07T09:38:01.000Z</time>
      </trkpt>
      <trkpt lat="47.29028" lon="-2.20043">
        <ele>36.799999237061</ele>
        <time>2021-02-07T09:38:06.000Z</time>
      </trkpt>
      <trkpt lat="47.29026" lon="-2.20033">
        <ele>36.799999237061</ele>
        <time>2021-02-07T09:38:08.000Z</time>
      </trkpt>
      <trkpt lat="47.2902" lon="-2.19992">
        <ele>36.799999237061</ele>
        <time>2021-02-07T09:38:16.000Z</time>
      </trkpt>
      <trkpt lat="47.29017" lon="-2.19966">
        <ele>36.799999237061</ele>
        <time>2021-02-07T09:38:22.000Z</time>
      </trkpt>
      <trkpt lat="47.29016" lon="-2.19957">
        <ele>36.799999237061</ele>
        <time>2021-02-07T09:38:25.000Z</time>
      </trkpt>
      <trkpt lat="47.29017" lon="-2.19956">
        <ele>36.799999237061</ele>
        <time>2021-02-07T09:38:27.000Z</time>
      </trkpt>
      <trkpt lat="47.29024" lon="-2.19951">
        <ele>36.799999237061</ele>
        <time>2021-02-07T09:38:33.000Z</time>
      </trkpt>
      <trkpt lat="47.29026" lon="-2.19951">
        <ele>36.400001525879</ele>
        <time>2021-02-07T09:38:34.000Z</time>
      </trkpt>
      <trkpt lat="47.29029" lon="-2.19949">
        <ele>36</ele>
        <time>2021-02-07T09:38:35.000Z</time>
      </trkpt>
      <trkpt lat="47.29032" lon="-2.19948">
        <ele>35.400001525879</ele>
        <time>2021-02-07T09:38:36.000Z</time>
      </trkpt>
      <trkpt lat="47.29036" lon="-2.19947">
        <ele>35</ele>
        <time>2021-02-07T09:38:37.000Z</time>
      </trkpt>
      <trkpt lat="47.29039" lon="-2.19946">
        <ele>34.599998474121</ele>
        <time>2021-02-07T09:38:38.000Z</time>
      </trkpt>
      <trkpt lat="47.29043" lon="-2.19945">
        <ele>34</ele>
        <time>2021-02-07T09:38:39.000Z</time>
      </trkpt>
      <trkpt lat="47.29047" lon="-2.19944">
        <ele>33.599998474121</ele>
        <time>2021-02-07T09:38:40.000Z</time>
      </trkpt>
      <trkpt lat="47.2905" lon="-2.19941">
        <ele>33.200000762939</ele>
        <time>2021-02-07T09:38:41.000Z</time>
      </trkpt>
      <trkpt lat="47.29053" lon="-2.19937">
        <ele>32.599998474121</ele>
        <time>2021-02-07T09:38:42.000Z</time>
      </trkpt>
      <trkpt lat="47.29054" lon="-2.19932">
        <ele>32</ele>
        <time>2021-02-07T09:38:43.000Z</time>
      </trkpt>
      <trkpt lat="47.29055" lon="-2.19928">
        <ele>31.60000038147</ele>
        <time>2021-02-07T09:38:44.000Z</time>
      </trkpt>
      <trkpt lat="47.29055" lon="-2.19923">
        <ele>31</ele>
        <time>2021-02-07T09:38:45.000Z</time>
      </trkpt>
      <trkpt lat="47.29055" lon="-2.19919">
        <ele>30.39999961853</ele>
        <time>2021-02-07T09:38:46.000Z</time>
      </trkpt>
      <trkpt lat="47.29054" lon="-2.19914">
        <ele>29.799999237061</ele>
        <time>2021-02-07T09:38:47.000Z</time>
      </trkpt>
      <trkpt lat="47.29048" lon="-2.19879">
        <ele>29.799999237061</ele>
        <time>2021-02-07T09:38:53.000Z</time>
      </trkpt>
      <trkpt lat="47.29038" lon="-2.1987">
        <ele>29.799999237061</ele>
        <time>2021-02-07T09:38:56.000Z</time>
      </trkpt>
      <trkpt lat="47.29031" lon="-2.19869">
        <ele>29.799999237061</ele>
        <time>2021-02-07T09:38:58.000Z</time>
      </trkpt>
      <trkpt lat="47.29013" lon="-2.19866">
        <ele>29.799999237061</ele>
        <time>2021-02-07T09:39:03.000Z</time>
      </trkpt>
      <trkpt lat="47.28992" lon="-2.19868">
        <ele>29.799999237061</ele>
        <time>2021-02-07T09:39:09.000Z</time>
      </trkpt>
      <trkpt lat="47.28973" lon="-2.19867">
        <ele>29.799999237061</ele>
        <time>2021-02-07T09:39:15.000Z</time>
      </trkpt>
      <trkpt lat="47.28955" lon="-2.19867">
        <ele>29.799999237061</ele>
        <time>2021-02-07T09:39:23.000Z</time>
      </trkpt>
      <trkpt lat="47.2894" lon="-2.19868">
        <ele>29.799999237061</ele>
        <time>2021-02-07T09:39:30.000Z</time>
      </trkpt>
      <trkpt lat="47.2893" lon="-2.19866">
        <ele>29.799999237061</ele>
        <time>2021-02-07T09:39:36.000Z</time>
      </trkpt>
      <trkpt lat="47.28926" lon="-2.19865">
        <ele>29.799999237061</ele>
        <time>2021-02-07T09:39:41.000Z</time>
      </trkpt>
      <trkpt lat="47.28925" lon="-2.19864">
        <ele>29.799999237061</ele>
        <time>2021-02-07T09:42:40.000Z</time>
      </trkpt>
      <trkpt lat="47.28924" lon="-2.19864">
        <ele>29.799999237061</ele>
        <time>2021-02-07T09:42:41.000Z</time>
      </trkpt>
      <trkpt lat="47.28911" lon="-2.19863">
        <ele>29.799999237061</ele>
        <time>2021-02-07T09:42:47.000Z</time>
      </trkpt>
      <trkpt lat="47.28889" lon="-2.19871">
        <ele>29.799999237061</ele>
        <time>2021-02-07T09:42:55.000Z</time>
      </trkpt>
      <trkpt lat="47.28866" lon="-2.19885">
        <ele>29.799999237061</ele>
        <time>2021-02-07T09:43:04.000Z</time>
      </trkpt>
      <trkpt lat="47.28842" lon="-2.19901">
        <ele>29.799999237061</ele>
        <time>2021-02-07T09:43:12.000Z</time>
      </trkpt>
      <trkpt lat="47.2882" lon="-2.19904">
        <ele>30.799999237061</ele>
        <time>2021-02-07T09:43:18.000Z</time>
      </trkpt>
      <trkpt lat="47.28816" lon="-2.19904">
        <ele>31.200000762939</ele>
        <time>2021-02-07T09:43:19.000Z</time>
      </trkpt>
      <trkpt lat="47.28812" lon="-2.19905">
        <ele>31.60000038147</ele>
        <time>2021-02-07T09:43:20.000Z</time>
      </trkpt>
      <trkpt lat="47.28809" lon="-2.19906">
        <ele>32</ele>
        <time>2021-02-07T09:43:21.000Z</time>
      </trkpt>
      <trkpt lat="47.28789" lon="-2.19907">
        <ele>32</ele>
        <time>2021-02-07T09:43:26.000Z</time>
      </trkpt>
      <trkpt lat="47.28762" lon="-2.1991">
        <ele>32</ele>
        <time>2021-02-07T09:43:34.000Z</time>
      </trkpt>
      <trkpt lat="47.28737" lon="-2.19902">
        <ele>32</ele>
        <time>2021-02-07T09:43:41.000Z</time>
      </trkpt>
      <trkpt lat="47.28718" lon="-2.19902">
        <ele>32</ele>
        <time>2021-02-07T09:43:48.000Z</time>
      </trkpt>
      <trkpt lat="47.28701" lon="-2.19904">
        <ele>32</ele>
        <time>2021-02-07T09:43:54.000Z</time>
      </trkpt>
      <trkpt lat="47.28683" lon="-2.19907">
        <ele>32</ele>
        <time>2021-02-07T09:44:00.000Z</time>
      </trkpt>
      <trkpt lat="47.28672" lon="-2.19914">
        <ele>32</ele>
        <time>2021-02-07T09:44:05.000Z</time>
      </trkpt>
      <trkpt lat="47.28664" lon="-2.19918">
        <ele>32</ele>
        <time>2021-02-07T09:44:10.000Z</time>
      </trkpt>
      <trkpt lat="47.28663" lon="-2.19917">
        <ele>32</ele>
        <time>2021-02-07T09:44:12.000Z</time>
      </trkpt>
      <trkpt lat="47.28661" lon="-2.19916">
        <ele>32</ele>
        <time>2021-02-07T09:44:13.000Z</time>
      </trkpt>
      <trkpt lat="47.28647" lon="-2.19917">
        <ele>32</ele>
        <time>2021-02-07T09:44:17.000Z</time>
      </trkpt>
      <trkpt lat="47.28625" lon="-2.19922">
        <ele>32</ele>
        <time>2021-02-07T09:44:23.000Z</time>
      </trkpt>
      <trkpt lat="47.28597" lon="-2.19929">
        <ele>32</ele>
        <time>2021-02-07T09:44:31.000Z</time>
      </trkpt>
      <trkpt lat="47.28576" lon="-2.19931">
        <ele>32</ele>
        <time>2021-02-07T09:44:37.000Z</time>
      </trkpt>
      <trkpt lat="47.28555" lon="-2.1993">
        <ele>32</ele>
        <time>2021-02-07T09:44:43.000Z</time>
      </trkpt>
      <trkpt lat="47.28539" lon="-2.19933">
        <ele>32</ele>
        <time>2021-02-07T09:44:48.000Z</time>
      </trkpt>
      <trkpt lat="47.28528" lon="-2.19941">
        <ele>32</ele>
        <time>2021-02-07T09:44:53.000Z</time>
      </trkpt>
      <trkpt lat="47.28512" lon="-2.19956">
        <ele>32</ele>
        <time>2021-02-07T09:44:58.000Z</time>
      </trkpt>
      <trkpt lat="47.28474" lon="-2.19972">
        <ele>32</ele>
        <time>2021-02-07T09:45:07.000Z</time>
      </trkpt>
      <trkpt lat="47.28453" lon="-2.19976">
        <ele>32</ele>
        <time>2021-02-07T09:45:11.000Z</time>
      </trkpt>
      <trkpt lat="47.28443" lon="-2.19977">
        <ele>32</ele>
        <time>2021-02-07T09:45:13.000Z</time>
      </trkpt>
      <trkpt lat="47.2841" lon="-2.19986">
        <ele>32</ele>
        <time>2021-02-07T09:45:21.000Z</time>
      </trkpt>
      <trkpt lat="47.28379" lon="-2.19997">
        <ele>32</ele>
        <time>2021-02-07T09:45:28.000Z</time>
      </trkpt>
      <trkpt lat="47.28341" lon="-2.20013">
        <ele>32</ele>
        <time>2021-02-07T09:45:38.000Z</time>
      </trkpt>
      <trkpt lat="47.28333" lon="-2.20019">
        <ele>32</ele>
        <time>2021-02-07T09:45:40.000Z</time>
      </trkpt>
      <trkpt lat="47.28321" lon="-2.20028">
        <ele>32</ele>
        <time>2021-02-07T09:45:43.000Z</time>
      </trkpt>
      <trkpt lat="47.28313" lon="-2.20031">
        <ele>32</ele>
        <time>2021-02-07T09:45:45.000Z</time>
      </trkpt>
      <trkpt lat="47.28291" lon="-2.20033">
        <ele>32</ele>
        <time>2021-02-07T09:45:50.000Z</time>
      </trkpt>
      <trkpt lat="47.28287" lon="-2.20032">
        <ele>32</ele>
        <time>2021-02-07T09:45:51.000Z</time>
      </trkpt>
      <trkpt lat="47.28269" lon="-2.20029">
        <ele>32</ele>
        <time>2021-02-07T09:45:55.000Z</time>
      </trkpt>
      <trkpt lat="47.28245" lon="-2.20027">
        <ele>32</ele>
        <time>2021-02-07T09:46:01.000Z</time>
      </trkpt>
      <trkpt lat="47.28241" lon="-2.20028">
        <ele>32</ele>
        <time>2021-02-07T09:46:02.000Z</time>
      </trkpt>
      <trkpt lat="47.28228" lon="-2.20027">
        <ele>32</ele>
        <time>2021-02-07T09:46:05.000Z</time>
      </trkpt>
      <trkpt lat="47.28219" lon="-2.20027">
        <ele>32</ele>
        <time>2021-02-07T09:46:07.000Z</time>
      </trkpt>
      <trkpt lat="47.28215" lon="-2.20028">
        <ele>32</ele>
        <time>2021-02-07T09:46:08.000Z</time>
      </trkpt>
      <trkpt lat="47.28197" lon="-2.20032">
        <ele>32</ele>
        <time>2021-02-07T09:46:12.000Z</time>
      </trkpt>
      <trkpt lat="47.28187" lon="-2.20036">
        <ele>32</ele>
        <time>2021-02-07T09:46:14.000Z</time>
      </trkpt>
      <trkpt lat="47.28173" lon="-2.20039">
        <ele>32</ele>
        <time>2021-02-07T09:46:17.000Z</time>
      </trkpt>
      <trkpt lat="47.28161" lon="-2.20041">
        <ele>32</ele>
        <time>2021-02-07T09:46:20.000Z</time>
      </trkpt>
      <trkpt lat="47.28143" lon="-2.20045">
        <ele>32</ele>
        <time>2021-02-07T09:46:24.000Z</time>
      </trkpt>
      <trkpt lat="47.28135" lon="-2.20047">
        <ele>32</ele>
        <time>2021-02-07T09:46:26.000Z</time>
      </trkpt>
      <trkpt lat="47.28121" lon="-2.20051">
        <ele>32</ele>
        <time>2021-02-07T09:46:29.000Z</time>
      </trkpt>
      <trkpt lat="47.28099" lon="-2.20059">
        <ele>32</ele>
        <time>2021-02-07T09:46:34.000Z</time>
      </trkpt>
      <trkpt lat="47.28068" lon="-2.20068">
        <ele>32</ele>
        <time>2021-02-07T09:46:41.000Z</time>
      </trkpt>
      <trkpt lat="47.28035" lon="-2.20075">
        <ele>32</ele>
        <time>2021-02-07T09:46:48.000Z</time>
      </trkpt>
      <trkpt lat="47.28001" lon="-2.20083">
        <ele>32</ele>
        <time>2021-02-07T09:46:56.000Z</time>
      </trkpt>
      <trkpt lat="47.27987" lon="-2.20081">
        <ele>32</ele>
        <time>2021-02-07T09:47:01.000Z</time>
      </trkpt>
      <trkpt lat="47.27984" lon="-2.20077">
        <ele>32</ele>
        <time>2021-02-07T09:47:03.000Z</time>
      </trkpt>
      <trkpt lat="47.27982" lon="-2.20072">
        <ele>32</ele>
        <time>2021-02-07T09:47:05.000Z</time>
      </trkpt>
      <trkpt lat="47.27983" lon="-2.20071">
        <ele>32</ele>
        <time>2021-02-07T09:47:06.000Z</time>
      </trkpt>
      <trkpt lat="47.27987" lon="-2.20069">
        <ele>32</ele>
        <time>2021-02-07T09:47:09.000Z</time>
      </trkpt>
      <trkpt lat="47.27997" lon="-2.20063">
        <ele>32</ele>
        <time>2021-02-07T09:47:15.000Z</time>
      </trkpt>
      <trkpt lat="47.28002" lon="-2.20053">
        <ele>32</ele>
        <time>2021-02-07T09:47:22.000Z</time>
      </trkpt>
      <trkpt lat="47.27997" lon="-2.20055">
        <ele>32</ele>
        <time>2021-02-07T09:47:26.000Z</time>
      </trkpt>
      <trkpt lat="47.27993" lon="-2.20063">
        <ele>32</ele>
        <time>2021-02-07T09:47:29.000Z</time>
      </trkpt>
      <trkpt lat="47.27991" lon="-2.20069">
        <ele>32</ele>
        <time>2021-02-07T09:47:32.000Z</time>
      </trkpt>
      <trkpt lat="47.2799" lon="-2.2007">
        <ele>32</ele>
        <time>2021-02-07T09:47:33.000Z</time>
      </trkpt>
      <trkpt lat="47.27984" lon="-2.20073">
        <ele>32</ele>
        <time>2021-02-07T09:47:37.000Z</time>
      </trkpt>
      <trkpt lat="47.27978" lon="-2.2007">
        <ele>32</ele>
        <time>2021-02-07T09:47:43.000Z</time>
      </trkpt>
      <trkpt lat="47.2798" lon="-2.20065">
        <ele>32</ele>
        <time>2021-02-07T09:47:47.000Z</time>
      </trkpt>
      <trkpt lat="47.27985" lon="-2.20072">
        <ele>32</ele>
        <time>2021-02-07T09:47:50.000Z</time>
      </trkpt>
      <trkpt lat="47.27988" lon="-2.20075">
        <ele>32</ele>
        <time>2021-02-07T09:47:51.000Z</time>
      </trkpt>
      <trkpt lat="47.28002" lon="-2.20081">
        <ele>32</ele>
        <time>2021-02-07T09:47:55.000Z</time>
      </trkpt>
      <trkpt lat="47.28006" lon="-2.20079">
        <ele>32</ele>
        <time>2021-02-07T09:47:56.000Z</time>
      </trkpt>
      <trkpt lat="47.28024" lon="-2.20077">
        <ele>32</ele>
        <time>2021-02-07T09:48:00.000Z</time>
      </trkpt>
      <trkpt lat="47.28033" lon="-2.20075">
        <ele>32</ele>
        <time>2021-02-07T09:48:02.000Z</time>
      </trkpt>
      <trkpt lat="47.28054" lon="-2.20069">
        <ele>32</ele>
        <time>2021-02-07T09:48:08.000Z</time>
      </trkpt>
      <trkpt lat="47.28082" lon="-2.20062">
        <ele>32</ele>
        <time>2021-02-07T09:48:16.000Z</time>
      </trkpt>
      <trkpt lat="47.2811" lon="-2.20055">
        <ele>32</ele>
        <time>2021-02-07T09:48:23.000Z</time>
      </trkpt>
      <trkpt lat="47.28131" lon="-2.20049">
        <ele>32</ele>
        <time>2021-02-07T09:48:29.000Z</time>
      </trkpt>
      <trkpt lat="47.28159" lon="-2.20042">
        <ele>32</ele>
        <time>2021-02-07T09:48:36.000Z</time>
      </trkpt>
      <trkpt lat="47.28184" lon="-2.20035">
        <ele>32</ele>
        <time>2021-02-07T09:48:43.000Z</time>
      </trkpt>
      <trkpt lat="47.28211" lon="-2.20028">
        <ele>32</ele>
        <time>2021-02-07T09:48:50.000Z</time>
      </trkpt>
      <trkpt lat="47.28236" lon="-2.20022">
        <ele>32</ele>
        <time>2021-02-07T09:48:57.000Z</time>
      </trkpt>
      <trkpt lat="47.28259" lon="-2.20016">
        <ele>32</ele>
        <time>2021-02-07T09:49:03.000Z</time>
      </trkpt>
      <trkpt lat="47.28286" lon="-2.20006">
        <ele>32</ele>
        <time>2021-02-07T09:49:10.000Z</time>
      </trkpt>
      <trkpt lat="47.28316" lon="-2.19998">
        <ele>32</ele>
        <time>2021-02-07T09:49:17.000Z</time>
      </trkpt>
      <trkpt lat="47.28345" lon="-2.19991">
        <ele>32</ele>
        <time>2021-02-07T09:49:24.000Z</time>
      </trkpt>
      <trkpt lat="47.28383" lon="-2.19981">
        <ele>32</ele>
        <time>2021-02-07T09:49:33.000Z</time>
      </trkpt>
      <trkpt lat="47.28419" lon="-2.19971">
        <ele>32</ele>
        <time>2021-02-07T09:49:41.000Z</time>
      </trkpt>
      <trkpt lat="47.28454" lon="-2.19962">
        <ele>32</ele>
        <time>2021-02-07T09:49:49.000Z</time>
      </trkpt>
      <trkpt lat="47.28487" lon="-2.19948">
        <ele>32</ele>
        <time>2021-02-07T09:49:57.000Z</time>
      </trkpt>
      <trkpt lat="47.28491" lon="-2.19949">
        <ele>32</ele>
        <time>2021-02-07T09:49:58.000Z</time>
      </trkpt>
      <trkpt lat="47.28504" lon="-2.19946">
        <ele>32</ele>
        <time>2021-02-07T09:50:01.000Z</time>
      </trkpt>
      <trkpt lat="47.2853" lon="-2.19938">
        <ele>32</ele>
        <time>2021-02-07T09:50:08.000Z</time>
      </trkpt>
      <trkpt lat="47.2855" lon="-2.19935">
        <ele>32</ele>
        <time>2021-02-07T09:50:14.000Z</time>
      </trkpt>
      <trkpt lat="47.28576" lon="-2.19929">
        <ele>32</ele>
        <time>2021-02-07T09:50:20.000Z</time>
      </trkpt>
      <trkpt lat="47.2861" lon="-2.19918">
        <ele>32</ele>
        <time>2021-02-07T09:50:28.000Z</time>
      </trkpt>
      <trkpt lat="47.2864" lon="-2.19915">
        <ele>32</ele>
        <time>2021-02-07T09:50:35.000Z</time>
      </trkpt>
      <trkpt lat="47.28659" lon="-2.19914">
        <ele>32</ele>
        <time>2021-02-07T09:50:40.000Z</time>
      </trkpt>
      <trkpt lat="47.28668" lon="-2.19908">
        <ele>32</ele>
        <time>2021-02-07T09:50:44.000Z</time>
      </trkpt>
      <trkpt lat="47.28671" lon="-2.19911">
        <ele>32</ele>
        <time>2021-02-07T09:50:46.000Z</time>
      </trkpt>
      <trkpt lat="47.28676" lon="-2.1991">
        <ele>32</ele>
        <time>2021-02-07T09:50:48.000Z</time>
      </trkpt>
      <trkpt lat="47.28682" lon="-2.19906">
        <ele>32</ele>
        <time>2021-02-07T09:50:50.000Z</time>
      </trkpt>
      <trkpt lat="47.28689" lon="-2.19903">
        <ele>32</ele>
        <time>2021-02-07T09:50:52.000Z</time>
      </trkpt>
      <trkpt lat="47.28705" lon="-2.19902">
        <ele>32</ele>
        <time>2021-02-07T09:50:56.000Z</time>
      </trkpt>
      <trkpt lat="47.28718" lon="-2.19901">
        <ele>32</ele>
        <time>2021-02-07T09:50:59.000Z</time>
      </trkpt>
      <trkpt lat="47.28727" lon="-2.19901">
        <ele>32</ele>
        <time>2021-02-07T09:51:01.000Z</time>
      </trkpt>
      <trkpt lat="47.28735" lon="-2.199">
        <ele>32</ele>
        <time>2021-02-07T09:51:03.000Z</time>
      </trkpt>
      <trkpt lat="47.28762" lon="-2.19901">
        <ele>32</ele>
        <time>2021-02-07T09:51:09.000Z</time>
      </trkpt>
      <trkpt lat="47.28766" lon="-2.19902">
        <ele>32</ele>
        <time>2021-02-07T09:51:10.000Z</time>
      </trkpt>
      <trkpt lat="47.28789" lon="-2.19903">
        <ele>32</ele>
        <time>2021-02-07T09:51:15.000Z</time>
      </trkpt>
      <trkpt lat="47.28798" lon="-2.19904">
        <ele>32</ele>
        <time>2021-02-07T09:51:17.000Z</time>
      </trkpt>
      <trkpt lat="47.28806" lon="-2.19905">
        <ele>32</ele>
        <time>2021-02-07T09:51:19.000Z</time>
      </trkpt>
      <trkpt lat="47.2881" lon="-2.19905">
        <ele>32</ele>
        <time>2021-02-07T09:51:20.000Z</time>
      </trkpt>
      <trkpt lat="47.28815" lon="-2.19905">
        <ele>32</ele>
        <time>2021-02-07T09:51:21.000Z</time>
      </trkpt>
      <trkpt lat="47.28829" lon="-2.199">
        <ele>32</ele>
        <time>2021-02-07T09:51:25.000Z</time>
      </trkpt>
      <trkpt lat="47.28837" lon="-2.19898">
        <ele>32</ele>
        <time>2021-02-07T09:51:27.000Z</time>
      </trkpt>
      <trkpt lat="47.28849" lon="-2.19894">
        <ele>32</ele>
        <time>2021-02-07T09:51:30.000Z</time>
      </trkpt>
      <trkpt lat="47.28869" lon="-2.19885">
        <ele>32</ele>
        <time>2021-02-07T09:51:35.000Z</time>
      </trkpt>
      <trkpt lat="47.28876" lon="-2.19881">
        <ele>32</ele>
        <time>2021-02-07T09:51:37.000Z</time>
      </trkpt>
      <trkpt lat="47.28913" lon="-2.19864">
        <ele>32</ele>
        <time>2021-02-07T09:51:46.000Z</time>
      </trkpt>
      <trkpt lat="47.2893" lon="-2.1986">
        <ele>32</ele>
        <time>2021-02-07T09:51:50.000Z</time>
      </trkpt>
      <trkpt lat="47.28938" lon="-2.19861">
        <ele>32</ele>
        <time>2021-02-07T09:51:52.000Z</time>
      </trkpt>
      <trkpt lat="47.28946" lon="-2.1986">
        <ele>32</ele>
        <time>2021-02-07T09:51:54.000Z</time>
      </trkpt>
      <trkpt lat="47.28963" lon="-2.19856">
        <ele>32</ele>
        <time>2021-02-07T09:51:58.000Z</time>
      </trkpt>
      <trkpt lat="47.28992" lon="-2.19843">
        <ele>32</ele>
        <time>2021-02-07T09:52:05.000Z</time>
      </trkpt>
      <trkpt lat="47.29016" lon="-2.19827">
        <ele>32</ele>
        <time>2021-02-07T09:52:11.000Z</time>
      </trkpt>
      <trkpt lat="47.29019" lon="-2.19823">
        <ele>32</ele>
        <time>2021-02-07T09:52:12.000Z</time>
      </trkpt>
      <trkpt lat="47.29028" lon="-2.1981">
        <ele>32</ele>
        <time>2021-02-07T09:52:15.000Z</time>
      </trkpt>
      <trkpt lat="47.29028" lon="-2.19804">
        <ele>32</ele>
        <time>2021-02-07T09:52:16.000Z</time>
      </trkpt>
      <trkpt lat="47.29027" lon="-2.19785">
        <ele>32</ele>
        <time>2021-02-07T09:52:19.000Z</time>
      </trkpt>
      <trkpt lat="47.29026" lon="-2.19778">
        <ele>32</ele>
        <time>2021-02-07T09:52:20.000Z</time>
      </trkpt>
      <trkpt lat="47.29026" lon="-2.19771">
        <ele>32</ele>
        <time>2021-02-07T09:52:21.000Z</time>
      </trkpt>
      <trkpt lat="47.29022" lon="-2.19744">
        <ele>32</ele>
        <time>2021-02-07T09:52:25.000Z</time>
      </trkpt>
      <trkpt lat="47.29017" lon="-2.19703">
        <ele>32</ele>
        <time>2021-02-07T09:52:31.000Z</time>
      </trkpt>
      <trkpt lat="47.29015" lon="-2.19691">
        <ele>32</ele>
        <time>2021-02-07T09:52:33.000Z</time>
      </trkpt>
      <trkpt lat="47.29011" lon="-2.19644">
        <ele>32</ele>
        <time>2021-02-07T09:52:39.000Z</time>
      </trkpt>
      <trkpt lat="47.29002" lon="-2.19577">
        <ele>32</ele>
        <time>2021-02-07T09:52:48.000Z</time>
      </trkpt>
      <trkpt lat="47.28997" lon="-2.19522">
        <ele>32</ele>
        <time>2021-02-07T09:52:55.000Z</time>
      </trkpt>
      <trkpt lat="47.2899" lon="-2.19464">
        <ele>32</ele>
        <time>2021-02-07T09:53:03.000Z</time>
      </trkpt>
      <trkpt lat="47.28979" lon="-2.19417">
        <ele>32</ele>
        <time>2021-02-07T09:53:10.000Z</time>
      </trkpt>
      <trkpt lat="47.28975" lon="-2.19389">
        <ele>32</ele>
        <time>2021-02-07T09:53:14.000Z</time>
      </trkpt>
      <trkpt lat="47.28974" lon="-2.19382">
        <ele>32</ele>
        <time>2021-02-07T09:53:15.000Z</time>
      </trkpt>
      <trkpt lat="47.28967" lon="-2.1933">
        <ele>32</ele>
        <time>2021-02-07T09:53:22.000Z</time>
      </trkpt>
      <trkpt lat="47.28965" lon="-2.19316">
        <ele>32</ele>
        <time>2021-02-07T09:53:24.000Z</time>
      </trkpt>
      <trkpt lat="47.28957" lon="-2.19297">
        <ele>32</ele>
        <time>2021-02-07T09:53:27.000Z</time>
      </trkpt>
      <trkpt lat="47.28947" lon="-2.19271">
        <ele>32</ele>
        <time>2021-02-07T09:53:31.000Z</time>
      </trkpt>
      <trkpt lat="47.2894" lon="-2.1926">
        <ele>32</ele>
        <time>2021-02-07T09:53:33.000Z</time>
      </trkpt>
      <trkpt lat="47.28932" lon="-2.19249">
        <ele>32</ele>
        <time>2021-02-07T09:53:35.000Z</time>
      </trkpt>
      <trkpt lat="47.2891" lon="-2.19226">
        <ele>32</ele>
        <time>2021-02-07T09:53:40.000Z</time>
      </trkpt>
      <trkpt lat="47.28906" lon="-2.19223">
        <ele>32</ele>
        <time>2021-02-07T09:53:41.000Z</time>
      </trkpt>
      <trkpt lat="47.28885" lon="-2.19217">
        <ele>32</ele>
        <time>2021-02-07T09:53:45.000Z</time>
      </trkpt>
      <trkpt lat="47.28855" lon="-2.19214">
        <ele>32</ele>
        <time>2021-02-07T09:53:51.000Z</time>
      </trkpt>
      <trkpt lat="47.28825" lon="-2.19217">
        <ele>32</ele>
        <time>2021-02-07T09:53:57.000Z</time>
      </trkpt>
      <trkpt lat="47.28817" lon="-2.19222">
        <ele>32</ele>
        <time>2021-02-07T09:53:59.000Z</time>
      </trkpt>
      <trkpt lat="47.28811" lon="-2.19228">
        <ele>32</ele>
        <time>2021-02-07T09:54:00.000Z</time>
      </trkpt>
      <trkpt lat="47.28776" lon="-2.19257">
        <ele>32</ele>
        <time>2021-02-07T09:54:06.000Z</time>
      </trkpt>
      <trkpt lat="47.28772" lon="-2.19264">
        <ele>32</ele>
        <time>2021-02-07T09:54:07.000Z</time>
      </trkpt>
      <trkpt lat="47.28762" lon="-2.19287">
        <ele>32</ele>
        <time>2021-02-07T09:54:10.000Z</time>
      </trkpt>
      <trkpt lat="47.28736" lon="-2.19354">
        <ele>32</ele>
        <time>2021-02-07T09:54:19.000Z</time>
      </trkpt>
      <trkpt lat="47.28714" lon="-2.19403">
        <ele>32</ele>
        <time>2021-02-07T09:54:26.000Z</time>
      </trkpt>
      <trkpt lat="47.28705" lon="-2.1945">
        <ele>32</ele>
        <time>2021-02-07T09:54:32.000Z</time>
      </trkpt>
      <trkpt lat="47.28703" lon="-2.19458">
        <ele>32</ele>
        <time>2021-02-07T09:54:33.000Z</time>
      </trkpt>
      <trkpt lat="47.28695" lon="-2.19497">
        <ele>32</ele>
        <time>2021-02-07T09:54:38.000Z</time>
      </trkpt>
      <trkpt lat="47.28692" lon="-2.19504">
        <ele>32</ele>
        <time>2021-02-07T09:54:39.000Z</time>
      </trkpt>
      <trkpt lat="47.28678" lon="-2.1953">
        <ele>32</ele>
        <time>2021-02-07T09:54:43.000Z</time>
      </trkpt>
      <trkpt lat="47.28653" lon="-2.1956">
        <ele>32</ele>
        <time>2021-02-07T09:54:49.000Z</time>
      </trkpt>
      <trkpt lat="47.28627" lon="-2.19578">
        <ele>32</ele>
        <time>2021-02-07T09:54:54.000Z</time>
      </trkpt>
      <trkpt lat="47.28621" lon="-2.1958">
        <ele>32</ele>
        <time>2021-02-07T09:54:55.000Z</time>
      </trkpt>
      <trkpt lat="47.28582" lon="-2.19593">
        <ele>32</ele>
        <time>2021-02-07T09:55:02.000Z</time>
      </trkpt>
      <trkpt lat="47.28577" lon="-2.19593">
        <ele>32</ele>
        <time>2021-02-07T09:55:03.000Z</time>
      </trkpt>
      <trkpt lat="47.28568" lon="-2.19589">
        <ele>32</ele>
        <time>2021-02-07T09:55:05.000Z</time>
      </trkpt>
      <trkpt lat="47.28563" lon="-2.19589">
        <ele>32</ele>
        <time>2021-02-07T09:55:06.000Z</time>
      </trkpt>
      <trkpt lat="47.28547" lon="-2.1959">
        <ele>32</ele>
        <time>2021-02-07T09:55:09.000Z</time>
      </trkpt>
      <trkpt lat="47.28531" lon="-2.19588">
        <ele>32</ele>
        <time>2021-02-07T09:55:12.000Z</time>
      </trkpt>
      <trkpt lat="47.28521" lon="-2.19581">
        <ele>32</ele>
        <time>2021-02-07T09:55:14.000Z</time>
      </trkpt>
      <trkpt lat="47.2851" lon="-2.19566">
        <ele>32</ele>
        <time>2021-02-07T09:55:17.000Z</time>
      </trkpt>
      <trkpt lat="47.28507" lon="-2.19561">
        <ele>32</ele>
        <time>2021-02-07T09:55:18.000Z</time>
      </trkpt>
      <trkpt lat="47.2849" lon="-2.19531">
        <ele>32</ele>
        <time>2021-02-07T09:55:24.000Z</time>
      </trkpt>
      <trkpt lat="47.28486" lon="-2.19526">
        <ele>32</ele>
        <time>2021-02-07T09:55:25.000Z</time>
      </trkpt>
      <trkpt lat="47.28473" lon="-2.19518">
        <ele>32</ele>
        <time>2021-02-07T09:55:28.000Z</time>
      </trkpt>
      <trkpt lat="47.28451" lon="-2.19518">
        <ele>32</ele>
        <time>2021-02-07T09:55:32.000Z</time>
      </trkpt>
      <trkpt lat="47.28431" lon="-2.19519">
        <ele>32</ele>
        <time>2021-02-07T09:55:35.000Z</time>
      </trkpt>
      <trkpt lat="47.28413" lon="-2.19521">
        <ele>32</ele>
        <time>2021-02-07T09:55:38.000Z</time>
      </trkpt>
      <trkpt lat="47.28367" lon="-2.19532">
        <ele>32</ele>
        <time>2021-02-07T09:55:45.000Z</time>
      </trkpt>
      <trkpt lat="47.28323" lon="-2.19537">
        <ele>32</ele>
        <time>2021-02-07T09:55:51.000Z</time>
      </trkpt>
      <trkpt lat="47.28313" lon="-2.19537">
        <ele>32</ele>
        <time>2021-02-07T09:55:53.000Z</time>
      </trkpt>
      <trkpt lat="47.28284" lon="-2.19527">
        <ele>32</ele>
        <time>2021-02-07T09:55:58.000Z</time>
      </trkpt>
      <trkpt lat="47.28278" lon="-2.19526">
        <ele>32</ele>
        <time>2021-02-07T09:55:59.000Z</time>
      </trkpt>
      <trkpt lat="47.28261" lon="-2.19528">
        <ele>32</ele>
        <time>2021-02-07T09:56:02.000Z</time>
      </trkpt>
      <trkpt lat="47.28252" lon="-2.19534">
        <ele>32</ele>
        <time>2021-02-07T09:56:04.000Z</time>
      </trkpt>
      <trkpt lat="47.28246" lon="-2.19536">
        <ele>32</ele>
        <time>2021-02-07T09:56:05.000Z</time>
      </trkpt>
      <trkpt lat="47.28204" lon="-2.19561">
        <ele>32</ele>
        <time>2021-02-07T09:56:13.000Z</time>
      </trkpt>
      <trkpt lat="47.2817" lon="-2.1958">
        <ele>32</ele>
        <time>2021-02-07T09:56:19.000Z</time>
      </trkpt>
      <trkpt lat="47.28163" lon="-2.19581">
        <ele>32.400001525879</ele>
        <time>2021-02-07T09:56:20.000Z</time>
      </trkpt>
      <trkpt lat="47.28156" lon="-2.19583">
        <ele>32.799999237061</ele>
        <time>2021-02-07T09:56:21.000Z</time>
      </trkpt>
      <trkpt lat="47.2815" lon="-2.19585">
        <ele>33.200000762939</ele>
        <time>2021-02-07T09:56:22.000Z</time>
      </trkpt>
      <trkpt lat="47.28146" lon="-2.19587">
        <ele>33.599998474121</ele>
        <time>2021-02-07T09:56:23.000Z</time>
      </trkpt>
      <trkpt lat="47.28141" lon="-2.19591">
        <ele>34</ele>
        <time>2021-02-07T09:56:24.000Z</time>
      </trkpt>
      <trkpt lat="47.28121" lon="-2.19605">
        <ele>34</ele>
        <time>2021-02-07T09:56:28.000Z</time>
      </trkpt>
      <trkpt lat="47.28088" lon="-2.19626">
        <ele>34</ele>
        <time>2021-02-07T09:56:34.000Z</time>
      </trkpt>
      <trkpt lat="47.28076" lon="-2.1963">
        <ele>34</ele>
        <time>2021-02-07T09:56:36.000Z</time>
      </trkpt>
      <trkpt lat="47.28059" lon="-2.19634">
        <ele>34</ele>
        <time>2021-02-07T09:56:39.000Z</time>
      </trkpt>
      <trkpt lat="47.28043" lon="-2.19637">
        <ele>34</ele>
        <time>2021-02-07T09:56:42.000Z</time>
      </trkpt>
      <trkpt lat="47.28032" lon="-2.19641">
        <ele>33.599998474121</ele>
        <time>2021-02-07T09:56:44.000Z</time>
      </trkpt>
      <trkpt lat="47.28026" lon="-2.19643">
        <ele>33.200000762939</ele>
        <time>2021-02-07T09:56:45.000Z</time>
      </trkpt>
      <trkpt lat="47.2802" lon="-2.19645">
        <ele>32.799999237061</ele>
        <time>2021-02-07T09:56:46.000Z</time>
      </trkpt>
      <trkpt lat="47.28013" lon="-2.19647">
        <ele>32.400001525879</ele>
        <time>2021-02-07T09:56:47.000Z</time>
      </trkpt>
      <trkpt lat="47.28007" lon="-2.19649">
        <ele>32</ele>
        <time>2021-02-07T09:56:48.000Z</time>
      </trkpt>
      <trkpt lat="47.28" lon="-2.19649">
        <ele>32</ele>
        <time>2021-02-07T09:56:49.000Z</time>
      </trkpt>
      <trkpt lat="47.27993" lon="-2.19651">
        <ele>32</ele>
        <time>2021-02-07T09:56:50.000Z</time>
      </trkpt>
      <trkpt lat="47.27968" lon="-2.1966">
        <ele>32</ele>
        <time>2021-02-07T09:56:54.000Z</time>
      </trkpt>
      <trkpt lat="47.27927" lon="-2.19676">
        <ele>32</ele>
        <time>2021-02-07T09:57:01.000Z</time>
      </trkpt>
      <trkpt lat="47.27895" lon="-2.19688">
        <ele>32</ele>
        <time>2021-02-07T09:57:06.000Z</time>
      </trkpt>
      <trkpt lat="47.27887" lon="-2.19688">
        <ele>32</ele>
        <time>2021-02-07T09:57:08.000Z</time>
      </trkpt>
      <trkpt lat="47.27879" lon="-2.19686">
        <ele>32</ele>
        <time>2021-02-07T09:57:10.000Z</time>
      </trkpt>
      <trkpt lat="47.27859" lon="-2.19677">
        <ele>32</ele>
        <time>2021-02-07T09:57:16.000Z</time>
      </trkpt>
      <trkpt lat="47.27844" lon="-2.19664">
        <ele>32</ele>
        <time>2021-02-07T09:57:22.000Z</time>
      </trkpt>
      <trkpt lat="47.27843" lon="-2.19642">
        <ele>32</ele>
        <time>2021-02-07T09:57:26.000Z</time>
      </trkpt>
      <trkpt lat="47.27851" lon="-2.1962">
        <ele>32</ele>
        <time>2021-02-07T09:57:31.000Z</time>
      </trkpt>
      <trkpt lat="47.27855" lon="-2.19617">
        <ele>32</ele>
        <time>2021-02-07T09:57:32.000Z</time>
      </trkpt>
      <trkpt lat="47.27866" lon="-2.19612">
        <ele>32</ele>
        <time>2021-02-07T09:57:35.000Z</time>
      </trkpt>
      <trkpt lat="47.27873" lon="-2.19608">
        <ele>32</ele>
        <time>2021-02-07T09:57:37.000Z</time>
      </trkpt>
      <trkpt lat="47.27889" lon="-2.19601">
        <ele>32</ele>
        <time>2021-02-07T09:57:42.000Z</time>
      </trkpt>
      <trkpt lat="47.27904" lon="-2.19592">
        <ele>32</ele>
        <time>2021-02-07T09:57:48.000Z</time>
      </trkpt>
      <trkpt lat="47.27915" lon="-2.19584">
        <ele>32</ele>
        <time>2021-02-07T09:57:53.000Z</time>
      </trkpt>
      <trkpt lat="47.27932" lon="-2.19576">
        <ele>32</ele>
        <time>2021-02-07T09:58:00.000Z</time>
      </trkpt>
      <trkpt lat="47.27956" lon="-2.19564">
        <ele>32</ele>
        <time>2021-02-07T09:58:07.000Z</time>
      </trkpt>
      <trkpt lat="47.27971" lon="-2.19555">
        <ele>32</ele>
        <time>2021-02-07T09:58:12.000Z</time>
      </trkpt>
      <trkpt lat="47.27997" lon="-2.19543">
        <ele>32</ele>
        <time>2021-02-07T09:58:19.000Z</time>
      </trkpt>
      <trkpt lat="47.28026" lon="-2.19527">
        <ele>32</ele>
        <time>2021-02-07T09:58:26.000Z</time>
      </trkpt>
      <trkpt lat="47.2803" lon="-2.19522">
        <ele>32</ele>
        <time>2021-02-07T09:58:27.000Z</time>
      </trkpt>
      <trkpt lat="47.28037" lon="-2.19502">
        <ele>32</ele>
        <time>2021-02-07T09:58:30.000Z</time>
      </trkpt>
      <trkpt lat="47.28039" lon="-2.19481">
        <ele>32</ele>
        <time>2021-02-07T09:58:33.000Z</time>
      </trkpt>
      <trkpt lat="47.28039" lon="-2.19474">
        <ele>32</ele>
        <time>2021-02-07T09:58:34.000Z</time>
      </trkpt>
      <trkpt lat="47.28038" lon="-2.19468">
        <ele>32</ele>
        <time>2021-02-07T09:58:35.000Z</time>
      </trkpt>
      <trkpt lat="47.28031" lon="-2.19442">
        <ele>32</ele>
        <time>2021-02-07T09:58:39.000Z</time>
      </trkpt>
      <trkpt lat="47.28029" lon="-2.19435">
        <ele>32</ele>
        <time>2021-02-07T09:58:40.000Z</time>
      </trkpt>
      <trkpt lat="47.28016" lon="-2.19393">
        <ele>32</ele>
        <time>2021-02-07T09:58:47.000Z</time>
      </trkpt>
      <trkpt lat="47.28015" lon="-2.19388">
        <ele>32</ele>
        <time>2021-02-07T09:58:48.000Z</time>
      </trkpt>
      <trkpt lat="47.2801" lon="-2.19366">
        <ele>32</ele>
        <time>2021-02-07T09:58:52.000Z</time>
      </trkpt>
      <trkpt lat="47.28007" lon="-2.19328">
        <ele>32</ele>
        <time>2021-02-07T09:58:59.000Z</time>
      </trkpt>
      <trkpt lat="47.28009" lon="-2.19309">
        <ele>32</ele>
        <time>2021-02-07T09:59:02.000Z</time>
      </trkpt>
      <trkpt lat="47.28012" lon="-2.19289">
        <ele>32</ele>
        <time>2021-02-07T09:59:05.000Z</time>
      </trkpt>
      <trkpt lat="47.28012" lon="-2.19281">
        <ele>32</ele>
        <time>2021-02-07T09:59:06.000Z</time>
      </trkpt>
      <trkpt lat="47.28009" lon="-2.19254">
        <ele>32</ele>
        <time>2021-02-07T09:59:10.000Z</time>
      </trkpt>
      <trkpt lat="47.27999" lon="-2.19229">
        <ele>32</ele>
        <time>2021-02-07T09:59:15.000Z</time>
      </trkpt>
      <trkpt lat="47.27992" lon="-2.19202">
        <ele>32</ele>
        <time>2021-02-07T09:59:20.000Z</time>
      </trkpt>
      <trkpt lat="47.27993" lon="-2.19173">
        <ele>32</ele>
        <time>2021-02-07T09:59:25.000Z</time>
      </trkpt>
      <trkpt lat="47.27995" lon="-2.19142">
        <ele>32</ele>
        <time>2021-02-07T09:59:30.000Z</time>
      </trkpt>
      <trkpt lat="47.27999" lon="-2.1912">
        <ele>32</ele>
        <time>2021-02-07T09:59:34.000Z</time>
      </trkpt>
      <trkpt lat="47.28012" lon="-2.19092">
        <ele>32</ele>
        <time>2021-02-07T09:59:40.000Z</time>
      </trkpt>
      <trkpt lat="47.28033" lon="-2.19054">
        <ele>32</ele>
        <time>2021-02-07T09:59:49.000Z</time>
      </trkpt>
      <trkpt lat="47.28048" lon="-2.19028">
        <ele>32</ele>
        <time>2021-02-07T09:59:56.000Z</time>
      </trkpt>
      <trkpt lat="47.28059" lon="-2.19009">
        <ele>32</ele>
        <time>2021-02-07T10:00:02.000Z</time>
      </trkpt>
      <trkpt lat="47.28072" lon="-2.18992">
        <ele>32</ele>
        <time>2021-02-07T10:00:10.000Z</time>
      </trkpt>
      <trkpt lat="47.28077" lon="-2.18976">
        <ele>32</ele>
        <time>2021-02-07T10:00:17.000Z</time>
      </trkpt>
      <trkpt lat="47.28077" lon="-2.18964">
        <ele>32</ele>
        <time>2021-02-07T10:00:22.000Z</time>
      </trkpt>
      <trkpt lat="47.28078" lon="-2.1896">
        <ele>32</ele>
        <time>2021-02-07T10:00:24.000Z</time>
      </trkpt>
      <trkpt lat="47.28078" lon="-2.1896">
        <ele>32</ele>
        <time>2021-02-07T10:00:26.000Z</time>
      </trkpt>
      <trkpt lat="47.28079" lon="-2.18961">
        <ele>32</ele>
        <time>2021-02-07T10:01:18.000Z</time>
      </trkpt>
      <trkpt lat="47.2808" lon="-2.18963">
        <ele>32</ele>
        <time>2021-02-07T10:01:19.000Z</time>
      </trkpt>
      <trkpt lat="47.2808" lon="-2.18972">
        <ele>32</ele>
        <time>2021-02-07T10:01:23.000Z</time>
      </trkpt>
      <trkpt lat="47.28081" lon="-2.1898">
        <ele>32</ele>
        <time>2021-02-07T10:01:26.000Z</time>
      </trkpt>
      <trkpt lat="47.28083" lon="-2.18999">
        <ele>32</ele>
        <time>2021-02-07T10:01:33.000Z</time>
      </trkpt>
      <trkpt lat="47.28086" lon="-2.19011">
        <ele>32</ele>
        <time>2021-02-07T10:01:40.000Z</time>
      </trkpt>
      <trkpt lat="47.28087" lon="-2.19015">
        <ele>32</ele>
        <time>2021-02-07T10:01:44.000Z</time>
      </trkpt>
      <trkpt lat="47.28083" lon="-2.19019">
        <ele>32</ele>
        <time>2021-02-07T10:10:33.000Z</time>
      </trkpt>
      <trkpt lat="47.28081" lon="-2.1902">
        <ele>32</ele>
        <time>2021-02-07T10:10:34.000Z</time>
      </trkpt>
      <trkpt lat="47.28075" lon="-2.19027">
        <ele>32</ele>
        <time>2021-02-07T10:10:37.000Z</time>
      </trkpt>
      <trkpt lat="47.28069" lon="-2.19035">
        <ele>32</ele>
        <time>2021-02-07T10:10:39.000Z</time>
      </trkpt>
      <trkpt lat="47.2805" lon="-2.19064">
        <ele>32</ele>
        <time>2021-02-07T10:10:46.000Z</time>
      </trkpt>
      <trkpt lat="47.2803" lon="-2.19094">
        <ele>32</ele>
        <time>2021-02-07T10:10:54.000Z</time>
      </trkpt>
      <trkpt lat="47.28015" lon="-2.19111">
        <ele>31.60000038147</ele>
        <time>2021-02-07T10:11:00.000Z</time>
      </trkpt>
      <trkpt lat="47.28013" lon="-2.19114">
        <ele>31.200000762939</ele>
        <time>2021-02-07T10:11:01.000Z</time>
      </trkpt>
      <trkpt lat="47.2801" lon="-2.19116">
        <ele>30.799999237061</ele>
        <time>2021-02-07T10:11:02.000Z</time>
      </trkpt>
      <trkpt lat="47.28008" lon="-2.19118">
        <ele>30.39999961853</ele>
        <time>2021-02-07T10:11:03.000Z</time>
      </trkpt>
      <trkpt lat="47.28006" lon="-2.19121">
        <ele>30</ele>
        <time>2021-02-07T10:11:04.000Z</time>
      </trkpt>
      <trkpt lat="47.28004" lon="-2.19124">
        <ele>30</ele>
        <time>2021-02-07T10:11:05.000Z</time>
      </trkpt>
      <trkpt lat="47.27998" lon="-2.19151">
        <ele>30</ele>
        <time>2021-02-07T10:11:11.000Z</time>
      </trkpt>
      <trkpt lat="47.27998" lon="-2.1919">
        <ele>30</ele>
        <time>2021-02-07T10:11:18.000Z</time>
      </trkpt>
      <trkpt lat="47.28" lon="-2.19214">
        <ele>30</ele>
        <time>2021-02-07T10:11:22.000Z</time>
      </trkpt>
      <trkpt lat="47.28003" lon="-2.19226">
        <ele>30</ele>
        <time>2021-02-07T10:11:24.000Z</time>
      </trkpt>
      <trkpt lat="47.28006" lon="-2.19232">
        <ele>30</ele>
        <time>2021-02-07T10:11:25.000Z</time>
      </trkpt>
      <trkpt lat="47.28014" lon="-2.19255">
        <ele>30</ele>
        <time>2021-02-07T10:11:29.000Z</time>
      </trkpt>
      <trkpt lat="47.28018" lon="-2.19277">
        <ele>30</ele>
        <time>2021-02-07T10:11:32.000Z</time>
      </trkpt>
      <trkpt lat="47.28016" lon="-2.19307">
        <ele>30</ele>
        <time>2021-02-07T10:11:36.000Z</time>
      </trkpt>
      <trkpt lat="47.28014" lon="-2.19314">
        <ele>30</ele>
        <time>2021-02-07T10:11:37.000Z</time>
      </trkpt>
      <trkpt lat="47.28011" lon="-2.19342">
        <ele>30</ele>
        <time>2021-02-07T10:11:41.000Z</time>
      </trkpt>
      <trkpt lat="47.28012" lon="-2.19356">
        <ele>30</ele>
        <time>2021-02-07T10:11:43.000Z</time>
      </trkpt>
      <trkpt lat="47.28015" lon="-2.1937">
        <ele>30</ele>
        <time>2021-02-07T10:11:45.000Z</time>
      </trkpt>
      <trkpt lat="47.28022" lon="-2.19399">
        <ele>30</ele>
        <time>2021-02-07T10:11:49.000Z</time>
      </trkpt>
      <trkpt lat="47.28035" lon="-2.19453">
        <ele>30</ele>
        <time>2021-02-07T10:11:57.000Z</time>
      </trkpt>
      <trkpt lat="47.2804" lon="-2.19478">
        <ele>30</ele>
        <time>2021-02-07T10:12:01.000Z</time>
      </trkpt>
      <trkpt lat="47.2804" lon="-2.19498">
        <ele>30</ele>
        <time>2021-02-07T10:12:04.000Z</time>
      </trkpt>
      <trkpt lat="47.28033" lon="-2.19522">
        <ele>30</ele>
        <time>2021-02-07T10:12:08.000Z</time>
      </trkpt>
      <trkpt lat="47.28019" lon="-2.19538">
        <ele>30</ele>
        <time>2021-02-07T10:12:12.000Z</time>
      </trkpt>
      <trkpt lat="47.28015" lon="-2.19541">
        <ele>30</ele>
        <time>2021-02-07T10:12:13.000Z</time>
      </trkpt>
      <trkpt lat="47.27997" lon="-2.19551">
        <ele>30</ele>
        <time>2021-02-07T10:12:17.000Z</time>
      </trkpt>
      <trkpt lat="47.27992" lon="-2.19554">
        <ele>30</ele>
        <time>2021-02-07T10:12:18.000Z</time>
      </trkpt>
      <trkpt lat="47.27953" lon="-2.19575">
        <ele>30</ele>
        <time>2021-02-07T10:12:26.000Z</time>
      </trkpt>
      <trkpt lat="47.27923" lon="-2.19589">
        <ele>30</ele>
        <time>2021-02-07T10:12:32.000Z</time>
      </trkpt>
      <trkpt lat="47.27873" lon="-2.19614">
        <ele>30</ele>
        <time>2021-02-07T10:12:42.000Z</time>
      </trkpt>
      <trkpt lat="47.27859" lon="-2.19624">
        <ele>30</ele>
        <time>2021-02-07T10:12:45.000Z</time>
      </trkpt>
      <trkpt lat="47.27853" lon="-2.19637">
        <ele>30</ele>
        <time>2021-02-07T10:12:47.000Z</time>
      </trkpt>
      <trkpt lat="47.27855" lon="-2.19659">
        <ele>30</ele>
        <time>2021-02-07T10:12:50.000Z</time>
      </trkpt>
      <trkpt lat="47.27867" lon="-2.19672">
        <ele>30</ele>
        <time>2021-02-07T10:12:53.000Z</time>
      </trkpt>
      <trkpt lat="47.27878" lon="-2.19676">
        <ele>30</ele>
        <time>2021-02-07T10:12:55.000Z</time>
      </trkpt>
      <trkpt lat="47.27894" lon="-2.19681">
        <ele>30.39999961853</ele>
        <time>2021-02-07T10:12:58.000Z</time>
      </trkpt>
      <trkpt lat="47.27899" lon="-2.19681">
        <ele>31</ele>
        <time>2021-02-07T10:12:59.000Z</time>
      </trkpt>
      <trkpt lat="47.27904" lon="-2.19679">
        <ele>31.39999961853</ele>
        <time>2021-02-07T10:13:00.000Z</time>
      </trkpt>
      <trkpt lat="47.27909" lon="-2.19678">
        <ele>31.799999237061</ele>
        <time>2021-02-07T10:13:01.000Z</time>
      </trkpt>
      <trkpt lat="47.27914" lon="-2.19676">
        <ele>32.200000762939</ele>
        <time>2021-02-07T10:13:02.000Z</time>
      </trkpt>
      <trkpt lat="47.27925" lon="-2.19673">
        <ele>32.200000762939</ele>
        <time>2021-02-07T10:13:04.000Z</time>
      </trkpt>
      <trkpt lat="47.27962" lon="-2.1966">
        <ele>32.200000762939</ele>
        <time>2021-02-07T10:13:11.000Z</time>
      </trkpt>
      <trkpt lat="47.28003" lon="-2.19647">
        <ele>32.200000762939</ele>
        <time>2021-02-07T10:13:19.000Z</time>
      </trkpt>
      <trkpt lat="47.28026" lon="-2.1964">
        <ele>32.200000762939</ele>
        <time>2021-02-07T10:13:24.000Z</time>
      </trkpt>
      <trkpt lat="47.2803" lon="-2.19638">
        <ele>32.200000762939</ele>
        <time>2021-02-07T10:13:25.000Z</time>
      </trkpt>
      <trkpt lat="47.28058" lon="-2.1963">
        <ele>32.200000762939</ele>
        <time>2021-02-07T10:13:31.000Z</time>
      </trkpt>
      <trkpt lat="47.28077" lon="-2.19626">
        <ele>32.200000762939</ele>
        <time>2021-02-07T10:13:35.000Z</time>
      </trkpt>
      <trkpt lat="47.28087" lon="-2.19624">
        <ele>31.799999237061</ele>
        <time>2021-02-07T10:13:37.000Z</time>
      </trkpt>
      <trkpt lat="47.28092" lon="-2.19623">
        <ele>31.39999961853</ele>
        <time>2021-02-07T10:13:38.000Z</time>
      </trkpt>
      <trkpt lat="47.28097" lon="-2.19621">
        <ele>31</ele>
        <time>2021-02-07T10:13:39.000Z</time>
      </trkpt>
      <trkpt lat="47.28102" lon="-2.19619">
        <ele>30.60000038147</ele>
        <time>2021-02-07T10:13:40.000Z</time>
      </trkpt>
      <trkpt lat="47.28107" lon="-2.19616">
        <ele>30.200000762939</ele>
        <time>2021-02-07T10:13:41.000Z</time>
      </trkpt>
      <trkpt lat="47.28117" lon="-2.19611">
        <ele>30.200000762939</ele>
        <time>2021-02-07T10:13:43.000Z</time>
      </trkpt>
      <trkpt lat="47.28148" lon="-2.19592">
        <ele>30.200000762939</ele>
        <time>2021-02-07T10:13:50.000Z</time>
      </trkpt>
      <trkpt lat="47.28167" lon="-2.19581">
        <ele>30.200000762939</ele>
        <time>2021-02-07T10:13:54.000Z</time>
      </trkpt>
      <trkpt lat="47.28175" lon="-2.19575">
        <ele>30.200000762939</ele>
        <time>2021-02-07T10:13:56.000Z</time>
      </trkpt>
      <trkpt lat="47.28202" lon="-2.19559">
        <ele>30.200000762939</ele>
        <time>2021-02-07T10:14:02.000Z</time>
      </trkpt>
      <trkpt lat="47.28246" lon="-2.19532">
        <ele>30.200000762939</ele>
        <time>2021-02-07T10:14:11.000Z</time>
      </trkpt>
      <trkpt lat="47.28282" lon="-2.19514">
        <ele>30.200000762939</ele>
        <time>2021-02-07T10:14:18.000Z</time>
      </trkpt>
      <trkpt lat="47.28288" lon="-2.19513">
        <ele>30.200000762939</ele>
        <time>2021-02-07T10:14:19.000Z</time>
      </trkpt>
      <trkpt lat="47.28309" lon="-2.19513">
        <ele>30.200000762939</ele>
        <time>2021-02-07T10:14:22.000Z</time>
      </trkpt>
      <trkpt lat="47.28334" lon="-2.19522">
        <ele>30.200000762939</ele>
        <time>2021-02-07T10:14:27.000Z</time>
      </trkpt>
      <trkpt lat="47.28355" lon="-2.19529">
        <ele>30.200000762939</ele>
        <time>2021-02-07T10:14:31.000Z</time>
      </trkpt>
      <trkpt lat="47.28373" lon="-2.19532">
        <ele>30.200000762939</ele>
        <time>2021-02-07T10:14:35.000Z</time>
      </trkpt>
      <trkpt lat="47.28378" lon="-2.19531">
        <ele>30.200000762939</ele>
        <time>2021-02-07T10:14:36.000Z</time>
      </trkpt>
      <trkpt lat="47.28397" lon="-2.19525">
        <ele>30.200000762939</ele>
        <time>2021-02-07T10:14:41.000Z</time>
      </trkpt>
      <trkpt lat="47.28427" lon="-2.19521">
        <ele>30.200000762939</ele>
        <time>2021-02-07T10:14:49.000Z</time>
      </trkpt>
      <trkpt lat="47.28446" lon="-2.19518">
        <ele>30.60000038147</ele>
        <time>2021-02-07T10:14:54.000Z</time>
      </trkpt>
      <trkpt lat="47.2845" lon="-2.19518">
        <ele>31</ele>
        <time>2021-02-07T10:14:55.000Z</time>
      </trkpt>
      <trkpt lat="47.28454" lon="-2.19517">
        <ele>31.39999961853</ele>
        <time>2021-02-07T10:14:56.000Z</time>
      </trkpt>
      <trkpt lat="47.28459" lon="-2.19517">
        <ele>32</ele>
        <time>2021-02-07T10:14:57.000Z</time>
      </trkpt>
      <trkpt lat="47.28464" lon="-2.19517">
        <ele>32.400001525879</ele>
        <time>2021-02-07T10:14:58.000Z</time>
      </trkpt>
      <trkpt lat="47.28478" lon="-2.19516">
        <ele>32.400001525879</ele>
        <time>2021-02-07T10:15:01.000Z</time>
      </trkpt>
      <trkpt lat="47.28491" lon="-2.1953">
        <ele>32.400001525879</ele>
        <time>2021-02-07T10:15:05.000Z</time>
      </trkpt>
      <trkpt lat="47.28493" lon="-2.19534">
        <ele>32.400001525879</ele>
        <time>2021-02-07T10:15:06.000Z</time>
      </trkpt>
      <trkpt lat="47.28513" lon="-2.19566">
        <ele>32.400001525879</ele>
        <time>2021-02-07T10:15:12.000Z</time>
      </trkpt>
      <trkpt lat="47.28533" lon="-2.19578">
        <ele>32.400001525879</ele>
        <time>2021-02-07T10:15:16.000Z</time>
      </trkpt>
      <trkpt lat="47.28554" lon="-2.19571">
        <ele>32.400001525879</ele>
        <time>2021-02-07T10:15:20.000Z</time>
      </trkpt>
      <trkpt lat="47.28562" lon="-2.19569">
        <ele>32.400001525879</ele>
        <time>2021-02-07T10:15:22.000Z</time>
      </trkpt>
      <trkpt lat="47.28571" lon="-2.19569">
        <ele>32.400001525879</ele>
        <time>2021-02-07T10:15:24.000Z</time>
      </trkpt>
      <trkpt lat="47.28612" lon="-2.19562">
        <ele>32.400001525879</ele>
        <time>2021-02-07T10:15:32.000Z</time>
      </trkpt>
      <trkpt lat="47.28618" lon="-2.19559">
        <ele>32.400001525879</ele>
        <time>2021-02-07T10:15:33.000Z</time>
      </trkpt>
      <trkpt lat="47.28636" lon="-2.19546">
        <ele>32.400001525879</ele>
        <time>2021-02-07T10:15:37.000Z</time>
      </trkpt>
      <trkpt lat="47.28654" lon="-2.19532">
        <ele>32.400001525879</ele>
        <time>2021-02-07T10:15:41.000Z</time>
      </trkpt>
      <trkpt lat="47.28665" lon="-2.19518">
        <ele>32.400001525879</ele>
        <time>2021-02-07T10:15:44.000Z</time>
      </trkpt>
      <trkpt lat="47.28688" lon="-2.1948">
        <ele>32.400001525879</ele>
        <time>2021-02-07T10:15:51.000Z</time>
      </trkpt>
      <trkpt lat="47.2869" lon="-2.19474">
        <ele>32.400001525879</ele>
        <time>2021-02-07T10:15:52.000Z</time>
      </trkpt>
      <trkpt lat="47.28695" lon="-2.19463">
        <ele>32.400001525879</ele>
        <time>2021-02-07T10:15:54.000Z</time>
      </trkpt>
      <trkpt lat="47.28699" lon="-2.19449">
        <ele>32.400001525879</ele>
        <time>2021-02-07T10:15:56.000Z</time>
      </trkpt>
      <trkpt lat="47.28707" lon="-2.19414">
        <ele>32.400001525879</ele>
        <time>2021-02-07T10:16:01.000Z</time>
      </trkpt>
      <trkpt lat="47.28713" lon="-2.19402">
        <ele>32.400001525879</ele>
        <time>2021-02-07T10:16:03.000Z</time>
      </trkpt>
      <trkpt lat="47.28732" lon="-2.19368">
        <ele>32.400001525879</ele>
        <time>2021-02-07T10:16:09.000Z</time>
      </trkpt>
      <trkpt lat="47.28746" lon="-2.19333">
        <ele>32.400001525879</ele>
        <time>2021-02-07T10:16:15.000Z</time>
      </trkpt>
      <trkpt lat="47.28765" lon="-2.19293">
        <ele>32.400001525879</ele>
        <time>2021-02-07T10:16:22.000Z</time>
      </trkpt>
      <trkpt lat="47.2879" lon="-2.1925">
        <ele>32.400001525879</ele>
        <time>2021-02-07T10:16:30.000Z</time>
      </trkpt>
      <trkpt lat="47.28806" lon="-2.19227">
        <ele>32.400001525879</ele>
        <time>2021-02-07T10:16:35.000Z</time>
      </trkpt>
      <trkpt lat="47.2881" lon="-2.19224">
        <ele>32.400001525879</ele>
        <time>2021-02-07T10:16:36.000Z</time>
      </trkpt>
      <trkpt lat="47.28819" lon="-2.19221">
        <ele>32.400001525879</ele>
        <time>2021-02-07T10:16:38.000Z</time>
      </trkpt>
      <trkpt lat="47.28838" lon="-2.19214">
        <ele>32.400001525879</ele>
        <time>2021-02-07T10:16:42.000Z</time>
      </trkpt>
      <trkpt lat="47.28867" lon="-2.19206">
        <ele>32.400001525879</ele>
        <time>2021-02-07T10:16:48.000Z</time>
      </trkpt>
      <trkpt lat="47.2888" lon="-2.19202">
        <ele>32.400001525879</ele>
        <time>2021-02-07T10:16:51.000Z</time>
      </trkpt>
      <trkpt lat="47.28889" lon="-2.19203">
        <ele>32.400001525879</ele>
        <time>2021-02-07T10:16:53.000Z</time>
      </trkpt>
      <trkpt lat="47.28898" lon="-2.19206">
        <ele>32.400001525879</ele>
        <time>2021-02-07T10:16:55.000Z</time>
      </trkpt>
      <trkpt lat="47.28902" lon="-2.19208">
        <ele>32.400001525879</ele>
        <time>2021-02-07T10:16:56.000Z</time>
      </trkpt>
      <trkpt lat="47.28908" lon="-2.19218">
        <ele>32.400001525879</ele>
        <time>2021-02-07T10:16:58.000Z</time>
      </trkpt>
      <trkpt lat="47.28918" lon="-2.19245">
        <ele>32.400001525879</ele>
        <time>2021-02-07T10:17:02.000Z</time>
      </trkpt>
      <trkpt lat="47.28923" lon="-2.19261">
        <ele>32.400001525879</ele>
        <time>2021-02-07T10:17:04.000Z</time>
      </trkpt>
      <trkpt lat="47.2894" lon="-2.19315">
        <ele>32.400001525879</ele>
        <time>2021-02-07T10:17:11.000Z</time>
      </trkpt>
      <trkpt lat="47.28959" lon="-2.19374">
        <ele>32.400001525879</ele>
        <time>2021-02-07T10:17:20.000Z</time>
      </trkpt>
      <trkpt lat="47.2897" lon="-2.19403">
        <ele>32.400001525879</ele>
        <time>2021-02-07T10:17:25.000Z</time>
      </trkpt>
      <trkpt lat="47.28972" lon="-2.19408">
        <ele>32.400001525879</ele>
        <time>2021-02-07T10:17:26.000Z</time>
      </trkpt>
      <trkpt lat="47.28976" lon="-2.19427">
        <ele>32.400001525879</ele>
        <time>2021-02-07T10:17:29.000Z</time>
      </trkpt>
      <trkpt lat="47.28977" lon="-2.19433">
        <ele>32.400001525879</ele>
        <time>2021-02-07T10:17:30.000Z</time>
      </trkpt>
      <trkpt lat="47.28979" lon="-2.1944">
        <ele>32.400001525879</ele>
        <time>2021-02-07T10:17:31.000Z</time>
      </trkpt>
      <trkpt lat="47.28984" lon="-2.19461">
        <ele>32.400001525879</ele>
        <time>2021-02-07T10:17:34.000Z</time>
      </trkpt>
      <trkpt lat="47.28988" lon="-2.19474">
        <ele>32.400001525879</ele>
        <time>2021-02-07T10:17:36.000Z</time>
      </trkpt>
      <trkpt lat="47.2899" lon="-2.19481">
        <ele>32.400001525879</ele>
        <time>2021-02-07T10:17:37.000Z</time>
      </trkpt>
      <trkpt lat="47.28993" lon="-2.19493">
        <ele>32.400001525879</ele>
        <time>2021-02-07T10:17:39.000Z</time>
      </trkpt>
      <trkpt lat="47.28995" lon="-2.19506">
        <ele>32.400001525879</ele>
        <time>2021-02-07T10:17:41.000Z</time>
      </trkpt>
      <trkpt lat="47.29002" lon="-2.19561">
        <ele>32.400001525879</ele>
        <time>2021-02-07T10:17:49.000Z</time>
      </trkpt>
      <trkpt lat="47.2901" lon="-2.19621">
        <ele>32.400001525879</ele>
        <time>2021-02-07T10:17:58.000Z</time>
      </trkpt>
      <trkpt lat="47.29016" lon="-2.19674">
        <ele>32.400001525879</ele>
        <time>2021-02-07T10:18:06.000Z</time>
      </trkpt>
      <trkpt lat="47.29022" lon="-2.19737">
        <ele>32.400001525879</ele>
        <time>2021-02-07T10:18:15.000Z</time>
      </trkpt>
      <trkpt lat="47.29027" lon="-2.19788">
        <ele>32.400001525879</ele>
        <time>2021-02-07T10:18:22.000Z</time>
      </trkpt>
      <trkpt lat="47.29032" lon="-2.19808">
        <ele>32.400001525879</ele>
        <time>2021-02-07T10:18:25.000Z</time>
      </trkpt>
      <trkpt lat="47.29036" lon="-2.19828">
        <ele>32.400001525879</ele>
        <time>2021-02-07T10:18:28.000Z</time>
      </trkpt>
      <trkpt lat="47.29038" lon="-2.19841">
        <ele>32.400001525879</ele>
        <time>2021-02-07T10:18:30.000Z</time>
      </trkpt>
      <trkpt lat="47.29043" lon="-2.19866">
        <ele>32.400001525879</ele>
        <time>2021-02-07T10:18:34.000Z</time>
      </trkpt>
      <trkpt lat="47.29044" lon="-2.19892">
        <ele>32.400001525879</ele>
        <time>2021-02-07T10:18:38.000Z</time>
      </trkpt>
      <trkpt lat="47.29046" lon="-2.1991">
        <ele>32.400001525879</ele>
        <time>2021-02-07T10:18:41.000Z</time>
      </trkpt>
      <trkpt lat="47.2905" lon="-2.19928">
        <ele>32</ele>
        <time>2021-02-07T10:18:45.000Z</time>
      </trkpt>
      <trkpt lat="47.2905" lon="-2.19931">
        <ele>31.60000038147</ele>
        <time>2021-02-07T10:18:46.000Z</time>
      </trkpt>
      <trkpt lat="47.2905" lon="-2.19935">
        <ele>31.200000762939</ele>
        <time>2021-02-07T10:18:47.000Z</time>
      </trkpt>
      <trkpt lat="47.2905" lon="-2.1994">
        <ele>30.799999237061</ele>
        <time>2021-02-07T10:18:48.000Z</time>
      </trkpt>
      <trkpt lat="47.29049" lon="-2.19944">
        <ele>30.39999961853</ele>
        <time>2021-02-07T10:18:49.000Z</time>
      </trkpt>
      <trkpt lat="47.29047" lon="-2.19946">
        <ele>30.39999961853</ele>
        <time>2021-02-07T10:18:50.000Z</time>
      </trkpt>
      <trkpt lat="47.29046" lon="-2.19947">
        <ele>30.39999961853</ele>
        <time>2021-02-07T10:18:51.000Z</time>
      </trkpt>
      <trkpt lat="47.29043" lon="-2.19953">
        <ele>30.39999961853</ele>
        <time>2021-02-07T10:18:54.000Z</time>
      </trkpt>
      <trkpt lat="47.29043" lon="-2.19955">
        <ele>30.39999961853</ele>
        <time>2021-02-07T10:18:55.000Z</time>
      </trkpt>
      <trkpt lat="47.2904" lon="-2.19964">
        <ele>30.39999961853</ele>
        <time>2021-02-07T10:18:58.000Z</time>
      </trkpt>
      <trkpt lat="47.29025" lon="-2.19969">
        <ele>30.39999961853</ele>
        <time>2021-02-07T10:19:01.000Z</time>
      </trkpt>
      <trkpt lat="47.29013" lon="-2.19973">
        <ele>30.39999961853</ele>
        <time>2021-02-07T10:19:03.000Z</time>
      </trkpt>
      <trkpt lat="47.28994" lon="-2.19979">
        <ele>30.39999961853</ele>
        <time>2021-02-07T10:19:06.000Z</time>
      </trkpt>
      <trkpt lat="47.28964" lon="-2.19987">
        <ele>30.39999961853</ele>
        <time>2021-02-07T10:19:11.000Z</time>
      </trkpt>
      <trkpt lat="47.2896" lon="-2.19991">
        <ele>30.39999961853</ele>
        <time>2021-02-07T10:19:12.000Z</time>
      </trkpt>
      <trkpt lat="47.28943" lon="-2.19999">
        <ele>30.39999961853</ele>
        <time>2021-02-07T10:19:15.000Z</time>
      </trkpt>
      <trkpt lat="47.28904" lon="-2.20013">
        <ele>30.39999961853</ele>
        <time>2021-02-07T10:19:22.000Z</time>
      </trkpt>
      <trkpt lat="47.28862" lon="-2.20028">
        <ele>30.39999961853</ele>
        <time>2021-02-07T10:19:30.000Z</time>
      </trkpt>
      <trkpt lat="47.28845" lon="-2.20033">
        <ele>30.39999961853</ele>
        <time>2021-02-07T10:19:33.000Z</time>
      </trkpt>
      <trkpt lat="47.28831" lon="-2.20038">
        <ele>30.39999961853</ele>
        <time>2021-02-07T10:19:36.000Z</time>
      </trkpt>
      <trkpt lat="47.28793" lon="-2.20049">
        <ele>30.39999961853</ele>
        <time>2021-02-07T10:19:43.000Z</time>
      </trkpt>
      <trkpt lat="47.28734" lon="-2.20064">
        <ele>30.39999961853</ele>
        <time>2021-02-07T10:19:53.000Z</time>
      </trkpt>
      <trkpt lat="47.28682" lon="-2.20078">
        <ele>30.39999961853</ele>
        <time>2021-02-07T10:20:02.000Z</time>
      </trkpt>
      <trkpt lat="47.28647" lon="-2.20087">
        <ele>30.39999961853</ele>
        <time>2021-02-07T10:20:08.000Z</time>
      </trkpt>
      <trkpt lat="47.28636" lon="-2.2009">
        <ele>30.39999961853</ele>
        <time>2021-02-07T10:20:10.000Z</time>
      </trkpt>
      <trkpt lat="47.28603" lon="-2.20098">
        <ele>30.39999961853</ele>
        <time>2021-02-07T10:20:16.000Z</time>
      </trkpt>
      <trkpt lat="47.28549" lon="-2.20109">
        <ele>30.39999961853</ele>
        <time>2021-02-07T10:20:26.000Z</time>
      </trkpt>
      <trkpt lat="47.28503" lon="-2.20122">
        <ele>30.39999961853</ele>
        <time>2021-02-07T10:20:35.000Z</time>
      </trkpt>
      <trkpt lat="47.28457" lon="-2.20136">
        <ele>30.39999961853</ele>
        <time>2021-02-07T10:20:44.000Z</time>
      </trkpt>
      <trkpt lat="47.28452" lon="-2.20139">
        <ele>30.39999961853</ele>
        <time>2021-02-07T10:20:45.000Z</time>
      </trkpt>
      <trkpt lat="47.28441" lon="-2.20149">
        <ele>30.39999961853</ele>
        <time>2021-02-07T10:20:48.000Z</time>
      </trkpt>
      <trkpt lat="47.2843" lon="-2.20147">
        <ele>30.39999961853</ele>
        <time>2021-02-07T10:20:51.000Z</time>
      </trkpt>
      <trkpt lat="47.28421" lon="-2.2015">
        <ele>30.39999961853</ele>
        <time>2021-02-07T10:20:53.000Z</time>
      </trkpt>
      <trkpt lat="47.28411" lon="-2.20151">
        <ele>30.39999961853</ele>
        <time>2021-02-07T10:20:55.000Z</time>
      </trkpt>
      <trkpt lat="47.2839" lon="-2.20151">
        <ele>30.39999961853</ele>
        <time>2021-02-07T10:20:59.000Z</time>
      </trkpt>
      <trkpt lat="47.28379" lon="-2.20154">
        <ele>30.39999961853</ele>
        <time>2021-02-07T10:21:01.000Z</time>
      </trkpt>
      <trkpt lat="47.28358" lon="-2.20157">
        <ele>30.39999961853</ele>
        <time>2021-02-07T10:21:05.000Z</time>
      </trkpt>
      <trkpt lat="47.28315" lon="-2.20167">
        <ele>30.39999961853</ele>
        <time>2021-02-07T10:21:13.000Z</time>
      </trkpt>
      <trkpt lat="47.28272" lon="-2.20183">
        <ele>30.39999961853</ele>
        <time>2021-02-07T10:21:21.000Z</time>
      </trkpt>
      <trkpt lat="47.28267" lon="-2.20186">
        <ele>30.39999961853</ele>
        <time>2021-02-07T10:21:22.000Z</time>
      </trkpt>
      <trkpt lat="47.28218" lon="-2.202">
        <ele>30.39999961853</ele>
        <time>2021-02-07T10:21:31.000Z</time>
      </trkpt>
      <trkpt lat="47.28186" lon="-2.2021">
        <ele>30.39999961853</ele>
        <time>2021-02-07T10:21:37.000Z</time>
      </trkpt>
      <trkpt lat="47.28176" lon="-2.20214">
        <ele>30.39999961853</ele>
        <time>2021-02-07T10:21:39.000Z</time>
      </trkpt>
      <trkpt lat="47.28139" lon="-2.20223">
        <ele>30.39999961853</ele>
        <time>2021-02-07T10:21:46.000Z</time>
      </trkpt>
      <trkpt lat="47.28115" lon="-2.20226">
        <ele>30.39999961853</ele>
        <time>2021-02-07T10:21:51.000Z</time>
      </trkpt>
      <trkpt lat="47.28075" lon="-2.20238">
        <ele>30.39999961853</ele>
        <time>2021-02-07T10:21:59.000Z</time>
      </trkpt>
      <trkpt lat="47.28033" lon="-2.20252">
        <ele>30.39999961853</ele>
        <time>2021-02-07T10:22:07.000Z</time>
      </trkpt>
      <trkpt lat="47.28" lon="-2.20261">
        <ele>30.39999961853</ele>
        <time>2021-02-07T10:22:13.000Z</time>
      </trkpt>
      <trkpt lat="47.2796" lon="-2.20269">
        <ele>30.39999961853</ele>
        <time>2021-02-07T10:22:21.000Z</time>
      </trkpt>
      <trkpt lat="47.2792" lon="-2.20279">
        <ele>30.39999961853</ele>
        <time>2021-02-07T10:22:28.000Z</time>
      </trkpt>
      <trkpt lat="47.27871" lon="-2.20291">
        <ele>30.39999961853</ele>
        <time>2021-02-07T10:22:37.000Z</time>
      </trkpt>
      <trkpt lat="47.27815" lon="-2.20306">
        <ele>30.39999961853</ele>
        <time>2021-02-07T10:22:47.000Z</time>
      </trkpt>
      <trkpt lat="47.2781" lon="-2.20306">
        <ele>30.39999961853</ele>
        <time>2021-02-07T10:22:48.000Z</time>
      </trkpt>
      <trkpt lat="47.2777" lon="-2.20314">
        <ele>30.39999961853</ele>
        <time>2021-02-07T10:22:55.000Z</time>
      </trkpt>
      <trkpt lat="47.2773" lon="-2.20325">
        <ele>30.39999961853</ele>
        <time>2021-02-07T10:23:02.000Z</time>
      </trkpt>
      <trkpt lat="47.27685" lon="-2.20338">
        <ele>30.39999961853</ele>
        <time>2021-02-07T10:23:10.000Z</time>
      </trkpt>
      <trkpt lat="47.27632" lon="-2.20352">
        <ele>30.39999961853</ele>
        <time>2021-02-07T10:23:19.000Z</time>
      </trkpt>
      <trkpt lat="47.27587" lon="-2.20365">
        <ele>30.39999961853</ele>
        <time>2021-02-07T10:23:27.000Z</time>
      </trkpt>
      <trkpt lat="47.27532" lon="-2.20381">
        <ele>30.39999961853</ele>
        <time>2021-02-07T10:23:37.000Z</time>
      </trkpt>
      <trkpt lat="47.27492" lon="-2.20392">
        <ele>30.39999961853</ele>
        <time>2021-02-07T10:23:44.000Z</time>
      </trkpt>
      <trkpt lat="47.27445" lon="-2.20405">
        <ele>30.39999961853</ele>
        <time>2021-02-07T10:23:52.000Z</time>
      </trkpt>
      <trkpt lat="47.27403" lon="-2.20419">
        <ele>30.39999961853</ele>
        <time>2021-02-07T10:24:00.000Z</time>
      </trkpt>
      <trkpt lat="47.27392" lon="-2.20421">
        <ele>30.799999237061</ele>
        <time>2021-02-07T10:24:02.000Z</time>
      </trkpt>
      <trkpt lat="47.27387" lon="-2.20423">
        <ele>31.200000762939</ele>
        <time>2021-02-07T10:24:03.000Z</time>
      </trkpt>
      <trkpt lat="47.27381" lon="-2.20424">
        <ele>31.60000038147</ele>
        <time>2021-02-07T10:24:04.000Z</time>
      </trkpt>
      <trkpt lat="47.27376" lon="-2.20425">
        <ele>32.400001525879</ele>
        <time>2021-02-07T10:24:05.000Z</time>
      </trkpt>
      <trkpt lat="47.2736" lon="-2.2043">
        <ele>32.400001525879</ele>
        <time>2021-02-07T10:24:08.000Z</time>
      </trkpt>
      <trkpt lat="47.27325" lon="-2.20441">
        <ele>32.400001525879</ele>
        <time>2021-02-07T10:24:15.000Z</time>
      </trkpt>
      <trkpt lat="47.27308" lon="-2.20445">
        <ele>32.400001525879</ele>
        <time>2021-02-07T10:24:18.000Z</time>
      </trkpt>
      <trkpt lat="47.27292" lon="-2.20445">
        <ele>32.400001525879</ele>
        <time>2021-02-07T10:24:21.000Z</time>
      </trkpt>
      <trkpt lat="47.2728" lon="-2.20446">
        <ele>32.400001525879</ele>
        <time>2021-02-07T10:24:23.000Z</time>
      </trkpt>
      <trkpt lat="47.27257" lon="-2.20451">
        <ele>32.400001525879</ele>
        <time>2021-02-07T10:24:27.000Z</time>
      </trkpt>
      <trkpt lat="47.27213" lon="-2.2046">
        <ele>32.400001525879</ele>
        <time>2021-02-07T10:24:35.000Z</time>
      </trkpt>
      <trkpt lat="47.27188" lon="-2.20464">
        <ele>32.400001525879</ele>
        <time>2021-02-07T10:24:41.000Z</time>
      </trkpt>
      <trkpt lat="47.27178" lon="-2.20468">
        <ele>32.400001525879</ele>
        <time>2021-02-07T10:24:43.000Z</time>
      </trkpt>
      <trkpt lat="47.27164" lon="-2.20472">
        <ele>32.400001525879</ele>
        <time>2021-02-07T10:24:46.000Z</time>
      </trkpt>
      <trkpt lat="47.27149" lon="-2.20486">
        <ele>32.400001525879</ele>
        <time>2021-02-07T10:24:50.000Z</time>
      </trkpt>
      <trkpt lat="47.2714" lon="-2.20507">
        <ele>32.400001525879</ele>
        <time>2021-02-07T10:24:54.000Z</time>
      </trkpt>
      <trkpt lat="47.27139" lon="-2.20513">
        <ele>32.400001525879</ele>
        <time>2021-02-07T10:24:55.000Z</time>
      </trkpt>
      <trkpt lat="47.27138" lon="-2.20526">
        <ele>32.400001525879</ele>
        <time>2021-02-07T10:24:57.000Z</time>
      </trkpt>
      <trkpt lat="47.27137" lon="-2.20546">
        <ele>32.400001525879</ele>
        <time>2021-02-07T10:25:00.000Z</time>
      </trkpt>
      <trkpt lat="47.27137" lon="-2.20551">
        <ele>32.400001525879</ele>
        <time>2021-02-07T10:25:01.000Z</time>
      </trkpt>
      <trkpt lat="47.27135" lon="-2.20583">
        <ele>32.400001525879</ele>
        <time>2021-02-07T10:25:06.000Z</time>
      </trkpt>
      <trkpt lat="47.27132" lon="-2.20628">
        <ele>32.400001525879</ele>
        <time>2021-02-07T10:25:13.000Z</time>
      </trkpt>
      <trkpt lat="47.27131" lon="-2.20642">
        <ele>32.400001525879</ele>
        <time>2021-02-07T10:25:15.000Z</time>
      </trkpt>
      <trkpt lat="47.27125" lon="-2.20665">
        <ele>32.400001525879</ele>
        <time>2021-02-07T10:25:18.000Z</time>
      </trkpt>
      <trkpt lat="47.2712" lon="-2.20715">
        <ele>32.400001525879</ele>
        <time>2021-02-07T10:25:24.000Z</time>
      </trkpt>
      <trkpt lat="47.27116" lon="-2.20739">
        <ele>32.400001525879</ele>
        <time>2021-02-07T10:25:28.000Z</time>
      </trkpt>
      <trkpt lat="47.27115" lon="-2.20746">
        <ele>32.400001525879</ele>
        <time>2021-02-07T10:25:29.000Z</time>
      </trkpt>
      <trkpt lat="47.27113" lon="-2.2077">
        <ele>32.400001525879</ele>
        <time>2021-02-07T10:25:32.000Z</time>
      </trkpt>
      <trkpt lat="47.27109" lon="-2.20793">
        <ele>32.400001525879</ele>
        <time>2021-02-07T10:25:35.000Z</time>
      </trkpt>
      <trkpt lat="47.27103" lon="-2.20837">
        <ele>32.400001525879</ele>
        <time>2021-02-07T10:25:41.000Z</time>
      </trkpt>
      <trkpt lat="47.27096" lon="-2.20879">
        <ele>32.400001525879</ele>
        <time>2021-02-07T10:25:47.000Z</time>
      </trkpt>
      <trkpt lat="47.2708" lon="-2.20927">
        <ele>32.400001525879</ele>
        <time>2021-02-07T10:25:54.000Z</time>
      </trkpt>
      <trkpt lat="47.27067" lon="-2.20964">
        <ele>32.799999237061</ele>
        <time>2021-02-07T10:26:00.000Z</time>
      </trkpt>
      <trkpt lat="47.27065" lon="-2.2097">
        <ele>33.200000762939</ele>
        <time>2021-02-07T10:26:01.000Z</time>
      </trkpt>
      <trkpt lat="47.27063" lon="-2.20975">
        <ele>33.599998474121</ele>
        <time>2021-02-07T10:26:02.000Z</time>
      </trkpt>
      <trkpt lat="47.27062" lon="-2.20981">
        <ele>34</ele>
        <time>2021-02-07T10:26:03.000Z</time>
      </trkpt>
      <trkpt lat="47.2706" lon="-2.20987">
        <ele>34.400001525879</ele>
        <time>2021-02-07T10:26:04.000Z</time>
      </trkpt>
      <trkpt lat="47.27049" lon="-2.21017">
        <ele>34.400001525879</ele>
        <time>2021-02-07T10:26:09.000Z</time>
      </trkpt>
      <trkpt lat="47.27031" lon="-2.21058">
        <ele>34.400001525879</ele>
        <time>2021-02-07T10:26:16.000Z</time>
      </trkpt>
      <trkpt lat="47.27018" lon="-2.21102">
        <ele>34.400001525879</ele>
        <time>2021-02-07T10:26:23.000Z</time>
      </trkpt>
      <trkpt lat="47.27" lon="-2.21155">
        <ele>34.400001525879</ele>
        <time>2021-02-07T10:26:31.000Z</time>
      </trkpt>
      <trkpt lat="47.26979" lon="-2.21189">
        <ele>34.400001525879</ele>
        <time>2021-02-07T10:26:37.000Z</time>
      </trkpt>
      <trkpt lat="47.26959" lon="-2.2122">
        <ele>34.400001525879</ele>
        <time>2021-02-07T10:26:43.000Z</time>
      </trkpt>
      <trkpt lat="47.26942" lon="-2.21245">
        <ele>34.400001525879</ele>
        <time>2021-02-07T10:26:49.000Z</time>
      </trkpt>
      <trkpt lat="47.26924" lon="-2.21271">
        <ele>34.400001525879</ele>
        <time>2021-02-07T10:26:55.000Z</time>
      </trkpt>
      <trkpt lat="47.26908" lon="-2.21294">
        <ele>34.400001525879</ele>
        <time>2021-02-07T10:27:00.000Z</time>
      </trkpt>
      <trkpt lat="47.26904" lon="-2.21304">
        <ele>34.400001525879</ele>
        <time>2021-02-07T10:27:02.000Z</time>
      </trkpt>
      <trkpt lat="47.269" lon="-2.21322">
        <ele>34.400001525879</ele>
        <time>2021-02-07T10:27:05.000Z</time>
      </trkpt>
      <trkpt lat="47.26896" lon="-2.21346">
        <ele>34.400001525879</ele>
        <time>2021-02-07T10:27:09.000Z</time>
      </trkpt>
      <trkpt lat="47.26893" lon="-2.21357">
        <ele>34.400001525879</ele>
        <time>2021-02-07T10:27:11.000Z</time>
      </trkpt>
      <trkpt lat="47.26889" lon="-2.21377">
        <ele>34.400001525879</ele>
        <time>2021-02-07T10:27:14.000Z</time>
      </trkpt>
      <trkpt lat="47.26883" lon="-2.21416">
        <ele>34.400001525879</ele>
        <time>2021-02-07T10:27:20.000Z</time>
      </trkpt>
      <trkpt lat="47.26879" lon="-2.21455">
        <ele>34.400001525879</ele>
        <time>2021-02-07T10:27:26.000Z</time>
      </trkpt>
      <trkpt lat="47.26871" lon="-2.21498">
        <ele>34.400001525879</ele>
        <time>2021-02-07T10:27:33.000Z</time>
      </trkpt>
      <trkpt lat="47.26863" lon="-2.21525">
        <ele>34.400001525879</ele>
        <time>2021-02-07T10:27:38.000Z</time>
      </trkpt>
      <trkpt lat="47.26859" lon="-2.21576">
        <ele>34.400001525879</ele>
        <time>2021-02-07T10:27:46.000Z</time>
      </trkpt>
      <trkpt lat="47.26851" lon="-2.21608">
        <ele>34.400001525879</ele>
        <time>2021-02-07T10:27:52.000Z</time>
      </trkpt>
      <trkpt lat="47.26849" lon="-2.21627">
        <ele>34.400001525879</ele>
        <time>2021-02-07T10:27:56.000Z</time>
      </trkpt>
      <trkpt lat="47.26841" lon="-2.21657">
        <ele>34.400001525879</ele>
        <time>2021-02-07T10:28:03.000Z</time>
      </trkpt>
      <trkpt lat="47.2684" lon="-2.21666">
        <ele>34.400001525879</ele>
        <time>2021-02-07T10:28:05.000Z</time>
      </trkpt>
      <trkpt lat="47.2684" lon="-2.21675">
        <ele>34.400001525879</ele>
        <time>2021-02-07T10:28:07.000Z</time>
      </trkpt>
      <trkpt lat="47.26836" lon="-2.21699">
        <ele>34.400001525879</ele>
        <time>2021-02-07T10:28:12.000Z</time>
      </trkpt>
      <trkpt lat="47.26829" lon="-2.21724">
        <ele>34.400001525879</ele>
        <time>2021-02-07T10:28:18.000Z</time>
      </trkpt>
      <trkpt lat="47.26828" lon="-2.21727">
        <ele>34.400001525879</ele>
        <time>2021-02-07T10:28:20.000Z</time>
      </trkpt>
      <trkpt lat="47.2683" lon="-2.21729">
        <ele>34.400001525879</ele>
        <time>2021-02-07T10:28:23.000Z</time>
      </trkpt>
      <trkpt lat="47.2683" lon="-2.2173">
        <ele>34.400001525879</ele>
        <time>2021-02-07T10:28:24.000Z</time>
      </trkpt>
      <trkpt lat="47.26832" lon="-2.21734">
        <ele>34.400001525879</ele>
        <time>2021-02-07T10:28:28.000Z</time>
      </trkpt>
      <trkpt lat="47.2683" lon="-2.21746">
        <ele>34.400001525879</ele>
        <time>2021-02-07T10:28:30.000Z</time>
      </trkpt>
      <trkpt lat="47.26829" lon="-2.21753">
        <ele>34.400001525879</ele>
        <time>2021-02-07T10:28:31.000Z</time>
      </trkpt>
      <trkpt lat="47.26825" lon="-2.21771">
        <ele>34.400001525879</ele>
        <time>2021-02-07T10:28:33.000Z</time>
      </trkpt>
      <trkpt lat="47.26806" lon="-2.21842">
        <ele>34.400001525879</ele>
        <time>2021-02-07T10:28:41.000Z</time>
      </trkpt>
      <trkpt lat="47.26793" lon="-2.21899">
        <ele>34.400001525879</ele>
        <time>2021-02-07T10:28:48.000Z</time>
      </trkpt>
      <trkpt lat="47.26778" lon="-2.21956">
        <ele>34.400001525879</ele>
        <time>2021-02-07T10:28:56.000Z</time>
      </trkpt>
      <trkpt lat="47.26761" lon="-2.22021">
        <ele>34.400001525879</ele>
        <time>2021-02-07T10:29:05.000Z</time>
      </trkpt>
      <trkpt lat="47.26754" lon="-2.22046">
        <ele>34.400001525879</ele>
        <time>2021-02-07T10:29:10.000Z</time>
      </trkpt>
      <trkpt lat="47.26752" lon="-2.22052">
        <ele>34.400001525879</ele>
        <time>2021-02-07T10:29:15.000Z</time>
      </trkpt>
      <trkpt lat="47.26747" lon="-2.22066">
        <ele>34.400001525879</ele>
        <time>2021-02-07T10:29:19.000Z</time>
      </trkpt>
      <trkpt lat="47.26741" lon="-2.22086">
        <ele>34.400001525879</ele>
        <time>2021-02-07T10:29:22.000Z</time>
      </trkpt>
      <trkpt lat="47.26738" lon="-2.22093">
        <ele>34.400001525879</ele>
        <time>2021-02-07T10:29:23.000Z</time>
      </trkpt>
      <trkpt lat="47.26723" lon="-2.22132">
        <ele>34.400001525879</ele>
        <time>2021-02-07T10:29:28.000Z</time>
      </trkpt>
      <trkpt lat="47.26719" lon="-2.22145">
        <ele>34.400001525879</ele>
        <time>2021-02-07T10:29:30.000Z</time>
      </trkpt>
      <trkpt lat="47.26718" lon="-2.22156">
        <ele>34.400001525879</ele>
        <time>2021-02-07T10:29:32.000Z</time>
      </trkpt>
      <trkpt lat="47.26709" lon="-2.2217">
        <ele>34.400001525879</ele>
        <time>2021-02-07T10:29:35.000Z</time>
      </trkpt>
      <trkpt lat="47.26706" lon="-2.22176">
        <ele>34.400001525879</ele>
        <time>2021-02-07T10:29:36.000Z</time>
      </trkpt>
      <trkpt lat="47.26692" lon="-2.22201">
        <ele>34.400001525879</ele>
        <time>2021-02-07T10:29:40.000Z</time>
      </trkpt>
      <trkpt lat="47.26664" lon="-2.22252">
        <ele>34.400001525879</ele>
        <time>2021-02-07T10:29:47.000Z</time>
      </trkpt>
      <trkpt lat="47.26626" lon="-2.22319">
        <ele>34.400001525879</ele>
        <time>2021-02-07T10:29:56.000Z</time>
      </trkpt>
      <trkpt lat="47.26611" lon="-2.22347">
        <ele>34.400001525879</ele>
        <time>2021-02-07T10:30:01.000Z</time>
      </trkpt>
      <trkpt lat="47.26609" lon="-2.22357">
        <ele>34.400001525879</ele>
        <time>2021-02-07T10:30:02.000Z</time>
      </trkpt>
      <trkpt lat="47.26604" lon="-2.2237">
        <ele>34.400001525879</ele>
        <time>2021-02-07T10:30:04.000Z</time>
      </trkpt>
      <trkpt lat="47.26592" lon="-2.22392">
        <ele>34.400001525879</ele>
        <time>2021-02-07T10:30:07.000Z</time>
      </trkpt>
      <trkpt lat="47.26561" lon="-2.22443">
        <ele>34.400001525879</ele>
        <time>2021-02-07T10:30:14.000Z</time>
      </trkpt>
      <trkpt lat="47.26545" lon="-2.22467">
        <ele>34.400001525879</ele>
        <time>2021-02-07T10:30:18.000Z</time>
      </trkpt>
      <trkpt lat="47.26536" lon="-2.22478">
        <ele>34.400001525879</ele>
        <time>2021-02-07T10:30:20.000Z</time>
      </trkpt>
      <trkpt lat="47.26508" lon="-2.22521">
        <ele>34.400001525879</ele>
        <time>2021-02-07T10:30:27.000Z</time>
      </trkpt>
      <trkpt lat="47.26498" lon="-2.22543">
        <ele>34.400001525879</ele>
        <time>2021-02-07T10:30:30.000Z</time>
      </trkpt>
      <trkpt lat="47.26495" lon="-2.22551">
        <ele>34.400001525879</ele>
        <time>2021-02-07T10:30:31.000Z</time>
      </trkpt>
      <trkpt lat="47.26491" lon="-2.22557">
        <ele>34.400001525879</ele>
        <time>2021-02-07T10:30:32.000Z</time>
      </trkpt>
      <trkpt lat="47.2648" lon="-2.22558">
        <ele>34.400001525879</ele>
        <time>2021-02-07T10:30:34.000Z</time>
      </trkpt>
      <trkpt lat="47.26472" lon="-2.22547">
        <ele>34.400001525879</ele>
        <time>2021-02-07T10:30:36.000Z</time>
      </trkpt>
      <trkpt lat="47.26465" lon="-2.22531">
        <ele>34.400001525879</ele>
        <time>2021-02-07T10:30:39.000Z</time>
      </trkpt>
      <trkpt lat="47.2646" lon="-2.22529">
        <ele>34.400001525879</ele>
        <time>2021-02-07T10:30:42.000Z</time>
      </trkpt>
      <trkpt lat="47.26458" lon="-2.22523">
        <ele>34.400001525879</ele>
        <time>2021-02-07T10:30:46.000Z</time>
      </trkpt>
      <trkpt lat="47.26457" lon="-2.22521">
        <ele>34.400001525879</ele>
        <time>2021-02-07T10:30:47.000Z</time>
      </trkpt>
      <trkpt lat="47.26448" lon="-2.22521">
        <ele>34.400001525879</ele>
        <time>2021-02-07T10:30:51.000Z</time>
      </trkpt>
      <trkpt lat="47.26439" lon="-2.22523">
        <ele>34.400001525879</ele>
        <time>2021-02-07T10:30:54.000Z</time>
      </trkpt>
      <trkpt lat="47.26427" lon="-2.22526">
        <ele>34.400001525879</ele>
        <time>2021-02-07T10:30:57.000Z</time>
      </trkpt>
      <trkpt lat="47.26407" lon="-2.22535">
        <ele>34.400001525879</ele>
        <time>2021-02-07T10:31:02.000Z</time>
      </trkpt>
      <trkpt lat="47.26398" lon="-2.22536">
        <ele>34.400001525879</ele>
        <time>2021-02-07T10:31:04.000Z</time>
      </trkpt>
      <trkpt lat="47.26394" lon="-2.22535">
        <ele>34.400001525879</ele>
        <time>2021-02-07T10:31:05.000Z</time>
      </trkpt>
      <trkpt lat="47.26376" lon="-2.22539">
        <ele>34.400001525879</ele>
        <time>2021-02-07T10:31:09.000Z</time>
      </trkpt>
      <trkpt lat="47.26351" lon="-2.22535">
        <ele>34.400001525879</ele>
        <time>2021-02-07T10:31:15.000Z</time>
      </trkpt>
      <trkpt lat="47.26341" lon="-2.22534">
        <ele>34.400001525879</ele>
        <time>2021-02-07T10:31:17.000Z</time>
      </trkpt>
      <trkpt lat="47.2632" lon="-2.2253">
        <ele>34.400001525879</ele>
        <time>2021-02-07T10:31:21.000Z</time>
      </trkpt>
      <trkpt lat="47.26286" lon="-2.22517">
        <ele>34.400001525879</ele>
        <time>2021-02-07T10:31:27.000Z</time>
      </trkpt>
      <trkpt lat="47.2628" lon="-2.22514">
        <ele>34.400001525879</ele>
        <time>2021-02-07T10:31:28.000Z</time>
      </trkpt>
      <trkpt lat="47.26243" lon="-2.22489">
        <ele>34.400001525879</ele>
        <time>2021-02-07T10:31:35.000Z</time>
      </trkpt>
      <trkpt lat="47.26215" lon="-2.22468">
        <ele>34.400001525879</ele>
        <time>2021-02-07T10:31:41.000Z</time>
      </trkpt>
      <trkpt lat="47.26186" lon="-2.22458">
        <ele>34.400001525879</ele>
        <time>2021-02-07T10:31:48.000Z</time>
      </trkpt>
      <trkpt lat="47.26177" lon="-2.22456">
        <ele>34.400001525879</ele>
        <time>2021-02-07T10:31:50.000Z</time>
      </trkpt>
      <trkpt lat="47.26162" lon="-2.2246">
        <ele>34.400001525879</ele>
        <time>2021-02-07T10:31:53.000Z</time>
      </trkpt>
      <trkpt lat="47.2615" lon="-2.2246">
        <ele>34.400001525879</ele>
        <time>2021-02-07T10:31:55.000Z</time>
      </trkpt>
      <trkpt lat="47.26132" lon="-2.22458">
        <ele>34.400001525879</ele>
        <time>2021-02-07T10:31:58.000Z</time>
      </trkpt>
      <trkpt lat="47.26107" lon="-2.22451">
        <ele>34.400001525879</ele>
        <time>2021-02-07T10:32:02.000Z</time>
      </trkpt>
      <trkpt lat="47.26095" lon="-2.22446">
        <ele>34.400001525879</ele>
        <time>2021-02-07T10:32:04.000Z</time>
      </trkpt>
      <trkpt lat="47.26071" lon="-2.22435">
        <ele>34.400001525879</ele>
        <time>2021-02-07T10:32:08.000Z</time>
      </trkpt>
      <trkpt lat="47.26061" lon="-2.22424">
        <ele>34.400001525879</ele>
        <time>2021-02-07T10:32:10.000Z</time>
      </trkpt>
      <trkpt lat="47.26051" lon="-2.22412">
        <ele>34.400001525879</ele>
        <time>2021-02-07T10:32:12.000Z</time>
      </trkpt>
      <trkpt lat="47.26038" lon="-2.22397">
        <ele>34.400001525879</ele>
        <time>2021-02-07T10:32:15.000Z</time>
      </trkpt>
      <trkpt lat="47.26034" lon="-2.22394">
        <ele>34.400001525879</ele>
        <time>2021-02-07T10:32:16.000Z</time>
      </trkpt>
      <trkpt lat="47.26022" lon="-2.22388">
        <ele>34.400001525879</ele>
        <time>2021-02-07T10:32:20.000Z</time>
      </trkpt>
      <trkpt lat="47.26001" lon="-2.22383">
        <ele>34.400001525879</ele>
        <time>2021-02-07T10:32:26.000Z</time>
      </trkpt>
      <trkpt lat="47.25997" lon="-2.22382">
        <ele>34.400001525879</ele>
        <time>2021-02-07T10:32:27.000Z</time>
      </trkpt>
      <trkpt lat="47.25987" lon="-2.2238">
        <ele>34.400001525879</ele>
        <time>2021-02-07T10:32:29.000Z</time>
      </trkpt>
      <trkpt lat="47.25977" lon="-2.22378">
        <ele>34.400001525879</ele>
        <time>2021-02-07T10:32:31.000Z</time>
      </trkpt>
      <trkpt lat="47.25967" lon="-2.22373">
        <ele>34.400001525879</ele>
        <time>2021-02-07T10:32:33.000Z</time>
      </trkpt>
      <trkpt lat="47.25957" lon="-2.22366">
        <ele>34.400001525879</ele>
        <time>2021-02-07T10:32:35.000Z</time>
      </trkpt>
      <trkpt lat="47.25939" lon="-2.22349">
        <ele>34.400001525879</ele>
        <time>2021-02-07T10:32:39.000Z</time>
      </trkpt>
      <trkpt lat="47.25903" lon="-2.22324">
        <ele>34.400001525879</ele>
        <time>2021-02-07T10:32:46.000Z</time>
      </trkpt>
      <trkpt lat="47.25892" lon="-2.22317">
        <ele>34.400001525879</ele>
        <time>2021-02-07T10:32:48.000Z</time>
      </trkpt>
      <trkpt lat="47.25881" lon="-2.22316">
        <ele>34.400001525879</ele>
        <time>2021-02-07T10:32:50.000Z</time>
      </trkpt>
      <trkpt lat="47.25859" lon="-2.22328">
        <ele>34.400001525879</ele>
        <time>2021-02-07T10:32:54.000Z</time>
      </trkpt>
      <trkpt lat="47.25847" lon="-2.22347">
        <ele>34.400001525879</ele>
        <time>2021-02-07T10:32:57.000Z</time>
      </trkpt>
      <trkpt lat="47.25841" lon="-2.22375">
        <ele>34.400001525879</ele>
        <time>2021-02-07T10:33:00.000Z</time>
      </trkpt>
      <trkpt lat="47.25836" lon="-2.22392">
        <ele>34.400001525879</ele>
        <time>2021-02-07T10:33:02.000Z</time>
      </trkpt>
      <trkpt lat="47.25828" lon="-2.22419">
        <ele>34.400001525879</ele>
        <time>2021-02-07T10:33:05.000Z</time>
      </trkpt>
      <trkpt lat="47.2582" lon="-2.22442">
        <ele>34.400001525879</ele>
        <time>2021-02-07T10:33:08.000Z</time>
      </trkpt>
      <trkpt lat="47.25813" lon="-2.22484">
        <ele>34.400001525879</ele>
        <time>2021-02-07T10:33:13.000Z</time>
      </trkpt>
      <trkpt lat="47.25805" lon="-2.22518">
        <ele>34.400001525879</ele>
        <time>2021-02-07T10:33:17.000Z</time>
      </trkpt>
      <trkpt lat="47.25801" lon="-2.22563">
        <ele>34.400001525879</ele>
        <time>2021-02-07T10:33:22.000Z</time>
      </trkpt>
      <trkpt lat="47.25796" lon="-2.22609">
        <ele>34.400001525879</ele>
        <time>2021-02-07T10:33:28.000Z</time>
      </trkpt>
      <trkpt lat="47.25796" lon="-2.22627">
        <ele>34.400001525879</ele>
        <time>2021-02-07T10:33:32.000Z</time>
      </trkpt>
      <trkpt lat="47.25794" lon="-2.22653">
        <ele>34.400001525879</ele>
        <time>2021-02-07T10:33:36.000Z</time>
      </trkpt>
      <trkpt lat="47.25795" lon="-2.22685">
        <ele>34.400001525879</ele>
        <time>2021-02-07T10:33:40.000Z</time>
      </trkpt>
      <trkpt lat="47.25797" lon="-2.227">
        <ele>34.400001525879</ele>
        <time>2021-02-07T10:33:42.000Z</time>
      </trkpt>
      <trkpt lat="47.25794" lon="-2.22731">
        <ele>34.400001525879</ele>
        <time>2021-02-07T10:33:46.000Z</time>
      </trkpt>
      <trkpt lat="47.25785" lon="-2.22761">
        <ele>34</ele>
        <time>2021-02-07T10:33:51.000Z</time>
      </trkpt>
      <trkpt lat="47.25783" lon="-2.22766">
        <ele>33.200000762939</ele>
        <time>2021-02-07T10:33:52.000Z</time>
      </trkpt>
      <trkpt lat="47.25781" lon="-2.22771">
        <ele>32.799999237061</ele>
        <time>2021-02-07T10:33:53.000Z</time>
      </trkpt>
      <trkpt lat="47.2578" lon="-2.22776">
        <ele>32.400001525879</ele>
        <time>2021-02-07T10:33:54.000Z</time>
      </trkpt>
      <trkpt lat="47.25779" lon="-2.22783">
        <ele>32.400001525879</ele>
        <time>2021-02-07T10:33:56.000Z</time>
      </trkpt>
      <trkpt lat="47.2578" lon="-2.22795">
        <ele>32.400001525879</ele>
        <time>2021-02-07T10:34:00.000Z</time>
      </trkpt>
      <trkpt lat="47.25779" lon="-2.22798">
        <ele>32.400001525879</ele>
        <time>2021-02-07T10:34:01.000Z</time>
      </trkpt>
      <trkpt lat="47.25772" lon="-2.22803">
        <ele>32.400001525879</ele>
        <time>2021-02-07T10:34:06.000Z</time>
      </trkpt>
      <trkpt lat="47.25767" lon="-2.22805">
        <ele>32.400001525879</ele>
        <time>2021-02-07T10:34:10.000Z</time>
      </trkpt>
      <trkpt lat="47.25766" lon="-2.22806">
        <ele>32.400001525879</ele>
        <time>2021-02-07T10:34:55.000Z</time>
      </trkpt>
      <trkpt lat="47.25756" lon="-2.22814">
        <ele>32.400001525879</ele>
        <time>2021-02-07T10:34:59.000Z</time>
      </trkpt>
      <trkpt lat="47.25734" lon="-2.2283">
        <ele>32.400001525879</ele>
        <time>2021-02-07T10:35:06.000Z</time>
      </trkpt>
      <trkpt lat="47.25718" lon="-2.22844">
        <ele>32.400001525879</ele>
        <time>2021-02-07T10:35:11.000Z</time>
      </trkpt>
      <trkpt lat="47.25713" lon="-2.22847">
        <ele>32.400001525879</ele>
        <time>2021-02-07T10:35:13.000Z</time>
      </trkpt>
      <trkpt lat="47.25701" lon="-2.22857">
        <ele>32.400001525879</ele>
        <time>2021-02-07T10:35:17.000Z</time>
      </trkpt>
      <trkpt lat="47.25691" lon="-2.22866">
        <ele>32.400001525879</ele>
        <time>2021-02-07T10:35:20.000Z</time>
      </trkpt>
      <trkpt lat="47.25684" lon="-2.22877">
        <ele>32.400001525879</ele>
        <time>2021-02-07T10:35:22.000Z</time>
      </trkpt>
      <trkpt lat="47.25677" lon="-2.22891">
        <ele>32.400001525879</ele>
        <time>2021-02-07T10:35:24.000Z</time>
      </trkpt>
      <trkpt lat="47.25672" lon="-2.22905">
        <ele>32.799999237061</ele>
        <time>2021-02-07T10:35:26.000Z</time>
      </trkpt>
      <trkpt lat="47.25671" lon="-2.22913">
        <ele>33.200000762939</ele>
        <time>2021-02-07T10:35:27.000Z</time>
      </trkpt>
      <trkpt lat="47.2567" lon="-2.22921">
        <ele>33.599998474121</ele>
        <time>2021-02-07T10:35:28.000Z</time>
      </trkpt>
      <trkpt lat="47.25669" lon="-2.2293">
        <ele>34</ele>
        <time>2021-02-07T10:35:29.000Z</time>
      </trkpt>
      <trkpt lat="47.25669" lon="-2.22938">
        <ele>34.400001525879</ele>
        <time>2021-02-07T10:35:30.000Z</time>
      </trkpt>
      <trkpt lat="47.2567" lon="-2.22956">
        <ele>34.400001525879</ele>
        <time>2021-02-07T10:35:32.000Z</time>
      </trkpt>
      <trkpt lat="47.2567" lon="-2.22974">
        <ele>34.799999237061</ele>
        <time>2021-02-07T10:35:34.000Z</time>
      </trkpt>
      <trkpt lat="47.2567" lon="-2.22983">
        <ele>35.400001525879</ele>
        <time>2021-02-07T10:35:35.000Z</time>
      </trkpt>
      <trkpt lat="47.2567" lon="-2.22992">
        <ele>35.799999237061</ele>
        <time>2021-02-07T10:35:36.000Z</time>
      </trkpt>
      <trkpt lat="47.2567" lon="-2.23001">
        <ele>36.200000762939</ele>
        <time>2021-02-07T10:35:37.000Z</time>
      </trkpt>
      <trkpt lat="47.2567" lon="-2.23009">
        <ele>36.599998474121</ele>
        <time>2021-02-07T10:35:38.000Z</time>
      </trkpt>
      <trkpt lat="47.2567" lon="-2.23034">
        <ele>37</ele>
        <time>2021-02-07T10:35:41.000Z</time>
      </trkpt>
      <trkpt lat="47.2567" lon="-2.23041">
        <ele>37.400001525879</ele>
        <time>2021-02-07T10:35:42.000Z</time>
      </trkpt>
      <trkpt lat="47.25671" lon="-2.23049">
        <ele>37.799999237061</ele>
        <time>2021-02-07T10:35:43.000Z</time>
      </trkpt>
      <trkpt lat="47.25671" lon="-2.23057">
        <ele>38.200000762939</ele>
        <time>2021-02-07T10:35:44.000Z</time>
      </trkpt>
      <trkpt lat="47.25671" lon="-2.23065">
        <ele>38.599998474121</ele>
        <time>2021-02-07T10:35:45.000Z</time>
      </trkpt>
      <trkpt lat="47.25671" lon="-2.23073">
        <ele>38.599998474121</ele>
        <time>2021-02-07T10:35:46.000Z</time>
      </trkpt>
      <trkpt lat="47.25669" lon="-2.23139">
        <ele>38.599998474121</ele>
        <time>2021-02-07T10:35:55.000Z</time>
      </trkpt>
      <trkpt lat="47.25665" lon="-2.2319">
        <ele>38.599998474121</ele>
        <time>2021-02-07T10:36:02.000Z</time>
      </trkpt>
      <trkpt lat="47.25663" lon="-2.23229">
        <ele>38.599998474121</ele>
        <time>2021-02-07T10:36:08.000Z</time>
      </trkpt>
      <trkpt lat="47.25664" lon="-2.2324">
        <ele>38.599998474121</ele>
        <time>2021-02-07T10:36:10.000Z</time>
      </trkpt>
      <trkpt lat="47.25668" lon="-2.23252">
        <ele>38.599998474121</ele>
        <time>2021-02-07T10:36:12.000Z</time>
      </trkpt>
      <trkpt lat="47.2568" lon="-2.23283">
        <ele>39</ele>
        <time>2021-02-07T10:36:17.000Z</time>
      </trkpt>
      <trkpt lat="47.25683" lon="-2.23289">
        <ele>39.400001525879</ele>
        <time>2021-02-07T10:36:18.000Z</time>
      </trkpt>
      <trkpt lat="47.25684" lon="-2.23296">
        <ele>39.799999237061</ele>
        <time>2021-02-07T10:36:19.000Z</time>
      </trkpt>
      <trkpt lat="47.25685" lon="-2.23302">
        <ele>40.799999237061</ele>
        <time>2021-02-07T10:36:20.000Z</time>
      </trkpt>
      <trkpt lat="47.25688" lon="-2.23323">
        <ele>40.799999237061</ele>
        <time>2021-02-07T10:36:23.000Z</time>
      </trkpt>
      <trkpt lat="47.2569" lon="-2.23361">
        <ele>41.200000762939</ele>
        <time>2021-02-07T10:36:28.000Z</time>
      </trkpt>
      <trkpt lat="47.2569" lon="-2.23369">
        <ele>41.599998474121</ele>
        <time>2021-02-07T10:36:29.000Z</time>
      </trkpt>
      <trkpt lat="47.2569" lon="-2.23377">
        <ele>42</ele>
        <time>2021-02-07T10:36:30.000Z</time>
      </trkpt>
      <trkpt lat="47.25691" lon="-2.23385">
        <ele>42.400001525879</ele>
        <time>2021-02-07T10:36:31.000Z</time>
      </trkpt>
      <trkpt lat="47.25691" lon="-2.23392">
        <ele>42.799999237061</ele>
        <time>2021-02-07T10:36:32.000Z</time>
      </trkpt>
      <trkpt lat="47.25695" lon="-2.23428">
        <ele>42.799999237061</ele>
        <time>2021-02-07T10:36:37.000Z</time>
      </trkpt>
      <trkpt lat="47.25701" lon="-2.23477">
        <ele>42.799999237061</ele>
        <time>2021-02-07T10:36:43.000Z</time>
      </trkpt>
      <trkpt lat="47.25706" lon="-2.23545">
        <ele>42.799999237061</ele>
        <time>2021-02-07T10:36:51.000Z</time>
      </trkpt>
      <trkpt lat="47.2571" lon="-2.2361">
        <ele>42.799999237061</ele>
        <time>2021-02-07T10:36:58.000Z</time>
      </trkpt>
      <trkpt lat="47.25713" lon="-2.23681">
        <ele>42.799999237061</ele>
        <time>2021-02-07T10:37:05.000Z</time>
      </trkpt>
      <trkpt lat="47.25719" lon="-2.23764">
        <ele>43.200000762939</ele>
        <time>2021-02-07T10:37:13.000Z</time>
      </trkpt>
      <trkpt lat="47.2572" lon="-2.23774">
        <ele>43.599998474121</ele>
        <time>2021-02-07T10:37:14.000Z</time>
      </trkpt>
      <trkpt lat="47.2572" lon="-2.23784">
        <ele>44</ele>
        <time>2021-02-07T10:37:15.000Z</time>
      </trkpt>
      <trkpt lat="47.25721" lon="-2.23795">
        <ele>44.400001525879</ele>
        <time>2021-02-07T10:37:16.000Z</time>
      </trkpt>
      <trkpt lat="47.25722" lon="-2.23804">
        <ele>44.799999237061</ele>
        <time>2021-02-07T10:37:17.000Z</time>
      </trkpt>
      <trkpt lat="47.25725" lon="-2.23833">
        <ele>44.799999237061</ele>
        <time>2021-02-07T10:37:20.000Z</time>
      </trkpt>
      <trkpt lat="47.25729" lon="-2.23881">
        <ele>44.799999237061</ele>
        <time>2021-02-07T10:37:25.000Z</time>
      </trkpt>
      <trkpt lat="47.25733" lon="-2.239">
        <ele>44.799999237061</ele>
        <time>2021-02-07T10:37:27.000Z</time>
      </trkpt>
      <trkpt lat="47.25742" lon="-2.23955">
        <ele>44.799999237061</ele>
        <time>2021-02-07T10:37:33.000Z</time>
      </trkpt>
      <trkpt lat="47.2575" lon="-2.24018">
        <ele>44.799999237061</ele>
        <time>2021-02-07T10:37:40.000Z</time>
      </trkpt>
      <trkpt lat="47.2575" lon="-2.24071">
        <ele>44.799999237061</ele>
        <time>2021-02-07T10:37:46.000Z</time>
      </trkpt>
      <trkpt lat="47.25749" lon="-2.24094">
        <ele>45.200000762939</ele>
        <time>2021-02-07T10:37:49.000Z</time>
      </trkpt>
      <trkpt lat="47.25749" lon="-2.24102">
        <ele>45.599998474121</ele>
        <time>2021-02-07T10:37:50.000Z</time>
      </trkpt>
      <trkpt lat="47.25748" lon="-2.24109">
        <ele>46</ele>
        <time>2021-02-07T10:37:51.000Z</time>
      </trkpt>
      <trkpt lat="47.25748" lon="-2.24117">
        <ele>46.400001525879</ele>
        <time>2021-02-07T10:37:52.000Z</time>
      </trkpt>
      <trkpt lat="47.25748" lon="-2.24124">
        <ele>46.799999237061</ele>
        <time>2021-02-07T10:37:53.000Z</time>
      </trkpt>
      <trkpt lat="47.25748" lon="-2.24132">
        <ele>46.799999237061</ele>
        <time>2021-02-07T10:37:54.000Z</time>
      </trkpt>
      <trkpt lat="47.25747" lon="-2.24171">
        <ele>47.799999237061</ele>
        <time>2021-02-07T10:37:59.000Z</time>
      </trkpt>
      <trkpt lat="47.25746" lon="-2.24179">
        <ele>48.200000762939</ele>
        <time>2021-02-07T10:38:00.000Z</time>
      </trkpt>
      <trkpt lat="47.25746" lon="-2.24187">
        <ele>48.599998474121</ele>
        <time>2021-02-07T10:38:01.000Z</time>
      </trkpt>
      <trkpt lat="47.25746" lon="-2.24195">
        <ele>49</ele>
        <time>2021-02-07T10:38:02.000Z</time>
      </trkpt>
      <trkpt lat="47.25746" lon="-2.24245">
        <ele>49</ele>
        <time>2021-02-07T10:38:08.000Z</time>
      </trkpt>
      <trkpt lat="47.25748" lon="-2.2429">
        <ele>49</ele>
        <time>2021-02-07T10:38:13.000Z</time>
      </trkpt>
      <trkpt lat="47.25748" lon="-2.24299">
        <ele>49</ele>
        <time>2021-02-07T10:38:14.000Z</time>
      </trkpt>
      <trkpt lat="47.25747" lon="-2.24362">
        <ele>49</ele>
        <time>2021-02-07T10:38:21.000Z</time>
      </trkpt>
      <trkpt lat="47.25748" lon="-2.24415">
        <ele>49</ele>
        <time>2021-02-07T10:38:27.000Z</time>
      </trkpt>
      <trkpt lat="47.2575" lon="-2.2444">
        <ele>49.599998474121</ele>
        <time>2021-02-07T10:38:30.000Z</time>
      </trkpt>
      <trkpt lat="47.2575" lon="-2.24448">
        <ele>50</ele>
        <time>2021-02-07T10:38:31.000Z</time>
      </trkpt>
      <trkpt lat="47.2575" lon="-2.24456">
        <ele>50.400001525879</ele>
        <time>2021-02-07T10:38:32.000Z</time>
      </trkpt>
      <trkpt lat="47.25751" lon="-2.24464">
        <ele>50.799999237061</ele>
        <time>2021-02-07T10:38:33.000Z</time>
      </trkpt>
      <trkpt lat="47.25751" lon="-2.24471">
        <ele>51.200000762939</ele>
        <time>2021-02-07T10:38:34.000Z</time>
      </trkpt>
      <trkpt lat="47.25753" lon="-2.24478">
        <ele>51.200000762939</ele>
        <time>2021-02-07T10:38:35.000Z</time>
      </trkpt>
      <trkpt lat="47.2576" lon="-2.24486">
        <ele>51.200000762939</ele>
        <time>2021-02-07T10:38:37.000Z</time>
      </trkpt>
      <trkpt lat="47.25768" lon="-2.24492">
        <ele>51.200000762939</ele>
        <time>2021-02-07T10:38:39.000Z</time>
      </trkpt>
      <trkpt lat="47.25773" lon="-2.245">
        <ele>51.200000762939</ele>
        <time>2021-02-07T10:38:41.000Z</time>
      </trkpt>
      <trkpt lat="47.2578" lon="-2.24529">
        <ele>51.200000762939</ele>
        <time>2021-02-07T10:38:46.000Z</time>
      </trkpt>
      <trkpt lat="47.25781" lon="-2.24535">
        <ele>51.200000762939</ele>
        <time>2021-02-07T10:38:47.000Z</time>
      </trkpt>
      <trkpt lat="47.25785" lon="-2.2457">
        <ele>51.599998474121</ele>
        <time>2021-02-07T10:38:52.000Z</time>
      </trkpt>
      <trkpt lat="47.25787" lon="-2.24577">
        <ele>52</ele>
        <time>2021-02-07T10:38:53.000Z</time>
      </trkpt>
      <trkpt lat="47.25788" lon="-2.24584">
        <ele>52.599998474121</ele>
        <time>2021-02-07T10:38:54.000Z</time>
      </trkpt>
      <trkpt lat="47.25789" lon="-2.24591">
        <ele>53</ele>
        <time>2021-02-07T10:38:55.000Z</time>
      </trkpt>
      <trkpt lat="47.2579" lon="-2.24597">
        <ele>53.400001525879</ele>
        <time>2021-02-07T10:38:56.000Z</time>
      </trkpt>
      <trkpt lat="47.25794" lon="-2.24632">
        <ele>53.400001525879</ele>
        <time>2021-02-07T10:39:01.000Z</time>
      </trkpt>
      <trkpt lat="47.25797" lon="-2.24661">
        <ele>53.799999237061</ele>
        <time>2021-02-07T10:39:05.000Z</time>
      </trkpt>
      <trkpt lat="47.25797" lon="-2.24667">
        <ele>54.200000762939</ele>
        <time>2021-02-07T10:39:06.000Z</time>
      </trkpt>
      <trkpt lat="47.25798" lon="-2.24674">
        <ele>54.599998474121</ele>
        <time>2021-02-07T10:39:07.000Z</time>
      </trkpt>
      <trkpt lat="47.25799" lon="-2.24681">
        <ele>55.200000762939</ele>
        <time>2021-02-07T10:39:08.000Z</time>
      </trkpt>
      <trkpt lat="47.25799" lon="-2.24688">
        <ele>55.599998474121</ele>
        <time>2021-02-07T10:39:09.000Z</time>
      </trkpt>
      <trkpt lat="47.25797" lon="-2.24709">
        <ele>55.599998474121</ele>
        <time>2021-02-07T10:39:12.000Z</time>
      </trkpt>
      <trkpt lat="47.25796" lon="-2.24729">
        <ele>55.599998474121</ele>
        <time>2021-02-07T10:39:15.000Z</time>
      </trkpt>
      <trkpt lat="47.25795" lon="-2.24747">
        <ele>55.599998474121</ele>
        <time>2021-02-07T10:39:18.000Z</time>
      </trkpt>
      <trkpt lat="47.25791" lon="-2.24781">
        <ele>55.599998474121</ele>
        <time>2021-02-07T10:39:24.000Z</time>
      </trkpt>
      <trkpt lat="47.2579" lon="-2.24802">
        <ele>55.599998474121</ele>
        <time>2021-02-07T10:39:29.000Z</time>
      </trkpt>
      <trkpt lat="47.25782" lon="-2.24829">
        <ele>55.599998474121</ele>
        <time>2021-02-07T10:39:35.000Z</time>
      </trkpt>
      <trkpt lat="47.25776" lon="-2.24852">
        <ele>55.599998474121</ele>
        <time>2021-02-07T10:39:40.000Z</time>
      </trkpt>
      <trkpt lat="47.25769" lon="-2.24877">
        <ele>55.599998474121</ele>
        <time>2021-02-07T10:39:46.000Z</time>
      </trkpt>
      <trkpt lat="47.25759" lon="-2.24899">
        <ele>55.599998474121</ele>
        <time>2021-02-07T10:39:52.000Z</time>
      </trkpt>
      <trkpt lat="47.25751" lon="-2.24908">
        <ele>55.599998474121</ele>
        <time>2021-02-07T10:39:57.000Z</time>
      </trkpt>
      <trkpt lat="47.25739" lon="-2.24906">
        <ele>55.599998474121</ele>
        <time>2021-02-07T10:40:02.000Z</time>
      </trkpt>
      <trkpt lat="47.25736" lon="-2.24905">
        <ele>55.599998474121</ele>
        <time>2021-02-07T10:40:03.000Z</time>
      </trkpt>
      <trkpt lat="47.25717" lon="-2.24899">
        <ele>55.599998474121</ele>
        <time>2021-02-07T10:40:08.000Z</time>
      </trkpt>
      <trkpt lat="47.25713" lon="-2.249">
        <ele>55.599998474121</ele>
        <time>2021-02-07T10:40:09.000Z</time>
      </trkpt>
      <trkpt lat="47.2571" lon="-2.24907">
        <ele>55.599998474121</ele>
        <time>2021-02-07T10:40:11.000Z</time>
      </trkpt>
      <trkpt lat="47.25706" lon="-2.24934">
        <ele>55.599998474121</ele>
        <time>2021-02-07T10:40:16.000Z</time>
      </trkpt>
      <trkpt lat="47.25698" lon="-2.24983">
        <ele>55.599998474121</ele>
        <time>2021-02-07T10:40:24.000Z</time>
      </trkpt>
      <trkpt lat="47.25688" lon="-2.25035">
        <ele>55.599998474121</ele>
        <time>2021-02-07T10:40:32.000Z</time>
      </trkpt>
      <trkpt lat="47.25682" lon="-2.25064">
        <ele>56</ele>
        <time>2021-02-07T10:40:36.000Z</time>
      </trkpt>
      <trkpt lat="47.25681" lon="-2.25071">
        <ele>56.400001525879</ele>
        <time>2021-02-07T10:40:37.000Z</time>
      </trkpt>
      <trkpt lat="47.2568" lon="-2.25078">
        <ele>56.799999237061</ele>
        <time>2021-02-07T10:40:38.000Z</time>
      </trkpt>
      <trkpt lat="47.25679" lon="-2.25085">
        <ele>57.200000762939</ele>
        <time>2021-02-07T10:40:39.000Z</time>
      </trkpt>
      <trkpt lat="47.25678" lon="-2.25092">
        <ele>57.599998474121</ele>
        <time>2021-02-07T10:40:40.000Z</time>
      </trkpt>
      <trkpt lat="47.25676" lon="-2.25107">
        <ele>57.599998474121</ele>
        <time>2021-02-07T10:40:42.000Z</time>
      </trkpt>
      <trkpt lat="47.25673" lon="-2.25127">
        <ele>57.599998474121</ele>
        <time>2021-02-07T10:40:45.000Z</time>
      </trkpt>
      <trkpt lat="47.25667" lon="-2.25152">
        <ele>57.599998474121</ele>
        <time>2021-02-07T10:40:50.000Z</time>
      </trkpt>
      <trkpt lat="47.25664" lon="-2.25162">
        <ele>57.599998474121</ele>
        <time>2021-02-07T10:40:53.000Z</time>
      </trkpt>
      <trkpt lat="47.2566" lon="-2.25164">
        <ele>57.599998474121</ele>
        <time>2021-02-07T10:40:55.000Z</time>
      </trkpt>
      <trkpt lat="47.25652" lon="-2.25156">
        <ele>57.599998474121</ele>
        <time>2021-02-07T10:40:59.000Z</time>
      </trkpt>
      <trkpt lat="47.2564" lon="-2.25151">
        <ele>57.599998474121</ele>
        <time>2021-02-07T10:41:02.000Z</time>
      </trkpt>
      <trkpt lat="47.25636" lon="-2.2515">
        <ele>57.599998474121</ele>
        <time>2021-02-07T10:41:03.000Z</time>
      </trkpt>
      <trkpt lat="47.25606" lon="-2.25139">
        <ele>57.599998474121</ele>
        <time>2021-02-07T10:41:08.000Z</time>
      </trkpt>
      <trkpt lat="47.25599" lon="-2.25136">
        <ele>57.200000762939</ele>
        <time>2021-02-07T10:41:09.000Z</time>
      </trkpt>
      <trkpt lat="47.25591" lon="-2.25134">
        <ele>56.599998474121</ele>
        <time>2021-02-07T10:41:10.000Z</time>
      </trkpt>
      <trkpt lat="47.25584" lon="-2.25133">
        <ele>56.200000762939</ele>
        <time>2021-02-07T10:41:11.000Z</time>
      </trkpt>
      <trkpt lat="47.25577" lon="-2.25135">
        <ele>55.599998474121</ele>
        <time>2021-02-07T10:41:12.000Z</time>
      </trkpt>
      <trkpt lat="47.25571" lon="-2.25139">
        <ele>55.200000762939</ele>
        <time>2021-02-07T10:41:13.000Z</time>
      </trkpt>
      <trkpt lat="47.25568" lon="-2.25145">
        <ele>54.599998474121</ele>
        <time>2021-02-07T10:41:14.000Z</time>
      </trkpt>
      <trkpt lat="47.25566" lon="-2.25152">
        <ele>54.200000762939</ele>
        <time>2021-02-07T10:41:15.000Z</time>
      </trkpt>
      <trkpt lat="47.25565" lon="-2.2516">
        <ele>53.599998474121</ele>
        <time>2021-02-07T10:41:16.000Z</time>
      </trkpt>
      <trkpt lat="47.25564" lon="-2.25167">
        <ele>53.200000762939</ele>
        <time>2021-02-07T10:41:17.000Z</time>
      </trkpt>
      <trkpt lat="47.25564" lon="-2.25174">
        <ele>52.799999237061</ele>
        <time>2021-02-07T10:41:18.000Z</time>
      </trkpt>
      <trkpt lat="47.25563" lon="-2.2518">
        <ele>52.400001525879</ele>
        <time>2021-02-07T10:41:19.000Z</time>
      </trkpt>
      <trkpt lat="47.25563" lon="-2.25185">
        <ele>52</ele>
        <time>2021-02-07T10:41:20.000Z</time>
      </trkpt>
      <trkpt lat="47.25561" lon="-2.25188">
        <ele>51.599998474121</ele>
        <time>2021-02-07T10:41:21.000Z</time>
      </trkpt>
      <trkpt lat="47.25558" lon="-2.25189">
        <ele>51.200000762939</ele>
        <time>2021-02-07T10:41:22.000Z</time>
      </trkpt>
      <trkpt lat="47.25554" lon="-2.2519">
        <ele>51.200000762939</ele>
        <time>2021-02-07T10:41:23.000Z</time>
      </trkpt>
      <trkpt lat="47.25549" lon="-2.25194">
        <ele>51.200000762939</ele>
        <time>2021-02-07T10:41:25.000Z</time>
      </trkpt>
      <trkpt lat="47.25549" lon="-2.25198">
        <ele>51.200000762939</ele>
        <time>2021-02-07T10:41:26.000Z</time>
      </trkpt>
      <trkpt lat="47.2555" lon="-2.25208">
        <ele>50.799999237061</ele>
        <time>2021-02-07T10:41:28.000Z</time>
      </trkpt>
      <trkpt lat="47.25551" lon="-2.25212">
        <ele>50.400001525879</ele>
        <time>2021-02-07T10:41:29.000Z</time>
      </trkpt>
      <trkpt lat="47.25552" lon="-2.25218">
        <ele>50</ele>
        <time>2021-02-07T10:41:30.000Z</time>
      </trkpt>
      <trkpt lat="47.25553" lon="-2.25223">
        <ele>49.599998474121</ele>
        <time>2021-02-07T10:41:31.000Z</time>
      </trkpt>
      <trkpt lat="47.25553" lon="-2.25229">
        <ele>49.200000762939</ele>
        <time>2021-02-07T10:41:32.000Z</time>
      </trkpt>
      <trkpt lat="47.25554" lon="-2.25251">
        <ele>49.200000762939</ele>
        <time>2021-02-07T10:41:36.000Z</time>
      </trkpt>
      <trkpt lat="47.25554" lon="-2.25257">
        <ele>49.200000762939</ele>
        <time>2021-02-07T10:41:37.000Z</time>
      </trkpt>
      <trkpt lat="47.25547" lon="-2.25294">
        <ele>49.200000762939</ele>
        <time>2021-02-07T10:41:43.000Z</time>
      </trkpt>
      <trkpt lat="47.25547" lon="-2.25304">
        <ele>48.799999237061</ele>
        <time>2021-02-07T10:41:45.000Z</time>
      </trkpt>
      <trkpt lat="47.25546" lon="-2.2531">
        <ele>48.400001525879</ele>
        <time>2021-02-07T10:41:46.000Z</time>
      </trkpt>
      <trkpt lat="47.25545" lon="-2.25314">
        <ele>48</ele>
        <time>2021-02-07T10:41:47.000Z</time>
      </trkpt>
      <trkpt lat="47.25545" lon="-2.25319">
        <ele>47.599998474121</ele>
        <time>2021-02-07T10:41:48.000Z</time>
      </trkpt>
      <trkpt lat="47.25544" lon="-2.25324">
        <ele>47.200000762939</ele>
        <time>2021-02-07T10:41:49.000Z</time>
      </trkpt>
      <trkpt lat="47.25531" lon="-2.25361">
        <ele>47.200000762939</ele>
        <time>2021-02-07T10:41:57.000Z</time>
      </trkpt>
      <trkpt lat="47.25527" lon="-2.25385">
        <ele>47.200000762939</ele>
        <time>2021-02-07T10:42:02.000Z</time>
      </trkpt>
      <trkpt lat="47.25525" lon="-2.25387">
        <ele>47.200000762939</ele>
        <time>2021-02-07T10:42:03.000Z</time>
      </trkpt>
      <trkpt lat="47.25505" lon="-2.25391">
        <ele>47.200000762939</ele>
        <time>2021-02-07T10:42:08.000Z</time>
      </trkpt>
      <trkpt lat="47.25488" lon="-2.25387">
        <ele>46.599998474121</ele>
        <time>2021-02-07T10:42:11.000Z</time>
      </trkpt>
      <trkpt lat="47.25482" lon="-2.25385">
        <ele>46.200000762939</ele>
        <time>2021-02-07T10:42:12.000Z</time>
      </trkpt>
      <trkpt lat="47.25477" lon="-2.25383">
        <ele>45.799999237061</ele>
        <time>2021-02-07T10:42:13.000Z</time>
      </trkpt>
      <trkpt lat="47.25471" lon="-2.25381">
        <ele>45.200000762939</ele>
        <time>2021-02-07T10:42:14.000Z</time>
      </trkpt>
      <trkpt lat="47.25466" lon="-2.25379">
        <ele>44.599998474121</ele>
        <time>2021-02-07T10:42:15.000Z</time>
      </trkpt>
      <trkpt lat="47.2546" lon="-2.25378">
        <ele>44</ele>
        <time>2021-02-07T10:42:16.000Z</time>
      </trkpt>
      <trkpt lat="47.25454" lon="-2.25377">
        <ele>43.400001525879</ele>
        <time>2021-02-07T10:42:17.000Z</time>
      </trkpt>
      <trkpt lat="47.25449" lon="-2.25376">
        <ele>42.799999237061</ele>
        <time>2021-02-07T10:42:18.000Z</time>
      </trkpt>
      <trkpt lat="47.25442" lon="-2.25376">
        <ele>42.200000762939</ele>
        <time>2021-02-07T10:42:19.000Z</time>
      </trkpt>
      <trkpt lat="47.25435" lon="-2.25376">
        <ele>41.400001525879</ele>
        <time>2021-02-07T10:42:20.000Z</time>
      </trkpt>
      <trkpt lat="47.25427" lon="-2.25376">
        <ele>40.799999237061</ele>
        <time>2021-02-07T10:42:21.000Z</time>
      </trkpt>
      <trkpt lat="47.25418" lon="-2.25377">
        <ele>40</ele>
        <time>2021-02-07T10:42:22.000Z</time>
      </trkpt>
      <trkpt lat="47.2541" lon="-2.25378">
        <ele>39.400001525879</ele>
        <time>2021-02-07T10:42:23.000Z</time>
      </trkpt>
      <trkpt lat="47.25403" lon="-2.25379">
        <ele>38.799999237061</ele>
        <time>2021-02-07T10:42:24.000Z</time>
      </trkpt>
      <trkpt lat="47.25397" lon="-2.25379">
        <ele>38.200000762939</ele>
        <time>2021-02-07T10:42:25.000Z</time>
      </trkpt>
      <trkpt lat="47.2539" lon="-2.2538">
        <ele>37.599998474121</ele>
        <time>2021-02-07T10:42:26.000Z</time>
      </trkpt>
      <trkpt lat="47.25383" lon="-2.25381">
        <ele>37</ele>
        <time>2021-02-07T10:42:27.000Z</time>
      </trkpt>
      <trkpt lat="47.25376" lon="-2.25382">
        <ele>36.599998474121</ele>
        <time>2021-02-07T10:42:28.000Z</time>
      </trkpt>
      <trkpt lat="47.25369" lon="-2.25382">
        <ele>36</ele>
        <time>2021-02-07T10:42:29.000Z</time>
      </trkpt>
      <trkpt lat="47.25364" lon="-2.25383">
        <ele>35.400001525879</ele>
        <time>2021-02-07T10:42:30.000Z</time>
      </trkpt>
      <trkpt lat="47.25359" lon="-2.25386">
        <ele>34.200000762939</ele>
        <time>2021-02-07T10:42:31.000Z</time>
      </trkpt>
      <trkpt lat="47.25355" lon="-2.25391">
        <ele>33.799999237061</ele>
        <time>2021-02-07T10:42:32.000Z</time>
      </trkpt>
      <trkpt lat="47.25352" lon="-2.25397">
        <ele>33.200000762939</ele>
        <time>2021-02-07T10:42:33.000Z</time>
      </trkpt>
      <trkpt lat="47.25349" lon="-2.25403">
        <ele>32.599998474121</ele>
        <time>2021-02-07T10:42:34.000Z</time>
      </trkpt>
      <trkpt lat="47.25347" lon="-2.25411">
        <ele>32</ele>
        <time>2021-02-07T10:42:35.000Z</time>
      </trkpt>
      <trkpt lat="47.25345" lon="-2.25418">
        <ele>32</ele>
        <time>2021-02-07T10:42:36.000Z</time>
      </trkpt>
      <trkpt lat="47.25343" lon="-2.25434">
        <ele>32</ele>
        <time>2021-02-07T10:42:39.000Z</time>
      </trkpt>
      <trkpt lat="47.25343" lon="-2.25438">
        <ele>32</ele>
        <time>2021-02-07T10:42:40.000Z</time>
      </trkpt>
      <trkpt lat="47.25346" lon="-2.25456">
        <ele>32</ele>
        <time>2021-02-07T10:42:44.000Z</time>
      </trkpt>
      <trkpt lat="47.25349" lon="-2.25459">
        <ele>32</ele>
        <time>2021-02-07T10:42:45.000Z</time>
      </trkpt>
      <trkpt lat="47.25356" lon="-2.25465">
        <ele>32</ele>
        <time>2021-02-07T10:42:47.000Z</time>
      </trkpt>
      <trkpt lat="47.25374" lon="-2.25483">
        <ele>32</ele>
        <time>2021-02-07T10:42:52.000Z</time>
      </trkpt>
      <trkpt lat="47.25388" lon="-2.25495">
        <ele>32</ele>
        <time>2021-02-07T10:42:57.000Z</time>
      </trkpt>
      <trkpt lat="47.25394" lon="-2.25497">
        <ele>32.400001525879</ele>
        <time>2021-02-07T10:43:00.000Z</time>
      </trkpt>
      <trkpt lat="47.25396" lon="-2.25497">
        <ele>32.799999237061</ele>
        <time>2021-02-07T10:43:01.000Z</time>
      </trkpt>
      <trkpt lat="47.25397" lon="-2.25498">
        <ele>33.400001525879</ele>
        <time>2021-02-07T10:43:02.000Z</time>
      </trkpt>
      <trkpt lat="47.25399" lon="-2.25498">
        <ele>33.799999237061</ele>
        <time>2021-02-07T10:43:03.000Z</time>
      </trkpt>
      <trkpt lat="47.25401" lon="-2.255">
        <ele>34.200000762939</ele>
        <time>2021-02-07T10:43:04.000Z</time>
      </trkpt>
      <trkpt lat="47.25406" lon="-2.25505">
        <ele>34.200000762939</ele>
        <time>2021-02-07T10:43:07.000Z</time>
      </trkpt>
      <trkpt lat="47.25414" lon="-2.25511">
        <ele>34.599998474121</ele>
        <time>2021-02-07T10:43:13.000Z</time>
      </trkpt>
      <trkpt lat="47.25416" lon="-2.25513">
        <ele>35</ele>
        <time>2021-02-07T10:43:14.000Z</time>
      </trkpt>
      <trkpt lat="47.25418" lon="-2.25514">
        <ele>35.400001525879</ele>
        <time>2021-02-07T10:43:15.000Z</time>
      </trkpt>
      <trkpt lat="47.25419" lon="-2.25515">
        <ele>35.799999237061</ele>
        <time>2021-02-07T10:43:16.000Z</time>
      </trkpt>
      <trkpt lat="47.2542" lon="-2.25517">
        <ele>36.200000762939</ele>
        <time>2021-02-07T10:43:17.000Z</time>
      </trkpt>
      <trkpt lat="47.25426" lon="-2.25524">
        <ele>36.200000762939</ele>
        <time>2021-02-07T10:43:21.000Z</time>
      </trkpt>
      <trkpt lat="47.25431" lon="-2.25533">
        <ele>36.599998474121</ele>
        <time>2021-02-07T10:43:24.000Z</time>
      </trkpt>
      <trkpt lat="47.25433" lon="-2.25535">
        <ele>37</ele>
        <time>2021-02-07T10:43:25.000Z</time>
      </trkpt>
      <trkpt lat="47.25435" lon="-2.25537">
        <ele>37.599998474121</ele>
        <time>2021-02-07T10:43:26.000Z</time>
      </trkpt>
      <trkpt lat="47.25438" lon="-2.2554">
        <ele>38</ele>
        <time>2021-02-07T10:43:27.000Z</time>
      </trkpt>
      <trkpt lat="47.25441" lon="-2.25543">
        <ele>38.400001525879</ele>
        <time>2021-02-07T10:43:28.000Z</time>
      </trkpt>
      <trkpt lat="47.25448" lon="-2.25551">
        <ele>38.799999237061</ele>
        <time>2021-02-07T10:43:30.000Z</time>
      </trkpt>
      <trkpt lat="47.2545" lon="-2.25555">
        <ele>39.400001525879</ele>
        <time>2021-02-07T10:43:31.000Z</time>
      </trkpt>
      <trkpt lat="47.25452" lon="-2.25559">
        <ele>39.799999237061</ele>
        <time>2021-02-07T10:43:32.000Z</time>
      </trkpt>
      <trkpt lat="47.25454" lon="-2.25563">
        <ele>40.200000762939</ele>
        <time>2021-02-07T10:43:33.000Z</time>
      </trkpt>
      <trkpt lat="47.25456" lon="-2.25567">
        <ele>40.799999237061</ele>
        <time>2021-02-07T10:43:34.000Z</time>
      </trkpt>
      <trkpt lat="47.25459" lon="-2.2558">
        <ele>41.200000762939</ele>
        <time>2021-02-07T10:43:37.000Z</time>
      </trkpt>
      <trkpt lat="47.2546" lon="-2.25586">
        <ele>41.599998474121</ele>
        <time>2021-02-07T10:43:38.000Z</time>
      </trkpt>
      <trkpt lat="47.25462" lon="-2.25593">
        <ele>42</ele>
        <time>2021-02-07T10:43:39.000Z</time>
      </trkpt>
      <trkpt lat="47.25463" lon="-2.256">
        <ele>42.400001525879</ele>
        <time>2021-02-07T10:43:40.000Z</time>
      </trkpt>
      <trkpt lat="47.25463" lon="-2.25606">
        <ele>42.799999237061</ele>
        <time>2021-02-07T10:43:41.000Z</time>
      </trkpt>
      <trkpt lat="47.25465" lon="-2.25622">
        <ele>42.799999237061</ele>
        <time>2021-02-07T10:43:44.000Z</time>
      </trkpt>
      <trkpt lat="47.25472" lon="-2.25638">
        <ele>42.799999237061</ele>
        <time>2021-02-07T10:43:49.000Z</time>
      </trkpt>
      <trkpt lat="47.25475" lon="-2.25641">
        <ele>42.799999237061</ele>
        <time>2021-02-07T10:43:52.000Z</time>
      </trkpt>
      <trkpt lat="47.25478" lon="-2.25643">
        <ele>42.799999237061</ele>
        <time>2021-02-07T10:43:54.000Z</time>
      </trkpt>
      <trkpt lat="47.25475" lon="-2.25654">
        <ele>42.799999237061</ele>
        <time>2021-02-07T10:43:59.000Z</time>
      </trkpt>
      <trkpt lat="47.25473" lon="-2.25657">
        <ele>42.799999237061</ele>
        <time>2021-02-07T10:44:00.000Z</time>
      </trkpt>
      <trkpt lat="47.25466" lon="-2.25664">
        <ele>42.799999237061</ele>
        <time>2021-02-07T10:44:05.000Z</time>
      </trkpt>
      <trkpt lat="47.25461" lon="-2.25677">
        <ele>42.799999237061</ele>
        <time>2021-02-07T10:44:11.000Z</time>
      </trkpt>
      <trkpt lat="47.25455" lon="-2.25688">
        <ele>42.400001525879</ele>
        <time>2021-02-07T10:44:15.000Z</time>
      </trkpt>
      <trkpt lat="47.25455" lon="-2.25691">
        <ele>42</ele>
        <time>2021-02-07T10:44:16.000Z</time>
      </trkpt>
      <trkpt lat="47.25455" lon="-2.25693">
        <ele>41.599998474121</ele>
        <time>2021-02-07T10:44:17.000Z</time>
      </trkpt>
      <trkpt lat="47.25455" lon="-2.25695">
        <ele>41.200000762939</ele>
        <time>2021-02-07T10:44:18.000Z</time>
      </trkpt>
      <trkpt lat="47.25456" lon="-2.25696">
        <ele>40.599998474121</ele>
        <time>2021-02-07T10:44:19.000Z</time>
      </trkpt>
      <trkpt lat="47.25457" lon="-2.25698">
        <ele>40.599998474121</ele>
        <time>2021-02-07T10:44:20.000Z</time>
      </trkpt>
      <trkpt lat="47.25458" lon="-2.257">
        <ele>40.599998474121</ele>
        <time>2021-02-07T10:44:21.000Z</time>
      </trkpt>
      <trkpt lat="47.25463" lon="-2.25714">
        <ele>40.599998474121</ele>
        <time>2021-02-07T10:44:25.000Z</time>
      </trkpt>
      <trkpt lat="47.25466" lon="-2.25724">
        <ele>41.200000762939</ele>
        <time>2021-02-07T10:44:27.000Z</time>
      </trkpt>
      <trkpt lat="47.25466" lon="-2.25729">
        <ele>41.599998474121</ele>
        <time>2021-02-07T10:44:28.000Z</time>
      </trkpt>
      <trkpt lat="47.25467" lon="-2.25734">
        <ele>42</ele>
        <time>2021-02-07T10:44:29.000Z</time>
      </trkpt>
      <trkpt lat="47.25467" lon="-2.25738">
        <ele>42.400001525879</ele>
        <time>2021-02-07T10:44:30.000Z</time>
      </trkpt>
      <trkpt lat="47.25467" lon="-2.25742">
        <ele>42.799999237061</ele>
        <time>2021-02-07T10:44:31.000Z</time>
      </trkpt>
      <trkpt lat="47.25467" lon="-2.2575">
        <ele>43.200000762939</ele>
        <time>2021-02-07T10:44:33.000Z</time>
      </trkpt>
      <trkpt lat="47.25467" lon="-2.25754">
        <ele>44</ele>
        <time>2021-02-07T10:44:34.000Z</time>
      </trkpt>
      <trkpt lat="47.25466" lon="-2.25758">
        <ele>44.400001525879</ele>
        <time>2021-02-07T10:44:35.000Z</time>
      </trkpt>
      <trkpt lat="47.25465" lon="-2.25762">
        <ele>44.799999237061</ele>
        <time>2021-02-07T10:44:36.000Z</time>
      </trkpt>
      <trkpt lat="47.25465" lon="-2.25767">
        <ele>44.799999237061</ele>
        <time>2021-02-07T10:44:37.000Z</time>
      </trkpt>
      <trkpt lat="47.25462" lon="-2.25783">
        <ele>45.200000762939</ele>
        <time>2021-02-07T10:44:41.000Z</time>
      </trkpt>
      <trkpt lat="47.25462" lon="-2.25786">
        <ele>45.599998474121</ele>
        <time>2021-02-07T10:44:42.000Z</time>
      </trkpt>
      <trkpt lat="47.25463" lon="-2.2579">
        <ele>46.200000762939</ele>
        <time>2021-02-07T10:44:43.000Z</time>
      </trkpt>
      <trkpt lat="47.25464" lon="-2.25792">
        <ele>46.599998474121</ele>
        <time>2021-02-07T10:44:44.000Z</time>
      </trkpt>
      <trkpt lat="47.25465" lon="-2.25796">
        <ele>47</ele>
        <time>2021-02-07T10:44:45.000Z</time>
      </trkpt>
      <trkpt lat="47.25467" lon="-2.25802">
        <ele>47</ele>
        <time>2021-02-07T10:44:47.000Z</time>
      </trkpt>
      <trkpt lat="47.25462" lon="-2.25804">
        <ele>47</ele>
        <time>2021-02-07T10:44:51.000Z</time>
      </trkpt>
      <trkpt lat="47.25455" lon="-2.25809">
        <ele>47</ele>
        <time>2021-02-07T10:44:56.000Z</time>
      </trkpt>
      <trkpt lat="47.25451" lon="-2.25827">
        <ele>47</ele>
        <time>2021-02-07T10:45:02.000Z</time>
      </trkpt>
      <trkpt lat="47.25451" lon="-2.25831">
        <ele>47</ele>
        <time>2021-02-07T10:45:03.000Z</time>
      </trkpt>
      <trkpt lat="47.2545" lon="-2.25834">
        <ele>46.599998474121</ele>
        <time>2021-02-07T10:45:04.000Z</time>
      </trkpt>
      <trkpt lat="47.25448" lon="-2.25841">
        <ele>46.200000762939</ele>
        <time>2021-02-07T10:45:05.000Z</time>
      </trkpt>
      <trkpt lat="47.25446" lon="-2.25845">
        <ele>45.799999237061</ele>
        <time>2021-02-07T10:45:06.000Z</time>
      </trkpt>
      <trkpt lat="47.25444" lon="-2.25852">
        <ele>45.400001525879</ele>
        <time>2021-02-07T10:45:07.000Z</time>
      </trkpt>
      <trkpt lat="47.25443" lon="-2.25858">
        <ele>45</ele>
        <time>2021-02-07T10:45:08.000Z</time>
      </trkpt>
      <trkpt lat="47.25441" lon="-2.25866">
        <ele>45</ele>
        <time>2021-02-07T10:45:09.000Z</time>
      </trkpt>
      <trkpt lat="47.25435" lon="-2.25881">
        <ele>44.599998474121</ele>
        <time>2021-02-07T10:45:13.000Z</time>
      </trkpt>
      <trkpt lat="47.25434" lon="-2.25886">
        <ele>44.200000762939</ele>
        <time>2021-02-07T10:45:14.000Z</time>
      </trkpt>
      <trkpt lat="47.25433" lon="-2.25891">
        <ele>43.599998474121</ele>
        <time>2021-02-07T10:45:15.000Z</time>
      </trkpt>
      <trkpt lat="47.25433" lon="-2.25895">
        <ele>43.200000762939</ele>
        <time>2021-02-07T10:45:16.000Z</time>
      </trkpt>
      <trkpt lat="47.25433" lon="-2.25899">
        <ele>42.799999237061</ele>
        <time>2021-02-07T10:45:17.000Z</time>
      </trkpt>
      <trkpt lat="47.25432" lon="-2.25912">
        <ele>42.799999237061</ele>
        <time>2021-02-07T10:45:20.000Z</time>
      </trkpt>
      <trkpt lat="47.25427" lon="-2.25936">
        <ele>42.799999237061</ele>
        <time>2021-02-07T10:45:25.000Z</time>
      </trkpt>
      <trkpt lat="47.25413" lon="-2.25956">
        <ele>42.799999237061</ele>
        <time>2021-02-07T10:45:29.000Z</time>
      </trkpt>
      <trkpt lat="47.25406" lon="-2.25971">
        <ele>42.799999237061</ele>
        <time>2021-02-07T10:45:32.000Z</time>
      </trkpt>
      <trkpt lat="47.25403" lon="-2.25981">
        <ele>42.799999237061</ele>
        <time>2021-02-07T10:45:34.000Z</time>
      </trkpt>
      <trkpt lat="47.25399" lon="-2.25987">
        <ele>42.799999237061</ele>
        <time>2021-02-07T10:45:36.000Z</time>
      </trkpt>
      <trkpt lat="47.25393" lon="-2.25991">
        <ele>42.799999237061</ele>
        <time>2021-02-07T10:45:38.000Z</time>
      </trkpt>
      <trkpt lat="47.25389" lon="-2.25998">
        <ele>42.799999237061</ele>
        <time>2021-02-07T10:45:41.000Z</time>
      </trkpt>
      <trkpt lat="47.2539" lon="-2.26004">
        <ele>43.400001525879</ele>
        <time>2021-02-07T10:45:43.000Z</time>
      </trkpt>
      <trkpt lat="47.25391" lon="-2.26009">
        <ele>43.799999237061</ele>
        <time>2021-02-07T10:45:44.000Z</time>
      </trkpt>
      <trkpt lat="47.25391" lon="-2.26013">
        <ele>44.200000762939</ele>
        <time>2021-02-07T10:45:45.000Z</time>
      </trkpt>
      <trkpt lat="47.2539" lon="-2.26016">
        <ele>44.599998474121</ele>
        <time>2021-02-07T10:45:46.000Z</time>
      </trkpt>
      <trkpt lat="47.2539" lon="-2.26018">
        <ele>45</ele>
        <time>2021-02-07T10:45:47.000Z</time>
      </trkpt>
      <trkpt lat="47.25389" lon="-2.26021">
        <ele>46</ele>
        <time>2021-02-07T10:45:48.000Z</time>
      </trkpt>
      <trkpt lat="47.25387" lon="-2.26024">
        <ele>46.400001525879</ele>
        <time>2021-02-07T10:45:49.000Z</time>
      </trkpt>
      <trkpt lat="47.25386" lon="-2.26025">
        <ele>47</ele>
        <time>2021-02-07T10:45:50.000Z</time>
      </trkpt>
      <trkpt lat="47.25384" lon="-2.26025">
        <ele>47.400001525879</ele>
        <time>2021-02-07T10:45:51.000Z</time>
      </trkpt>
      <trkpt lat="47.25382" lon="-2.26025">
        <ele>47.799999237061</ele>
        <time>2021-02-07T10:45:52.000Z</time>
      </trkpt>
      <trkpt lat="47.25381" lon="-2.26023">
        <ele>48.200000762939</ele>
        <time>2021-02-07T10:45:53.000Z</time>
      </trkpt>
      <trkpt lat="47.25379" lon="-2.26022">
        <ele>48.599998474121</ele>
        <time>2021-02-07T10:45:54.000Z</time>
      </trkpt>
      <trkpt lat="47.25377" lon="-2.26021">
        <ele>49</ele>
        <time>2021-02-07T10:45:55.000Z</time>
      </trkpt>
      <trkpt lat="47.25376" lon="-2.26021">
        <ele>49.400001525879</ele>
        <time>2021-02-07T10:45:56.000Z</time>
      </trkpt>
      <trkpt lat="47.25371" lon="-2.26019">
        <ele>49.799999237061</ele>
        <time>2021-02-07T10:45:59.000Z</time>
      </trkpt>
      <trkpt lat="47.25369" lon="-2.26019">
        <ele>50.200000762939</ele>
        <time>2021-02-07T10:46:00.000Z</time>
      </trkpt>
      <trkpt lat="47.25368" lon="-2.26018">
        <ele>50.799999237061</ele>
        <time>2021-02-07T10:46:01.000Z</time>
      </trkpt>
      <trkpt lat="47.25367" lon="-2.26018">
        <ele>51.200000762939</ele>
        <time>2021-02-07T10:46:02.000Z</time>
      </trkpt>
      <trkpt lat="47.25365" lon="-2.26017">
        <ele>51.599998474121</ele>
        <time>2021-02-07T10:46:03.000Z</time>
      </trkpt>
      <trkpt lat="47.2536" lon="-2.26015">
        <ele>51.599998474121</ele>
        <time>2021-02-07T10:46:06.000Z</time>
      </trkpt>
      <trkpt lat="47.25357" lon="-2.26014">
        <ele>51.599998474121</ele>
        <time>2021-02-07T10:46:08.000Z</time>
      </trkpt>
      <trkpt lat="47.25352" lon="-2.26012">
        <ele>52.400001525879</ele>
        <time>2021-02-07T10:46:12.000Z</time>
      </trkpt>
      <trkpt lat="47.25351" lon="-2.26012">
        <ele>52.799999237061</ele>
        <time>2021-02-07T10:46:13.000Z</time>
      </trkpt>
      <trkpt lat="47.25349" lon="-2.26012">
        <ele>53.200000762939</ele>
        <time>2021-02-07T10:46:14.000Z</time>
      </trkpt>
      <trkpt lat="47.25348" lon="-2.26013">
        <ele>53.599998474121</ele>
        <time>2021-02-07T10:46:15.000Z</time>
      </trkpt>
      <trkpt lat="47.25345" lon="-2.26015">
        <ele>53.599998474121</ele>
        <time>2021-02-07T10:46:17.000Z</time>
      </trkpt>
      <trkpt lat="47.25343" lon="-2.26018">
        <ele>53.599998474121</ele>
        <time>2021-02-07T10:46:20.000Z</time>
      </trkpt>
      <trkpt lat="47.25339" lon="-2.2602">
        <ele>53.599998474121</ele>
        <time>2021-02-07T10:46:29.000Z</time>
      </trkpt>
      <trkpt lat="47.25337" lon="-2.26021">
        <ele>53.599998474121</ele>
        <time>2021-02-07T10:46:31.000Z</time>
      </trkpt>
      <trkpt lat="47.25335" lon="-2.26029">
        <ele>53.599998474121</ele>
        <time>2021-02-07T10:46:37.000Z</time>
      </trkpt>
      <trkpt lat="47.25332" lon="-2.26025">
        <ele>53.599998474121</ele>
        <time>2021-02-07T10:46:54.000Z</time>
      </trkpt>
      <trkpt lat="47.25333" lon="-2.26019">
        <ele>53.599998474121</ele>
        <time>2021-02-07T10:46:57.000Z</time>
      </trkpt>
      <trkpt lat="47.25343" lon="-2.26014">
        <ele>53.599998474121</ele>
        <time>2021-02-07T10:47:01.000Z</time>
      </trkpt>
      <trkpt lat="47.25345" lon="-2.26013">
        <ele>53.599998474121</ele>
        <time>2021-02-07T10:47:02.000Z</time>
      </trkpt>
      <trkpt lat="47.25357" lon="-2.26015">
        <ele>53.599998474121</ele>
        <time>2021-02-07T10:47:07.000Z</time>
      </trkpt>
      <trkpt lat="47.25367" lon="-2.26018">
        <ele>53.599998474121</ele>
        <time>2021-02-07T10:47:13.000Z</time>
      </trkpt>
      <trkpt lat="47.25373" lon="-2.2602">
        <ele>53.200000762939</ele>
        <time>2021-02-07T10:47:18.000Z</time>
      </trkpt>
      <trkpt lat="47.25374" lon="-2.2602">
        <ele>52.799999237061</ele>
        <time>2021-02-07T10:47:19.000Z</time>
      </trkpt>
      <trkpt lat="47.25376" lon="-2.26021">
        <ele>52.200000762939</ele>
        <time>2021-02-07T10:47:20.000Z</time>
      </trkpt>
      <trkpt lat="47.25378" lon="-2.26023">
        <ele>51.799999237061</ele>
        <time>2021-02-07T10:47:21.000Z</time>
      </trkpt>
      <trkpt lat="47.25379" lon="-2.26024">
        <ele>51.400001525879</ele>
        <time>2021-02-07T10:47:22.000Z</time>
      </trkpt>
      <trkpt lat="47.2538" lon="-2.26026">
        <ele>51.400001525879</ele>
        <time>2021-02-07T10:47:23.000Z</time>
      </trkpt>
      <trkpt lat="47.25387" lon="-2.26033">
        <ele>51</ele>
        <time>2021-02-07T10:47:26.000Z</time>
      </trkpt>
      <trkpt lat="47.25388" lon="-2.26036">
        <ele>50.599998474121</ele>
        <time>2021-02-07T10:47:27.000Z</time>
      </trkpt>
      <trkpt lat="47.2539" lon="-2.2604">
        <ele>50.200000762939</ele>
        <time>2021-02-07T10:47:28.000Z</time>
      </trkpt>
      <trkpt lat="47.2539" lon="-2.26042">
        <ele>49.799999237061</ele>
        <time>2021-02-07T10:47:29.000Z</time>
      </trkpt>
      <trkpt lat="47.2539" lon="-2.26044">
        <ele>49.400001525879</ele>
        <time>2021-02-07T10:47:30.000Z</time>
      </trkpt>
      <trkpt lat="47.25389" lon="-2.26047">
        <ele>49.400001525879</ele>
        <time>2021-02-07T10:47:32.000Z</time>
      </trkpt>
      <trkpt lat="47.25388" lon="-2.26061">
        <ele>49.400001525879</ele>
        <time>2021-02-07T10:47:35.000Z</time>
      </trkpt>
      <trkpt lat="47.25388" lon="-2.26085">
        <ele>49.400001525879</ele>
        <time>2021-02-07T10:47:40.000Z</time>
      </trkpt>
      <trkpt lat="47.2539" lon="-2.26104">
        <ele>49.400001525879</ele>
        <time>2021-02-07T10:47:45.000Z</time>
      </trkpt>
      <trkpt lat="47.2539" lon="-2.26108">
        <ele>49.400001525879</ele>
        <time>2021-02-07T10:47:46.000Z</time>
      </trkpt>
      <trkpt lat="47.25388" lon="-2.26116">
        <ele>49.400001525879</ele>
        <time>2021-02-07T10:47:50.000Z</time>
      </trkpt>
      <trkpt lat="47.25387" lon="-2.26117">
        <ele>49.400001525879</ele>
        <time>2021-02-07T10:47:51.000Z</time>
      </trkpt>
      <trkpt lat="47.25383" lon="-2.26124">
        <ele>49.400001525879</ele>
        <time>2021-02-07T10:47:55.000Z</time>
      </trkpt>
      <trkpt lat="47.25383" lon="-2.26127">
        <ele>49.799999237061</ele>
        <time>2021-02-07T10:47:56.000Z</time>
      </trkpt>
      <trkpt lat="47.25383" lon="-2.26129">
        <ele>50.200000762939</ele>
        <time>2021-02-07T10:47:57.000Z</time>
      </trkpt>
      <trkpt lat="47.25382" lon="-2.26132">
        <ele>50.599998474121</ele>
        <time>2021-02-07T10:47:58.000Z</time>
      </trkpt>
      <trkpt lat="47.25381" lon="-2.26135">
        <ele>51</ele>
        <time>2021-02-07T10:47:59.000Z</time>
      </trkpt>
      <trkpt lat="47.2538" lon="-2.26139">
        <ele>51.400001525879</ele>
        <time>2021-02-07T10:48:00.000Z</time>
      </trkpt>
      <trkpt lat="47.25379" lon="-2.26143">
        <ele>51.400001525879</ele>
        <time>2021-02-07T10:48:01.000Z</time>
      </trkpt>
      <trkpt lat="47.25374" lon="-2.26164">
        <ele>51.799999237061</ele>
        <time>2021-02-07T10:48:07.000Z</time>
      </trkpt>
      <trkpt lat="47.25374" lon="-2.26168">
        <ele>52.200000762939</ele>
        <time>2021-02-07T10:48:08.000Z</time>
      </trkpt>
      <trkpt lat="47.25375" lon="-2.26171">
        <ele>52.599998474121</ele>
        <time>2021-02-07T10:48:09.000Z</time>
      </trkpt>
      <trkpt lat="47.25375" lon="-2.26173">
        <ele>53</ele>
        <time>2021-02-07T10:48:10.000Z</time>
      </trkpt>
      <trkpt lat="47.25376" lon="-2.26176">
        <ele>53.400001525879</ele>
        <time>2021-02-07T10:48:11.000Z</time>
      </trkpt>
      <trkpt lat="47.25379" lon="-2.26186">
        <ele>53.400001525879</ele>
        <time>2021-02-07T10:48:14.000Z</time>
      </trkpt>
      <trkpt lat="47.25381" lon="-2.26192">
        <ele>53.400001525879</ele>
        <time>2021-02-07T10:48:16.000Z</time>
      </trkpt>
      <trkpt lat="47.25385" lon="-2.26202">
        <ele>53.400001525879</ele>
        <time>2021-02-07T10:48:20.000Z</time>
      </trkpt>
      <trkpt lat="47.25394" lon="-2.26223">
        <ele>53.400001525879</ele>
        <time>2021-02-07T10:48:25.000Z</time>
      </trkpt>
      <trkpt lat="47.25399" lon="-2.26242">
        <ele>53.400001525879</ele>
        <time>2021-02-07T10:48:29.000Z</time>
      </trkpt>
      <trkpt lat="47.25396" lon="-2.2625">
        <ele>53.799999237061</ele>
        <time>2021-02-07T10:48:32.000Z</time>
      </trkpt>
      <trkpt lat="47.25395" lon="-2.26252">
        <ele>54.400001525879</ele>
        <time>2021-02-07T10:48:33.000Z</time>
      </trkpt>
      <trkpt lat="47.25394" lon="-2.26255">
        <ele>54.799999237061</ele>
        <time>2021-02-07T10:48:34.000Z</time>
      </trkpt>
      <trkpt lat="47.25393" lon="-2.26257">
        <ele>55.200000762939</ele>
        <time>2021-02-07T10:48:35.000Z</time>
      </trkpt>
      <trkpt lat="47.25392" lon="-2.26259">
        <ele>55.599998474121</ele>
        <time>2021-02-07T10:48:36.000Z</time>
      </trkpt>
      <trkpt lat="47.25391" lon="-2.2626">
        <ele>55.599998474121</ele>
        <time>2021-02-07T10:48:37.000Z</time>
      </trkpt>
      <trkpt lat="47.2539" lon="-2.26265">
        <ele>56</ele>
        <time>2021-02-07T10:48:39.000Z</time>
      </trkpt>
      <trkpt lat="47.2539" lon="-2.26268">
        <ele>56.400001525879</ele>
        <time>2021-02-07T10:48:40.000Z</time>
      </trkpt>
      <trkpt lat="47.2539" lon="-2.26271">
        <ele>57.400001525879</ele>
        <time>2021-02-07T10:48:41.000Z</time>
      </trkpt>
      <trkpt lat="47.25391" lon="-2.26275">
        <ele>57.799999237061</ele>
        <time>2021-02-07T10:48:42.000Z</time>
      </trkpt>
      <trkpt lat="47.25394" lon="-2.26289">
        <ele>57.799999237061</ele>
        <time>2021-02-07T10:48:45.000Z</time>
      </trkpt>
      <trkpt lat="47.25401" lon="-2.26309">
        <ele>57.799999237061</ele>
        <time>2021-02-07T10:48:50.000Z</time>
      </trkpt>
      <trkpt lat="47.25411" lon="-2.2633">
        <ele>57.799999237061</ele>
        <time>2021-02-07T10:48:54.000Z</time>
      </trkpt>
      <trkpt lat="47.25416" lon="-2.26348">
        <ele>57.799999237061</ele>
        <time>2021-02-07T10:48:58.000Z</time>
      </trkpt>
      <trkpt lat="47.25421" lon="-2.2636">
        <ele>57.799999237061</ele>
        <time>2021-02-07T10:49:01.000Z</time>
      </trkpt>
      <trkpt lat="47.25422" lon="-2.26367">
        <ele>57.799999237061</ele>
        <time>2021-02-07T10:49:02.000Z</time>
      </trkpt>
      <trkpt lat="47.25425" lon="-2.26375">
        <ele>57.400001525879</ele>
        <time>2021-02-07T10:49:03.000Z</time>
      </trkpt>
      <trkpt lat="47.25428" lon="-2.26382">
        <ele>56.799999237061</ele>
        <time>2021-02-07T10:49:04.000Z</time>
      </trkpt>
      <trkpt lat="47.2543" lon="-2.26389">
        <ele>55.799999237061</ele>
        <time>2021-02-07T10:49:05.000Z</time>
      </trkpt>
      <trkpt lat="47.25433" lon="-2.26396">
        <ele>55.400001525879</ele>
        <time>2021-02-07T10:49:06.000Z</time>
      </trkpt>
      <trkpt lat="47.25435" lon="-2.26402">
        <ele>55.400001525879</ele>
        <time>2021-02-07T10:49:07.000Z</time>
      </trkpt>
      <trkpt lat="47.25437" lon="-2.26421">
        <ele>55.400001525879</ele>
        <time>2021-02-07T10:49:11.000Z</time>
      </trkpt>
      <trkpt lat="47.25432" lon="-2.26451">
        <ele>55.400001525879</ele>
        <time>2021-02-07T10:49:16.000Z</time>
      </trkpt>
      <trkpt lat="47.25429" lon="-2.26482">
        <ele>55.400001525879</ele>
        <time>2021-02-07T10:49:22.000Z</time>
      </trkpt>
      <trkpt lat="47.25428" lon="-2.26492">
        <ele>55.799999237061</ele>
        <time>2021-02-07T10:49:26.000Z</time>
      </trkpt>
      <trkpt lat="47.25428" lon="-2.26495">
        <ele>56.400001525879</ele>
        <time>2021-02-07T10:49:27.000Z</time>
      </trkpt>
      <trkpt lat="47.25428" lon="-2.26497">
        <ele>56.799999237061</ele>
        <time>2021-02-07T10:49:28.000Z</time>
      </trkpt>
      <trkpt lat="47.25427" lon="-2.265">
        <ele>57.200000762939</ele>
        <time>2021-02-07T10:49:29.000Z</time>
      </trkpt>
      <trkpt lat="47.25427" lon="-2.26503">
        <ele>57.599998474121</ele>
        <time>2021-02-07T10:49:30.000Z</time>
      </trkpt>
      <trkpt lat="47.25428" lon="-2.26511">
        <ele>58</ele>
        <time>2021-02-07T10:49:32.000Z</time>
      </trkpt>
      <trkpt lat="47.25427" lon="-2.26516">
        <ele>58.599998474121</ele>
        <time>2021-02-07T10:49:33.000Z</time>
      </trkpt>
      <trkpt lat="47.25426" lon="-2.26521">
        <ele>59</ele>
        <time>2021-02-07T10:49:34.000Z</time>
      </trkpt>
      <trkpt lat="47.25426" lon="-2.26526">
        <ele>59.400001525879</ele>
        <time>2021-02-07T10:49:35.000Z</time>
      </trkpt>
      <trkpt lat="47.25425" lon="-2.2653">
        <ele>59.799999237061</ele>
        <time>2021-02-07T10:49:36.000Z</time>
      </trkpt>
      <trkpt lat="47.25426" lon="-2.26549">
        <ele>59.799999237061</ele>
        <time>2021-02-07T10:49:41.000Z</time>
      </trkpt>
      <trkpt lat="47.25432" lon="-2.26569">
        <ele>59.799999237061</ele>
        <time>2021-02-07T10:49:45.000Z</time>
      </trkpt>
      <trkpt lat="47.25443" lon="-2.26602">
        <ele>59.799999237061</ele>
        <time>2021-02-07T10:49:52.000Z</time>
      </trkpt>
      <trkpt lat="47.25443" lon="-2.26616">
        <ele>60.200000762939</ele>
        <time>2021-02-07T10:49:55.000Z</time>
      </trkpt>
      <trkpt lat="47.25443" lon="-2.26622">
        <ele>60.599998474121</ele>
        <time>2021-02-07T10:49:56.000Z</time>
      </trkpt>
      <trkpt lat="47.25444" lon="-2.26627">
        <ele>61</ele>
        <time>2021-02-07T10:49:57.000Z</time>
      </trkpt>
      <trkpt lat="47.25444" lon="-2.26632">
        <ele>61.599998474121</ele>
        <time>2021-02-07T10:49:58.000Z</time>
      </trkpt>
      <trkpt lat="47.25445" lon="-2.26637">
        <ele>62</ele>
        <time>2021-02-07T10:49:59.000Z</time>
      </trkpt>
      <trkpt lat="47.25448" lon="-2.26652">
        <ele>62</ele>
        <time>2021-02-07T10:50:02.000Z</time>
      </trkpt>
      <trkpt lat="47.25457" lon="-2.26673">
        <ele>62</ele>
        <time>2021-02-07T10:50:08.000Z</time>
      </trkpt>
      <trkpt lat="47.2547" lon="-2.26689">
        <ele>62</ele>
        <time>2021-02-07T10:50:12.000Z</time>
      </trkpt>
      <trkpt lat="47.25473" lon="-2.26693">
        <ele>62</ele>
        <time>2021-02-07T10:50:13.000Z</time>
      </trkpt>
      <trkpt lat="47.2548" lon="-2.26713">
        <ele>62</ele>
        <time>2021-02-07T10:50:18.000Z</time>
      </trkpt>
      <trkpt lat="47.25476" lon="-2.2672">
        <ele>62</ele>
        <time>2021-02-07T10:50:21.000Z</time>
      </trkpt>
      <trkpt lat="47.25473" lon="-2.26725">
        <ele>62</ele>
        <time>2021-02-07T10:50:23.000Z</time>
      </trkpt>
      <trkpt lat="47.25469" lon="-2.2673">
        <ele>62</ele>
        <time>2021-02-07T10:50:25.000Z</time>
      </trkpt>
      <trkpt lat="47.25462" lon="-2.26737">
        <ele>62.400001525879</ele>
        <time>2021-02-07T10:50:28.000Z</time>
      </trkpt>
      <trkpt lat="47.25459" lon="-2.2674">
        <ele>62.799999237061</ele>
        <time>2021-02-07T10:50:29.000Z</time>
      </trkpt>
      <trkpt lat="47.25457" lon="-2.26743">
        <ele>63.200000762939</ele>
        <time>2021-02-07T10:50:30.000Z</time>
      </trkpt>
      <trkpt lat="47.25455" lon="-2.26747">
        <ele>63.599998474121</ele>
        <time>2021-02-07T10:50:31.000Z</time>
      </trkpt>
      <trkpt lat="47.25453" lon="-2.2675">
        <ele>64</ele>
        <time>2021-02-07T10:50:32.000Z</time>
      </trkpt>
      <trkpt lat="47.25452" lon="-2.26751">
        <ele>64</ele>
        <time>2021-02-07T10:50:33.000Z</time>
      </trkpt>
      <trkpt lat="47.25446" lon="-2.26748">
        <ele>64</ele>
        <time>2021-02-07T10:50:36.000Z</time>
      </trkpt>
      <trkpt lat="47.2544" lon="-2.26747">
        <ele>64</ele>
        <time>2021-02-07T10:50:38.000Z</time>
      </trkpt>
      <trkpt lat="47.25432" lon="-2.26745">
        <ele>64</ele>
        <time>2021-02-07T10:50:40.000Z</time>
      </trkpt>
      <trkpt lat="47.25418" lon="-2.26741">
        <ele>64.400001525879</ele>
        <time>2021-02-07T10:50:43.000Z</time>
      </trkpt>
      <trkpt lat="47.25412" lon="-2.2674">
        <ele>64.800003051758</ele>
        <time>2021-02-07T10:50:44.000Z</time>
      </trkpt>
      <trkpt lat="47.25407" lon="-2.26739">
        <ele>65.599998474121</ele>
        <time>2021-02-07T10:50:45.000Z</time>
      </trkpt>
      <trkpt lat="47.25402" lon="-2.26738">
        <ele>66</ele>
        <time>2021-02-07T10:50:46.000Z</time>
      </trkpt>
      <trkpt lat="47.25361" lon="-2.26733">
        <ele>66</ele>
        <time>2021-02-07T10:50:54.000Z</time>
      </trkpt>
      <trkpt lat="47.25338" lon="-2.26729">
        <ele>66</ele>
        <time>2021-02-07T10:50:59.000Z</time>
      </trkpt>
      <trkpt lat="47.25333" lon="-2.26727">
        <ele>66</ele>
        <time>2021-02-07T10:51:00.000Z</time>
      </trkpt>
      <trkpt lat="47.25327" lon="-2.26725">
        <ele>66.400001525879</ele>
        <time>2021-02-07T10:51:01.000Z</time>
      </trkpt>
      <trkpt lat="47.25323" lon="-2.26724">
        <ele>66.800003051758</ele>
        <time>2021-02-07T10:51:02.000Z</time>
      </trkpt>
      <trkpt lat="47.25318" lon="-2.26722">
        <ele>67.199996948242</ele>
        <time>2021-02-07T10:51:03.000Z</time>
      </trkpt>
      <trkpt lat="47.25313" lon="-2.26722">
        <ele>67.599998474121</ele>
        <time>2021-02-07T10:51:04.000Z</time>
      </trkpt>
      <trkpt lat="47.25308" lon="-2.26722">
        <ele>68</ele>
        <time>2021-02-07T10:51:05.000Z</time>
      </trkpt>
      <trkpt lat="47.25304" lon="-2.26722">
        <ele>68</ele>
        <time>2021-02-07T10:51:06.000Z</time>
      </trkpt>
      <trkpt lat="47.2527" lon="-2.26726">
        <ele>68</ele>
        <time>2021-02-07T10:51:12.000Z</time>
      </trkpt>
      <trkpt lat="47.2525" lon="-2.26734">
        <ele>68</ele>
        <time>2021-02-07T10:51:16.000Z</time>
      </trkpt>
      <trkpt lat="47.25245" lon="-2.26737">
        <ele>68</ele>
        <time>2021-02-07T10:51:17.000Z</time>
      </trkpt>
      <trkpt lat="47.25218" lon="-2.26762">
        <ele>68</ele>
        <time>2021-02-07T10:51:24.000Z</time>
      </trkpt>
      <trkpt lat="47.25198" lon="-2.26776">
        <ele>68</ele>
        <time>2021-02-07T10:51:29.000Z</time>
      </trkpt>
      <trkpt lat="47.25181" lon="-2.26787">
        <ele>68</ele>
        <time>2021-02-07T10:51:33.000Z</time>
      </trkpt>
      <trkpt lat="47.25178" lon="-2.26792">
        <ele>68</ele>
        <time>2021-02-07T10:51:34.000Z</time>
      </trkpt>
      <trkpt lat="47.25168" lon="-2.26809">
        <ele>68</ele>
        <time>2021-02-07T10:51:37.000Z</time>
      </trkpt>
      <trkpt lat="47.25162" lon="-2.2683">
        <ele>68</ele>
        <time>2021-02-07T10:51:40.000Z</time>
      </trkpt>
      <trkpt lat="47.25151" lon="-2.26875">
        <ele>68</ele>
        <time>2021-02-07T10:51:46.000Z</time>
      </trkpt>
      <trkpt lat="47.25151" lon="-2.26884">
        <ele>68</ele>
        <time>2021-02-07T10:51:47.000Z</time>
      </trkpt>
      <trkpt lat="47.25151" lon="-2.26908">
        <ele>68</ele>
        <time>2021-02-07T10:51:50.000Z</time>
      </trkpt>
      <trkpt lat="47.25151" lon="-2.2694">
        <ele>68</ele>
        <time>2021-02-07T10:51:54.000Z</time>
      </trkpt>
      <trkpt lat="47.25159" lon="-2.26958">
        <ele>68</ele>
        <time>2021-02-07T10:51:57.000Z</time>
      </trkpt>
      <trkpt lat="47.25167" lon="-2.26974">
        <ele>68</ele>
        <time>2021-02-07T10:52:00.000Z</time>
      </trkpt>
      <trkpt lat="47.25171" lon="-2.26975">
        <ele>68</ele>
        <time>2021-02-07T10:52:01.000Z</time>
      </trkpt>
      <trkpt lat="47.25179" lon="-2.26978">
        <ele>68</ele>
        <time>2021-02-07T10:52:04.000Z</time>
      </trkpt>
      <trkpt lat="47.25182" lon="-2.26994">
        <ele>68</ele>
        <time>2021-02-07T10:52:07.000Z</time>
      </trkpt>
      <trkpt lat="47.25184" lon="-2.27009">
        <ele>68</ele>
        <time>2021-02-07T10:52:09.000Z</time>
      </trkpt>
      <trkpt lat="47.2519" lon="-2.2702">
        <ele>68</ele>
        <time>2021-02-07T10:52:11.000Z</time>
      </trkpt>
      <trkpt lat="47.25205" lon="-2.27056">
        <ele>68</ele>
        <time>2021-02-07T10:52:17.000Z</time>
      </trkpt>
      <trkpt lat="47.25209" lon="-2.27062">
        <ele>68</ele>
        <time>2021-02-07T10:52:18.000Z</time>
      </trkpt>
      <trkpt lat="47.25224" lon="-2.27092">
        <ele>68</ele>
        <time>2021-02-07T10:52:23.000Z</time>
      </trkpt>
      <trkpt lat="47.25227" lon="-2.27098">
        <ele>68</ele>
        <time>2021-02-07T10:52:24.000Z</time>
      </trkpt>
      <trkpt lat="47.25245" lon="-2.27132">
        <ele>68</ele>
        <time>2021-02-07T10:52:30.000Z</time>
      </trkpt>
      <trkpt lat="47.25252" lon="-2.27142">
        <ele>68</ele>
        <time>2021-02-07T10:52:32.000Z</time>
      </trkpt>
      <trkpt lat="47.25259" lon="-2.2715">
        <ele>68</ele>
        <time>2021-02-07T10:52:34.000Z</time>
      </trkpt>
      <trkpt lat="47.25268" lon="-2.27167">
        <ele>68</ele>
        <time>2021-02-07T10:52:37.000Z</time>
      </trkpt>
      <trkpt lat="47.25274" lon="-2.27177">
        <ele>68</ele>
        <time>2021-02-07T10:52:39.000Z</time>
      </trkpt>
      <trkpt lat="47.25286" lon="-2.27196">
        <ele>68</ele>
        <time>2021-02-07T10:52:44.000Z</time>
      </trkpt>
      <trkpt lat="47.25293" lon="-2.2721">
        <ele>68</ele>
        <time>2021-02-07T10:52:49.000Z</time>
      </trkpt>
      <trkpt lat="47.25302" lon="-2.27235">
        <ele>68</ele>
        <time>2021-02-07T10:52:54.000Z</time>
      </trkpt>
      <trkpt lat="47.25314" lon="-2.27255">
        <ele>68</ele>
        <time>2021-02-07T10:52:58.000Z</time>
      </trkpt>
      <trkpt lat="47.25317" lon="-2.27259">
        <ele>68</ele>
        <time>2021-02-07T10:52:59.000Z</time>
      </trkpt>
      <trkpt lat="47.25328" lon="-2.2727">
        <ele>68</ele>
        <time>2021-02-07T10:53:02.000Z</time>
      </trkpt>
      <trkpt lat="47.25334" lon="-2.27279">
        <ele>68</ele>
        <time>2021-02-07T10:53:04.000Z</time>
      </trkpt>
      <trkpt lat="47.25343" lon="-2.27299">
        <ele>68</ele>
        <time>2021-02-07T10:53:08.000Z</time>
      </trkpt>
      <trkpt lat="47.25345" lon="-2.27306">
        <ele>68</ele>
        <time>2021-02-07T10:53:09.000Z</time>
      </trkpt>
      <trkpt lat="47.25355" lon="-2.27329">
        <ele>68</ele>
        <time>2021-02-07T10:53:13.000Z</time>
      </trkpt>
      <trkpt lat="47.25367" lon="-2.27352">
        <ele>68</ele>
        <time>2021-02-07T10:53:18.000Z</time>
      </trkpt>
      <trkpt lat="47.25367" lon="-2.27358">
        <ele>68</ele>
        <time>2021-02-07T10:53:19.000Z</time>
      </trkpt>
      <trkpt lat="47.25377" lon="-2.27375">
        <ele>68</ele>
        <time>2021-02-07T10:53:23.000Z</time>
      </trkpt>
      <trkpt lat="47.25384" lon="-2.27374">
        <ele>68</ele>
        <time>2021-02-07T10:53:25.000Z</time>
      </trkpt>
      <trkpt lat="47.25389" lon="-2.27379">
        <ele>68</ele>
        <time>2021-02-07T10:53:27.000Z</time>
      </trkpt>
      <trkpt lat="47.25395" lon="-2.27388">
        <ele>68</ele>
        <time>2021-02-07T10:53:29.000Z</time>
      </trkpt>
      <trkpt lat="47.254" lon="-2.274">
        <ele>68</ele>
        <time>2021-02-07T10:53:31.000Z</time>
      </trkpt>
      <trkpt lat="47.25413" lon="-2.27447">
        <ele>68</ele>
        <time>2021-02-07T10:53:37.000Z</time>
      </trkpt>
      <trkpt lat="47.25421" lon="-2.27469">
        <ele>68</ele>
        <time>2021-02-07T10:53:40.000Z</time>
      </trkpt>
      <trkpt lat="47.2543" lon="-2.2749">
        <ele>68</ele>
        <time>2021-02-07T10:53:43.000Z</time>
      </trkpt>
      <trkpt lat="47.25444" lon="-2.27511">
        <ele>68</ele>
        <time>2021-02-07T10:53:47.000Z</time>
      </trkpt>
      <trkpt lat="47.25447" lon="-2.27522">
        <ele>68</ele>
        <time>2021-02-07T10:53:49.000Z</time>
      </trkpt>
      <trkpt lat="47.25451" lon="-2.27533">
        <ele>68</ele>
        <time>2021-02-07T10:53:51.000Z</time>
      </trkpt>
      <trkpt lat="47.25461" lon="-2.27561">
        <ele>68</ele>
        <time>2021-02-07T10:53:56.000Z</time>
      </trkpt>
      <trkpt lat="47.2547" lon="-2.27598">
        <ele>68</ele>
        <time>2021-02-07T10:54:02.000Z</time>
      </trkpt>
      <trkpt lat="47.25479" lon="-2.27616">
        <ele>68</ele>
        <time>2021-02-07T10:54:06.000Z</time>
      </trkpt>
      <trkpt lat="47.25488" lon="-2.27641">
        <ele>68</ele>
        <time>2021-02-07T10:54:11.000Z</time>
      </trkpt>
      <trkpt lat="47.25494" lon="-2.27678">
        <ele>68</ele>
        <time>2021-02-07T10:54:16.000Z</time>
      </trkpt>
      <trkpt lat="47.25505" lon="-2.27721">
        <ele>68</ele>
        <time>2021-02-07T10:54:22.000Z</time>
      </trkpt>
      <trkpt lat="47.25505" lon="-2.27745">
        <ele>68</ele>
        <time>2021-02-07T10:54:26.000Z</time>
      </trkpt>
      <trkpt lat="47.25503" lon="-2.2775">
        <ele>68</ele>
        <time>2021-02-07T10:54:27.000Z</time>
      </trkpt>
      <trkpt lat="47.25494" lon="-2.27762">
        <ele>68</ele>
        <time>2021-02-07T10:54:30.000Z</time>
      </trkpt>
      <trkpt lat="47.25486" lon="-2.27772">
        <ele>68</ele>
        <time>2021-02-07T10:54:32.000Z</time>
      </trkpt>
      <trkpt lat="47.25482" lon="-2.27776">
        <ele>68</ele>
        <time>2021-02-07T10:54:33.000Z</time>
      </trkpt>
      <trkpt lat="47.25475" lon="-2.27786">
        <ele>68</ele>
        <time>2021-02-07T10:54:35.000Z</time>
      </trkpt>
      <trkpt lat="47.25448" lon="-2.27814">
        <ele>68</ele>
        <time>2021-02-07T10:54:40.000Z</time>
      </trkpt>
      <trkpt lat="47.25414" lon="-2.27838">
        <ele>68</ele>
        <time>2021-02-07T10:54:45.000Z</time>
      </trkpt>
      <trkpt lat="47.25407" lon="-2.27841">
        <ele>67.599998474121</ele>
        <time>2021-02-07T10:54:46.000Z</time>
      </trkpt>
      <trkpt lat="47.254" lon="-2.27844">
        <ele>67.199996948242</ele>
        <time>2021-02-07T10:54:47.000Z</time>
      </trkpt>
      <trkpt lat="47.25394" lon="-2.27847">
        <ele>66.800003051758</ele>
        <time>2021-02-07T10:54:48.000Z</time>
      </trkpt>
      <trkpt lat="47.25386" lon="-2.27849">
        <ele>66.400001525879</ele>
        <time>2021-02-07T10:54:49.000Z</time>
      </trkpt>
      <trkpt lat="47.25379" lon="-2.27851">
        <ele>66</ele>
        <time>2021-02-07T10:54:50.000Z</time>
      </trkpt>
      <trkpt lat="47.25372" lon="-2.27853">
        <ele>66</ele>
        <time>2021-02-07T10:54:51.000Z</time>
      </trkpt>
      <trkpt lat="47.25312" lon="-2.27868">
        <ele>66</ele>
        <time>2021-02-07T10:54:59.000Z</time>
      </trkpt>
      <trkpt lat="47.2526" lon="-2.27882">
        <ele>65.599998474121</ele>
        <time>2021-02-07T10:55:06.000Z</time>
      </trkpt>
      <trkpt lat="47.25253" lon="-2.27885">
        <ele>65.199996948242</ele>
        <time>2021-02-07T10:55:07.000Z</time>
      </trkpt>
      <trkpt lat="47.25246" lon="-2.27888">
        <ele>64.599998474121</ele>
        <time>2021-02-07T10:55:08.000Z</time>
      </trkpt>
      <trkpt lat="47.25239" lon="-2.27892">
        <ele>64.199996948242</ele>
        <time>2021-02-07T10:55:09.000Z</time>
      </trkpt>
      <trkpt lat="47.25232" lon="-2.27895">
        <ele>63.799999237061</ele>
        <time>2021-02-07T10:55:10.000Z</time>
      </trkpt>
      <trkpt lat="47.25217" lon="-2.27902">
        <ele>63.799999237061</ele>
        <time>2021-02-07T10:55:12.000Z</time>
      </trkpt>
      <trkpt lat="47.25172" lon="-2.27932">
        <ele>63.799999237061</ele>
        <time>2021-02-07T10:55:18.000Z</time>
      </trkpt>
      <trkpt lat="47.25142" lon="-2.27952">
        <ele>63.400001525879</ele>
        <time>2021-02-07T10:55:22.000Z</time>
      </trkpt>
      <trkpt lat="47.25136" lon="-2.27959">
        <ele>63</ele>
        <time>2021-02-07T10:55:23.000Z</time>
      </trkpt>
      <trkpt lat="47.25129" lon="-2.27967">
        <ele>62.599998474121</ele>
        <time>2021-02-07T10:55:24.000Z</time>
      </trkpt>
      <trkpt lat="47.25124" lon="-2.27975">
        <ele>62.200000762939</ele>
        <time>2021-02-07T10:55:25.000Z</time>
      </trkpt>
      <trkpt lat="47.25118" lon="-2.27985">
        <ele>61.799999237061</ele>
        <time>2021-02-07T10:55:26.000Z</time>
      </trkpt>
      <trkpt lat="47.25113" lon="-2.27994">
        <ele>61.799999237061</ele>
        <time>2021-02-07T10:55:27.000Z</time>
      </trkpt>
      <trkpt lat="47.25092" lon="-2.28045">
        <ele>61.400001525879</ele>
        <time>2021-02-07T10:55:32.000Z</time>
      </trkpt>
      <trkpt lat="47.25088" lon="-2.28054">
        <ele>61</ele>
        <time>2021-02-07T10:55:33.000Z</time>
      </trkpt>
      <trkpt lat="47.25085" lon="-2.28063">
        <ele>60.599998474121</ele>
        <time>2021-02-07T10:55:34.000Z</time>
      </trkpt>
      <trkpt lat="47.25081" lon="-2.28071">
        <ele>60.200000762939</ele>
        <time>2021-02-07T10:55:35.000Z</time>
      </trkpt>
      <trkpt lat="47.25077" lon="-2.28079">
        <ele>59.799999237061</ele>
        <time>2021-02-07T10:55:36.000Z</time>
      </trkpt>
      <trkpt lat="47.25074" lon="-2.28087">
        <ele>59.799999237061</ele>
        <time>2021-02-07T10:55:37.000Z</time>
      </trkpt>
      <trkpt lat="47.25071" lon="-2.28096">
        <ele>59.799999237061</ele>
        <time>2021-02-07T10:55:38.000Z</time>
      </trkpt>
      <trkpt lat="47.2507" lon="-2.28104">
        <ele>59.400001525879</ele>
        <time>2021-02-07T10:55:39.000Z</time>
      </trkpt>
      <trkpt lat="47.25069" lon="-2.28113">
        <ele>59</ele>
        <time>2021-02-07T10:55:40.000Z</time>
      </trkpt>
      <trkpt lat="47.25068" lon="-2.28121">
        <ele>58.599998474121</ele>
        <time>2021-02-07T10:55:41.000Z</time>
      </trkpt>
      <trkpt lat="47.25066" lon="-2.28129">
        <ele>57.799999237061</ele>
        <time>2021-02-07T10:55:42.000Z</time>
      </trkpt>
      <trkpt lat="47.25058" lon="-2.28155">
        <ele>57.799999237061</ele>
        <time>2021-02-07T10:55:45.000Z</time>
      </trkpt>
      <trkpt lat="47.25043" lon="-2.28216">
        <ele>57.799999237061</ele>
        <time>2021-02-07T10:55:52.000Z</time>
      </trkpt>
      <trkpt lat="47.25033" lon="-2.28268">
        <ele>57.799999237061</ele>
        <time>2021-02-07T10:55:58.000Z</time>
      </trkpt>
      <trkpt lat="47.25028" lon="-2.283">
        <ele>57.799999237061</ele>
        <time>2021-02-07T10:56:03.000Z</time>
      </trkpt>
      <trkpt lat="47.25029" lon="-2.28305">
        <ele>57.799999237061</ele>
        <time>2021-02-07T10:56:05.000Z</time>
      </trkpt>
      <trkpt lat="47.2503" lon="-2.28311">
        <ele>57.799999237061</ele>
        <time>2021-02-07T10:56:07.000Z</time>
      </trkpt>
      <trkpt lat="47.25023" lon="-2.28327">
        <ele>57.200000762939</ele>
        <time>2021-02-07T10:56:11.000Z</time>
      </trkpt>
      <trkpt lat="47.25017" lon="-2.2833">
        <ele>56.799999237061</ele>
        <time>2021-02-07T10:56:12.000Z</time>
      </trkpt>
      <trkpt lat="47.25012" lon="-2.28335">
        <ele>56.400001525879</ele>
        <time>2021-02-07T10:56:13.000Z</time>
      </trkpt>
      <trkpt lat="47.25007" lon="-2.28341">
        <ele>55.799999237061</ele>
        <time>2021-02-07T10:56:14.000Z</time>
      </trkpt>
      <trkpt lat="47.25003" lon="-2.28347">
        <ele>55.400001525879</ele>
        <time>2021-02-07T10:56:15.000Z</time>
      </trkpt>
      <trkpt lat="47.24993" lon="-2.2837">
        <ele>55.400001525879</ele>
        <time>2021-02-07T10:56:18.000Z</time>
      </trkpt>
      <trkpt lat="47.24982" lon="-2.2839">
        <ele>55</ele>
        <time>2021-02-07T10:56:21.000Z</time>
      </trkpt>
      <trkpt lat="47.24978" lon="-2.28395">
        <ele>54.599998474121</ele>
        <time>2021-02-07T10:56:22.000Z</time>
      </trkpt>
      <trkpt lat="47.24973" lon="-2.28398">
        <ele>54.200000762939</ele>
        <time>2021-02-07T10:56:23.000Z</time>
      </trkpt>
      <trkpt lat="47.24967" lon="-2.28402">
        <ele>53.799999237061</ele>
        <time>2021-02-07T10:56:24.000Z</time>
      </trkpt>
      <trkpt lat="47.24962" lon="-2.28404">
        <ele>53.400001525879</ele>
        <time>2021-02-07T10:56:25.000Z</time>
      </trkpt>
      <trkpt lat="47.24955" lon="-2.28406">
        <ele>53.400001525879</ele>
        <time>2021-02-07T10:56:26.000Z</time>
      </trkpt>
      <trkpt lat="47.24937" lon="-2.28412">
        <ele>53.799999237061</ele>
        <time>2021-02-07T10:56:29.000Z</time>
      </trkpt>
      <trkpt lat="47.24932" lon="-2.28413">
        <ele>54.200000762939</ele>
        <time>2021-02-07T10:56:30.000Z</time>
      </trkpt>
      <trkpt lat="47.24926" lon="-2.28415">
        <ele>54.799999237061</ele>
        <time>2021-02-07T10:56:31.000Z</time>
      </trkpt>
      <trkpt lat="47.2492" lon="-2.28417">
        <ele>55.599998474121</ele>
        <time>2021-02-07T10:56:32.000Z</time>
      </trkpt>
      <trkpt lat="47.2491" lon="-2.28421">
        <ele>55.599998474121</ele>
        <time>2021-02-07T10:56:34.000Z</time>
      </trkpt>
      <trkpt lat="47.24892" lon="-2.28431">
        <ele>55.599998474121</ele>
        <time>2021-02-07T10:56:37.000Z</time>
      </trkpt>
      <trkpt lat="47.24886" lon="-2.28436">
        <ele>56.200000762939</ele>
        <time>2021-02-07T10:56:38.000Z</time>
      </trkpt>
      <trkpt lat="47.2488" lon="-2.28441">
        <ele>56.599998474121</ele>
        <time>2021-02-07T10:56:39.000Z</time>
      </trkpt>
      <trkpt lat="47.24874" lon="-2.28447">
        <ele>57</ele>
        <time>2021-02-07T10:56:40.000Z</time>
      </trkpt>
      <trkpt lat="47.2487" lon="-2.28454">
        <ele>57.400001525879</ele>
        <time>2021-02-07T10:56:41.000Z</time>
      </trkpt>
      <trkpt lat="47.24864" lon="-2.2846">
        <ele>58</ele>
        <time>2021-02-07T10:56:42.000Z</time>
      </trkpt>
      <trkpt lat="47.24859" lon="-2.28466">
        <ele>58.400001525879</ele>
        <time>2021-02-07T10:56:43.000Z</time>
      </trkpt>
      <trkpt lat="47.24853" lon="-2.28472">
        <ele>58.799999237061</ele>
        <time>2021-02-07T10:56:44.000Z</time>
      </trkpt>
      <trkpt lat="47.24847" lon="-2.28478">
        <ele>59.200000762939</ele>
        <time>2021-02-07T10:56:45.000Z</time>
      </trkpt>
      <trkpt lat="47.24841" lon="-2.28483">
        <ele>59.599998474121</ele>
        <time>2021-02-07T10:56:46.000Z</time>
      </trkpt>
      <trkpt lat="47.24835" lon="-2.28488">
        <ele>60</ele>
        <time>2021-02-07T10:56:47.000Z</time>
      </trkpt>
      <trkpt lat="47.24803" lon="-2.2851">
        <ele>60</ele>
        <time>2021-02-07T10:56:52.000Z</time>
      </trkpt>
      <trkpt lat="47.24791" lon="-2.28521">
        <ele>60.400001525879</ele>
        <time>2021-02-07T10:56:54.000Z</time>
      </trkpt>
      <trkpt lat="47.24785" lon="-2.28526">
        <ele>60.799999237061</ele>
        <time>2021-02-07T10:56:55.000Z</time>
      </trkpt>
      <trkpt lat="47.24779" lon="-2.28531">
        <ele>61.200000762939</ele>
        <time>2021-02-07T10:56:56.000Z</time>
      </trkpt>
      <trkpt lat="47.24774" lon="-2.28537">
        <ele>62</ele>
        <time>2021-02-07T10:56:57.000Z</time>
      </trkpt>
      <trkpt lat="47.24768" lon="-2.28544">
        <ele>62</ele>
        <time>2021-02-07T10:56:58.000Z</time>
      </trkpt>
      <trkpt lat="47.24762" lon="-2.28549">
        <ele>62</ele>
        <time>2021-02-07T10:56:59.000Z</time>
      </trkpt>
      <trkpt lat="47.24747" lon="-2.28571">
        <ele>62</ele>
        <time>2021-02-07T10:57:02.000Z</time>
      </trkpt>
      <trkpt lat="47.24739" lon="-2.28598">
        <ele>62</ele>
        <time>2021-02-07T10:57:05.000Z</time>
      </trkpt>
      <trkpt lat="47.24727" lon="-2.28631">
        <ele>62</ele>
        <time>2021-02-07T10:57:09.000Z</time>
      </trkpt>
      <trkpt lat="47.24711" lon="-2.28647">
        <ele>62</ele>
        <time>2021-02-07T10:57:12.000Z</time>
      </trkpt>
      <trkpt lat="47.24706" lon="-2.28652">
        <ele>62</ele>
        <time>2021-02-07T10:57:13.000Z</time>
      </trkpt>
      <trkpt lat="47.2469" lon="-2.2867">
        <ele>62</ele>
        <time>2021-02-07T10:57:16.000Z</time>
      </trkpt>
      <trkpt lat="47.24682" lon="-2.28685">
        <ele>62</ele>
        <time>2021-02-07T10:57:18.000Z</time>
      </trkpt>
      <trkpt lat="47.24656" lon="-2.28715">
        <ele>62</ele>
        <time>2021-02-07T10:57:23.000Z</time>
      </trkpt>
      <trkpt lat="47.24627" lon="-2.28756">
        <ele>62</ele>
        <time>2021-02-07T10:57:29.000Z</time>
      </trkpt>
      <trkpt lat="47.24597" lon="-2.28792">
        <ele>62</ele>
        <time>2021-02-07T10:57:35.000Z</time>
      </trkpt>
      <trkpt lat="47.24591" lon="-2.28796">
        <ele>62</ele>
        <time>2021-02-07T10:57:36.000Z</time>
      </trkpt>
      <trkpt lat="47.24574" lon="-2.2881">
        <ele>61.599998474121</ele>
        <time>2021-02-07T10:57:39.000Z</time>
      </trkpt>
      <trkpt lat="47.24568" lon="-2.28815">
        <ele>61.200000762939</ele>
        <time>2021-02-07T10:57:40.000Z</time>
      </trkpt>
      <trkpt lat="47.24563" lon="-2.28822">
        <ele>60.599998474121</ele>
        <time>2021-02-07T10:57:41.000Z</time>
      </trkpt>
      <trkpt lat="47.24558" lon="-2.28829">
        <ele>60.200000762939</ele>
        <time>2021-02-07T10:57:42.000Z</time>
      </trkpt>
      <trkpt lat="47.24553" lon="-2.28835">
        <ele>59.799999237061</ele>
        <time>2021-02-07T10:57:43.000Z</time>
      </trkpt>
      <trkpt lat="47.24548" lon="-2.28841">
        <ele>59.799999237061</ele>
        <time>2021-02-07T10:57:44.000Z</time>
      </trkpt>
      <trkpt lat="47.24529" lon="-2.28864">
        <ele>59.799999237061</ele>
        <time>2021-02-07T10:57:48.000Z</time>
      </trkpt>
      <trkpt lat="47.24525" lon="-2.28871">
        <ele>59.799999237061</ele>
        <time>2021-02-07T10:57:49.000Z</time>
      </trkpt>
      <trkpt lat="47.24523" lon="-2.28897">
        <ele>59.799999237061</ele>
        <time>2021-02-07T10:57:52.000Z</time>
      </trkpt>
      <trkpt lat="47.24533" lon="-2.28928">
        <ele>59.799999237061</ele>
        <time>2021-02-07T10:57:56.000Z</time>
      </trkpt>
      <trkpt lat="47.24551" lon="-2.28987">
        <ele>59.799999237061</ele>
        <time>2021-02-07T10:58:04.000Z</time>
      </trkpt>
      <trkpt lat="47.24554" lon="-2.29002">
        <ele>59.799999237061</ele>
        <time>2021-02-07T10:58:06.000Z</time>
      </trkpt>
      <trkpt lat="47.24554" lon="-2.29024">
        <ele>59.799999237061</ele>
        <time>2021-02-07T10:58:09.000Z</time>
      </trkpt>
      <trkpt lat="47.24554" lon="-2.29039">
        <ele>60.599998474121</ele>
        <time>2021-02-07T10:58:11.000Z</time>
      </trkpt>
      <trkpt lat="47.24554" lon="-2.29046">
        <ele>61</ele>
        <time>2021-02-07T10:58:12.000Z</time>
      </trkpt>
      <trkpt lat="47.24553" lon="-2.29053">
        <ele>61.599998474121</ele>
        <time>2021-02-07T10:58:13.000Z</time>
      </trkpt>
      <trkpt lat="47.24552" lon="-2.2906">
        <ele>62</ele>
        <time>2021-02-07T10:58:14.000Z</time>
      </trkpt>
      <trkpt lat="47.24548" lon="-2.29081">
        <ele>62</ele>
        <time>2021-02-07T10:58:17.000Z</time>
      </trkpt>
      <trkpt lat="47.24537" lon="-2.29135">
        <ele>62</ele>
        <time>2021-02-07T10:58:25.000Z</time>
      </trkpt>
      <trkpt lat="47.24523" lon="-2.29187">
        <ele>62</ele>
        <time>2021-02-07T10:58:33.000Z</time>
      </trkpt>
      <trkpt lat="47.24517" lon="-2.29221">
        <ele>62</ele>
        <time>2021-02-07T10:58:38.000Z</time>
      </trkpt>
      <trkpt lat="47.24517" lon="-2.29227">
        <ele>62</ele>
        <time>2021-02-07T10:58:39.000Z</time>
      </trkpt>
      <trkpt lat="47.24516" lon="-2.29253">
        <ele>62</ele>
        <time>2021-02-07T10:58:43.000Z</time>
      </trkpt>
      <trkpt lat="47.24516" lon="-2.29259">
        <ele>62</ele>
        <time>2021-02-07T10:58:44.000Z</time>
      </trkpt>
      <trkpt lat="47.24516" lon="-2.29303">
        <ele>62</ele>
        <time>2021-02-07T10:58:51.000Z</time>
      </trkpt>
      <trkpt lat="47.24518" lon="-2.29326">
        <ele>62</ele>
        <time>2021-02-07T10:58:57.000Z</time>
      </trkpt>
      <trkpt lat="47.24521" lon="-2.29349">
        <ele>62</ele>
        <time>2021-02-07T10:59:03.000Z</time>
      </trkpt>
      <trkpt lat="47.24521" lon="-2.29363">
        <ele>62.400001525879</ele>
        <time>2021-02-07T10:59:06.000Z</time>
      </trkpt>
      <trkpt lat="47.24521" lon="-2.29368">
        <ele>62.799999237061</ele>
        <time>2021-02-07T10:59:07.000Z</time>
      </trkpt>
      <trkpt lat="47.24521" lon="-2.29373">
        <ele>63.200000762939</ele>
        <time>2021-02-07T10:59:08.000Z</time>
      </trkpt>
      <trkpt lat="47.24521" lon="-2.29378">
        <ele>63.599998474121</ele>
        <time>2021-02-07T10:59:09.000Z</time>
      </trkpt>
      <trkpt lat="47.24522" lon="-2.29384">
        <ele>64</ele>
        <time>2021-02-07T10:59:10.000Z</time>
      </trkpt>
      <trkpt lat="47.24522" lon="-2.29389">
        <ele>64</ele>
        <time>2021-02-07T10:59:11.000Z</time>
      </trkpt>
      <trkpt lat="47.24516" lon="-2.29414">
        <ele>64</ele>
        <time>2021-02-07T10:59:17.000Z</time>
      </trkpt>
      <trkpt lat="47.24501" lon="-2.2942">
        <ele>64</ele>
        <time>2021-02-07T10:59:21.000Z</time>
      </trkpt>
      <trkpt lat="47.24471" lon="-2.29424">
        <ele>64</ele>
        <time>2021-02-07T10:59:27.000Z</time>
      </trkpt>
      <trkpt lat="47.24444" lon="-2.29427">
        <ele>63.400001525879</ele>
        <time>2021-02-07T10:59:32.000Z</time>
      </trkpt>
      <trkpt lat="47.24438" lon="-2.29428">
        <ele>63</ele>
        <time>2021-02-07T10:59:33.000Z</time>
      </trkpt>
      <trkpt lat="47.24433" lon="-2.29429">
        <ele>62.599998474121</ele>
        <time>2021-02-07T10:59:34.000Z</time>
      </trkpt>
      <trkpt lat="47.24427" lon="-2.2943">
        <ele>62.200000762939</ele>
        <time>2021-02-07T10:59:35.000Z</time>
      </trkpt>
      <trkpt lat="47.24421" lon="-2.29431">
        <ele>61.799999237061</ele>
        <time>2021-02-07T10:59:36.000Z</time>
      </trkpt>
      <trkpt lat="47.24397" lon="-2.29435">
        <ele>61.799999237061</ele>
        <time>2021-02-07T10:59:40.000Z</time>
      </trkpt>
      <trkpt lat="47.24392" lon="-2.29438">
        <ele>61.799999237061</ele>
        <time>2021-02-07T10:59:41.000Z</time>
      </trkpt>
      <trkpt lat="47.24388" lon="-2.29443">
        <ele>61.200000762939</ele>
        <time>2021-02-07T10:59:42.000Z</time>
      </trkpt>
      <trkpt lat="47.24384" lon="-2.29447">
        <ele>60.799999237061</ele>
        <time>2021-02-07T10:59:43.000Z</time>
      </trkpt>
      <trkpt lat="47.24379" lon="-2.29452">
        <ele>60.400001525879</ele>
        <time>2021-02-07T10:59:44.000Z</time>
      </trkpt>
      <trkpt lat="47.24375" lon="-2.29457">
        <ele>60</ele>
        <time>2021-02-07T10:59:45.000Z</time>
      </trkpt>
      <trkpt lat="47.2437" lon="-2.29462">
        <ele>59.599998474121</ele>
        <time>2021-02-07T10:59:46.000Z</time>
      </trkpt>
      <trkpt lat="47.2436" lon="-2.29469">
        <ele>59.599998474121</ele>
        <time>2021-02-07T10:59:48.000Z</time>
      </trkpt>
      <trkpt lat="47.24347" lon="-2.29466">
        <ele>59.599998474121</ele>
        <time>2021-02-07T10:59:50.000Z</time>
      </trkpt>
      <trkpt lat="47.24331" lon="-2.29452">
        <ele>59.599998474121</ele>
        <time>2021-02-07T10:59:53.000Z</time>
      </trkpt>
      <trkpt lat="47.24313" lon="-2.29436">
        <ele>59.200000762939</ele>
        <time>2021-02-07T10:59:56.000Z</time>
      </trkpt>
      <trkpt lat="47.24307" lon="-2.29434">
        <ele>58.799999237061</ele>
        <time>2021-02-07T10:59:57.000Z</time>
      </trkpt>
      <trkpt lat="47.24302" lon="-2.29435">
        <ele>58.400001525879</ele>
        <time>2021-02-07T10:59:58.000Z</time>
      </trkpt>
      <trkpt lat="47.24296" lon="-2.29436">
        <ele>58</ele>
        <time>2021-02-07T10:59:59.000Z</time>
      </trkpt>
      <trkpt lat="47.2429" lon="-2.29439">
        <ele>57.599998474121</ele>
        <time>2021-02-07T11:00:00.000Z</time>
      </trkpt>
      <trkpt lat="47.24269" lon="-2.29452">
        <ele>57.599998474121</ele>
        <time>2021-02-07T11:00:04.000Z</time>
      </trkpt>
      <trkpt lat="47.24241" lon="-2.29467">
        <ele>57.599998474121</ele>
        <time>2021-02-07T11:00:09.000Z</time>
      </trkpt>
      <trkpt lat="47.24235" lon="-2.29466">
        <ele>57.599998474121</ele>
        <time>2021-02-07T11:00:10.000Z</time>
      </trkpt>
      <trkpt lat="47.24218" lon="-2.29457">
        <ele>57.599998474121</ele>
        <time>2021-02-07T11:00:13.000Z</time>
      </trkpt>
      <trkpt lat="47.24192" lon="-2.29444">
        <ele>58</ele>
        <time>2021-02-07T11:00:17.000Z</time>
      </trkpt>
      <trkpt lat="47.24186" lon="-2.29443">
        <ele>58.400001525879</ele>
        <time>2021-02-07T11:00:18.000Z</time>
      </trkpt>
      <trkpt lat="47.24179" lon="-2.29442">
        <ele>58.799999237061</ele>
        <time>2021-02-07T11:00:19.000Z</time>
      </trkpt>
      <trkpt lat="47.24173" lon="-2.29442">
        <ele>59.200000762939</ele>
        <time>2021-02-07T11:00:20.000Z</time>
      </trkpt>
      <trkpt lat="47.24167" lon="-2.29442">
        <ele>59.599998474121</ele>
        <time>2021-02-07T11:00:21.000Z</time>
      </trkpt>
      <trkpt lat="47.24155" lon="-2.29444">
        <ele>59.599998474121</ele>
        <time>2021-02-07T11:00:23.000Z</time>
      </trkpt>
      <trkpt lat="47.24143" lon="-2.29449">
        <ele>59.599998474121</ele>
        <time>2021-02-07T11:00:25.000Z</time>
      </trkpt>
      <trkpt lat="47.24121" lon="-2.29461">
        <ele>59.599998474121</ele>
        <time>2021-02-07T11:00:29.000Z</time>
      </trkpt>
      <trkpt lat="47.24107" lon="-2.29472">
        <ele>59.599998474121</ele>
        <time>2021-02-07T11:00:32.000Z</time>
      </trkpt>
      <trkpt lat="47.24103" lon="-2.29476">
        <ele>59.599998474121</ele>
        <time>2021-02-07T11:00:33.000Z</time>
      </trkpt>
      <trkpt lat="47.24099" lon="-2.29497">
        <ele>59.599998474121</ele>
        <time>2021-02-07T11:00:36.000Z</time>
      </trkpt>
      <trkpt lat="47.24104" lon="-2.29529">
        <ele>59.599998474121</ele>
        <time>2021-02-07T11:00:40.000Z</time>
      </trkpt>
      <trkpt lat="47.24109" lon="-2.29543">
        <ele>59.599998474121</ele>
        <time>2021-02-07T11:00:42.000Z</time>
      </trkpt>
      <trkpt lat="47.24115" lon="-2.29571">
        <ele>59.599998474121</ele>
        <time>2021-02-07T11:00:46.000Z</time>
      </trkpt>
      <trkpt lat="47.24109" lon="-2.29586">
        <ele>59.599998474121</ele>
        <time>2021-02-07T11:00:49.000Z</time>
      </trkpt>
      <trkpt lat="47.241" lon="-2.29592">
        <ele>60</ele>
        <time>2021-02-07T11:00:51.000Z</time>
      </trkpt>
      <trkpt lat="47.24097" lon="-2.29595">
        <ele>60.400001525879</ele>
        <time>2021-02-07T11:00:52.000Z</time>
      </trkpt>
      <trkpt lat="47.24092" lon="-2.29598">
        <ele>60.799999237061</ele>
        <time>2021-02-07T11:00:53.000Z</time>
      </trkpt>
      <trkpt lat="47.24088" lon="-2.29602">
        <ele>61.200000762939</ele>
        <time>2021-02-07T11:00:54.000Z</time>
      </trkpt>
      <trkpt lat="47.24084" lon="-2.29604">
        <ele>61.599998474121</ele>
        <time>2021-02-07T11:00:55.000Z</time>
      </trkpt>
      <trkpt lat="47.24066" lon="-2.29619">
        <ele>61.599998474121</ele>
        <time>2021-02-07T11:00:59.000Z</time>
      </trkpt>
      <trkpt lat="47.24055" lon="-2.29634">
        <ele>61.599998474121</ele>
        <time>2021-02-07T11:01:02.000Z</time>
      </trkpt>
      <trkpt lat="47.24052" lon="-2.29648">
        <ele>61.599998474121</ele>
        <time>2021-02-07T11:01:04.000Z</time>
      </trkpt>
      <trkpt lat="47.24054" lon="-2.2967">
        <ele>61.599998474121</ele>
        <time>2021-02-07T11:01:07.000Z</time>
      </trkpt>
      <trkpt lat="47.24055" lon="-2.29677">
        <ele>61.599998474121</ele>
        <time>2021-02-07T11:01:08.000Z</time>
      </trkpt>
      <trkpt lat="47.24064" lon="-2.2972">
        <ele>61.599998474121</ele>
        <time>2021-02-07T11:01:14.000Z</time>
      </trkpt>
      <trkpt lat="47.24066" lon="-2.29727">
        <ele>61.599998474121</ele>
        <time>2021-02-07T11:01:15.000Z</time>
      </trkpt>
      <trkpt lat="47.24068" lon="-2.29733">
        <ele>61.599998474121</ele>
        <time>2021-02-07T11:01:16.000Z</time>
      </trkpt>
      <trkpt lat="47.24071" lon="-2.29758">
        <ele>61.599998474121</ele>
        <time>2021-02-07T11:01:20.000Z</time>
      </trkpt>
      <trkpt lat="47.24076" lon="-2.29777">
        <ele>61.599998474121</ele>
        <time>2021-02-07T11:01:23.000Z</time>
      </trkpt>
      <trkpt lat="47.24078" lon="-2.2979">
        <ele>61.599998474121</ele>
        <time>2021-02-07T11:01:25.000Z</time>
      </trkpt>
      <trkpt lat="47.24084" lon="-2.29824">
        <ele>61.599998474121</ele>
        <time>2021-02-07T11:01:31.000Z</time>
      </trkpt>
      <trkpt lat="47.24094" lon="-2.29836">
        <ele>61.599998474121</ele>
        <time>2021-02-07T11:01:35.000Z</time>
      </trkpt>
      <trkpt lat="47.2411" lon="-2.29831">
        <ele>61.599998474121</ele>
        <time>2021-02-07T11:01:39.000Z</time>
      </trkpt>
      <trkpt lat="47.24125" lon="-2.29825">
        <ele>61.599998474121</ele>
        <time>2021-02-07T11:01:42.000Z</time>
      </trkpt>
      <trkpt lat="47.24136" lon="-2.29826">
        <ele>61.599998474121</ele>
        <time>2021-02-07T11:01:44.000Z</time>
      </trkpt>
      <trkpt lat="47.24154" lon="-2.29838">
        <ele>61.599998474121</ele>
        <time>2021-02-07T11:01:48.000Z</time>
      </trkpt>
      <trkpt lat="47.2416" lon="-2.29845">
        <ele>61.599998474121</ele>
        <time>2021-02-07T11:01:51.000Z</time>
      </trkpt>
      <trkpt lat="47.24162" lon="-2.29848">
        <ele>61.599998474121</ele>
        <time>2021-02-07T11:01:52.000Z</time>
      </trkpt>
      <trkpt lat="47.24165" lon="-2.29857">
        <ele>61.599998474121</ele>
        <time>2021-02-07T11:01:55.000Z</time>
      </trkpt>
      <trkpt lat="47.24168" lon="-2.29864">
        <ele>61.599998474121</ele>
        <time>2021-02-07T11:01:57.000Z</time>
      </trkpt>
      <trkpt lat="47.24174" lon="-2.2988">
        <ele>61.599998474121</ele>
        <time>2021-02-07T11:02:02.000Z</time>
      </trkpt>
      <trkpt lat="47.24174" lon="-2.29883">
        <ele>61.599998474121</ele>
        <time>2021-02-07T11:02:03.000Z</time>
      </trkpt>
      <trkpt lat="47.24173" lon="-2.2989">
        <ele>61.599998474121</ele>
        <time>2021-02-07T11:02:05.000Z</time>
      </trkpt>
      <trkpt lat="47.24172" lon="-2.29898">
        <ele>61.599998474121</ele>
        <time>2021-02-07T11:02:07.000Z</time>
      </trkpt>
      <trkpt lat="47.24164" lon="-2.2992">
        <ele>61.599998474121</ele>
        <time>2021-02-07T11:02:13.000Z</time>
      </trkpt>
      <trkpt lat="47.2416" lon="-2.2996">
        <ele>61.599998474121</ele>
        <time>2021-02-07T11:02:20.000Z</time>
      </trkpt>
      <trkpt lat="47.24165" lon="-2.29979">
        <ele>61.599998474121</ele>
        <time>2021-02-07T11:02:26.000Z</time>
      </trkpt>
      <trkpt lat="47.24179" lon="-2.30004">
        <ele>61.599998474121</ele>
        <time>2021-02-07T11:02:31.000Z</time>
      </trkpt>
      <trkpt lat="47.24181" lon="-2.30008">
        <ele>61.200000762939</ele>
        <time>2021-02-07T11:02:32.000Z</time>
      </trkpt>
      <trkpt lat="47.24183" lon="-2.30012">
        <ele>60.799999237061</ele>
        <time>2021-02-07T11:02:33.000Z</time>
      </trkpt>
      <trkpt lat="47.24184" lon="-2.30017">
        <ele>60.400001525879</ele>
        <time>2021-02-07T11:02:34.000Z</time>
      </trkpt>
      <trkpt lat="47.24184" lon="-2.3002">
        <ele>60</ele>
        <time>2021-02-07T11:02:35.000Z</time>
      </trkpt>
      <trkpt lat="47.24184" lon="-2.30024">
        <ele>59.599998474121</ele>
        <time>2021-02-07T11:02:36.000Z</time>
      </trkpt>
      <trkpt lat="47.24183" lon="-2.30028">
        <ele>59.599998474121</ele>
        <time>2021-02-07T11:02:37.000Z</time>
      </trkpt>
      <trkpt lat="47.24179" lon="-2.30031">
        <ele>59.599998474121</ele>
        <time>2021-02-07T11:02:41.000Z</time>
      </trkpt>
      <trkpt lat="47.24165" lon="-2.30027">
        <ele>59.599998474121</ele>
        <time>2021-02-07T11:02:46.000Z</time>
      </trkpt>
      <trkpt lat="47.24151" lon="-2.3003">
        <ele>59.599998474121</ele>
        <time>2021-02-07T11:02:50.000Z</time>
      </trkpt>
      <trkpt lat="47.24145" lon="-2.30033">
        <ele>59.599998474121</ele>
        <time>2021-02-07T11:02:52.000Z</time>
      </trkpt>
      <trkpt lat="47.24144" lon="-2.30036">
        <ele>59.599998474121</ele>
        <time>2021-02-07T11:02:53.000Z</time>
      </trkpt>
      <trkpt lat="47.24142" lon="-2.30043">
        <ele>59.599998474121</ele>
        <time>2021-02-07T11:02:55.000Z</time>
      </trkpt>
      <trkpt lat="47.2414" lon="-2.30054">
        <ele>59.599998474121</ele>
        <time>2021-02-07T11:02:57.000Z</time>
      </trkpt>
      <trkpt lat="47.24142" lon="-2.30069">
        <ele>59.599998474121</ele>
        <time>2021-02-07T11:02:59.000Z</time>
      </trkpt>
      <trkpt lat="47.24145" lon="-2.30089">
        <ele>59</ele>
        <time>2021-02-07T11:03:02.000Z</time>
      </trkpt>
      <trkpt lat="47.24146" lon="-2.30097">
        <ele>58.599998474121</ele>
        <time>2021-02-07T11:03:03.000Z</time>
      </trkpt>
      <trkpt lat="47.24146" lon="-2.30105">
        <ele>58.200000762939</ele>
        <time>2021-02-07T11:03:04.000Z</time>
      </trkpt>
      <trkpt lat="47.24146" lon="-2.30113">
        <ele>57.799999237061</ele>
        <time>2021-02-07T11:03:05.000Z</time>
      </trkpt>
      <trkpt lat="47.24145" lon="-2.30121">
        <ele>57.400001525879</ele>
        <time>2021-02-07T11:03:06.000Z</time>
      </trkpt>
      <trkpt lat="47.24143" lon="-2.30129">
        <ele>57</ele>
        <time>2021-02-07T11:03:07.000Z</time>
      </trkpt>
      <trkpt lat="47.2414" lon="-2.30135">
        <ele>56.400001525879</ele>
        <time>2021-02-07T11:03:08.000Z</time>
      </trkpt>
      <trkpt lat="47.24137" lon="-2.30138">
        <ele>56</ele>
        <time>2021-02-07T11:03:09.000Z</time>
      </trkpt>
      <trkpt lat="47.24135" lon="-2.30141">
        <ele>55.599998474121</ele>
        <time>2021-02-07T11:03:10.000Z</time>
      </trkpt>
      <trkpt lat="47.24134" lon="-2.30144">
        <ele>55</ele>
        <time>2021-02-07T11:03:11.000Z</time>
      </trkpt>
      <trkpt lat="47.24133" lon="-2.30147">
        <ele>55</ele>
        <time>2021-02-07T11:03:12.000Z</time>
      </trkpt>
      <trkpt lat="47.24132" lon="-2.30152">
        <ele>55</ele>
        <time>2021-02-07T11:03:14.000Z</time>
      </trkpt>
      <trkpt lat="47.24131" lon="-2.30155">
        <ele>55</ele>
        <time>2021-02-07T11:03:16.000Z</time>
      </trkpt>
      <trkpt lat="47.24133" lon="-2.30155">
        <ele>55</ele>
        <time>2021-02-07T11:03:18.000Z</time>
      </trkpt>
      <trkpt lat="47.24135" lon="-2.30156">
        <ele>55</ele>
        <time>2021-02-07T11:03:20.000Z</time>
      </trkpt>
      <trkpt lat="47.24136" lon="-2.3016">
        <ele>55</ele>
        <time>2021-02-07T11:03:22.000Z</time>
      </trkpt>
      <trkpt lat="47.24138" lon="-2.30168">
        <ele>54.599998474121</ele>
        <time>2021-02-07T11:03:24.000Z</time>
      </trkpt>
      <trkpt lat="47.24138" lon="-2.30171">
        <ele>54.200000762939</ele>
        <time>2021-02-07T11:03:25.000Z</time>
      </trkpt>
      <trkpt lat="47.24139" lon="-2.30173">
        <ele>53.799999237061</ele>
        <time>2021-02-07T11:03:26.000Z</time>
      </trkpt>
      <trkpt lat="47.24139" lon="-2.30176">
        <ele>53.400001525879</ele>
        <time>2021-02-07T11:03:27.000Z</time>
      </trkpt>
      <trkpt lat="47.2414" lon="-2.30179">
        <ele>53</ele>
        <time>2021-02-07T11:03:28.000Z</time>
      </trkpt>
      <trkpt lat="47.24144" lon="-2.30189">
        <ele>53</ele>
        <time>2021-02-07T11:03:31.000Z</time>
      </trkpt>
      <trkpt lat="47.24147" lon="-2.30209">
        <ele>53</ele>
        <time>2021-02-07T11:03:35.000Z</time>
      </trkpt>
      <trkpt lat="47.24147" lon="-2.30214">
        <ele>53</ele>
        <time>2021-02-07T11:03:36.000Z</time>
      </trkpt>
      <trkpt lat="47.24148" lon="-2.3022">
        <ele>52.599998474121</ele>
        <time>2021-02-07T11:03:37.000Z</time>
      </trkpt>
      <trkpt lat="47.24151" lon="-2.30224">
        <ele>52.200000762939</ele>
        <time>2021-02-07T11:03:38.000Z</time>
      </trkpt>
      <trkpt lat="47.24154" lon="-2.30229">
        <ele>51.799999237061</ele>
        <time>2021-02-07T11:03:39.000Z</time>
      </trkpt>
      <trkpt lat="47.24157" lon="-2.30234">
        <ele>51.400001525879</ele>
        <time>2021-02-07T11:03:40.000Z</time>
      </trkpt>
      <trkpt lat="47.24159" lon="-2.30239">
        <ele>51</ele>
        <time>2021-02-07T11:03:41.000Z</time>
      </trkpt>
      <trkpt lat="47.24165" lon="-2.30242">
        <ele>51</ele>
        <time>2021-02-07T11:03:42.000Z</time>
      </trkpt>
      <trkpt lat="47.24175" lon="-2.30241">
        <ele>51</ele>
        <time>2021-02-07T11:03:44.000Z</time>
      </trkpt>
      <trkpt lat="47.24189" lon="-2.30242">
        <ele>51</ele>
        <time>2021-02-07T11:03:47.000Z</time>
      </trkpt>
      <trkpt lat="47.24191" lon="-2.30246">
        <ele>50.599998474121</ele>
        <time>2021-02-07T11:03:48.000Z</time>
      </trkpt>
      <trkpt lat="47.24192" lon="-2.3025">
        <ele>50</ele>
        <time>2021-02-07T11:03:49.000Z</time>
      </trkpt>
      <trkpt lat="47.24192" lon="-2.30256">
        <ele>49.599998474121</ele>
        <time>2021-02-07T11:03:50.000Z</time>
      </trkpt>
      <trkpt lat="47.24193" lon="-2.30263">
        <ele>49.200000762939</ele>
        <time>2021-02-07T11:03:51.000Z</time>
      </trkpt>
      <trkpt lat="47.24194" lon="-2.30269">
        <ele>48.799999237061</ele>
        <time>2021-02-07T11:03:52.000Z</time>
      </trkpt>
      <trkpt lat="47.24195" lon="-2.30283">
        <ele>48.799999237061</ele>
        <time>2021-02-07T11:03:54.000Z</time>
      </trkpt>
      <trkpt lat="47.24196" lon="-2.3029">
        <ele>48.799999237061</ele>
        <time>2021-02-07T11:03:55.000Z</time>
      </trkpt>
      <trkpt lat="47.24204" lon="-2.30328">
        <ele>48.799999237061</ele>
        <time>2021-02-07T11:04:01.000Z</time>
      </trkpt>
      <trkpt lat="47.24214" lon="-2.30332">
        <ele>49.400001525879</ele>
        <time>2021-02-07T11:04:04.000Z</time>
      </trkpt>
      <trkpt lat="47.24218" lon="-2.3033">
        <ele>49.799999237061</ele>
        <time>2021-02-07T11:04:05.000Z</time>
      </trkpt>
      <trkpt lat="47.24221" lon="-2.30328">
        <ele>50.200000762939</ele>
        <time>2021-02-07T11:04:06.000Z</time>
      </trkpt>
      <trkpt lat="47.24224" lon="-2.30325">
        <ele>50.599998474121</ele>
        <time>2021-02-07T11:04:07.000Z</time>
      </trkpt>
      <trkpt lat="47.24226" lon="-2.30324">
        <ele>51</ele>
        <time>2021-02-07T11:04:08.000Z</time>
      </trkpt>
      <trkpt lat="47.24227" lon="-2.30321">
        <ele>51.599998474121</ele>
        <time>2021-02-07T11:04:09.000Z</time>
      </trkpt>
      <trkpt lat="47.2423" lon="-2.30321">
        <ele>52</ele>
        <time>2021-02-07T11:04:10.000Z</time>
      </trkpt>
      <trkpt lat="47.24232" lon="-2.30322">
        <ele>52.599998474121</ele>
        <time>2021-02-07T11:04:11.000Z</time>
      </trkpt>
      <trkpt lat="47.24235" lon="-2.30322">
        <ele>53</ele>
        <time>2021-02-07T11:04:12.000Z</time>
      </trkpt>
      <trkpt lat="47.24237" lon="-2.30325">
        <ele>53.599998474121</ele>
        <time>2021-02-07T11:04:13.000Z</time>
      </trkpt>
      <trkpt lat="47.24242" lon="-2.30336">
        <ele>53.599998474121</ele>
        <time>2021-02-07T11:04:16.000Z</time>
      </trkpt>
      <trkpt lat="47.24248" lon="-2.30347">
        <ele>54</ele>
        <time>2021-02-07T11:04:19.000Z</time>
      </trkpt>
      <trkpt lat="47.24251" lon="-2.30351">
        <ele>54.400001525879</ele>
        <time>2021-02-07T11:04:20.000Z</time>
      </trkpt>
      <trkpt lat="47.24253" lon="-2.30354">
        <ele>54.799999237061</ele>
        <time>2021-02-07T11:04:21.000Z</time>
      </trkpt>
      <trkpt lat="47.24255" lon="-2.30357">
        <ele>55.599998474121</ele>
        <time>2021-02-07T11:04:22.000Z</time>
      </trkpt>
      <trkpt lat="47.24268" lon="-2.30381">
        <ele>55.599998474121</ele>
        <time>2021-02-07T11:04:28.000Z</time>
      </trkpt>
      <trkpt lat="47.24283" lon="-2.30399">
        <ele>55.599998474121</ele>
        <time>2021-02-07T11:04:33.000Z</time>
      </trkpt>
      <trkpt lat="47.24304" lon="-2.30415">
        <ele>55.599998474121</ele>
        <time>2021-02-07T11:04:39.000Z</time>
      </trkpt>
      <trkpt lat="47.24318" lon="-2.30426">
        <ele>55.599998474121</ele>
        <time>2021-02-07T11:04:43.000Z</time>
      </trkpt>
      <trkpt lat="47.24322" lon="-2.30431">
        <ele>55.599998474121</ele>
        <time>2021-02-07T11:04:44.000Z</time>
      </trkpt>
      <trkpt lat="47.24332" lon="-2.30438">
        <ele>55.599998474121</ele>
        <time>2021-02-07T11:04:46.000Z</time>
      </trkpt>
      <trkpt lat="47.2434" lon="-2.30442">
        <ele>55.599998474121</ele>
        <time>2021-02-07T11:04:48.000Z</time>
      </trkpt>
      <trkpt lat="47.24364" lon="-2.30447">
        <ele>55.599998474121</ele>
        <time>2021-02-07T11:04:53.000Z</time>
      </trkpt>
      <trkpt lat="47.24374" lon="-2.30446">
        <ele>55.200000762939</ele>
        <time>2021-02-07T11:04:55.000Z</time>
      </trkpt>
      <trkpt lat="47.24378" lon="-2.30446">
        <ele>54.599998474121</ele>
        <time>2021-02-07T11:04:56.000Z</time>
      </trkpt>
      <trkpt lat="47.24382" lon="-2.30448">
        <ele>54.200000762939</ele>
        <time>2021-02-07T11:04:57.000Z</time>
      </trkpt>
      <trkpt lat="47.24383" lon="-2.30453">
        <ele>53.799999237061</ele>
        <time>2021-02-07T11:04:58.000Z</time>
      </trkpt>
      <trkpt lat="47.2438" lon="-2.30461">
        <ele>53.400001525879</ele>
        <time>2021-02-07T11:04:59.000Z</time>
      </trkpt>
      <trkpt lat="47.2437" lon="-2.30495">
        <ele>53</ele>
        <time>2021-02-07T11:05:04.000Z</time>
      </trkpt>
      <trkpt lat="47.24367" lon="-2.30501">
        <ele>52.599998474121</ele>
        <time>2021-02-07T11:05:05.000Z</time>
      </trkpt>
      <trkpt lat="47.24365" lon="-2.30506">
        <ele>52</ele>
        <time>2021-02-07T11:05:06.000Z</time>
      </trkpt>
      <trkpt lat="47.24364" lon="-2.30512">
        <ele>51.599998474121</ele>
        <time>2021-02-07T11:05:07.000Z</time>
      </trkpt>
      <trkpt lat="47.24364" lon="-2.30518">
        <ele>51.200000762939</ele>
        <time>2021-02-07T11:05:08.000Z</time>
      </trkpt>
      <trkpt lat="47.24365" lon="-2.30526">
        <ele>50.799999237061</ele>
        <time>2021-02-07T11:05:09.000Z</time>
      </trkpt>
      <trkpt lat="47.24365" lon="-2.30533">
        <ele>50.200000762939</ele>
        <time>2021-02-07T11:05:10.000Z</time>
      </trkpt>
      <trkpt lat="47.24366" lon="-2.30542">
        <ele>49.799999237061</ele>
        <time>2021-02-07T11:05:11.000Z</time>
      </trkpt>
      <trkpt lat="47.24368" lon="-2.30549">
        <ele>48.799999237061</ele>
        <time>2021-02-07T11:05:12.000Z</time>
      </trkpt>
      <trkpt lat="47.24374" lon="-2.30561">
        <ele>48.799999237061</ele>
        <time>2021-02-07T11:05:14.000Z</time>
      </trkpt>
      <trkpt lat="47.24378" lon="-2.30565">
        <ele>48.400001525879</ele>
        <time>2021-02-07T11:05:15.000Z</time>
      </trkpt>
      <trkpt lat="47.24383" lon="-2.30567">
        <ele>48</ele>
        <time>2021-02-07T11:05:16.000Z</time>
      </trkpt>
      <trkpt lat="47.24388" lon="-2.30569">
        <ele>47.400001525879</ele>
        <time>2021-02-07T11:05:17.000Z</time>
      </trkpt>
      <trkpt lat="47.24393" lon="-2.30572">
        <ele>47</ele>
        <time>2021-02-07T11:05:18.000Z</time>
      </trkpt>
      <trkpt lat="47.24399" lon="-2.30574">
        <ele>46.599998474121</ele>
        <time>2021-02-07T11:05:19.000Z</time>
      </trkpt>
      <trkpt lat="47.24405" lon="-2.30575">
        <ele>46.599998474121</ele>
        <time>2021-02-07T11:05:20.000Z</time>
      </trkpt>
      <trkpt lat="47.24415" lon="-2.30573">
        <ele>46.599998474121</ele>
        <time>2021-02-07T11:05:22.000Z</time>
      </trkpt>
      <trkpt lat="47.24434" lon="-2.30565">
        <ele>46.599998474121</ele>
        <time>2021-02-07T11:05:26.000Z</time>
      </trkpt>
      <trkpt lat="47.24439" lon="-2.30562">
        <ele>47</ele>
        <time>2021-02-07T11:05:27.000Z</time>
      </trkpt>
      <trkpt lat="47.24443" lon="-2.3056">
        <ele>47.599998474121</ele>
        <time>2021-02-07T11:05:28.000Z</time>
      </trkpt>
      <trkpt lat="47.24448" lon="-2.30557">
        <ele>48</ele>
        <time>2021-02-07T11:05:29.000Z</time>
      </trkpt>
      <trkpt lat="47.24452" lon="-2.30553">
        <ele>48.400001525879</ele>
        <time>2021-02-07T11:05:30.000Z</time>
      </trkpt>
      <trkpt lat="47.24456" lon="-2.30549">
        <ele>48.799999237061</ele>
        <time>2021-02-07T11:05:31.000Z</time>
      </trkpt>
      <trkpt lat="47.24466" lon="-2.30545">
        <ele>48.799999237061</ele>
        <time>2021-02-07T11:05:34.000Z</time>
      </trkpt>
      <trkpt lat="47.24469" lon="-2.30547">
        <ele>48.799999237061</ele>
        <time>2021-02-07T11:05:35.000Z</time>
      </trkpt>
      <trkpt lat="47.24471" lon="-2.30556">
        <ele>49.599998474121</ele>
        <time>2021-02-07T11:05:37.000Z</time>
      </trkpt>
      <trkpt lat="47.24471" lon="-2.30561">
        <ele>50.200000762939</ele>
        <time>2021-02-07T11:05:38.000Z</time>
      </trkpt>
      <trkpt lat="47.24471" lon="-2.30567">
        <ele>50.599998474121</ele>
        <time>2021-02-07T11:05:39.000Z</time>
      </trkpt>
      <trkpt lat="47.2447" lon="-2.30572">
        <ele>51</ele>
        <time>2021-02-07T11:05:40.000Z</time>
      </trkpt>
      <trkpt lat="47.24469" lon="-2.30576">
        <ele>51</ele>
        <time>2021-02-07T11:05:41.000Z</time>
      </trkpt>
      <trkpt lat="47.24467" lon="-2.30585">
        <ele>51</ele>
        <time>2021-02-07T11:05:43.000Z</time>
      </trkpt>
      <trkpt lat="47.24456" lon="-2.30601">
        <ele>51</ele>
        <time>2021-02-07T11:05:48.000Z</time>
      </trkpt>
      <trkpt lat="47.24448" lon="-2.30609">
        <ele>51.400001525879</ele>
        <time>2021-02-07T11:05:51.000Z</time>
      </trkpt>
      <trkpt lat="47.24446" lon="-2.3061">
        <ele>51.799999237061</ele>
        <time>2021-02-07T11:05:52.000Z</time>
      </trkpt>
      <trkpt lat="47.24443" lon="-2.30612">
        <ele>52.200000762939</ele>
        <time>2021-02-07T11:05:53.000Z</time>
      </trkpt>
      <trkpt lat="47.2444" lon="-2.30614">
        <ele>52.599998474121</ele>
        <time>2021-02-07T11:05:54.000Z</time>
      </trkpt>
      <trkpt lat="47.24438" lon="-2.30616">
        <ele>53.200000762939</ele>
        <time>2021-02-07T11:05:55.000Z</time>
      </trkpt>
      <trkpt lat="47.24426" lon="-2.30632">
        <ele>53.200000762939</ele>
        <time>2021-02-07T11:06:02.000Z</time>
      </trkpt>
      <trkpt lat="47.24422" lon="-2.30654">
        <ele>53.200000762939</ele>
        <time>2021-02-07T11:06:07.000Z</time>
      </trkpt>
      <trkpt lat="47.24418" lon="-2.30679">
        <ele>53.200000762939</ele>
        <time>2021-02-07T11:06:11.000Z</time>
      </trkpt>
      <trkpt lat="47.24413" lon="-2.30695">
        <ele>53.200000762939</ele>
        <time>2021-02-07T11:06:13.000Z</time>
      </trkpt>
      <trkpt lat="47.2441" lon="-2.30708">
        <ele>53.200000762939</ele>
        <time>2021-02-07T11:06:15.000Z</time>
      </trkpt>
      <trkpt lat="47.24409" lon="-2.30727">
        <ele>53.200000762939</ele>
        <time>2021-02-07T11:06:18.000Z</time>
      </trkpt>
      <trkpt lat="47.24402" lon="-2.30745">
        <ele>53.200000762939</ele>
        <time>2021-02-07T11:06:21.000Z</time>
      </trkpt>
      <trkpt lat="47.24396" lon="-2.3075">
        <ele>53.200000762939</ele>
        <time>2021-02-07T11:06:23.000Z</time>
      </trkpt>
      <trkpt lat="47.24389" lon="-2.30758">
        <ele>53.200000762939</ele>
        <time>2021-02-07T11:06:26.000Z</time>
      </trkpt>
      <trkpt lat="47.24383" lon="-2.30769">
        <ele>53.200000762939</ele>
        <time>2021-02-07T11:06:28.000Z</time>
      </trkpt>
      <trkpt lat="47.24361" lon="-2.30784">
        <ele>53.200000762939</ele>
        <time>2021-02-07T11:06:32.000Z</time>
      </trkpt>
      <trkpt lat="47.24346" lon="-2.30787">
        <ele>53.200000762939</ele>
        <time>2021-02-07T11:06:34.000Z</time>
      </trkpt>
      <trkpt lat="47.2433" lon="-2.30794">
        <ele>53.200000762939</ele>
        <time>2021-02-07T11:06:36.000Z</time>
      </trkpt>
      <trkpt lat="47.24323" lon="-2.30798">
        <ele>52.599998474121</ele>
        <time>2021-02-07T11:06:37.000Z</time>
      </trkpt>
      <trkpt lat="47.24317" lon="-2.30803">
        <ele>52.200000762939</ele>
        <time>2021-02-07T11:06:38.000Z</time>
      </trkpt>
      <trkpt lat="47.24311" lon="-2.30808">
        <ele>51.799999237061</ele>
        <time>2021-02-07T11:06:39.000Z</time>
      </trkpt>
      <trkpt lat="47.24305" lon="-2.30813">
        <ele>51.400001525879</ele>
        <time>2021-02-07T11:06:40.000Z</time>
      </trkpt>
      <trkpt lat="47.24301" lon="-2.30819">
        <ele>51</ele>
        <time>2021-02-07T11:06:41.000Z</time>
      </trkpt>
      <trkpt lat="47.24296" lon="-2.30825">
        <ele>51</ele>
        <time>2021-02-07T11:06:42.000Z</time>
      </trkpt>
      <trkpt lat="47.2429" lon="-2.30841">
        <ele>51</ele>
        <time>2021-02-07T11:06:44.000Z</time>
      </trkpt>
      <trkpt lat="47.24286" lon="-2.30861">
        <ele>50.599998474121</ele>
        <time>2021-02-07T11:06:46.000Z</time>
      </trkpt>
      <trkpt lat="47.24286" lon="-2.30871">
        <ele>50.200000762939</ele>
        <time>2021-02-07T11:06:47.000Z</time>
      </trkpt>
      <trkpt lat="47.24286" lon="-2.30881">
        <ele>49.799999237061</ele>
        <time>2021-02-07T11:06:48.000Z</time>
      </trkpt>
      <trkpt lat="47.24286" lon="-2.30891">
        <ele>49</ele>
        <time>2021-02-07T11:06:49.000Z</time>
      </trkpt>
      <trkpt lat="47.24289" lon="-2.3091">
        <ele>49</ele>
        <time>2021-02-07T11:06:51.000Z</time>
      </trkpt>
      <trkpt lat="47.24291" lon="-2.30919">
        <ele>49</ele>
        <time>2021-02-07T11:06:52.000Z</time>
      </trkpt>
      <trkpt lat="47.24291" lon="-2.30929">
        <ele>49</ele>
        <time>2021-02-07T11:06:53.000Z</time>
      </trkpt>
      <trkpt lat="47.2429" lon="-2.30948">
        <ele>48.599998474121</ele>
        <time>2021-02-07T11:06:55.000Z</time>
      </trkpt>
      <trkpt lat="47.2429" lon="-2.30958">
        <ele>48</ele>
        <time>2021-02-07T11:06:56.000Z</time>
      </trkpt>
      <trkpt lat="47.2429" lon="-2.30968">
        <ele>47.599998474121</ele>
        <time>2021-02-07T11:06:57.000Z</time>
      </trkpt>
      <trkpt lat="47.24289" lon="-2.30978">
        <ele>47.200000762939</ele>
        <time>2021-02-07T11:06:58.000Z</time>
      </trkpt>
      <trkpt lat="47.24289" lon="-2.30989">
        <ele>46.799999237061</ele>
        <time>2021-02-07T11:06:59.000Z</time>
      </trkpt>
      <trkpt lat="47.24287" lon="-2.31">
        <ele>46.400001525879</ele>
        <time>2021-02-07T11:07:00.000Z</time>
      </trkpt>
      <trkpt lat="47.24285" lon="-2.31009">
        <ele>45.799999237061</ele>
        <time>2021-02-07T11:07:01.000Z</time>
      </trkpt>
      <trkpt lat="47.24284" lon="-2.31016">
        <ele>45.400001525879</ele>
        <time>2021-02-07T11:07:02.000Z</time>
      </trkpt>
      <trkpt lat="47.24283" lon="-2.31022">
        <ele>44.599998474121</ele>
        <time>2021-02-07T11:07:03.000Z</time>
      </trkpt>
      <trkpt lat="47.24283" lon="-2.31028">
        <ele>44</ele>
        <time>2021-02-07T11:07:04.000Z</time>
      </trkpt>
      <trkpt lat="47.24285" lon="-2.31032">
        <ele>43.200000762939</ele>
        <time>2021-02-07T11:07:05.000Z</time>
      </trkpt>
      <trkpt lat="47.24288" lon="-2.31033">
        <ele>42.599998474121</ele>
        <time>2021-02-07T11:07:06.000Z</time>
      </trkpt>
      <trkpt lat="47.24293" lon="-2.31033">
        <ele>41.799999237061</ele>
        <time>2021-02-07T11:07:07.000Z</time>
      </trkpt>
      <trkpt lat="47.2431" lon="-2.3103">
        <ele>41.799999237061</ele>
        <time>2021-02-07T11:07:11.000Z</time>
      </trkpt>
      <trkpt lat="47.2433" lon="-2.3104">
        <ele>41.799999237061</ele>
        <time>2021-02-07T11:07:16.000Z</time>
      </trkpt>
      <trkpt lat="47.24334" lon="-2.31045">
        <ele>42.200000762939</ele>
        <time>2021-02-07T11:07:17.000Z</time>
      </trkpt>
      <trkpt lat="47.24337" lon="-2.3105">
        <ele>42.599998474121</ele>
        <time>2021-02-07T11:07:18.000Z</time>
      </trkpt>
      <trkpt lat="47.24341" lon="-2.31056">
        <ele>43</ele>
        <time>2021-02-07T11:07:19.000Z</time>
      </trkpt>
      <trkpt lat="47.24344" lon="-2.31063">
        <ele>43.599998474121</ele>
        <time>2021-02-07T11:07:20.000Z</time>
      </trkpt>
      <trkpt lat="47.24347" lon="-2.3107">
        <ele>44</ele>
        <time>2021-02-07T11:07:21.000Z</time>
      </trkpt>
      <trkpt lat="47.24359" lon="-2.31107">
        <ele>44</ele>
        <time>2021-02-07T11:07:26.000Z</time>
      </trkpt>
      <trkpt lat="47.24374" lon="-2.31142">
        <ele>44</ele>
        <time>2021-02-07T11:07:31.000Z</time>
      </trkpt>
      <trkpt lat="47.24386" lon="-2.31159">
        <ele>44</ele>
        <time>2021-02-07T11:07:34.000Z</time>
      </trkpt>
      <trkpt lat="47.24397" lon="-2.31175">
        <ele>44</ele>
        <time>2021-02-07T11:07:37.000Z</time>
      </trkpt>
      <trkpt lat="47.24407" lon="-2.31181">
        <ele>44</ele>
        <time>2021-02-07T11:07:39.000Z</time>
      </trkpt>
      <trkpt lat="47.24413" lon="-2.31185">
        <ele>44</ele>
        <time>2021-02-07T11:07:41.000Z</time>
      </trkpt>
      <trkpt lat="47.24419" lon="-2.31196">
        <ele>43.400001525879</ele>
        <time>2021-02-07T11:07:44.000Z</time>
      </trkpt>
      <trkpt lat="47.24421" lon="-2.31201">
        <ele>43</ele>
        <time>2021-02-07T11:07:45.000Z</time>
      </trkpt>
      <trkpt lat="47.24423" lon="-2.31207">
        <ele>42.599998474121</ele>
        <time>2021-02-07T11:07:46.000Z</time>
      </trkpt>
      <trkpt lat="47.24426" lon="-2.31214">
        <ele>42.200000762939</ele>
        <time>2021-02-07T11:07:47.000Z</time>
      </trkpt>
      <trkpt lat="47.24428" lon="-2.3122">
        <ele>41.799999237061</ele>
        <time>2021-02-07T11:07:48.000Z</time>
      </trkpt>
      <trkpt lat="47.24431" lon="-2.31223">
        <ele>41.799999237061</ele>
        <time>2021-02-07T11:07:49.000Z</time>
      </trkpt>
      <trkpt lat="47.24434" lon="-2.31226">
        <ele>41.200000762939</ele>
        <time>2021-02-07T11:07:50.000Z</time>
      </trkpt>
      <trkpt lat="47.24438" lon="-2.31225">
        <ele>40.799999237061</ele>
        <time>2021-02-07T11:07:51.000Z</time>
      </trkpt>
      <trkpt lat="47.24442" lon="-2.31222">
        <ele>40.400001525879</ele>
        <time>2021-02-07T11:07:52.000Z</time>
      </trkpt>
      <trkpt lat="47.24445" lon="-2.31221">
        <ele>40</ele>
        <time>2021-02-07T11:07:53.000Z</time>
      </trkpt>
      <trkpt lat="47.24447" lon="-2.31221">
        <ele>39.599998474121</ele>
        <time>2021-02-07T11:07:54.000Z</time>
      </trkpt>
      <trkpt lat="47.24449" lon="-2.31224">
        <ele>39.599998474121</ele>
        <time>2021-02-07T11:07:55.000Z</time>
      </trkpt>
      <trkpt lat="47.24456" lon="-2.31232">
        <ele>40</ele>
        <time>2021-02-07T11:07:57.000Z</time>
      </trkpt>
      <trkpt lat="47.24459" lon="-2.31236">
        <ele>40.400001525879</ele>
        <time>2021-02-07T11:07:58.000Z</time>
      </trkpt>
      <trkpt lat="47.24462" lon="-2.3124">
        <ele>41</ele>
        <time>2021-02-07T11:07:59.000Z</time>
      </trkpt>
      <trkpt lat="47.24463" lon="-2.31248">
        <ele>41.400001525879</ele>
        <time>2021-02-07T11:08:00.000Z</time>
      </trkpt>
      <trkpt lat="47.24465" lon="-2.31255">
        <ele>41.799999237061</ele>
        <time>2021-02-07T11:08:01.000Z</time>
      </trkpt>
      <trkpt lat="47.24469" lon="-2.31267">
        <ele>41.799999237061</ele>
        <time>2021-02-07T11:08:03.000Z</time>
      </trkpt>
      <trkpt lat="47.24478" lon="-2.31292">
        <ele>41.799999237061</ele>
        <time>2021-02-07T11:08:07.000Z</time>
      </trkpt>
      <trkpt lat="47.24481" lon="-2.31298">
        <ele>42.200000762939</ele>
        <time>2021-02-07T11:08:08.000Z</time>
      </trkpt>
      <trkpt lat="47.24484" lon="-2.31303">
        <ele>42.799999237061</ele>
        <time>2021-02-07T11:08:09.000Z</time>
      </trkpt>
      <trkpt lat="47.24486" lon="-2.31308">
        <ele>43.200000762939</ele>
        <time>2021-02-07T11:08:10.000Z</time>
      </trkpt>
      <trkpt lat="47.24487" lon="-2.31312">
        <ele>43.599998474121</ele>
        <time>2021-02-07T11:08:11.000Z</time>
      </trkpt>
      <trkpt lat="47.24488" lon="-2.31314">
        <ele>44</ele>
        <time>2021-02-07T11:08:12.000Z</time>
      </trkpt>
      <trkpt lat="47.2449" lon="-2.31316">
        <ele>44</ele>
        <time>2021-02-07T11:08:13.000Z</time>
      </trkpt>
      <trkpt lat="47.24493" lon="-2.31322">
        <ele>44</ele>
        <time>2021-02-07T11:08:16.000Z</time>
      </trkpt>
      <trkpt lat="47.24495" lon="-2.31327">
        <ele>44</ele>
        <time>2021-02-07T11:08:18.000Z</time>
      </trkpt>
      <trkpt lat="47.24503" lon="-2.31347">
        <ele>44</ele>
        <time>2021-02-07T11:08:26.000Z</time>
      </trkpt>
      <trkpt lat="47.24503" lon="-2.31349">
        <ele>44.400001525879</ele>
        <time>2021-02-07T11:08:27.000Z</time>
      </trkpt>
      <trkpt lat="47.24504" lon="-2.31351">
        <ele>45.200000762939</ele>
        <time>2021-02-07T11:08:28.000Z</time>
      </trkpt>
      <trkpt lat="47.24505" lon="-2.31353">
        <ele>45.599998474121</ele>
        <time>2021-02-07T11:08:29.000Z</time>
      </trkpt>
      <trkpt lat="47.24506" lon="-2.31356">
        <ele>46</ele>
        <time>2021-02-07T11:08:30.000Z</time>
      </trkpt>
      <trkpt lat="47.2451" lon="-2.31363">
        <ele>46</ele>
        <time>2021-02-07T11:08:33.000Z</time>
      </trkpt>
      <trkpt lat="47.24519" lon="-2.31374">
        <ele>46.400001525879</ele>
        <time>2021-02-07T11:08:39.000Z</time>
      </trkpt>
      <trkpt lat="47.24522" lon="-2.31378">
        <ele>47</ele>
        <time>2021-02-07T11:08:40.000Z</time>
      </trkpt>
      <trkpt lat="47.24523" lon="-2.3138">
        <ele>47.400001525879</ele>
        <time>2021-02-07T11:08:41.000Z</time>
      </trkpt>
      <trkpt lat="47.24526" lon="-2.31381">
        <ele>47.799999237061</ele>
        <time>2021-02-07T11:08:42.000Z</time>
      </trkpt>
      <trkpt lat="47.24529" lon="-2.31384">
        <ele>48.200000762939</ele>
        <time>2021-02-07T11:08:43.000Z</time>
      </trkpt>
      <trkpt lat="47.2454" lon="-2.31388">
        <ele>48.200000762939</ele>
        <time>2021-02-07T11:08:46.000Z</time>
      </trkpt>
      <trkpt lat="47.24556" lon="-2.31387">
        <ele>48.200000762939</ele>
        <time>2021-02-07T11:08:52.000Z</time>
      </trkpt>
      <trkpt lat="47.24568" lon="-2.31384">
        <ele>48.200000762939</ele>
        <time>2021-02-07T11:08:58.000Z</time>
      </trkpt>
      <trkpt lat="47.24581" lon="-2.3138">
        <ele>48.200000762939</ele>
        <time>2021-02-07T11:09:03.000Z</time>
      </trkpt>
      <trkpt lat="47.24598" lon="-2.31372">
        <ele>48.599998474121</ele>
        <time>2021-02-07T11:09:08.000Z</time>
      </trkpt>
      <trkpt lat="47.24602" lon="-2.3137">
        <ele>49</ele>
        <time>2021-02-07T11:09:09.000Z</time>
      </trkpt>
      <trkpt lat="47.24606" lon="-2.31368">
        <ele>49.400001525879</ele>
        <time>2021-02-07T11:09:10.000Z</time>
      </trkpt>
      <trkpt lat="47.2461" lon="-2.31366">
        <ele>49.799999237061</ele>
        <time>2021-02-07T11:09:11.000Z</time>
      </trkpt>
      <trkpt lat="47.24614" lon="-2.31364">
        <ele>50.200000762939</ele>
        <time>2021-02-07T11:09:12.000Z</time>
      </trkpt>
      <trkpt lat="47.24622" lon="-2.31359">
        <ele>50.200000762939</ele>
        <time>2021-02-07T11:09:14.000Z</time>
      </trkpt>
      <trkpt lat="47.24635" lon="-2.31353">
        <ele>50.200000762939</ele>
        <time>2021-02-07T11:09:17.000Z</time>
      </trkpt>
      <trkpt lat="47.24653" lon="-2.31346">
        <ele>50.200000762939</ele>
        <time>2021-02-07T11:09:21.000Z</time>
      </trkpt>
      <trkpt lat="47.2468" lon="-2.31332">
        <ele>50.200000762939</ele>
        <time>2021-02-07T11:09:28.000Z</time>
      </trkpt>
      <trkpt lat="47.24688" lon="-2.31331">
        <ele>50.200000762939</ele>
        <time>2021-02-07T11:09:30.000Z</time>
      </trkpt>
      <trkpt lat="47.24699" lon="-2.31323">
        <ele>50.200000762939</ele>
        <time>2021-02-07T11:09:33.000Z</time>
      </trkpt>
      <trkpt lat="47.24713" lon="-2.31315">
        <ele>50.200000762939</ele>
        <time>2021-02-07T11:09:37.000Z</time>
      </trkpt>
      <trkpt lat="47.24722" lon="-2.31315">
        <ele>50.200000762939</ele>
        <time>2021-02-07T11:09:39.000Z</time>
      </trkpt>
      <trkpt lat="47.24728" lon="-2.31317">
        <ele>50.599998474121</ele>
        <time>2021-02-07T11:09:40.000Z</time>
      </trkpt>
      <trkpt lat="47.24732" lon="-2.31322">
        <ele>51</ele>
        <time>2021-02-07T11:09:41.000Z</time>
      </trkpt>
      <trkpt lat="47.24736" lon="-2.31326">
        <ele>51.400001525879</ele>
        <time>2021-02-07T11:09:42.000Z</time>
      </trkpt>
      <trkpt lat="47.2474" lon="-2.31332">
        <ele>51.799999237061</ele>
        <time>2021-02-07T11:09:43.000Z</time>
      </trkpt>
      <trkpt lat="47.24744" lon="-2.31338">
        <ele>52.200000762939</ele>
        <time>2021-02-07T11:09:44.000Z</time>
      </trkpt>
      <trkpt lat="47.2475" lon="-2.31351">
        <ele>52.200000762939</ele>
        <time>2021-02-07T11:09:46.000Z</time>
      </trkpt>
      <trkpt lat="47.24753" lon="-2.31358">
        <ele>52.200000762939</ele>
        <time>2021-02-07T11:09:47.000Z</time>
      </trkpt>
      <trkpt lat="47.24755" lon="-2.31364">
        <ele>52.200000762939</ele>
        <time>2021-02-07T11:09:48.000Z</time>
      </trkpt>
      <trkpt lat="47.24767" lon="-2.31374">
        <ele>52.200000762939</ele>
        <time>2021-02-07T11:09:51.000Z</time>
      </trkpt>
      <trkpt lat="47.24771" lon="-2.31372">
        <ele>52.200000762939</ele>
        <time>2021-02-07T11:09:52.000Z</time>
      </trkpt>
      <trkpt lat="47.24775" lon="-2.31369">
        <ele>52.200000762939</ele>
        <time>2021-02-07T11:09:53.000Z</time>
      </trkpt>
      <trkpt lat="47.24783" lon="-2.31361">
        <ele>52.200000762939</ele>
        <time>2021-02-07T11:09:55.000Z</time>
      </trkpt>
      <trkpt lat="47.24792" lon="-2.31353">
        <ele>52.599998474121</ele>
        <time>2021-02-07T11:09:57.000Z</time>
      </trkpt>
      <trkpt lat="47.24796" lon="-2.31348">
        <ele>53</ele>
        <time>2021-02-07T11:09:58.000Z</time>
      </trkpt>
      <trkpt lat="47.248" lon="-2.31344">
        <ele>53.400001525879</ele>
        <time>2021-02-07T11:09:59.000Z</time>
      </trkpt>
      <trkpt lat="47.24804" lon="-2.3134">
        <ele>53.799999237061</ele>
        <time>2021-02-07T11:10:00.000Z</time>
      </trkpt>
      <trkpt lat="47.24807" lon="-2.31336">
        <ele>54.200000762939</ele>
        <time>2021-02-07T11:10:01.000Z</time>
      </trkpt>
      <trkpt lat="47.24812" lon="-2.31334">
        <ele>54.200000762939</ele>
        <time>2021-02-07T11:10:02.000Z</time>
      </trkpt>
      <trkpt lat="47.24821" lon="-2.31335">
        <ele>54.200000762939</ele>
        <time>2021-02-07T11:10:04.000Z</time>
      </trkpt>
      <trkpt lat="47.2483" lon="-2.31354">
        <ele>54.200000762939</ele>
        <time>2021-02-07T11:10:07.000Z</time>
      </trkpt>
      <trkpt lat="47.24854" lon="-2.31419">
        <ele>54.200000762939</ele>
        <time>2021-02-07T11:10:16.000Z</time>
      </trkpt>
      <trkpt lat="47.24875" lon="-2.31475">
        <ele>54.200000762939</ele>
        <time>2021-02-07T11:10:24.000Z</time>
      </trkpt>
      <trkpt lat="47.24898" lon="-2.31543">
        <ele>54.200000762939</ele>
        <time>2021-02-07T11:10:33.000Z</time>
      </trkpt>
      <trkpt lat="47.24918" lon="-2.31599">
        <ele>54.200000762939</ele>
        <time>2021-02-07T11:10:40.000Z</time>
      </trkpt>
      <trkpt lat="47.24942" lon="-2.31668">
        <ele>54.200000762939</ele>
        <time>2021-02-07T11:10:49.000Z</time>
      </trkpt>
      <trkpt lat="47.24961" lon="-2.31719">
        <ele>54.200000762939</ele>
        <time>2021-02-07T11:10:56.000Z</time>
      </trkpt>
      <trkpt lat="47.24965" lon="-2.31728">
        <ele>53.799999237061</ele>
        <time>2021-02-07T11:10:58.000Z</time>
      </trkpt>
      <trkpt lat="47.24967" lon="-2.31732">
        <ele>53.400001525879</ele>
        <time>2021-02-07T11:10:59.000Z</time>
      </trkpt>
      <trkpt lat="47.24969" lon="-2.31737">
        <ele>53</ele>
        <time>2021-02-07T11:11:00.000Z</time>
      </trkpt>
      <trkpt lat="47.24971" lon="-2.31742">
        <ele>52.400001525879</ele>
        <time>2021-02-07T11:11:01.000Z</time>
      </trkpt>
      <trkpt lat="47.24973" lon="-2.31748">
        <ele>52</ele>
        <time>2021-02-07T11:11:02.000Z</time>
      </trkpt>
      <trkpt lat="47.24987" lon="-2.3178">
        <ele>52</ele>
        <time>2021-02-07T11:11:07.000Z</time>
      </trkpt>
      <trkpt lat="47.25011" lon="-2.31831">
        <ele>52</ele>
        <time>2021-02-07T11:11:14.000Z</time>
      </trkpt>
      <trkpt lat="47.25028" lon="-2.31843">
        <ele>52</ele>
        <time>2021-02-07T11:11:17.000Z</time>
      </trkpt>
      <trkpt lat="47.25053" lon="-2.3184">
        <ele>52</ele>
        <time>2021-02-07T11:11:21.000Z</time>
      </trkpt>
      <trkpt lat="47.25079" lon="-2.31832">
        <ele>52</ele>
        <time>2021-02-07T11:11:26.000Z</time>
      </trkpt>
      <trkpt lat="47.25082" lon="-2.31831">
        <ele>52</ele>
        <time>2021-02-07T11:11:27.000Z</time>
      </trkpt>
      <trkpt lat="47.25088" lon="-2.31833">
        <ele>52</ele>
        <time>2021-02-07T11:11:30.000Z</time>
      </trkpt>
      <trkpt lat="47.25091" lon="-2.3184">
        <ele>52</ele>
        <time>2021-02-07T11:11:32.000Z</time>
      </trkpt>
      <trkpt lat="47.25092" lon="-2.31844">
        <ele>51.599998474121</ele>
        <time>2021-02-07T11:11:33.000Z</time>
      </trkpt>
      <trkpt lat="47.25094" lon="-2.31849">
        <ele>51.200000762939</ele>
        <time>2021-02-07T11:11:34.000Z</time>
      </trkpt>
      <trkpt lat="47.25096" lon="-2.31854">
        <ele>50.799999237061</ele>
        <time>2021-02-07T11:11:35.000Z</time>
      </trkpt>
      <trkpt lat="47.25098" lon="-2.3186">
        <ele>50.400001525879</ele>
        <time>2021-02-07T11:11:36.000Z</time>
      </trkpt>
      <trkpt lat="47.25101" lon="-2.31866">
        <ele>50</ele>
        <time>2021-02-07T11:11:37.000Z</time>
      </trkpt>
      <trkpt lat="47.25104" lon="-2.3188">
        <ele>50</ele>
        <time>2021-02-07T11:11:39.000Z</time>
      </trkpt>
      <trkpt lat="47.25105" lon="-2.31887">
        <ele>50</ele>
        <time>2021-02-07T11:11:40.000Z</time>
      </trkpt>
      <trkpt lat="47.25107" lon="-2.31903">
        <ele>50</ele>
        <time>2021-02-07T11:11:42.000Z</time>
      </trkpt>
      <trkpt lat="47.2511" lon="-2.31928">
        <ele>50</ele>
        <time>2021-02-07T11:11:45.000Z</time>
      </trkpt>
      <trkpt lat="47.25114" lon="-2.31963">
        <ele>50</ele>
        <time>2021-02-07T11:11:49.000Z</time>
      </trkpt>
      <trkpt lat="47.25117" lon="-2.3198">
        <ele>50</ele>
        <time>2021-02-07T11:11:51.000Z</time>
      </trkpt>
      <trkpt lat="47.25118" lon="-2.31989">
        <ele>50</ele>
        <time>2021-02-07T11:11:52.000Z</time>
      </trkpt>
      <trkpt lat="47.25121" lon="-2.32008">
        <ele>50</ele>
        <time>2021-02-07T11:11:54.000Z</time>
      </trkpt>
      <trkpt lat="47.25122" lon="-2.32038">
        <ele>50</ele>
        <time>2021-02-07T11:11:57.000Z</time>
      </trkpt>
      <trkpt lat="47.25128" lon="-2.32124">
        <ele>50</ele>
        <time>2021-02-07T11:12:06.000Z</time>
      </trkpt>
      <trkpt lat="47.25131" lon="-2.32182">
        <ele>50</ele>
        <time>2021-02-07T11:12:12.000Z</time>
      </trkpt>
      <trkpt lat="47.25136" lon="-2.32238">
        <ele>50</ele>
        <time>2021-02-07T11:12:18.000Z</time>
      </trkpt>
      <trkpt lat="47.25136" lon="-2.32256">
        <ele>50</ele>
        <time>2021-02-07T11:12:20.000Z</time>
      </trkpt>
      <trkpt lat="47.25134" lon="-2.32289">
        <ele>50</ele>
        <time>2021-02-07T11:12:24.000Z</time>
      </trkpt>
      <trkpt lat="47.25129" lon="-2.32312">
        <ele>50</ele>
        <time>2021-02-07T11:12:27.000Z</time>
      </trkpt>
      <trkpt lat="47.25116" lon="-2.32347">
        <ele>50</ele>
        <time>2021-02-07T11:12:31.000Z</time>
      </trkpt>
      <trkpt lat="47.25113" lon="-2.32358">
        <ele>49.599998474121</ele>
        <time>2021-02-07T11:12:32.000Z</time>
      </trkpt>
      <trkpt lat="47.2511" lon="-2.32369">
        <ele>49.200000762939</ele>
        <time>2021-02-07T11:12:33.000Z</time>
      </trkpt>
      <trkpt lat="47.25108" lon="-2.3238">
        <ele>48.799999237061</ele>
        <time>2021-02-07T11:12:34.000Z</time>
      </trkpt>
      <trkpt lat="47.25108" lon="-2.32393">
        <ele>48</ele>
        <time>2021-02-07T11:12:35.000Z</time>
      </trkpt>
      <trkpt lat="47.2511" lon="-2.32443">
        <ele>48</ele>
        <time>2021-02-07T11:12:39.000Z</time>
      </trkpt>
      <trkpt lat="47.2511" lon="-2.32455">
        <ele>48</ele>
        <time>2021-02-07T11:12:40.000Z</time>
      </trkpt>
      <trkpt lat="47.25103" lon="-2.32476">
        <ele>47.400001525879</ele>
        <time>2021-02-07T11:12:42.000Z</time>
      </trkpt>
      <trkpt lat="47.25098" lon="-2.32484">
        <ele>47</ele>
        <time>2021-02-07T11:12:43.000Z</time>
      </trkpt>
      <trkpt lat="47.25091" lon="-2.32489">
        <ele>46.599998474121</ele>
        <time>2021-02-07T11:12:44.000Z</time>
      </trkpt>
      <trkpt lat="47.25084" lon="-2.32493">
        <ele>46</ele>
        <time>2021-02-07T11:12:45.000Z</time>
      </trkpt>
      <trkpt lat="47.25076" lon="-2.32497">
        <ele>45.599998474121</ele>
        <time>2021-02-07T11:12:46.000Z</time>
      </trkpt>
      <trkpt lat="47.25069" lon="-2.325">
        <ele>45.200000762939</ele>
        <time>2021-02-07T11:12:47.000Z</time>
      </trkpt>
      <trkpt lat="47.25061" lon="-2.32503">
        <ele>44.799999237061</ele>
        <time>2021-02-07T11:12:48.000Z</time>
      </trkpt>
      <trkpt lat="47.25054" lon="-2.32506">
        <ele>44.400001525879</ele>
        <time>2021-02-07T11:12:49.000Z</time>
      </trkpt>
      <trkpt lat="47.25046" lon="-2.32511">
        <ele>44</ele>
        <time>2021-02-07T11:12:50.000Z</time>
      </trkpt>
      <trkpt lat="47.2504" lon="-2.32518">
        <ele>43.599998474121</ele>
        <time>2021-02-07T11:12:51.000Z</time>
      </trkpt>
      <trkpt lat="47.25029" lon="-2.32548">
        <ele>43.599998474121</ele>
        <time>2021-02-07T11:12:54.000Z</time>
      </trkpt>
      <trkpt lat="47.25029" lon="-2.32559">
        <ele>43.200000762939</ele>
        <time>2021-02-07T11:12:55.000Z</time>
      </trkpt>
      <trkpt lat="47.25031" lon="-2.3257">
        <ele>42.599998474121</ele>
        <time>2021-02-07T11:12:56.000Z</time>
      </trkpt>
      <trkpt lat="47.25034" lon="-2.3258">
        <ele>42.200000762939</ele>
        <time>2021-02-07T11:12:57.000Z</time>
      </trkpt>
      <trkpt lat="47.25038" lon="-2.3259">
        <ele>41.799999237061</ele>
        <time>2021-02-07T11:12:58.000Z</time>
      </trkpt>
      <trkpt lat="47.25043" lon="-2.32599">
        <ele>41.400001525879</ele>
        <time>2021-02-07T11:12:59.000Z</time>
      </trkpt>
      <trkpt lat="47.25052" lon="-2.32617">
        <ele>41</ele>
        <time>2021-02-07T11:13:01.000Z</time>
      </trkpt>
      <trkpt lat="47.25057" lon="-2.32626">
        <ele>40.599998474121</ele>
        <time>2021-02-07T11:13:02.000Z</time>
      </trkpt>
      <trkpt lat="47.25061" lon="-2.32636">
        <ele>40.200000762939</ele>
        <time>2021-02-07T11:13:03.000Z</time>
      </trkpt>
      <trkpt lat="47.25065" lon="-2.32645">
        <ele>39.799999237061</ele>
        <time>2021-02-07T11:13:04.000Z</time>
      </trkpt>
      <trkpt lat="47.2507" lon="-2.32654">
        <ele>39.400001525879</ele>
        <time>2021-02-07T11:13:05.000Z</time>
      </trkpt>
      <trkpt lat="47.25085" lon="-2.32686">
        <ele>39</ele>
        <time>2021-02-07T11:13:09.000Z</time>
      </trkpt>
      <trkpt lat="47.25086" lon="-2.32693">
        <ele>38.400001525879</ele>
        <time>2021-02-07T11:13:10.000Z</time>
      </trkpt>
      <trkpt lat="47.25084" lon="-2.32699">
        <ele>37.799999237061</ele>
        <time>2021-02-07T11:13:11.000Z</time>
      </trkpt>
      <trkpt lat="47.2508" lon="-2.32704">
        <ele>37.400001525879</ele>
        <time>2021-02-07T11:13:12.000Z</time>
      </trkpt>
      <trkpt lat="47.25076" lon="-2.32708">
        <ele>36.799999237061</ele>
        <time>2021-02-07T11:13:13.000Z</time>
      </trkpt>
      <trkpt lat="47.25073" lon="-2.32713">
        <ele>36.400001525879</ele>
        <time>2021-02-07T11:13:14.000Z</time>
      </trkpt>
      <trkpt lat="47.25071" lon="-2.32719">
        <ele>36</ele>
        <time>2021-02-07T11:13:15.000Z</time>
      </trkpt>
      <trkpt lat="47.2507" lon="-2.32725">
        <ele>35.599998474121</ele>
        <time>2021-02-07T11:13:16.000Z</time>
      </trkpt>
      <trkpt lat="47.2507" lon="-2.3273">
        <ele>35.200000762939</ele>
        <time>2021-02-07T11:13:17.000Z</time>
      </trkpt>
      <trkpt lat="47.25069" lon="-2.32734">
        <ele>34.799999237061</ele>
        <time>2021-02-07T11:13:18.000Z</time>
      </trkpt>
      <trkpt lat="47.25063" lon="-2.32738">
        <ele>34.799999237061</ele>
        <time>2021-02-07T11:13:20.000Z</time>
      </trkpt>
      <trkpt lat="47.25057" lon="-2.32743">
        <ele>34.799999237061</ele>
        <time>2021-02-07T11:13:22.000Z</time>
      </trkpt>
      <trkpt lat="47.25046" lon="-2.32751">
        <ele>34.799999237061</ele>
        <time>2021-02-07T11:13:25.000Z</time>
      </trkpt>
      <trkpt lat="47.25042" lon="-2.32767">
        <ele>34.799999237061</ele>
        <time>2021-02-07T11:13:28.000Z</time>
      </trkpt>
      <trkpt lat="47.25046" lon="-2.328">
        <ele>34.799999237061</ele>
        <time>2021-02-07T11:13:33.000Z</time>
      </trkpt>
      <trkpt lat="47.25049" lon="-2.32807">
        <ele>34.799999237061</ele>
        <time>2021-02-07T11:13:34.000Z</time>
      </trkpt>
      <trkpt lat="47.25051" lon="-2.32814">
        <ele>34.799999237061</ele>
        <time>2021-02-07T11:13:35.000Z</time>
      </trkpt>
      <trkpt lat="47.25061" lon="-2.3283">
        <ele>34.799999237061</ele>
        <time>2021-02-07T11:13:38.000Z</time>
      </trkpt>
      <trkpt lat="47.25065" lon="-2.32835">
        <ele>34.799999237061</ele>
        <time>2021-02-07T11:13:39.000Z</time>
      </trkpt>
      <trkpt lat="47.25075" lon="-2.32847">
        <ele>34.799999237061</ele>
        <time>2021-02-07T11:13:42.000Z</time>
      </trkpt>
      <trkpt lat="47.25077" lon="-2.32853">
        <ele>34.200000762939</ele>
        <time>2021-02-07T11:13:44.000Z</time>
      </trkpt>
      <trkpt lat="47.25077" lon="-2.32857">
        <ele>33.799999237061</ele>
        <time>2021-02-07T11:13:45.000Z</time>
      </trkpt>
      <trkpt lat="47.25078" lon="-2.32861">
        <ele>33.400001525879</ele>
        <time>2021-02-07T11:13:46.000Z</time>
      </trkpt>
      <trkpt lat="47.25079" lon="-2.32866">
        <ele>33</ele>
        <time>2021-02-07T11:13:47.000Z</time>
      </trkpt>
      <trkpt lat="47.2508" lon="-2.32871">
        <ele>32.599998474121</ele>
        <time>2021-02-07T11:13:48.000Z</time>
      </trkpt>
      <trkpt lat="47.2508" lon="-2.32875">
        <ele>32.599998474121</ele>
        <time>2021-02-07T11:13:49.000Z</time>
      </trkpt>
      <trkpt lat="47.25081" lon="-2.32883">
        <ele>32.599998474121</ele>
        <time>2021-02-07T11:13:51.000Z</time>
      </trkpt>
      <trkpt lat="47.25087" lon="-2.32908">
        <ele>32.599998474121</ele>
        <time>2021-02-07T11:13:57.000Z</time>
      </trkpt>
      <trkpt lat="47.25091" lon="-2.32927">
        <ele>32.599998474121</ele>
        <time>2021-02-07T11:14:00.000Z</time>
      </trkpt>
      <trkpt lat="47.25098" lon="-2.32948">
        <ele>32.599998474121</ele>
        <time>2021-02-07T11:14:03.000Z</time>
      </trkpt>
      <trkpt lat="47.25116" lon="-2.32981">
        <ele>32.599998474121</ele>
        <time>2021-02-07T11:14:07.000Z</time>
      </trkpt>
      <trkpt lat="47.2512" lon="-2.32988">
        <ele>32.599998474121</ele>
        <time>2021-02-07T11:14:08.000Z</time>
      </trkpt>
      <trkpt lat="47.25128" lon="-2.33">
        <ele>32.599998474121</ele>
        <time>2021-02-07T11:14:10.000Z</time>
      </trkpt>
      <trkpt lat="47.25132" lon="-2.33014">
        <ele>32.599998474121</ele>
        <time>2021-02-07T11:14:12.000Z</time>
      </trkpt>
      <trkpt lat="47.25127" lon="-2.3303">
        <ele>32.599998474121</ele>
        <time>2021-02-07T11:14:15.000Z</time>
      </trkpt>
      <trkpt lat="47.25125" lon="-2.33035">
        <ele>32.599998474121</ele>
        <time>2021-02-07T11:14:16.000Z</time>
      </trkpt>
      <trkpt lat="47.25122" lon="-2.33041">
        <ele>32.599998474121</ele>
        <time>2021-02-07T11:14:17.000Z</time>
      </trkpt>
      <trkpt lat="47.25117" lon="-2.33058">
        <ele>32.599998474121</ele>
        <time>2021-02-07T11:14:20.000Z</time>
      </trkpt>
      <trkpt lat="47.25114" lon="-2.33069">
        <ele>32.599998474121</ele>
        <time>2021-02-07T11:14:22.000Z</time>
      </trkpt>
      <trkpt lat="47.25113" lon="-2.3308">
        <ele>32.599998474121</ele>
        <time>2021-02-07T11:14:24.000Z</time>
      </trkpt>
      <trkpt lat="47.25123" lon="-2.33085">
        <ele>32.599998474121</ele>
        <time>2021-02-07T11:14:27.000Z</time>
      </trkpt>
      <trkpt lat="47.25137" lon="-2.33077">
        <ele>32.599998474121</ele>
        <time>2021-02-07T11:14:30.000Z</time>
      </trkpt>
      <trkpt lat="47.25142" lon="-2.33074">
        <ele>32.599998474121</ele>
        <time>2021-02-07T11:14:31.000Z</time>
      </trkpt>
      <trkpt lat="47.25162" lon="-2.3306">
        <ele>32.599998474121</ele>
        <time>2021-02-07T11:14:35.000Z</time>
      </trkpt>
      <trkpt lat="47.25167" lon="-2.33056">
        <ele>32.599998474121</ele>
        <time>2021-02-07T11:14:36.000Z</time>
      </trkpt>
      <trkpt lat="47.25199" lon="-2.33027">
        <ele>32.599998474121</ele>
        <time>2021-02-07T11:14:43.000Z</time>
      </trkpt>
      <trkpt lat="47.25224" lon="-2.33004">
        <ele>32.599998474121</ele>
        <time>2021-02-07T11:14:49.000Z</time>
      </trkpt>
      <trkpt lat="47.25228" lon="-2.33">
        <ele>32.599998474121</ele>
        <time>2021-02-07T11:14:50.000Z</time>
      </trkpt>
      <trkpt lat="47.25237" lon="-2.32992">
        <ele>33</ele>
        <time>2021-02-07T11:14:52.000Z</time>
      </trkpt>
      <trkpt lat="47.25241" lon="-2.32988">
        <ele>33.400001525879</ele>
        <time>2021-02-07T11:14:53.000Z</time>
      </trkpt>
      <trkpt lat="47.25245" lon="-2.32984">
        <ele>33.799999237061</ele>
        <time>2021-02-07T11:14:54.000Z</time>
      </trkpt>
      <trkpt lat="47.25249" lon="-2.3298">
        <ele>34.200000762939</ele>
        <time>2021-02-07T11:14:55.000Z</time>
      </trkpt>
      <trkpt lat="47.25253" lon="-2.32977">
        <ele>34.599998474121</ele>
        <time>2021-02-07T11:14:56.000Z</time>
      </trkpt>
      <trkpt lat="47.2527" lon="-2.32961">
        <ele>34.599998474121</ele>
        <time>2021-02-07T11:15:00.000Z</time>
      </trkpt>
      <trkpt lat="47.2529" lon="-2.3294">
        <ele>34.599998474121</ele>
        <time>2021-02-07T11:15:05.000Z</time>
      </trkpt>
      <trkpt lat="47.25294" lon="-2.32938">
        <ele>34.599998474121</ele>
        <time>2021-02-07T11:15:06.000Z</time>
      </trkpt>
      <trkpt lat="47.25305" lon="-2.32935">
        <ele>34.599998474121</ele>
        <time>2021-02-07T11:15:09.000Z</time>
      </trkpt>
      <trkpt lat="47.25309" lon="-2.32938">
        <ele>34.599998474121</ele>
        <time>2021-02-07T11:15:10.000Z</time>
      </trkpt>
      <trkpt lat="47.25316" lon="-2.32956">
        <ele>34.599998474121</ele>
        <time>2021-02-07T11:15:13.000Z</time>
      </trkpt>
      <trkpt lat="47.25331" lon="-2.33003">
        <ele>34.599998474121</ele>
        <time>2021-02-07T11:15:20.000Z</time>
      </trkpt>
      <trkpt lat="47.2535" lon="-2.33051">
        <ele>34.599998474121</ele>
        <time>2021-02-07T11:15:28.000Z</time>
      </trkpt>
      <trkpt lat="47.25364" lon="-2.33088">
        <ele>34.599998474121</ele>
        <time>2021-02-07T11:15:35.000Z</time>
      </trkpt>
      <trkpt lat="47.25375" lon="-2.3311">
        <ele>34.599998474121</ele>
        <time>2021-02-07T11:15:41.000Z</time>
      </trkpt>
      <trkpt lat="47.25376" lon="-2.33118">
        <ele>34.599998474121</ele>
        <time>2021-02-07T11:15:44.000Z</time>
      </trkpt>
      <trkpt lat="47.25375" lon="-2.33117">
        <ele>34.599998474121</ele>
        <time>2021-02-07T11:15:45.000Z</time>
      </trkpt>
      <trkpt lat="47.25373" lon="-2.33112">
        <ele>34.599998474121</ele>
        <time>2021-02-07T11:15:48.000Z</time>
      </trkpt>
      <trkpt lat="47.25373" lon="-2.33112">
        <ele>34.599998474121</ele>
        <time>2021-02-07T11:15:49.000Z</time>
      </trkpt>
      <trkpt lat="47.25362" lon="-2.3308">
        <ele>32.599998474121</ele>
        <time>2021-02-07T11:29:54.000Z</time>
      </trkpt>
      <trkpt lat="47.25359" lon="-2.33075">
        <ele>32.599998474121</ele>
        <time>2021-02-07T11:29:56.000Z</time>
      </trkpt>
      <trkpt lat="47.25352" lon="-2.33056">
        <ele>32.599998474121</ele>
        <time>2021-02-07T11:30:01.000Z</time>
      </trkpt>
      <trkpt lat="47.25343" lon="-2.33029">
        <ele>32.599998474121</ele>
        <time>2021-02-07T11:30:07.000Z</time>
      </trkpt>
      <trkpt lat="47.25325" lon="-2.32984">
        <ele>32.599998474121</ele>
        <time>2021-02-07T11:30:15.000Z</time>
      </trkpt>
      <trkpt lat="47.25316" lon="-2.32959">
        <ele>33</ele>
        <time>2021-02-07T11:30:19.000Z</time>
      </trkpt>
      <trkpt lat="47.25313" lon="-2.32953">
        <ele>33.400001525879</ele>
        <time>2021-02-07T11:30:20.000Z</time>
      </trkpt>
      <trkpt lat="47.25311" lon="-2.32948">
        <ele>33.799999237061</ele>
        <time>2021-02-07T11:30:21.000Z</time>
      </trkpt>
      <trkpt lat="47.25308" lon="-2.32941">
        <ele>34.200000762939</ele>
        <time>2021-02-07T11:30:22.000Z</time>
      </trkpt>
      <trkpt lat="47.25307" lon="-2.32935">
        <ele>34.599998474121</ele>
        <time>2021-02-07T11:30:23.000Z</time>
      </trkpt>
      <trkpt lat="47.25309" lon="-2.32922">
        <ele>34.599998474121</ele>
        <time>2021-02-07T11:30:25.000Z</time>
      </trkpt>
      <trkpt lat="47.25321" lon="-2.32908">
        <ele>34.599998474121</ele>
        <time>2021-02-07T11:30:28.000Z</time>
      </trkpt>
      <trkpt lat="47.25333" lon="-2.32895">
        <ele>34.599998474121</ele>
        <time>2021-02-07T11:30:31.000Z</time>
      </trkpt>
      <trkpt lat="47.25341" lon="-2.32887">
        <ele>34.599998474121</ele>
        <time>2021-02-07T11:30:33.000Z</time>
      </trkpt>
      <trkpt lat="47.25371" lon="-2.32859">
        <ele>34.599998474121</ele>
        <time>2021-02-07T11:30:40.000Z</time>
      </trkpt>
      <trkpt lat="47.25397" lon="-2.32828">
        <ele>34.599998474121</ele>
        <time>2021-02-07T11:30:47.000Z</time>
      </trkpt>
      <trkpt lat="47.2542" lon="-2.32796">
        <ele>35.200000762939</ele>
        <time>2021-02-07T11:30:54.000Z</time>
      </trkpt>
      <trkpt lat="47.25423" lon="-2.32791">
        <ele>35.599998474121</ele>
        <time>2021-02-07T11:30:55.000Z</time>
      </trkpt>
      <trkpt lat="47.25425" lon="-2.32787">
        <ele>36</ele>
        <time>2021-02-07T11:30:56.000Z</time>
      </trkpt>
      <trkpt lat="47.25427" lon="-2.32782">
        <ele>36.400001525879</ele>
        <time>2021-02-07T11:30:57.000Z</time>
      </trkpt>
      <trkpt lat="47.25429" lon="-2.32776">
        <ele>36.799999237061</ele>
        <time>2021-02-07T11:30:58.000Z</time>
      </trkpt>
      <trkpt lat="47.25434" lon="-2.32767">
        <ele>36.799999237061</ele>
        <time>2021-02-07T11:31:00.000Z</time>
      </trkpt>
      <trkpt lat="47.25454" lon="-2.32738">
        <ele>36.799999237061</ele>
        <time>2021-02-07T11:31:06.000Z</time>
      </trkpt>
      <trkpt lat="47.25478" lon="-2.32707">
        <ele>36.799999237061</ele>
        <time>2021-02-07T11:31:13.000Z</time>
      </trkpt>
      <trkpt lat="47.25484" lon="-2.32696">
        <ele>36.799999237061</ele>
        <time>2021-02-07T11:31:15.000Z</time>
      </trkpt>
      <trkpt lat="47.25488" lon="-2.32677">
        <ele>36.799999237061</ele>
        <time>2021-02-07T11:31:18.000Z</time>
      </trkpt>
      <trkpt lat="47.25489" lon="-2.32663">
        <ele>36.799999237061</ele>
        <time>2021-02-07T11:31:20.000Z</time>
      </trkpt>
      <trkpt lat="47.25489" lon="-2.32656">
        <ele>36.799999237061</ele>
        <time>2021-02-07T11:31:21.000Z</time>
      </trkpt>
      <trkpt lat="47.25488" lon="-2.32649">
        <ele>36.799999237061</ele>
        <time>2021-02-07T11:31:22.000Z</time>
      </trkpt>
      <trkpt lat="47.25482" lon="-2.32616">
        <ele>37.200000762939</ele>
        <time>2021-02-07T11:31:27.000Z</time>
      </trkpt>
      <trkpt lat="47.25481" lon="-2.32609">
        <ele>37.599998474121</ele>
        <time>2021-02-07T11:31:28.000Z</time>
      </trkpt>
      <trkpt lat="47.2548" lon="-2.32603">
        <ele>38</ele>
        <time>2021-02-07T11:31:29.000Z</time>
      </trkpt>
      <trkpt lat="47.25479" lon="-2.32596">
        <ele>38.400001525879</ele>
        <time>2021-02-07T11:31:30.000Z</time>
      </trkpt>
      <trkpt lat="47.25477" lon="-2.3259">
        <ele>38.799999237061</ele>
        <time>2021-02-07T11:31:31.000Z</time>
      </trkpt>
      <trkpt lat="47.2548" lon="-2.32573">
        <ele>38.799999237061</ele>
        <time>2021-02-07T11:31:34.000Z</time>
      </trkpt>
      <trkpt lat="47.25482" lon="-2.32567">
        <ele>38.799999237061</ele>
        <time>2021-02-07T11:31:35.000Z</time>
      </trkpt>
      <trkpt lat="47.25488" lon="-2.32557">
        <ele>38.799999237061</ele>
        <time>2021-02-07T11:31:37.000Z</time>
      </trkpt>
      <trkpt lat="47.255" lon="-2.32545">
        <ele>38.799999237061</ele>
        <time>2021-02-07T11:31:40.000Z</time>
      </trkpt>
      <trkpt lat="47.25531" lon="-2.32514">
        <ele>38.799999237061</ele>
        <time>2021-02-07T11:31:47.000Z</time>
      </trkpt>
      <trkpt lat="47.25536" lon="-2.32509">
        <ele>38.799999237061</ele>
        <time>2021-02-07T11:31:48.000Z</time>
      </trkpt>
      <trkpt lat="47.25552" lon="-2.32495">
        <ele>38.400001525879</ele>
        <time>2021-02-07T11:31:51.000Z</time>
      </trkpt>
      <trkpt lat="47.25557" lon="-2.3249">
        <ele>38</ele>
        <time>2021-02-07T11:31:52.000Z</time>
      </trkpt>
      <trkpt lat="47.25562" lon="-2.32485">
        <ele>37.599998474121</ele>
        <time>2021-02-07T11:31:53.000Z</time>
      </trkpt>
      <trkpt lat="47.25568" lon="-2.3248">
        <ele>37.200000762939</ele>
        <time>2021-02-07T11:31:54.000Z</time>
      </trkpt>
      <trkpt lat="47.25573" lon="-2.32475">
        <ele>36.799999237061</ele>
        <time>2021-02-07T11:31:55.000Z</time>
      </trkpt>
      <trkpt lat="47.25596" lon="-2.32452">
        <ele>36.400001525879</ele>
        <time>2021-02-07T11:31:59.000Z</time>
      </trkpt>
      <trkpt lat="47.25601" lon="-2.32445">
        <ele>35.799999237061</ele>
        <time>2021-02-07T11:32:00.000Z</time>
      </trkpt>
      <trkpt lat="47.25607" lon="-2.32439">
        <ele>35.400001525879</ele>
        <time>2021-02-07T11:32:01.000Z</time>
      </trkpt>
      <trkpt lat="47.25613" lon="-2.32433">
        <ele>35</ele>
        <time>2021-02-07T11:32:02.000Z</time>
      </trkpt>
      <trkpt lat="47.25619" lon="-2.32428">
        <ele>34.599998474121</ele>
        <time>2021-02-07T11:32:03.000Z</time>
      </trkpt>
      <trkpt lat="47.25642" lon="-2.32404">
        <ele>34.200000762939</ele>
        <time>2021-02-07T11:32:07.000Z</time>
      </trkpt>
      <trkpt lat="47.25647" lon="-2.32401">
        <ele>33.799999237061</ele>
        <time>2021-02-07T11:32:08.000Z</time>
      </trkpt>
      <trkpt lat="47.25653" lon="-2.32399">
        <ele>33.200000762939</ele>
        <time>2021-02-07T11:32:09.000Z</time>
      </trkpt>
      <trkpt lat="47.25659" lon="-2.32399">
        <ele>32.799999237061</ele>
        <time>2021-02-07T11:32:10.000Z</time>
      </trkpt>
      <trkpt lat="47.25664" lon="-2.32401">
        <ele>32.400001525879</ele>
        <time>2021-02-07T11:32:11.000Z</time>
      </trkpt>
      <trkpt lat="47.25674" lon="-2.3241">
        <ele>32.400001525879</ele>
        <time>2021-02-07T11:32:13.000Z</time>
      </trkpt>
      <trkpt lat="47.25679" lon="-2.32415">
        <ele>32.400001525879</ele>
        <time>2021-02-07T11:32:14.000Z</time>
      </trkpt>
      <trkpt lat="47.25684" lon="-2.32417">
        <ele>32.400001525879</ele>
        <time>2021-02-07T11:32:15.000Z</time>
      </trkpt>
      <trkpt lat="47.25696" lon="-2.32419">
        <ele>32.400001525879</ele>
        <time>2021-02-07T11:32:17.000Z</time>
      </trkpt>
      <trkpt lat="47.25738" lon="-2.32422">
        <ele>32.400001525879</ele>
        <time>2021-02-07T11:32:25.000Z</time>
      </trkpt>
      <trkpt lat="47.25756" lon="-2.32424">
        <ele>32.400001525879</ele>
        <time>2021-02-07T11:32:29.000Z</time>
      </trkpt>
      <trkpt lat="47.2576" lon="-2.32422">
        <ele>32.400001525879</ele>
        <time>2021-02-07T11:32:30.000Z</time>
      </trkpt>
      <trkpt lat="47.25778" lon="-2.32412">
        <ele>32.400001525879</ele>
        <time>2021-02-07T11:32:35.000Z</time>
      </trkpt>
      <trkpt lat="47.25791" lon="-2.32424">
        <ele>32.400001525879</ele>
        <time>2021-02-07T11:32:38.000Z</time>
      </trkpt>
      <trkpt lat="47.25796" lon="-2.32437">
        <ele>32.400001525879</ele>
        <time>2021-02-07T11:32:40.000Z</time>
      </trkpt>
      <trkpt lat="47.25804" lon="-2.32448">
        <ele>32.400001525879</ele>
        <time>2021-02-07T11:32:42.000Z</time>
      </trkpt>
      <trkpt lat="47.25824" lon="-2.32462">
        <ele>32.400001525879</ele>
        <time>2021-02-07T11:32:46.000Z</time>
      </trkpt>
      <trkpt lat="47.25841" lon="-2.32469">
        <ele>32.400001525879</ele>
        <time>2021-02-07T11:32:49.000Z</time>
      </trkpt>
      <trkpt lat="47.25857" lon="-2.32473">
        <ele>32.400001525879</ele>
        <time>2021-02-07T11:32:52.000Z</time>
      </trkpt>
      <trkpt lat="47.25862" lon="-2.32473">
        <ele>32.400001525879</ele>
        <time>2021-02-07T11:32:53.000Z</time>
      </trkpt>
      <trkpt lat="47.25882" lon="-2.3247">
        <ele>32.400001525879</ele>
        <time>2021-02-07T11:32:57.000Z</time>
      </trkpt>
      <trkpt lat="47.25892" lon="-2.32467">
        <ele>32.400001525879</ele>
        <time>2021-02-07T11:32:59.000Z</time>
      </trkpt>
      <trkpt lat="47.25902" lon="-2.32458">
        <ele>32.400001525879</ele>
        <time>2021-02-07T11:33:01.000Z</time>
      </trkpt>
      <trkpt lat="47.2591" lon="-2.32447">
        <ele>32.400001525879</ele>
        <time>2021-02-07T11:33:03.000Z</time>
      </trkpt>
      <trkpt lat="47.25923" lon="-2.3243">
        <ele>32</ele>
        <time>2021-02-07T11:33:06.000Z</time>
      </trkpt>
      <trkpt lat="47.25927" lon="-2.32424">
        <ele>31.60000038147</ele>
        <time>2021-02-07T11:33:07.000Z</time>
      </trkpt>
      <trkpt lat="47.25931" lon="-2.32418">
        <ele>31.200000762939</ele>
        <time>2021-02-07T11:33:08.000Z</time>
      </trkpt>
      <trkpt lat="47.25935" lon="-2.32413">
        <ele>30.799999237061</ele>
        <time>2021-02-07T11:33:09.000Z</time>
      </trkpt>
      <trkpt lat="47.25939" lon="-2.32408">
        <ele>30.200000762939</ele>
        <time>2021-02-07T11:33:10.000Z</time>
      </trkpt>
      <trkpt lat="47.25963" lon="-2.32376">
        <ele>30.200000762939</ele>
        <time>2021-02-07T11:33:16.000Z</time>
      </trkpt>
      <trkpt lat="47.25993" lon="-2.32339">
        <ele>30.200000762939</ele>
        <time>2021-02-07T11:33:23.000Z</time>
      </trkpt>
      <trkpt lat="47.26025" lon="-2.32296">
        <ele>30.200000762939</ele>
        <time>2021-02-07T11:33:31.000Z</time>
      </trkpt>
      <trkpt lat="47.26056" lon="-2.32263">
        <ele>30.200000762939</ele>
        <time>2021-02-07T11:33:38.000Z</time>
      </trkpt>
      <trkpt lat="47.26085" lon="-2.32226">
        <ele>30.200000762939</ele>
        <time>2021-02-07T11:33:45.000Z</time>
      </trkpt>
      <trkpt lat="47.26106" lon="-2.32189">
        <ele>30.200000762939</ele>
        <time>2021-02-07T11:33:51.000Z</time>
      </trkpt>
      <trkpt lat="47.2612" lon="-2.32155">
        <ele>30.200000762939</ele>
        <time>2021-02-07T11:33:56.000Z</time>
      </trkpt>
      <trkpt lat="47.26122" lon="-2.32148">
        <ele>30.200000762939</ele>
        <time>2021-02-07T11:33:57.000Z</time>
      </trkpt>
      <trkpt lat="47.26139" lon="-2.32087">
        <ele>30.200000762939</ele>
        <time>2021-02-07T11:34:05.000Z</time>
      </trkpt>
      <trkpt lat="47.26157" lon="-2.3203">
        <ele>30.200000762939</ele>
        <time>2021-02-07T11:34:13.000Z</time>
      </trkpt>
      <trkpt lat="47.26161" lon="-2.32025">
        <ele>30.200000762939</ele>
        <time>2021-02-07T11:34:14.000Z</time>
      </trkpt>
      <trkpt lat="47.26174" lon="-2.32019">
        <ele>30.200000762939</ele>
        <time>2021-02-07T11:34:17.000Z</time>
      </trkpt>
      <trkpt lat="47.26182" lon="-2.3202">
        <ele>30.200000762939</ele>
        <time>2021-02-07T11:34:19.000Z</time>
      </trkpt>
      <trkpt lat="47.26187" lon="-2.32021">
        <ele>30.200000762939</ele>
        <time>2021-02-07T11:34:21.000Z</time>
      </trkpt>
      <trkpt lat="47.26193" lon="-2.32022">
        <ele>30.200000762939</ele>
        <time>2021-02-07T11:34:24.000Z</time>
      </trkpt>
      <trkpt lat="47.26196" lon="-2.32017">
        <ele>30.200000762939</ele>
        <time>2021-02-07T11:34:26.000Z</time>
      </trkpt>
      <trkpt lat="47.26197" lon="-2.32007">
        <ele>29.799999237061</ele>
        <time>2021-02-07T11:34:29.000Z</time>
      </trkpt>
      <trkpt lat="47.26198" lon="-2.32005">
        <ele>29.39999961853</ele>
        <time>2021-02-07T11:34:30.000Z</time>
      </trkpt>
      <trkpt lat="47.26199" lon="-2.32003">
        <ele>29</ele>
        <time>2021-02-07T11:34:31.000Z</time>
      </trkpt>
      <trkpt lat="47.26201" lon="-2.32002">
        <ele>28.60000038147</ele>
        <time>2021-02-07T11:34:32.000Z</time>
      </trkpt>
      <trkpt lat="47.26203" lon="-2.32001">
        <ele>28.200000762939</ele>
        <time>2021-02-07T11:34:33.000Z</time>
      </trkpt>
      <trkpt lat="47.26209" lon="-2.31995">
        <ele>28.200000762939</ele>
        <time>2021-02-07T11:34:36.000Z</time>
      </trkpt>
      <trkpt lat="47.26211" lon="-2.31993">
        <ele>28.200000762939</ele>
        <time>2021-02-07T11:34:37.000Z</time>
      </trkpt>
      <trkpt lat="47.26222" lon="-2.3198">
        <ele>28.200000762939</ele>
        <time>2021-02-07T11:34:41.000Z</time>
      </trkpt>
      <trkpt lat="47.26225" lon="-2.31978">
        <ele>28.200000762939</ele>
        <time>2021-02-07T11:34:42.000Z</time>
      </trkpt>
      <trkpt lat="47.26234" lon="-2.31977">
        <ele>28.200000762939</ele>
        <time>2021-02-07T11:34:45.000Z</time>
      </trkpt>
      <trkpt lat="47.26237" lon="-2.31975">
        <ele>28.200000762939</ele>
        <time>2021-02-07T11:34:46.000Z</time>
      </trkpt>
      <trkpt lat="47.26242" lon="-2.31964">
        <ele>28.200000762939</ele>
        <time>2021-02-07T11:34:49.000Z</time>
      </trkpt>
      <trkpt lat="47.2625" lon="-2.31948">
        <ele>28.200000762939</ele>
        <time>2021-02-07T11:34:54.000Z</time>
      </trkpt>
      <trkpt lat="47.26252" lon="-2.31946">
        <ele>28.200000762939</ele>
        <time>2021-02-07T11:34:55.000Z</time>
      </trkpt>
      <trkpt lat="47.2626" lon="-2.31933">
        <ele>28.200000762939</ele>
        <time>2021-02-07T11:35:00.000Z</time>
      </trkpt>
      <trkpt lat="47.26262" lon="-2.31929">
        <ele>28.200000762939</ele>
        <time>2021-02-07T11:35:01.000Z</time>
      </trkpt>
      <trkpt lat="47.26277" lon="-2.31909">
        <ele>28.200000762939</ele>
        <time>2021-02-07T11:35:07.000Z</time>
      </trkpt>
      <trkpt lat="47.26292" lon="-2.31893">
        <ele>28.200000762939</ele>
        <time>2021-02-07T11:35:12.000Z</time>
      </trkpt>
      <trkpt lat="47.26298" lon="-2.31874">
        <ele>28.200000762939</ele>
        <time>2021-02-07T11:35:16.000Z</time>
      </trkpt>
      <trkpt lat="47.263" lon="-2.31836">
        <ele>28.200000762939</ele>
        <time>2021-02-07T11:35:24.000Z</time>
      </trkpt>
      <trkpt lat="47.26301" lon="-2.31807">
        <ele>28.200000762939</ele>
        <time>2021-02-07T11:35:29.000Z</time>
      </trkpt>
      <trkpt lat="47.26304" lon="-2.3177">
        <ele>28.200000762939</ele>
        <time>2021-02-07T11:35:35.000Z</time>
      </trkpt>
      <trkpt lat="47.26301" lon="-2.31732">
        <ele>28.200000762939</ele>
        <time>2021-02-07T11:35:41.000Z</time>
      </trkpt>
      <trkpt lat="47.26302" lon="-2.31721">
        <ele>28.200000762939</ele>
        <time>2021-02-07T11:35:43.000Z</time>
      </trkpt>
      <trkpt lat="47.26308" lon="-2.31714">
        <ele>28.200000762939</ele>
        <time>2021-02-07T11:35:45.000Z</time>
      </trkpt>
      <trkpt lat="47.26316" lon="-2.3171">
        <ele>28.60000038147</ele>
        <time>2021-02-07T11:35:47.000Z</time>
      </trkpt>
      <trkpt lat="47.2632" lon="-2.31708">
        <ele>29.200000762939</ele>
        <time>2021-02-07T11:35:48.000Z</time>
      </trkpt>
      <trkpt lat="47.26324" lon="-2.31706">
        <ele>29.60000038147</ele>
        <time>2021-02-07T11:35:49.000Z</time>
      </trkpt>
      <trkpt lat="47.26328" lon="-2.31703">
        <ele>30</ele>
        <time>2021-02-07T11:35:50.000Z</time>
      </trkpt>
      <trkpt lat="47.26331" lon="-2.31699">
        <ele>30.39999961853</ele>
        <time>2021-02-07T11:35:51.000Z</time>
      </trkpt>
      <trkpt lat="47.26332" lon="-2.31695">
        <ele>30.39999961853</ele>
        <time>2021-02-07T11:35:52.000Z</time>
      </trkpt>
      <trkpt lat="47.26337" lon="-2.31687">
        <ele>30.39999961853</ele>
        <time>2021-02-07T11:35:54.000Z</time>
      </trkpt>
      <trkpt lat="47.26344" lon="-2.31684">
        <ele>30.39999961853</ele>
        <time>2021-02-07T11:35:56.000Z</time>
      </trkpt>
      <trkpt lat="47.2635" lon="-2.31682">
        <ele>30.799999237061</ele>
        <time>2021-02-07T11:35:58.000Z</time>
      </trkpt>
      <trkpt lat="47.26354" lon="-2.3168">
        <ele>31.39999961853</ele>
        <time>2021-02-07T11:35:59.000Z</time>
      </trkpt>
      <trkpt lat="47.26357" lon="-2.31679">
        <ele>31.799999237061</ele>
        <time>2021-02-07T11:36:00.000Z</time>
      </trkpt>
      <trkpt lat="47.26361" lon="-2.31677">
        <ele>32.200000762939</ele>
        <time>2021-02-07T11:36:01.000Z</time>
      </trkpt>
      <trkpt lat="47.26364" lon="-2.31676">
        <ele>32.799999237061</ele>
        <time>2021-02-07T11:36:02.000Z</time>
      </trkpt>
      <trkpt lat="47.26375" lon="-2.31671">
        <ele>32.799999237061</ele>
        <time>2021-02-07T11:36:05.000Z</time>
      </trkpt>
      <trkpt lat="47.26393" lon="-2.31661">
        <ele>32.799999237061</ele>
        <time>2021-02-07T11:36:10.000Z</time>
      </trkpt>
      <trkpt lat="47.2641" lon="-2.31651">
        <ele>32.799999237061</ele>
        <time>2021-02-07T11:36:16.000Z</time>
      </trkpt>
      <trkpt lat="47.26412" lon="-2.31646">
        <ele>32.799999237061</ele>
        <time>2021-02-07T11:36:17.000Z</time>
      </trkpt>
      <trkpt lat="47.26411" lon="-2.31637">
        <ele>32.799999237061</ele>
        <time>2021-02-07T11:36:19.000Z</time>
      </trkpt>
      <trkpt lat="47.26411" lon="-2.31626">
        <ele>32.799999237061</ele>
        <time>2021-02-07T11:36:21.000Z</time>
      </trkpt>
      <trkpt lat="47.26411" lon="-2.31604">
        <ele>32.799999237061</ele>
        <time>2021-02-07T11:36:25.000Z</time>
      </trkpt>
      <trkpt lat="47.26411" lon="-2.31587">
        <ele>33.599998474121</ele>
        <time>2021-02-07T11:36:28.000Z</time>
      </trkpt>
      <trkpt lat="47.26411" lon="-2.31582">
        <ele>34</ele>
        <time>2021-02-07T11:36:29.000Z</time>
      </trkpt>
      <trkpt lat="47.26411" lon="-2.31577">
        <ele>34.400001525879</ele>
        <time>2021-02-07T11:36:30.000Z</time>
      </trkpt>
      <trkpt lat="47.26411" lon="-2.31572">
        <ele>34.799999237061</ele>
        <time>2021-02-07T11:36:31.000Z</time>
      </trkpt>
      <trkpt lat="47.26412" lon="-2.31551">
        <ele>34.799999237061</ele>
        <time>2021-02-07T11:36:36.000Z</time>
      </trkpt>
      <trkpt lat="47.26415" lon="-2.3155">
        <ele>34.799999237061</ele>
        <time>2021-02-07T11:36:38.000Z</time>
      </trkpt>
      <trkpt lat="47.26416" lon="-2.3155">
        <ele>34.799999237061</ele>
        <time>2021-02-07T11:36:39.000Z</time>
      </trkpt>
      <trkpt lat="47.26417" lon="-2.31551">
        <ele>34.799999237061</ele>
        <time>2021-02-07T11:36:41.000Z</time>
      </trkpt>
    </trkseg>
  </trk>
</gpx>